<?xml version="1.0" encoding="UTF-8" standalone="no" ?>
<gpx xmlns="http://www.topografix.com/GPX/1/1" xmlns:xsi="http://www.w3.org/2001/XMLSchema-instance" xsi:schemaLocation="http://www.topografix.com/GPX/1/1 http://www.topografix.com/GPX/1/1/gpx.xsd" version="1.1" creator="VisuGPX - https://www.visugpx.com">
  <metadata>
    <name>lundi 2015 02 16</name>
    <desc><![CDATA[rando du lundi]]></desc>
  </metadata>
  <trk>
    <name><![CDATA[16/02/2015 20:20]]></name>
    <desc><![CDATA[]]></desc>
    <trkseg>
      <trkpt lat="48.85738" lon="2.34736">
        <ele>92.3</ele>
        <time>2015-02-16T19:20:30.309Z</time>
      </trkpt>
      <trkpt lat="48.85745" lon="2.34743">
        <ele>91.3</ele>
        <time>2015-02-16T19:20:50.595Z</time>
      </trkpt>
      <trkpt lat="48.85748" lon="2.34744">
        <ele>91.4</ele>
        <time>2015-02-16T19:20:51.603Z</time>
      </trkpt>
      <trkpt lat="48.85755" lon="2.34748">
        <ele>91.5</ele>
        <time>2015-02-16T19:20:56.114Z</time>
      </trkpt>
      <trkpt lat="48.85756" lon="2.3475">
        <ele>91.4</ele>
        <time>2015-02-16T19:20:56.717Z</time>
      </trkpt>
      <trkpt lat="48.85759" lon="2.34757">
        <ele>91.4</ele>
        <time>2015-02-16T19:21:04.621Z</time>
      </trkpt>
      <trkpt lat="48.85759" lon="2.34757">
        <ele>91.4</ele>
        <time>2015-02-16T19:21:05.671Z</time>
      </trkpt>
      <trkpt lat="48.8576" lon="2.34757">
        <ele>91.1</ele>
        <time>2015-02-16T19:21:09.709Z</time>
      </trkpt>
      <trkpt lat="48.85761" lon="2.34759">
        <ele>91</ele>
        <time>2015-02-16T19:21:10.715Z</time>
      </trkpt>
      <trkpt lat="48.85763" lon="2.3477">
        <ele>91.2</ele>
        <time>2015-02-16T19:21:15.650Z</time>
      </trkpt>
      <trkpt lat="48.85765" lon="2.34774">
        <ele>90.4</ele>
        <time>2015-02-16T19:21:16.646Z</time>
      </trkpt>
      <trkpt lat="48.85769" lon="2.34785">
        <ele>89.9</ele>
        <time>2015-02-16T19:21:21.684Z</time>
      </trkpt>
      <trkpt lat="48.8577" lon="2.34786">
        <ele>89.9</ele>
        <time>2015-02-16T19:21:22.648Z</time>
      </trkpt>
      <trkpt lat="48.85779" lon="2.3479">
        <ele>89.6</ele>
        <time>2015-02-16T19:21:37.668Z</time>
      </trkpt>
      <trkpt lat="48.85782" lon="2.34791">
        <ele>89.7</ele>
        <time>2015-02-16T19:21:38.699Z</time>
      </trkpt>
      <trkpt lat="48.85788" lon="2.34794">
        <ele>90</ele>
        <time>2015-02-16T19:21:40.616Z</time>
      </trkpt>
      <trkpt lat="48.85791" lon="2.34795">
        <ele>90</ele>
        <time>2015-02-16T19:21:41.673Z</time>
      </trkpt>
      <trkpt lat="48.85798" lon="2.34799">
        <ele>90.4</ele>
        <time>2015-02-16T19:21:43.725Z</time>
      </trkpt>
      <trkpt lat="48.85801" lon="2.34801">
        <ele>90.7</ele>
        <time>2015-02-16T19:21:44.672Z</time>
      </trkpt>
      <trkpt lat="48.85807" lon="2.34804">
        <ele>91.2</ele>
        <time>2015-02-16T19:21:46.639Z</time>
      </trkpt>
      <trkpt lat="48.8581" lon="2.34807">
        <ele>91.2</ele>
        <time>2015-02-16T19:21:47.677Z</time>
      </trkpt>
      <trkpt lat="48.85817" lon="2.34811">
        <ele>91.4</ele>
        <time>2015-02-16T19:21:50.732Z</time>
      </trkpt>
      <trkpt lat="48.8582" lon="2.34812">
        <ele>91.3</ele>
        <time>2015-02-16T19:21:51.600Z</time>
      </trkpt>
      <trkpt lat="48.85826" lon="2.34815">
        <ele>91.4</ele>
        <time>2015-02-16T19:21:54.721Z</time>
      </trkpt>
      <trkpt lat="48.85829" lon="2.34816">
        <ele>91.5</ele>
        <time>2015-02-16T19:21:55.708Z</time>
      </trkpt>
      <trkpt lat="48.85836" lon="2.34819">
        <ele>91.6</ele>
        <time>2015-02-16T19:21:58.698Z</time>
      </trkpt>
      <trkpt lat="48.85839" lon="2.3482">
        <ele>91.6</ele>
        <time>2015-02-16T19:21:59.706Z</time>
      </trkpt>
      <trkpt lat="48.85847" lon="2.34821">
        <ele>91.3</ele>
        <time>2015-02-16T19:22:01.671Z</time>
      </trkpt>
      <trkpt lat="48.8585" lon="2.34822">
        <ele>91.4</ele>
        <time>2015-02-16T19:22:02.725Z</time>
      </trkpt>
      <trkpt lat="48.85857" lon="2.34825">
        <ele>91.4</ele>
        <time>2015-02-16T19:22:04.671Z</time>
      </trkpt>
      <trkpt lat="48.8586" lon="2.34827">
        <ele>91.5</ele>
        <time>2015-02-16T19:22:05.734Z</time>
      </trkpt>
      <trkpt lat="48.85866" lon="2.34831">
        <ele>91.7</ele>
        <time>2015-02-16T19:22:07.646Z</time>
      </trkpt>
      <trkpt lat="48.85869" lon="2.34833">
        <ele>91.8</ele>
        <time>2015-02-16T19:22:08.676Z</time>
      </trkpt>
      <trkpt lat="48.85876" lon="2.34838">
        <ele>92.1</ele>
        <time>2015-02-16T19:22:10.619Z</time>
      </trkpt>
      <trkpt lat="48.85879" lon="2.34841">
        <ele>92.2</ele>
        <time>2015-02-16T19:22:11.638Z</time>
      </trkpt>
      <trkpt lat="48.85876" lon="2.34848">
        <ele>92.9</ele>
        <time>2015-02-16T19:22:14.649Z</time>
      </trkpt>
      <trkpt lat="48.85874" lon="2.34853">
        <ele>93.2</ele>
        <time>2015-02-16T19:22:15.666Z</time>
      </trkpt>
      <trkpt lat="48.8587" lon="2.34862">
        <ele>93.3</ele>
        <time>2015-02-16T19:22:17.688Z</time>
      </trkpt>
      <trkpt lat="48.85868" lon="2.34865">
        <ele>93.3</ele>
        <time>2015-02-16T19:22:18.612Z</time>
      </trkpt>
      <trkpt lat="48.85863" lon="2.3487">
        <ele>93.3</ele>
        <time>2015-02-16T19:22:20.632Z</time>
      </trkpt>
      <trkpt lat="48.8586" lon="2.34872">
        <ele>93.2</ele>
        <time>2015-02-16T19:22:21.677Z</time>
      </trkpt>
      <trkpt lat="48.85855" lon="2.34877">
        <ele>93</ele>
        <time>2015-02-16T19:22:23.586Z</time>
      </trkpt>
      <trkpt lat="48.85851" lon="2.34879">
        <ele>92.9</ele>
        <time>2015-02-16T19:22:24.602Z</time>
      </trkpt>
      <trkpt lat="48.85843" lon="2.34885">
        <ele>92.3</ele>
        <time>2015-02-16T19:22:26.619Z</time>
      </trkpt>
      <trkpt lat="48.85839" lon="2.34888">
        <ele>92.1</ele>
        <time>2015-02-16T19:22:27.636Z</time>
      </trkpt>
      <trkpt lat="48.85835" lon="2.34898">
        <ele>92</ele>
        <time>2015-02-16T19:22:29.660Z</time>
      </trkpt>
      <trkpt lat="48.85835" lon="2.34903">
        <ele>92.2</ele>
        <time>2015-02-16T19:22:30.612Z</time>
      </trkpt>
      <trkpt lat="48.8583" lon="2.34911">
        <ele>92.4</ele>
        <time>2015-02-16T19:22:32.661Z</time>
      </trkpt>
      <trkpt lat="48.85828" lon="2.34916">
        <ele>92.5</ele>
        <time>2015-02-16T19:22:33.671Z</time>
      </trkpt>
      <trkpt lat="48.85821" lon="2.3492">
        <ele>92.6</ele>
        <time>2015-02-16T19:22:35.590Z</time>
      </trkpt>
      <trkpt lat="48.85818" lon="2.34921">
        <ele>92.8</ele>
        <time>2015-02-16T19:22:36.592Z</time>
      </trkpt>
      <trkpt lat="48.85809" lon="2.34926">
        <ele>93.1</ele>
        <time>2015-02-16T19:22:38.663Z</time>
      </trkpt>
      <trkpt lat="48.85806" lon="2.34928">
        <ele>93.4</ele>
        <time>2015-02-16T19:22:39.674Z</time>
      </trkpt>
      <trkpt lat="48.85799" lon="2.34931">
        <ele>94</ele>
        <time>2015-02-16T19:22:41.610Z</time>
      </trkpt>
      <trkpt lat="48.85796" lon="2.34933">
        <ele>94.3</ele>
        <time>2015-02-16T19:22:42.773Z</time>
      </trkpt>
      <trkpt lat="48.85789" lon="2.34941">
        <ele>95.2</ele>
        <time>2015-02-16T19:22:45.623Z</time>
      </trkpt>
      <trkpt lat="48.85786" lon="2.34945">
        <ele>95.6</ele>
        <time>2015-02-16T19:22:46.634Z</time>
      </trkpt>
      <trkpt lat="48.85784" lon="2.3495">
        <ele>95.9</ele>
        <time>2015-02-16T19:22:47.638Z</time>
      </trkpt>
      <trkpt lat="48.85826" lon="2.35179">
        <ele>92</ele>
        <time>2015-02-16T19:23:57.643Z</time>
      </trkpt>
      <trkpt lat="48.85824" lon="2.3519">
        <ele>91.7</ele>
        <time>2015-02-16T19:24:01.628Z</time>
      </trkpt>
      <trkpt lat="48.85823" lon="2.35194">
        <ele>91.7</ele>
        <time>2015-02-16T19:24:02.634Z</time>
      </trkpt>
      <trkpt lat="48.85818" lon="2.35204">
        <ele>91.8</ele>
        <time>2015-02-16T19:24:05.557Z</time>
      </trkpt>
      <trkpt lat="48.85814" lon="2.35207">
        <ele>91.6</ele>
        <time>2015-02-16T19:24:06.578Z</time>
      </trkpt>
      <trkpt lat="48.85809" lon="2.35211">
        <ele>91.2</ele>
        <time>2015-02-16T19:24:07.619Z</time>
      </trkpt>
      <trkpt lat="48.85804" lon="2.35213">
        <ele>91.5</ele>
        <time>2015-02-16T19:24:08.641Z</time>
      </trkpt>
      <trkpt lat="48.85758" lon="2.35256">
        <ele>95</ele>
        <time>2015-02-16T19:24:22.637Z</time>
      </trkpt>
      <trkpt lat="48.85758" lon="2.35258">
        <ele>95</ele>
        <time>2015-02-16T19:24:23.673Z</time>
      </trkpt>
      <trkpt lat="48.85763" lon="2.35267">
        <ele>94.5</ele>
        <time>2015-02-16T19:24:24.580Z</time>
      </trkpt>
      <trkpt lat="48.85769" lon="2.35276">
        <ele>93.1</ele>
        <time>2015-02-16T19:24:27.580Z</time>
      </trkpt>
      <trkpt lat="48.85771" lon="2.35276">
        <ele>92.1</ele>
        <time>2015-02-16T19:24:28.655Z</time>
      </trkpt>
      <trkpt lat="48.85778" lon="2.35277">
        <ele>90.2</ele>
        <time>2015-02-16T19:24:30.571Z</time>
      </trkpt>
      <trkpt lat="48.85781" lon="2.3528">
        <ele>88.9</ele>
        <time>2015-02-16T19:24:31.609Z</time>
      </trkpt>
      <trkpt lat="48.85787" lon="2.35285">
        <ele>86.4</ele>
        <time>2015-02-16T19:24:34.575Z</time>
      </trkpt>
      <trkpt lat="48.8579" lon="2.35288">
        <ele>86.4</ele>
        <time>2015-02-16T19:24:35.586Z</time>
      </trkpt>
      <trkpt lat="48.85796" lon="2.35293">
        <ele>82.3</ele>
        <time>2015-02-16T19:24:37.642Z</time>
      </trkpt>
      <trkpt lat="48.85799" lon="2.35297">
        <ele>79.9</ele>
        <time>2015-02-16T19:24:38.563Z</time>
      </trkpt>
      <trkpt lat="48.85807" lon="2.35301">
        <ele>74.9</ele>
        <time>2015-02-16T19:24:40.586Z</time>
      </trkpt>
      <trkpt lat="48.85811" lon="2.35302">
        <ele>72.3</ele>
        <time>2015-02-16T19:24:41.600Z</time>
      </trkpt>
      <trkpt lat="48.85817" lon="2.35303">
        <ele>77.6</ele>
        <time>2015-02-16T19:24:44.649Z</time>
      </trkpt>
      <trkpt lat="48.8582" lon="2.35304">
        <ele>77.6</ele>
        <time>2015-02-16T19:24:45.659Z</time>
      </trkpt>
      <trkpt lat="48.85826" lon="2.3531">
        <ele>76.2</ele>
        <time>2015-02-16T19:24:47.605Z</time>
      </trkpt>
      <trkpt lat="48.85829" lon="2.35312">
        <ele>76.1</ele>
        <time>2015-02-16T19:24:48.606Z</time>
      </trkpt>
      <trkpt lat="48.85833" lon="2.35315">
        <ele>75.1</ele>
        <time>2015-02-16T19:24:50.093Z</time>
      </trkpt>
      <trkpt lat="48.85837" lon="2.35319">
        <ele>74.4</ele>
        <time>2015-02-16T19:24:50.597Z</time>
      </trkpt>
      <trkpt lat="48.85846" lon="2.35328">
        <ele>73.3</ele>
        <time>2015-02-16T19:24:52.580Z</time>
      </trkpt>
      <trkpt lat="48.8586" lon="2.35344">
        <ele>71.5</ele>
        <time>2015-02-16T19:24:55.619Z</time>
      </trkpt>
      <trkpt lat="48.85865" lon="2.3535">
        <ele>71</ele>
        <time>2015-02-16T19:24:57.352Z</time>
      </trkpt>
      <trkpt lat="48.85876" lon="2.35358">
        <ele>71.2</ele>
        <time>2015-02-16T19:24:58.634Z</time>
      </trkpt>
      <trkpt lat="48.85886" lon="2.35365">
        <ele>70.9</ele>
        <time>2015-02-16T19:25:00.603Z</time>
      </trkpt>
      <trkpt lat="48.85891" lon="2.35368">
        <ele>70.5</ele>
        <time>2015-02-16T19:25:01.635Z</time>
      </trkpt>
      <trkpt lat="48.85894" lon="2.35371">
        <ele>70.3</ele>
        <time>2015-02-16T19:25:02.626Z</time>
      </trkpt>
      <trkpt lat="48.85899" lon="2.35373">
        <ele>70.2</ele>
        <time>2015-02-16T19:25:03.643Z</time>
      </trkpt>
      <trkpt lat="48.85904" lon="2.35375">
        <ele>70.1</ele>
        <time>2015-02-16T19:25:04.651Z</time>
      </trkpt>
      <trkpt lat="48.85909" lon="2.35379">
        <ele>70.6</ele>
        <time>2015-02-16T19:25:05.598Z</time>
      </trkpt>
      <trkpt lat="48.85914" lon="2.35382">
        <ele>71</ele>
        <time>2015-02-16T19:25:06.613Z</time>
      </trkpt>
      <trkpt lat="48.85918" lon="2.35387">
        <ele>71.2</ele>
        <time>2015-02-16T19:25:07.617Z</time>
      </trkpt>
      <trkpt lat="48.85923" lon="2.35391">
        <ele>70.8</ele>
        <time>2015-02-16T19:25:08.660Z</time>
      </trkpt>
      <trkpt lat="48.85927" lon="2.35395">
        <ele>70.2</ele>
        <time>2015-02-16T19:25:10.490Z</time>
      </trkpt>
      <trkpt lat="48.85932" lon="2.35398">
        <ele>70.3</ele>
        <time>2015-02-16T19:25:10.569Z</time>
      </trkpt>
      <trkpt lat="48.85937" lon="2.35402">
        <ele>70</ele>
        <time>2015-02-16T19:25:11.581Z</time>
      </trkpt>
      <trkpt lat="48.85942" lon="2.35407">
        <ele>69.3</ele>
        <time>2015-02-16T19:25:12.594Z</time>
      </trkpt>
      <trkpt lat="48.85952" lon="2.3542">
        <ele>64.5</ele>
        <time>2015-02-16T19:25:13.606Z</time>
      </trkpt>
      <trkpt lat="48.85955" lon="2.35424">
        <ele>64.5</ele>
        <time>2015-02-16T19:25:14.626Z</time>
      </trkpt>
      <trkpt lat="48.85961" lon="2.35433">
        <ele>64.7</ele>
        <time>2015-02-16T19:25:16.570Z</time>
      </trkpt>
      <trkpt lat="48.85967" lon="2.3544">
        <ele>65.5</ele>
        <time>2015-02-16T19:25:18.582Z</time>
      </trkpt>
      <trkpt lat="48.85971" lon="2.35443">
        <ele>66.5</ele>
        <time>2015-02-16T19:25:19.724Z</time>
      </trkpt>
      <trkpt lat="48.85978" lon="2.35449">
        <ele>67.3</ele>
        <time>2015-02-16T19:25:21.573Z</time>
      </trkpt>
      <trkpt lat="48.85981" lon="2.35452">
        <ele>67.5</ele>
        <time>2015-02-16T19:25:22.603Z</time>
      </trkpt>
      <trkpt lat="48.85987" lon="2.35462">
        <ele>68.1</ele>
        <time>2015-02-16T19:25:24.618Z</time>
      </trkpt>
      <trkpt lat="48.85991" lon="2.35465">
        <ele>68.6</ele>
        <time>2015-02-16T19:25:25.744Z</time>
      </trkpt>
      <trkpt lat="48.85995" lon="2.35468">
        <ele>68.9</ele>
        <time>2015-02-16T19:25:26.572Z</time>
      </trkpt>
      <trkpt lat="48.85999" lon="2.35472">
        <ele>69.2</ele>
        <time>2015-02-16T19:25:27.579Z</time>
      </trkpt>
      <trkpt lat="48.86005" lon="2.35478">
        <ele>69.1</ele>
        <time>2015-02-16T19:25:30.365Z</time>
      </trkpt>
      <trkpt lat="48.86008" lon="2.35482">
        <ele>69.5</ele>
        <time>2015-02-16T19:25:30.556Z</time>
      </trkpt>
      <trkpt lat="48.86015" lon="2.35489">
        <ele>69.8</ele>
        <time>2015-02-16T19:25:32.634Z</time>
      </trkpt>
      <trkpt lat="48.86019" lon="2.35492">
        <ele>69.7</ele>
        <time>2015-02-16T19:25:33.654Z</time>
      </trkpt>
      <trkpt lat="48.86025" lon="2.35502">
        <ele>70.3</ele>
        <time>2015-02-16T19:25:36.643Z</time>
      </trkpt>
      <trkpt lat="48.86027" lon="2.35505">
        <ele>70.7</ele>
        <time>2015-02-16T19:25:37.727Z</time>
      </trkpt>
      <trkpt lat="48.86086" lon="2.35579">
        <ele>78.3</ele>
        <time>2015-02-16T19:25:53.628Z</time>
      </trkpt>
      <trkpt lat="48.8609" lon="2.35583">
        <ele>78.4</ele>
        <time>2015-02-16T19:25:54.594Z</time>
      </trkpt>
      <trkpt lat="48.86093" lon="2.35588">
        <ele>78.5</ele>
        <time>2015-02-16T19:25:55.594Z</time>
      </trkpt>
      <trkpt lat="48.86097" lon="2.35593">
        <ele>78.5</ele>
        <time>2015-02-16T19:25:56.594Z</time>
      </trkpt>
      <trkpt lat="48.8611" lon="2.35607">
        <ele>75</ele>
        <time>2015-02-16T19:25:58.626Z</time>
      </trkpt>
      <trkpt lat="48.86114" lon="2.35612">
        <ele>74.9</ele>
        <time>2015-02-16T19:25:59.626Z</time>
      </trkpt>
      <trkpt lat="48.86118" lon="2.35617">
        <ele>74.9</ele>
        <time>2015-02-16T19:26:00.646Z</time>
      </trkpt>
      <trkpt lat="48.86121" lon="2.35622">
        <ele>75.2</ele>
        <time>2015-02-16T19:26:01.618Z</time>
      </trkpt>
      <trkpt lat="48.86128" lon="2.35632">
        <ele>75.5</ele>
        <time>2015-02-16T19:26:03.733Z</time>
      </trkpt>
      <trkpt lat="48.86134" lon="2.35641">
        <ele>75.7</ele>
        <time>2015-02-16T19:26:06.056Z</time>
      </trkpt>
      <trkpt lat="48.86138" lon="2.35645">
        <ele>76</ele>
        <time>2015-02-16T19:26:06.776Z</time>
      </trkpt>
      <trkpt lat="48.86143" lon="2.35652">
        <ele>76.2</ele>
        <time>2015-02-16T19:26:08.596Z</time>
      </trkpt>
      <trkpt lat="48.86146" lon="2.35655">
        <ele>76.4</ele>
        <time>2015-02-16T19:26:09.610Z</time>
      </trkpt>
      <trkpt lat="48.86152" lon="2.35662">
        <ele>76.5</ele>
        <time>2015-02-16T19:26:11.632Z</time>
      </trkpt>
      <trkpt lat="48.86155" lon="2.35666">
        <ele>76.7</ele>
        <time>2015-02-16T19:26:12.634Z</time>
      </trkpt>
      <trkpt lat="48.8616" lon="2.35673">
        <ele>77.2</ele>
        <time>2015-02-16T19:26:14.654Z</time>
      </trkpt>
      <trkpt lat="48.86163" lon="2.35676">
        <ele>77.5</ele>
        <time>2015-02-16T19:26:15.670Z</time>
      </trkpt>
      <trkpt lat="48.8617" lon="2.35685">
        <ele>78.7</ele>
        <time>2015-02-16T19:26:17.604Z</time>
      </trkpt>
      <trkpt lat="48.86173" lon="2.35687">
        <ele>78.9</ele>
        <time>2015-02-16T19:26:18.598Z</time>
      </trkpt>
      <trkpt lat="48.86216" lon="2.35727">
        <ele>80.1</ele>
        <time>2015-02-16T19:26:31.635Z</time>
      </trkpt>
      <trkpt lat="48.86223" lon="2.35735">
        <ele>80.3</ele>
        <time>2015-02-16T19:26:33.541Z</time>
      </trkpt>
      <trkpt lat="48.86227" lon="2.35739">
        <ele>80.6</ele>
        <time>2015-02-16T19:26:34.781Z</time>
      </trkpt>
      <trkpt lat="48.86234" lon="2.35746">
        <ele>80.7</ele>
        <time>2015-02-16T19:26:36.602Z</time>
      </trkpt>
      <trkpt lat="48.86238" lon="2.35749">
        <ele>80.6</ele>
        <time>2015-02-16T19:26:37.629Z</time>
      </trkpt>
      <trkpt lat="48.86245" lon="2.35756">
        <ele>79.6</ele>
        <time>2015-02-16T19:26:40.529Z</time>
      </trkpt>
      <trkpt lat="48.86248" lon="2.3576">
        <ele>79.3</ele>
        <time>2015-02-16T19:26:40.550Z</time>
      </trkpt>
      <trkpt lat="48.86252" lon="2.35763">
        <ele>78.7</ele>
        <time>2015-02-16T19:26:41.570Z</time>
      </trkpt>
      <trkpt lat="48.86256" lon="2.35767">
        <ele>78.7</ele>
        <time>2015-02-16T19:26:42.566Z</time>
      </trkpt>
      <trkpt lat="48.86263" lon="2.35773">
        <ele>76.9</ele>
        <time>2015-02-16T19:26:44.633Z</time>
      </trkpt>
      <trkpt lat="48.86267" lon="2.35775">
        <ele>75.3</ele>
        <time>2015-02-16T19:26:45.661Z</time>
      </trkpt>
      <trkpt lat="48.86272" lon="2.35782">
        <ele>72.3</ele>
        <time>2015-02-16T19:26:47.683Z</time>
      </trkpt>
      <trkpt lat="48.86274" lon="2.35786">
        <ele>70.5</ele>
        <time>2015-02-16T19:26:48.601Z</time>
      </trkpt>
      <trkpt lat="48.86282" lon="2.35798">
        <ele>69.4</ele>
        <time>2015-02-16T19:26:51.568Z</time>
      </trkpt>
      <trkpt lat="48.86289" lon="2.35803">
        <ele>67.8</ele>
        <time>2015-02-16T19:26:54.623Z</time>
      </trkpt>
      <trkpt lat="48.86292" lon="2.35803">
        <ele>67.7</ele>
        <time>2015-02-16T19:26:55.641Z</time>
      </trkpt>
      <trkpt lat="48.86298" lon="2.35804">
        <ele>67.2</ele>
        <time>2015-02-16T19:26:58.601Z</time>
      </trkpt>
      <trkpt lat="48.86306" lon="2.35805">
        <ele>72.9</ele>
        <time>2015-02-16T19:26:59.646Z</time>
      </trkpt>
      <trkpt lat="48.86314" lon="2.35809">
        <ele>77.7</ele>
        <time>2015-02-16T19:27:01.611Z</time>
      </trkpt>
      <trkpt lat="48.86318" lon="2.35813">
        <ele>79.6</ele>
        <time>2015-02-16T19:27:02.716Z</time>
      </trkpt>
      <trkpt lat="48.86325" lon="2.35819">
        <ele>80.5</ele>
        <time>2015-02-16T19:27:04.661Z</time>
      </trkpt>
      <trkpt lat="48.86332" lon="2.35826">
        <ele>76.3</ele>
        <time>2015-02-16T19:27:05.698Z</time>
      </trkpt>
      <trkpt lat="48.86338" lon="2.3583">
        <ele>74.8</ele>
        <time>2015-02-16T19:27:06.718Z</time>
      </trkpt>
      <trkpt lat="48.86343" lon="2.35834">
        <ele>73.3</ele>
        <time>2015-02-16T19:27:07.570Z</time>
      </trkpt>
      <trkpt lat="48.86348" lon="2.35837">
        <ele>71.9</ele>
        <time>2015-02-16T19:27:08.680Z</time>
      </trkpt>
      <trkpt lat="48.86353" lon="2.35839">
        <ele>72.6</ele>
        <time>2015-02-16T19:27:09.691Z</time>
      </trkpt>
      <trkpt lat="48.86357" lon="2.35841">
        <ele>72.8</ele>
        <time>2015-02-16T19:27:11.421Z</time>
      </trkpt>
      <trkpt lat="48.86361" lon="2.35843">
        <ele>73.4</ele>
        <time>2015-02-16T19:27:11.556Z</time>
      </trkpt>
      <trkpt lat="48.86365" lon="2.35846">
        <ele>73.4</ele>
        <time>2015-02-16T19:27:12.574Z</time>
      </trkpt>
      <trkpt lat="48.86371" lon="2.35851">
        <ele>71.6</ele>
        <time>2015-02-16T19:27:13.582Z</time>
      </trkpt>
      <trkpt lat="48.86375" lon="2.35856">
        <ele>70.6</ele>
        <time>2015-02-16T19:27:14.602Z</time>
      </trkpt>
      <trkpt lat="48.8638" lon="2.3586">
        <ele>70.2</ele>
        <time>2015-02-16T19:27:15.605Z</time>
      </trkpt>
      <trkpt lat="48.86384" lon="2.35863">
        <ele>70.6</ele>
        <time>2015-02-16T19:27:16.617Z</time>
      </trkpt>
      <trkpt lat="48.86388" lon="2.35866">
        <ele>71.2</ele>
        <time>2015-02-16T19:27:17.629Z</time>
      </trkpt>
      <trkpt lat="48.86392" lon="2.3587">
        <ele>71.7</ele>
        <time>2015-02-16T19:27:18.697Z</time>
      </trkpt>
      <trkpt lat="48.86396" lon="2.35874">
        <ele>72.2</ele>
        <time>2015-02-16T19:27:19.661Z</time>
      </trkpt>
      <trkpt lat="48.86401" lon="2.35878">
        <ele>72.6</ele>
        <time>2015-02-16T19:27:21.585Z</time>
      </trkpt>
      <trkpt lat="48.86405" lon="2.35884">
        <ele>71.7</ele>
        <time>2015-02-16T19:27:21.608Z</time>
      </trkpt>
      <trkpt lat="48.8641" lon="2.3589">
        <ele>71.7</ele>
        <time>2015-02-16T19:27:22.618Z</time>
      </trkpt>
      <trkpt lat="48.86414" lon="2.35896">
        <ele>71.6</ele>
        <time>2015-02-16T19:27:23.632Z</time>
      </trkpt>
      <trkpt lat="48.86418" lon="2.35904">
        <ele>72.2</ele>
        <time>2015-02-16T19:27:24.669Z</time>
      </trkpt>
      <trkpt lat="48.86421" lon="2.35909">
        <ele>72.7</ele>
        <time>2015-02-16T19:27:25.598Z</time>
      </trkpt>
      <trkpt lat="48.86424" lon="2.35915">
        <ele>72.7</ele>
        <time>2015-02-16T19:27:26.683Z</time>
      </trkpt>
      <trkpt lat="48.86428" lon="2.35919">
        <ele>73</ele>
        <time>2015-02-16T19:27:27.587Z</time>
      </trkpt>
      <trkpt lat="48.86432" lon="2.35923">
        <ele>73.2</ele>
        <time>2015-02-16T19:27:28.586Z</time>
      </trkpt>
      <trkpt lat="48.86435" lon="2.35928">
        <ele>72.8</ele>
        <time>2015-02-16T19:27:29.601Z</time>
      </trkpt>
      <trkpt lat="48.86439" lon="2.35933">
        <ele>72.6</ele>
        <time>2015-02-16T19:27:30.618Z</time>
      </trkpt>
      <trkpt lat="48.86442" lon="2.35938">
        <ele>72.4</ele>
        <time>2015-02-16T19:27:31.691Z</time>
      </trkpt>
      <trkpt lat="48.86448" lon="2.35944">
        <ele>72.3</ele>
        <time>2015-02-16T19:27:33.748Z</time>
      </trkpt>
      <trkpt lat="48.86451" lon="2.35946">
        <ele>72.5</ele>
        <time>2015-02-16T19:27:34.679Z</time>
      </trkpt>
      <trkpt lat="48.86454" lon="2.35954">
        <ele>72.1</ele>
        <time>2015-02-16T19:27:36.731Z</time>
      </trkpt>
      <trkpt lat="48.86456" lon="2.35959">
        <ele>72.8</ele>
        <time>2015-02-16T19:27:37.591Z</time>
      </trkpt>
      <trkpt lat="48.8646" lon="2.35966">
        <ele>73</ele>
        <time>2015-02-16T19:27:39.591Z</time>
      </trkpt>
      <trkpt lat="48.86463" lon="2.3597">
        <ele>73.9</ele>
        <time>2015-02-16T19:27:40.610Z</time>
      </trkpt>
      <trkpt lat="48.8647" lon="2.35978">
        <ele>74.5</ele>
        <time>2015-02-16T19:27:42.639Z</time>
      </trkpt>
      <trkpt lat="48.86473" lon="2.35981">
        <ele>75</ele>
        <time>2015-02-16T19:27:43.650Z</time>
      </trkpt>
      <trkpt lat="48.86478" lon="2.35986">
        <ele>75.5</ele>
        <time>2015-02-16T19:27:44.680Z</time>
      </trkpt>
      <trkpt lat="48.86481" lon="2.3599">
        <ele>75.4</ele>
        <time>2015-02-16T19:27:45.604Z</time>
      </trkpt>
      <trkpt lat="48.86486" lon="2.35994">
        <ele>75.7</ele>
        <time>2015-02-16T19:27:46.579Z</time>
      </trkpt>
      <trkpt lat="48.8649" lon="2.35998">
        <ele>76.1</ele>
        <time>2015-02-16T19:27:47.590Z</time>
      </trkpt>
      <trkpt lat="48.86494" lon="2.36002">
        <ele>76</ele>
        <time>2015-02-16T19:27:48.604Z</time>
      </trkpt>
      <trkpt lat="48.86498" lon="2.36006">
        <ele>76.3</ele>
        <time>2015-02-16T19:27:49.670Z</time>
      </trkpt>
      <trkpt lat="48.86505" lon="2.36012">
        <ele>76.3</ele>
        <time>2015-02-16T19:27:51.598Z</time>
      </trkpt>
      <trkpt lat="48.86509" lon="2.36015">
        <ele>76.3</ele>
        <time>2015-02-16T19:27:52.626Z</time>
      </trkpt>
      <trkpt lat="48.86516" lon="2.36023">
        <ele>76.6</ele>
        <time>2015-02-16T19:27:55.190Z</time>
      </trkpt>
      <trkpt lat="48.86519" lon="2.36027">
        <ele>76.9</ele>
        <time>2015-02-16T19:27:55.711Z</time>
      </trkpt>
      <trkpt lat="48.86526" lon="2.36036">
        <ele>78</ele>
        <time>2015-02-16T19:27:57.595Z</time>
      </trkpt>
      <trkpt lat="48.8653" lon="2.36041">
        <ele>78.2</ele>
        <time>2015-02-16T19:27:58.603Z</time>
      </trkpt>
      <trkpt lat="48.86533" lon="2.36046">
        <ele>78.6</ele>
        <time>2015-02-16T19:27:59.609Z</time>
      </trkpt>
      <trkpt lat="48.86537" lon="2.3605">
        <ele>78.8</ele>
        <time>2015-02-16T19:28:00.620Z</time>
      </trkpt>
      <trkpt lat="48.86541" lon="2.36054">
        <ele>79</ele>
        <time>2015-02-16T19:28:01.657Z</time>
      </trkpt>
      <trkpt lat="48.86544" lon="2.36058">
        <ele>79.2</ele>
        <time>2015-02-16T19:28:02.696Z</time>
      </trkpt>
      <trkpt lat="48.86548" lon="2.36063">
        <ele>79.4</ele>
        <time>2015-02-16T19:28:03.577Z</time>
      </trkpt>
      <trkpt lat="48.86551" lon="2.36068">
        <ele>79.5</ele>
        <time>2015-02-16T19:28:04.618Z</time>
      </trkpt>
      <trkpt lat="48.86554" lon="2.36073">
        <ele>79.7</ele>
        <time>2015-02-16T19:28:05.685Z</time>
      </trkpt>
      <trkpt lat="48.8656" lon="2.36083">
        <ele>79.5</ele>
        <time>2015-02-16T19:28:07.609Z</time>
      </trkpt>
      <trkpt lat="48.86563" lon="2.36087">
        <ele>79.8</ele>
        <time>2015-02-16T19:28:08.616Z</time>
      </trkpt>
      <trkpt lat="48.86567" lon="2.36097">
        <ele>80.7</ele>
        <time>2015-02-16T19:28:12.600Z</time>
      </trkpt>
      <trkpt lat="48.86566" lon="2.36101">
        <ele>81.1</ele>
        <time>2015-02-16T19:28:13.625Z</time>
      </trkpt>
      <trkpt lat="48.8656" lon="2.36107">
        <ele>81.2</ele>
        <time>2015-02-16T19:28:15.647Z</time>
      </trkpt>
      <trkpt lat="48.86521" lon="2.36137">
        <ele>82.3</ele>
        <time>2015-02-16T19:28:27.678Z</time>
      </trkpt>
      <trkpt lat="48.86498" lon="2.36158">
        <ele>82.8</ele>
        <time>2015-02-16T19:28:33.583Z</time>
      </trkpt>
      <trkpt lat="48.86498" lon="2.3617">
        <ele>83.1</ele>
        <time>2015-02-16T19:28:35.605Z</time>
      </trkpt>
      <trkpt lat="48.86498" lon="2.36176">
        <ele>83.2</ele>
        <time>2015-02-16T19:28:36.619Z</time>
      </trkpt>
      <trkpt lat="48.86499" lon="2.36188">
        <ele>83.1</ele>
        <time>2015-02-16T19:28:38.647Z</time>
      </trkpt>
      <trkpt lat="48.86501" lon="2.36193">
        <ele>83.5</ele>
        <time>2015-02-16T19:28:39.584Z</time>
      </trkpt>
      <trkpt lat="48.86507" lon="2.36203">
        <ele>83.9</ele>
        <time>2015-02-16T19:28:41.616Z</time>
      </trkpt>
      <trkpt lat="48.86509" lon="2.36205">
        <ele>83.8</ele>
        <time>2015-02-16T19:28:42.621Z</time>
      </trkpt>
      <trkpt lat="48.86514" lon="2.36212">
        <ele>83.7</ele>
        <time>2015-02-16T19:28:45.663Z</time>
      </trkpt>
      <trkpt lat="48.86515" lon="2.36214">
        <ele>83.8</ele>
        <time>2015-02-16T19:28:46.584Z</time>
      </trkpt>
      <trkpt lat="48.86519" lon="2.36253">
        <ele>86.2</ele>
        <time>2015-02-16T19:28:58.580Z</time>
      </trkpt>
      <trkpt lat="48.86516" lon="2.36266">
        <ele>84.8</ele>
        <time>2015-02-16T19:29:01.676Z</time>
      </trkpt>
      <trkpt lat="48.86518" lon="2.36268">
        <ele>84.2</ele>
        <time>2015-02-16T19:29:02.709Z</time>
      </trkpt>
      <trkpt lat="48.86521" lon="2.36276">
        <ele>83.6</ele>
        <time>2015-02-16T19:29:04.724Z</time>
      </trkpt>
      <trkpt lat="48.86529" lon="2.36287">
        <ele>82.2</ele>
        <time>2015-02-16T19:29:05.742Z</time>
      </trkpt>
      <trkpt lat="48.86533" lon="2.36295">
        <ele>81.5</ele>
        <time>2015-02-16T19:29:06.766Z</time>
      </trkpt>
      <trkpt lat="48.86538" lon="2.36302">
        <ele>80.7</ele>
        <time>2015-02-16T19:29:07.577Z</time>
      </trkpt>
      <trkpt lat="48.86542" lon="2.36313">
        <ele>80.6</ele>
        <time>2015-02-16T19:29:09.728Z</time>
      </trkpt>
      <trkpt lat="48.86544" lon="2.36319">
        <ele>80.7</ele>
        <time>2015-02-16T19:29:10.573Z</time>
      </trkpt>
      <trkpt lat="48.86545" lon="2.36328">
        <ele>81.1</ele>
        <time>2015-02-16T19:29:12.618Z</time>
      </trkpt>
      <trkpt lat="48.86544" lon="2.36334">
        <ele>81.4</ele>
        <time>2015-02-16T19:29:13.633Z</time>
      </trkpt>
      <trkpt lat="48.86542" lon="2.36343">
        <ele>81.7</ele>
        <time>2015-02-16T19:29:15.725Z</time>
      </trkpt>
      <trkpt lat="48.86699" lon="2.36334">
        <ele>80.4</ele>
        <time>2015-02-16T19:30:22.577Z</time>
      </trkpt>
      <trkpt lat="48.86699" lon="2.36329">
        <ele>81.7</ele>
        <time>2015-02-16T19:30:24.661Z</time>
      </trkpt>
      <trkpt lat="48.86698" lon="2.36328">
        <ele>81.9</ele>
        <time>2015-02-16T19:30:25.595Z</time>
      </trkpt>
      <trkpt lat="48.86697" lon="2.36326">
        <ele>82</ele>
        <time>2015-02-16T19:30:26.591Z</time>
      </trkpt>
      <trkpt lat="48.86695" lon="2.36318">
        <ele>82</ele>
        <time>2015-02-16T19:30:32.689Z</time>
      </trkpt>
      <trkpt lat="48.86695" lon="2.36318">
        <ele>81.6</ele>
        <time>2015-02-16T19:30:33.760Z</time>
      </trkpt>
      <trkpt lat="48.86697" lon="2.36316">
        <ele>81.8</ele>
        <time>2015-02-16T19:30:43.673Z</time>
      </trkpt>
      <trkpt lat="48.86702" lon="2.36309">
        <ele>80.2</ele>
        <time>2015-02-16T19:30:44.592Z</time>
      </trkpt>
      <trkpt lat="48.86703" lon="2.36298">
        <ele>79.9</ele>
        <time>2015-02-16T19:30:49.576Z</time>
      </trkpt>
      <trkpt lat="48.86704" lon="2.36295">
        <ele>79.8</ele>
        <time>2015-02-16T19:30:50.616Z</time>
      </trkpt>
      <trkpt lat="48.8671" lon="2.36288">
        <ele>79.4</ele>
        <time>2015-02-16T19:30:52.577Z</time>
      </trkpt>
      <trkpt lat="48.86714" lon="2.36285">
        <ele>79.4</ele>
        <time>2015-02-16T19:30:53.643Z</time>
      </trkpt>
      <trkpt lat="48.8672" lon="2.3628">
        <ele>78.9</ele>
        <time>2015-02-16T19:30:55.636Z</time>
      </trkpt>
      <trkpt lat="48.86721" lon="2.36277">
        <ele>78.6</ele>
        <time>2015-02-16T19:30:56.676Z</time>
      </trkpt>
      <trkpt lat="48.86727" lon="2.36268">
        <ele>78.2</ele>
        <time>2015-02-16T19:30:59.594Z</time>
      </trkpt>
      <trkpt lat="48.86589" lon="2.358">
        <ele>81</ele>
        <time>2015-02-16T19:34:39.570Z</time>
      </trkpt>
      <trkpt lat="48.86588" lon="2.3581">
        <ele>81.5</ele>
        <time>2015-02-16T19:34:56.566Z</time>
      </trkpt>
      <trkpt lat="48.8659" lon="2.35814">
        <ele>79.3</ele>
        <time>2015-02-16T19:34:57.565Z</time>
      </trkpt>
      <trkpt lat="48.86589" lon="2.35826">
        <ele>77.4</ele>
        <time>2015-02-16T19:35:01.627Z</time>
      </trkpt>
      <trkpt lat="48.86589" lon="2.35829">
        <ele>77.2</ele>
        <time>2015-02-16T19:35:02.667Z</time>
      </trkpt>
      <trkpt lat="48.86588" lon="2.35832">
        <ele>77.2</ele>
        <time>2015-02-16T19:35:04.694Z</time>
      </trkpt>
      <trkpt lat="48.86536" lon="2.36031">
        <ele>82</ele>
        <time>2015-02-16T19:35:53.726Z</time>
      </trkpt>
      <trkpt lat="48.86542" lon="2.36039">
        <ele>82</ele>
        <time>2015-02-16T19:35:55.686Z</time>
      </trkpt>
      <trkpt lat="48.86545" lon="2.36042">
        <ele>82</ele>
        <time>2015-02-16T19:35:56.695Z</time>
      </trkpt>
      <trkpt lat="48.86553" lon="2.36047">
        <ele>82.2</ele>
        <time>2015-02-16T19:35:58.736Z</time>
      </trkpt>
      <trkpt lat="48.86557" lon="2.36051">
        <ele>82.3</ele>
        <time>2015-02-16T19:35:59.767Z</time>
      </trkpt>
      <trkpt lat="48.86561" lon="2.36059">
        <ele>82.4</ele>
        <time>2015-02-16T19:36:01.616Z</time>
      </trkpt>
      <trkpt lat="48.86564" lon="2.36062">
        <ele>82.5</ele>
        <time>2015-02-16T19:36:02.626Z</time>
      </trkpt>
      <trkpt lat="48.86568" lon="2.36071">
        <ele>82.9</ele>
        <time>2015-02-16T19:36:04.670Z</time>
      </trkpt>
      <trkpt lat="48.86571" lon="2.36075">
        <ele>82.9</ele>
        <time>2015-02-16T19:36:05.694Z</time>
      </trkpt>
      <trkpt lat="48.86577" lon="2.36083">
        <ele>83</ele>
        <time>2015-02-16T19:36:07.608Z</time>
      </trkpt>
      <trkpt lat="48.86581" lon="2.36087">
        <ele>83.1</ele>
        <time>2015-02-16T19:36:08.704Z</time>
      </trkpt>
      <trkpt lat="48.86587" lon="2.36091">
        <ele>82.7</ele>
        <time>2015-02-16T19:36:09.705Z</time>
      </trkpt>
      <trkpt lat="48.86591" lon="2.36095">
        <ele>82.8</ele>
        <time>2015-02-16T19:36:10.710Z</time>
      </trkpt>
      <trkpt lat="48.86595" lon="2.36099">
        <ele>82.8</ele>
        <time>2015-02-16T19:36:11.734Z</time>
      </trkpt>
      <trkpt lat="48.86598" lon="2.36105">
        <ele>83</ele>
        <time>2015-02-16T19:36:12.744Z</time>
      </trkpt>
      <trkpt lat="48.86605" lon="2.36113">
        <ele>83.3</ele>
        <time>2015-02-16T19:36:14.671Z</time>
      </trkpt>
      <trkpt lat="48.86609" lon="2.36117">
        <ele>83.6</ele>
        <time>2015-02-16T19:36:15.574Z</time>
      </trkpt>
      <trkpt lat="48.86614" lon="2.36125">
        <ele>83.9</ele>
        <time>2015-02-16T19:36:17.621Z</time>
      </trkpt>
      <trkpt lat="48.86616" lon="2.36128">
        <ele>84.3</ele>
        <time>2015-02-16T19:36:18.728Z</time>
      </trkpt>
      <trkpt lat="48.86623" lon="2.36134">
        <ele>84.8</ele>
        <time>2015-02-16T19:36:20.591Z</time>
      </trkpt>
      <trkpt lat="48.86625" lon="2.36138">
        <ele>85</ele>
        <time>2015-02-16T19:36:21.607Z</time>
      </trkpt>
      <trkpt lat="48.86629" lon="2.36143">
        <ele>85.3</ele>
        <time>2015-02-16T19:36:22.663Z</time>
      </trkpt>
      <trkpt lat="48.86634" lon="2.36147">
        <ele>85.3</ele>
        <time>2015-02-16T19:36:23.662Z</time>
      </trkpt>
      <trkpt lat="48.86639" lon="2.36151">
        <ele>85.3</ele>
        <time>2015-02-16T19:36:24.687Z</time>
      </trkpt>
      <trkpt lat="48.86645" lon="2.36156">
        <ele>85.4</ele>
        <time>2015-02-16T19:36:25.711Z</time>
      </trkpt>
      <trkpt lat="48.86649" lon="2.3616">
        <ele>85.5</ele>
        <time>2015-02-16T19:36:26.575Z</time>
      </trkpt>
      <trkpt lat="48.86652" lon="2.36165">
        <ele>85.4</ele>
        <time>2015-02-16T19:36:27.635Z</time>
      </trkpt>
      <trkpt lat="48.86656" lon="2.36171">
        <ele>85.3</ele>
        <time>2015-02-16T19:36:28.572Z</time>
      </trkpt>
      <trkpt lat="48.86658" lon="2.36176">
        <ele>85.3</ele>
        <time>2015-02-16T19:36:29.582Z</time>
      </trkpt>
      <trkpt lat="48.8666" lon="2.36183">
        <ele>85.3</ele>
        <time>2015-02-16T19:36:30.642Z</time>
      </trkpt>
      <trkpt lat="48.86661" lon="2.36189">
        <ele>85.4</ele>
        <time>2015-02-16T19:36:31.648Z</time>
      </trkpt>
      <trkpt lat="48.86662" lon="2.362">
        <ele>85.6</ele>
        <time>2015-02-16T19:36:33.766Z</time>
      </trkpt>
      <trkpt lat="48.86662" lon="2.36205">
        <ele>85.6</ele>
        <time>2015-02-16T19:36:34.679Z</time>
      </trkpt>
      <trkpt lat="48.86665" lon="2.36216">
        <ele>85.7</ele>
        <time>2015-02-16T19:36:36.717Z</time>
      </trkpt>
      <trkpt lat="48.86667" lon="2.36224">
        <ele>85.2</ele>
        <time>2015-02-16T19:36:37.739Z</time>
      </trkpt>
      <trkpt lat="48.8667" lon="2.36235">
        <ele>84.2</ele>
        <time>2015-02-16T19:36:39.756Z</time>
      </trkpt>
      <trkpt lat="48.86672" lon="2.36241">
        <ele>84.1</ele>
        <time>2015-02-16T19:36:40.664Z</time>
      </trkpt>
      <trkpt lat="48.86674" lon="2.36248">
        <ele>83.9</ele>
        <time>2015-02-16T19:36:41.582Z</time>
      </trkpt>
      <trkpt lat="48.86675" lon="2.36254">
        <ele>83.4</ele>
        <time>2015-02-16T19:36:42.584Z</time>
      </trkpt>
      <trkpt lat="48.86676" lon="2.36261">
        <ele>83.3</ele>
        <time>2015-02-16T19:36:43.649Z</time>
      </trkpt>
      <trkpt lat="48.86679" lon="2.36268">
        <ele>83.1</ele>
        <time>2015-02-16T19:36:44.621Z</time>
      </trkpt>
      <trkpt lat="48.8668" lon="2.36275">
        <ele>82.9</ele>
        <time>2015-02-16T19:36:46.226Z</time>
      </trkpt>
      <trkpt lat="48.86685" lon="2.36285">
        <ele>80.7</ele>
        <time>2015-02-16T19:36:46.625Z</time>
      </trkpt>
      <trkpt lat="48.86689" lon="2.36293">
        <ele>79.2</ele>
        <time>2015-02-16T19:36:47.680Z</time>
      </trkpt>
      <trkpt lat="48.86693" lon="2.363">
        <ele>78.4</ele>
        <time>2015-02-16T19:36:48.695Z</time>
      </trkpt>
      <trkpt lat="48.86697" lon="2.36307">
        <ele>77.7</ele>
        <time>2015-02-16T19:36:49.708Z</time>
      </trkpt>
      <trkpt lat="48.86701" lon="2.36312">
        <ele>76.8</ele>
        <time>2015-02-16T19:36:50.713Z</time>
      </trkpt>
      <trkpt lat="48.86705" lon="2.36318">
        <ele>76.5</ele>
        <time>2015-02-16T19:36:51.729Z</time>
      </trkpt>
      <trkpt lat="48.86708" lon="2.36323">
        <ele>76</ele>
        <time>2015-02-16T19:36:52.576Z</time>
      </trkpt>
      <trkpt lat="48.8671" lon="2.36329">
        <ele>75.7</ele>
        <time>2015-02-16T19:36:54.317Z</time>
      </trkpt>
      <trkpt lat="48.86713" lon="2.36335">
        <ele>75.2</ele>
        <time>2015-02-16T19:36:54.593Z</time>
      </trkpt>
      <trkpt lat="48.86713" lon="2.36346">
        <ele>74.6</ele>
        <time>2015-02-16T19:36:56.623Z</time>
      </trkpt>
      <trkpt lat="48.86711" lon="2.36351">
        <ele>74.6</ele>
        <time>2015-02-16T19:36:57.856Z</time>
      </trkpt>
      <trkpt lat="48.86705" lon="2.3636">
        <ele>74</ele>
        <time>2015-02-16T19:36:59.649Z</time>
      </trkpt>
      <trkpt lat="48.86702" lon="2.36364">
        <ele>74.2</ele>
        <time>2015-02-16T19:37:00.715Z</time>
      </trkpt>
      <trkpt lat="48.86696" lon="2.36373">
        <ele>74.2</ele>
        <time>2015-02-16T19:37:02.722Z</time>
      </trkpt>
      <trkpt lat="48.86694" lon="2.36378">
        <ele>74.1</ele>
        <time>2015-02-16T19:37:03.761Z</time>
      </trkpt>
      <trkpt lat="48.8669" lon="2.36387">
        <ele>74</ele>
        <time>2015-02-16T19:37:06.379Z</time>
      </trkpt>
      <trkpt lat="48.86687" lon="2.36391">
        <ele>73.9</ele>
        <time>2015-02-16T19:37:06.566Z</time>
      </trkpt>
      <trkpt lat="48.86682" lon="2.364">
        <ele>73.6</ele>
        <time>2015-02-16T19:37:09.483Z</time>
      </trkpt>
      <trkpt lat="48.86679" lon="2.36405">
        <ele>73.4</ele>
        <time>2015-02-16T19:37:09.619Z</time>
      </trkpt>
      <trkpt lat="48.86674" lon="2.36413">
        <ele>73.2</ele>
        <time>2015-02-16T19:37:11.655Z</time>
      </trkpt>
      <trkpt lat="48.86671" lon="2.36417">
        <ele>73.1</ele>
        <time>2015-02-16T19:37:12.724Z</time>
      </trkpt>
      <trkpt lat="48.86664" lon="2.36427">
        <ele>73.3</ele>
        <time>2015-02-16T19:37:14.529Z</time>
      </trkpt>
      <trkpt lat="48.86661" lon="2.36431">
        <ele>73.3</ele>
        <time>2015-02-16T19:37:15.679Z</time>
      </trkpt>
      <trkpt lat="48.86658" lon="2.3644">
        <ele>73.2</ele>
        <time>2015-02-16T19:37:17.689Z</time>
      </trkpt>
      <trkpt lat="48.86655" lon="2.36444">
        <ele>73.2</ele>
        <time>2015-02-16T19:37:18.747Z</time>
      </trkpt>
      <trkpt lat="48.8665" lon="2.36453">
        <ele>73.6</ele>
        <time>2015-02-16T19:37:21.690Z</time>
      </trkpt>
      <trkpt lat="48.8665" lon="2.36455">
        <ele>74</ele>
        <time>2015-02-16T19:37:22.700Z</time>
      </trkpt>
      <trkpt lat="48.86655" lon="2.36465">
        <ele>74.9</ele>
        <time>2015-02-16T19:37:31.733Z</time>
      </trkpt>
      <trkpt lat="48.86656" lon="2.36465">
        <ele>75.3</ele>
        <time>2015-02-16T19:37:32.689Z</time>
      </trkpt>
      <trkpt lat="48.86657" lon="2.36466">
        <ele>75.6</ele>
        <time>2015-02-16T19:37:33.693Z</time>
      </trkpt>
      <trkpt lat="48.86657" lon="2.36466">
        <ele>75.8</ele>
        <time>2015-02-16T19:37:34.700Z</time>
      </trkpt>
      <trkpt lat="48.86657" lon="2.36466">
        <ele>75.7</ele>
        <time>2015-02-16T19:37:41.720Z</time>
      </trkpt>
      <trkpt lat="48.86662" lon="2.36468">
        <ele>75.1</ele>
        <time>2015-02-16T19:37:42.815Z</time>
      </trkpt>
      <trkpt lat="48.8666" lon="2.36478">
        <ele>75.2</ele>
        <time>2015-02-16T19:37:49.773Z</time>
      </trkpt>
      <trkpt lat="48.8666" lon="2.36481">
        <ele>75.3</ele>
        <time>2015-02-16T19:37:50.789Z</time>
      </trkpt>
      <trkpt lat="48.86658" lon="2.36493">
        <ele>76.1</ele>
        <time>2015-02-16T19:37:54.728Z</time>
      </trkpt>
      <trkpt lat="48.86659" lon="2.36495">
        <ele>76.2</ele>
        <time>2015-02-16T19:37:55.740Z</time>
      </trkpt>
      <trkpt lat="48.86662" lon="2.36505">
        <ele>76.9</ele>
        <time>2015-02-16T19:37:58.723Z</time>
      </trkpt>
      <trkpt lat="48.86663" lon="2.36508">
        <ele>77</ele>
        <time>2015-02-16T19:37:59.707Z</time>
      </trkpt>
      <trkpt lat="48.86663" lon="2.36512">
        <ele>77.8</ele>
        <time>2015-02-16T19:38:02.735Z</time>
      </trkpt>
      <trkpt lat="48.86663" lon="2.36512">
        <ele>78.1</ele>
        <time>2015-02-16T19:38:03.912Z</time>
      </trkpt>
      <trkpt lat="48.86664" lon="2.36513">
        <ele>78.5</ele>
        <time>2015-02-16T19:38:04.716Z</time>
      </trkpt>
      <trkpt lat="48.86668" lon="2.36524">
        <ele>79.7</ele>
        <time>2015-02-16T19:38:09.874Z</time>
      </trkpt>
      <trkpt lat="48.86669" lon="2.36527">
        <ele>80.1</ele>
        <time>2015-02-16T19:38:10.695Z</time>
      </trkpt>
      <trkpt lat="48.86672" lon="2.36535">
        <ele>80.4</ele>
        <time>2015-02-16T19:38:12.705Z</time>
      </trkpt>
      <trkpt lat="48.86674" lon="2.36539">
        <ele>80.6</ele>
        <time>2015-02-16T19:38:13.708Z</time>
      </trkpt>
      <trkpt lat="48.86677" lon="2.36551">
        <ele>81</ele>
        <time>2015-02-16T19:38:16.729Z</time>
      </trkpt>
      <trkpt lat="48.86676" lon="2.36555">
        <ele>81</ele>
        <time>2015-02-16T19:38:17.735Z</time>
      </trkpt>
      <trkpt lat="48.86675" lon="2.36565">
        <ele>81.4</ele>
        <time>2015-02-16T19:38:19.742Z</time>
      </trkpt>
      <trkpt lat="48.86674" lon="2.36569">
        <ele>81.3</ele>
        <time>2015-02-16T19:38:20.777Z</time>
      </trkpt>
      <trkpt lat="48.86672" lon="2.36578">
        <ele>81.1</ele>
        <time>2015-02-16T19:38:22.680Z</time>
      </trkpt>
      <trkpt lat="48.8667" lon="2.36582">
        <ele>81.2</ele>
        <time>2015-02-16T19:38:23.682Z</time>
      </trkpt>
      <trkpt lat="48.86667" lon="2.3659">
        <ele>81.3</ele>
        <time>2015-02-16T19:38:25.812Z</time>
      </trkpt>
      <trkpt lat="48.86665" lon="2.36594">
        <ele>81.2</ele>
        <time>2015-02-16T19:38:26.682Z</time>
      </trkpt>
      <trkpt lat="48.86661" lon="2.36604">
        <ele>81</ele>
        <time>2015-02-16T19:38:28.721Z</time>
      </trkpt>
      <trkpt lat="48.86659" lon="2.36609">
        <ele>80.9</ele>
        <time>2015-02-16T19:38:29.737Z</time>
      </trkpt>
      <trkpt lat="48.86656" lon="2.3662">
        <ele>80.7</ele>
        <time>2015-02-16T19:38:31.825Z</time>
      </trkpt>
      <trkpt lat="48.86655" lon="2.36626">
        <ele>80.6</ele>
        <time>2015-02-16T19:38:32.704Z</time>
      </trkpt>
      <trkpt lat="48.86651" lon="2.36636">
        <ele>80.4</ele>
        <time>2015-02-16T19:38:34.726Z</time>
      </trkpt>
      <trkpt lat="48.8665" lon="2.3664">
        <ele>80.5</ele>
        <time>2015-02-16T19:38:35.736Z</time>
      </trkpt>
      <trkpt lat="48.86645" lon="2.36649">
        <ele>80.5</ele>
        <time>2015-02-16T19:38:37.705Z</time>
      </trkpt>
      <trkpt lat="48.86632" lon="2.36666">
        <ele>81.5</ele>
        <time>2015-02-16T19:38:42.787Z</time>
      </trkpt>
      <trkpt lat="48.86628" lon="2.36675">
        <ele>81.5</ele>
        <time>2015-02-16T19:38:44.687Z</time>
      </trkpt>
      <trkpt lat="48.86626" lon="2.3668">
        <ele>81.5</ele>
        <time>2015-02-16T19:38:45.663Z</time>
      </trkpt>
      <trkpt lat="48.86607" lon="2.36732">
        <ele>82.6</ele>
        <time>2015-02-16T19:38:55.869Z</time>
      </trkpt>
      <trkpt lat="48.86613" lon="2.36745">
        <ele>80.6</ele>
        <time>2015-02-16T19:38:56.671Z</time>
      </trkpt>
      <trkpt lat="48.86626" lon="2.36762">
        <ele>76.8</ele>
        <time>2015-02-16T19:38:57.673Z</time>
      </trkpt>
      <trkpt lat="48.86628" lon="2.3677">
        <ele>75.8</ele>
        <time>2015-02-16T19:38:58.682Z</time>
      </trkpt>
      <trkpt lat="48.86627" lon="2.36776">
        <ele>75.8</ele>
        <time>2015-02-16T19:38:59.688Z</time>
      </trkpt>
      <trkpt lat="48.86627" lon="2.36787">
        <ele>75.2</ele>
        <time>2015-02-16T19:39:01.730Z</time>
      </trkpt>
      <trkpt lat="48.86626" lon="2.36792">
        <ele>75.2</ele>
        <time>2015-02-16T19:39:02.752Z</time>
      </trkpt>
      <trkpt lat="48.86628" lon="2.368">
        <ele>74.4</ele>
        <time>2015-02-16T19:39:03.678Z</time>
      </trkpt>
      <trkpt lat="48.86628" lon="2.36807">
        <ele>73.8</ele>
        <time>2015-02-16T19:39:04.680Z</time>
      </trkpt>
      <trkpt lat="48.86628" lon="2.3682">
        <ele>72.5</ele>
        <time>2015-02-16T19:39:06.716Z</time>
      </trkpt>
      <trkpt lat="48.86628" lon="2.36825">
        <ele>72.6</ele>
        <time>2015-02-16T19:39:07.727Z</time>
      </trkpt>
      <trkpt lat="48.86626" lon="2.36836">
        <ele>73.1</ele>
        <time>2015-02-16T19:39:09.766Z</time>
      </trkpt>
      <trkpt lat="48.86623" lon="2.36842">
        <ele>73.3</ele>
        <time>2015-02-16T19:39:10.780Z</time>
      </trkpt>
      <trkpt lat="48.86619" lon="2.36853">
        <ele>74</ele>
        <time>2015-02-16T19:39:12.714Z</time>
      </trkpt>
      <trkpt lat="48.86617" lon="2.36858">
        <ele>74.2</ele>
        <time>2015-02-16T19:39:13.717Z</time>
      </trkpt>
      <trkpt lat="48.86612" lon="2.36867">
        <ele>74.7</ele>
        <time>2015-02-16T19:39:16.070Z</time>
      </trkpt>
      <trkpt lat="48.86612" lon="2.36873">
        <ele>75.8</ele>
        <time>2015-02-16T19:39:16.813Z</time>
      </trkpt>
      <trkpt lat="48.8661" lon="2.36884">
        <ele>76.5</ele>
        <time>2015-02-16T19:39:18.709Z</time>
      </trkpt>
      <trkpt lat="48.86608" lon="2.36889">
        <ele>76.6</ele>
        <time>2015-02-16T19:39:19.646Z</time>
      </trkpt>
      <trkpt lat="48.86604" lon="2.36898">
        <ele>77.1</ele>
        <time>2015-02-16T19:39:21.701Z</time>
      </trkpt>
      <trkpt lat="48.86602" lon="2.36904">
        <ele>77.3</ele>
        <time>2015-02-16T19:39:22.720Z</time>
      </trkpt>
      <trkpt lat="48.86597" lon="2.36913">
        <ele>77.8</ele>
        <time>2015-02-16T19:39:24.765Z</time>
      </trkpt>
      <trkpt lat="48.86595" lon="2.36918">
        <ele>78.1</ele>
        <time>2015-02-16T19:39:25.780Z</time>
      </trkpt>
      <trkpt lat="48.86589" lon="2.36925">
        <ele>78.7</ele>
        <time>2015-02-16T19:39:27.670Z</time>
      </trkpt>
      <trkpt lat="48.86587" lon="2.36929">
        <ele>78.9</ele>
        <time>2015-02-16T19:39:28.708Z</time>
      </trkpt>
      <trkpt lat="48.86583" lon="2.36938">
        <ele>79.5</ele>
        <time>2015-02-16T19:39:30.784Z</time>
      </trkpt>
      <trkpt lat="48.86581" lon="2.36943">
        <ele>79.8</ele>
        <time>2015-02-16T19:39:31.796Z</time>
      </trkpt>
      <trkpt lat="48.8658" lon="2.36956">
        <ele>80.7</ele>
        <time>2015-02-16T19:39:33.671Z</time>
      </trkpt>
      <trkpt lat="48.86579" lon="2.36961">
        <ele>81</ele>
        <time>2015-02-16T19:39:34.699Z</time>
      </trkpt>
      <trkpt lat="48.86579" lon="2.36973">
        <ele>81.5</ele>
        <time>2015-02-16T19:39:36.719Z</time>
      </trkpt>
      <trkpt lat="48.86578" lon="2.36977">
        <ele>81.6</ele>
        <time>2015-02-16T19:39:37.719Z</time>
      </trkpt>
      <trkpt lat="48.86576" lon="2.36987">
        <ele>82.2</ele>
        <time>2015-02-16T19:39:40.586Z</time>
      </trkpt>
      <trkpt lat="48.86575" lon="2.36991">
        <ele>82.3</ele>
        <time>2015-02-16T19:39:40.738Z</time>
      </trkpt>
      <trkpt lat="48.86574" lon="2.36996">
        <ele>82.3</ele>
        <time>2015-02-16T19:39:41.750Z</time>
      </trkpt>
      <trkpt lat="48.8658" lon="2.37006">
        <ele>80.2</ele>
        <time>2015-02-16T19:39:42.764Z</time>
      </trkpt>
      <trkpt lat="48.86585" lon="2.37017">
        <ele>77.7</ele>
        <time>2015-02-16T19:39:43.649Z</time>
      </trkpt>
      <trkpt lat="48.86587" lon="2.37025">
        <ele>76.6</ele>
        <time>2015-02-16T19:39:44.689Z</time>
      </trkpt>
      <trkpt lat="48.86588" lon="2.37032">
        <ele>75.7</ele>
        <time>2015-02-16T19:39:45.693Z</time>
      </trkpt>
      <trkpt lat="48.8659" lon="2.37045">
        <ele>74.2</ele>
        <time>2015-02-16T19:39:47.706Z</time>
      </trkpt>
      <trkpt lat="48.8659" lon="2.37051">
        <ele>73.7</ele>
        <time>2015-02-16T19:39:48.724Z</time>
      </trkpt>
      <trkpt lat="48.86588" lon="2.3706">
        <ele>73.7</ele>
        <time>2015-02-16T19:39:50.797Z</time>
      </trkpt>
      <trkpt lat="48.86586" lon="2.37063">
        <ele>74</ele>
        <time>2015-02-16T19:39:51.681Z</time>
      </trkpt>
      <trkpt lat="48.86581" lon="2.37068">
        <ele>74.4</ele>
        <time>2015-02-16T19:39:53.705Z</time>
      </trkpt>
      <trkpt lat="48.86577" lon="2.3707">
        <ele>74.8</ele>
        <time>2015-02-16T19:39:54.721Z</time>
      </trkpt>
      <trkpt lat="48.8657" lon="2.37073">
        <ele>75.5</ele>
        <time>2015-02-16T19:39:56.735Z</time>
      </trkpt>
      <trkpt lat="48.86568" lon="2.37076">
        <ele>75.9</ele>
        <time>2015-02-16T19:39:57.741Z</time>
      </trkpt>
      <trkpt lat="48.86562" lon="2.37082">
        <ele>77.1</ele>
        <time>2015-02-16T19:40:00.914Z</time>
      </trkpt>
      <trkpt lat="48.86559" lon="2.37084">
        <ele>77.4</ele>
        <time>2015-02-16T19:40:01.708Z</time>
      </trkpt>
      <trkpt lat="48.86552" lon="2.3709">
        <ele>78.1</ele>
        <time>2015-02-16T19:40:03.749Z</time>
      </trkpt>
      <trkpt lat="48.86549" lon="2.37093">
        <ele>78.3</ele>
        <time>2015-02-16T19:40:04.761Z</time>
      </trkpt>
      <trkpt lat="48.86547" lon="2.37101">
        <ele>79.1</ele>
        <time>2015-02-16T19:40:06.758Z</time>
      </trkpt>
      <trkpt lat="48.86545" lon="2.37105">
        <ele>79.4</ele>
        <time>2015-02-16T19:40:07.649Z</time>
      </trkpt>
      <trkpt lat="48.86543" lon="2.37116">
        <ele>80.1</ele>
        <time>2015-02-16T19:40:09.698Z</time>
      </trkpt>
      <trkpt lat="48.86541" lon="2.37121">
        <ele>80.5</ele>
        <time>2015-02-16T19:40:10.712Z</time>
      </trkpt>
      <trkpt lat="48.86537" lon="2.3713">
        <ele>81.1</ele>
        <time>2015-02-16T19:40:12.745Z</time>
      </trkpt>
      <trkpt lat="48.86534" lon="2.37135">
        <ele>81.5</ele>
        <time>2015-02-16T19:40:13.646Z</time>
      </trkpt>
      <trkpt lat="48.8653" lon="2.37144">
        <ele>82.3</ele>
        <time>2015-02-16T19:40:15.701Z</time>
      </trkpt>
      <trkpt lat="48.86528" lon="2.37149">
        <ele>82.7</ele>
        <time>2015-02-16T19:40:16.712Z</time>
      </trkpt>
      <trkpt lat="48.86525" lon="2.3716">
        <ele>83.4</ele>
        <time>2015-02-16T19:40:18.764Z</time>
      </trkpt>
      <trkpt lat="48.86524" lon="2.37165">
        <ele>83.7</ele>
        <time>2015-02-16T19:40:19.679Z</time>
      </trkpt>
      <trkpt lat="48.86525" lon="2.37178">
        <ele>84.2</ele>
        <time>2015-02-16T19:40:21.780Z</time>
      </trkpt>
      <trkpt lat="48.86525" lon="2.37185">
        <ele>84.5</ele>
        <time>2015-02-16T19:40:22.797Z</time>
      </trkpt>
      <trkpt lat="48.86525" lon="2.37198">
        <ele>84.9</ele>
        <time>2015-02-16T19:40:24.825Z</time>
      </trkpt>
      <trkpt lat="48.86526" lon="2.37204">
        <ele>85.3</ele>
        <time>2015-02-16T19:40:25.732Z</time>
      </trkpt>
      <trkpt lat="48.8653" lon="2.37213">
        <ele>86.1</ele>
        <time>2015-02-16T19:40:26.676Z</time>
      </trkpt>
      <trkpt lat="48.8653" lon="2.37218">
        <ele>86.4</ele>
        <time>2015-02-16T19:40:27.678Z</time>
      </trkpt>
      <trkpt lat="48.86529" lon="2.37229">
        <ele>86.8</ele>
        <time>2015-02-16T19:40:30.491Z</time>
      </trkpt>
      <trkpt lat="48.86528" lon="2.37234">
        <ele>87</ele>
        <time>2015-02-16T19:40:30.774Z</time>
      </trkpt>
      <trkpt lat="48.86527" lon="2.37244">
        <ele>87.5</ele>
        <time>2015-02-16T19:40:32.701Z</time>
      </trkpt>
      <trkpt lat="48.86526" lon="2.37249">
        <ele>87.6</ele>
        <time>2015-02-16T19:40:33.746Z</time>
      </trkpt>
      <trkpt lat="48.86525" lon="2.37259">
        <ele>88</ele>
        <time>2015-02-16T19:40:35.645Z</time>
      </trkpt>
      <trkpt lat="48.86524" lon="2.37265">
        <ele>88</ele>
        <time>2015-02-16T19:40:36.736Z</time>
      </trkpt>
      <trkpt lat="48.86522" lon="2.37275">
        <ele>88.3</ele>
        <time>2015-02-16T19:40:38.742Z</time>
      </trkpt>
      <trkpt lat="48.86521" lon="2.3728">
        <ele>88.5</ele>
        <time>2015-02-16T19:40:39.748Z</time>
      </trkpt>
      <trkpt lat="48.86518" lon="2.37291">
        <ele>88.6</ele>
        <time>2015-02-16T19:40:41.863Z</time>
      </trkpt>
      <trkpt lat="48.86517" lon="2.37296">
        <ele>88.7</ele>
        <time>2015-02-16T19:40:42.705Z</time>
      </trkpt>
      <trkpt lat="48.86514" lon="2.37307">
        <ele>89</ele>
        <time>2015-02-16T19:40:45.742Z</time>
      </trkpt>
      <trkpt lat="48.86512" lon="2.37312">
        <ele>89.2</ele>
        <time>2015-02-16T19:40:45.814Z</time>
      </trkpt>
      <trkpt lat="48.86509" lon="2.37322">
        <ele>89.7</ele>
        <time>2015-02-16T19:40:47.671Z</time>
      </trkpt>
      <trkpt lat="48.86508" lon="2.37326">
        <ele>90</ele>
        <time>2015-02-16T19:40:48.683Z</time>
      </trkpt>
      <trkpt lat="48.86502" lon="2.37336">
        <ele>90.4</ele>
        <time>2015-02-16T19:40:51.677Z</time>
      </trkpt>
      <trkpt lat="48.86499" lon="2.37339">
        <ele>90.5</ele>
        <time>2015-02-16T19:40:52.688Z</time>
      </trkpt>
      <trkpt lat="48.86496" lon="2.37347">
        <ele>90.8</ele>
        <time>2015-02-16T19:40:54.748Z</time>
      </trkpt>
      <trkpt lat="48.86494" lon="2.37351">
        <ele>91.1</ele>
        <time>2015-02-16T19:40:55.766Z</time>
      </trkpt>
      <trkpt lat="48.86488" lon="2.37358">
        <ele>91.5</ele>
        <time>2015-02-16T19:40:57.759Z</time>
      </trkpt>
      <trkpt lat="48.86487" lon="2.37362">
        <ele>92</ele>
        <time>2015-02-16T19:40:58.673Z</time>
      </trkpt>
      <trkpt lat="48.86484" lon="2.37372">
        <ele>93.3</ele>
        <time>2015-02-16T19:41:01.741Z</time>
      </trkpt>
      <trkpt lat="48.86483" lon="2.37375">
        <ele>93.6</ele>
        <time>2015-02-16T19:41:02.751Z</time>
      </trkpt>
      <trkpt lat="48.86484" lon="2.37387">
        <ele>94.4</ele>
        <time>2015-02-16T19:41:05.848Z</time>
      </trkpt>
      <trkpt lat="48.86483" lon="2.3739">
        <ele>94.6</ele>
        <time>2015-02-16T19:41:06.718Z</time>
      </trkpt>
      <trkpt lat="48.86482" lon="2.37402">
        <ele>95.3</ele>
        <time>2015-02-16T19:41:09.742Z</time>
      </trkpt>
      <trkpt lat="48.8648" lon="2.37407">
        <ele>95.5</ele>
        <time>2015-02-16T19:41:10.745Z</time>
      </trkpt>
      <trkpt lat="48.86479" lon="2.37418">
        <ele>95.4</ele>
        <time>2015-02-16T19:41:12.769Z</time>
      </trkpt>
      <trkpt lat="48.86478" lon="2.37423">
        <ele>95.4</ele>
        <time>2015-02-16T19:41:13.792Z</time>
      </trkpt>
      <trkpt lat="48.86479" lon="2.37429">
        <ele>95.2</ele>
        <time>2015-02-16T19:41:14.730Z</time>
      </trkpt>
      <trkpt lat="48.86481" lon="2.37437">
        <ele>94</ele>
        <time>2015-02-16T19:41:15.748Z</time>
      </trkpt>
      <trkpt lat="48.86489" lon="2.3745">
        <ele>90.6</ele>
        <time>2015-02-16T19:41:16.776Z</time>
      </trkpt>
      <trkpt lat="48.86496" lon="2.37462">
        <ele>87.2</ele>
        <time>2015-02-16T19:41:17.674Z</time>
      </trkpt>
      <trkpt lat="48.865" lon="2.37472">
        <ele>85.3</ele>
        <time>2015-02-16T19:41:19.276Z</time>
      </trkpt>
      <trkpt lat="48.86504" lon="2.37482">
        <ele>83.7</ele>
        <time>2015-02-16T19:41:19.725Z</time>
      </trkpt>
      <trkpt lat="48.86501" lon="2.37495">
        <ele>83.9</ele>
        <time>2015-02-16T19:41:21.704Z</time>
      </trkpt>
      <trkpt lat="48.86499" lon="2.37501">
        <ele>84.2</ele>
        <time>2015-02-16T19:41:22.678Z</time>
      </trkpt>
      <trkpt lat="48.86496" lon="2.37513">
        <ele>84.6</ele>
        <time>2015-02-16T19:41:24.710Z</time>
      </trkpt>
      <trkpt lat="48.86494" lon="2.37518">
        <ele>84.8</ele>
        <time>2015-02-16T19:41:25.713Z</time>
      </trkpt>
      <trkpt lat="48.86489" lon="2.37528">
        <ele>84.8</ele>
        <time>2015-02-16T19:41:27.675Z</time>
      </trkpt>
      <trkpt lat="48.86487" lon="2.37532">
        <ele>84.9</ele>
        <time>2015-02-16T19:41:28.681Z</time>
      </trkpt>
      <trkpt lat="48.86484" lon="2.37541">
        <ele>85.3</ele>
        <time>2015-02-16T19:41:30.729Z</time>
      </trkpt>
      <trkpt lat="48.86483" lon="2.37546">
        <ele>85.4</ele>
        <time>2015-02-16T19:41:31.800Z</time>
      </trkpt>
      <trkpt lat="48.8648" lon="2.37556">
        <ele>86</ele>
        <time>2015-02-16T19:41:33.696Z</time>
      </trkpt>
      <trkpt lat="48.86478" lon="2.37561">
        <ele>86.2</ele>
        <time>2015-02-16T19:41:34.708Z</time>
      </trkpt>
      <trkpt lat="48.86472" lon="2.37569">
        <ele>86.6</ele>
        <time>2015-02-16T19:41:36.774Z</time>
      </trkpt>
      <trkpt lat="48.86469" lon="2.37572">
        <ele>86.9</ele>
        <time>2015-02-16T19:41:37.698Z</time>
      </trkpt>
      <trkpt lat="48.86461" lon="2.37579">
        <ele>87.2</ele>
        <time>2015-02-16T19:41:40.750Z</time>
      </trkpt>
      <trkpt lat="48.86458" lon="2.37583">
        <ele>87.4</ele>
        <time>2015-02-16T19:41:40.797Z</time>
      </trkpt>
      <trkpt lat="48.86452" lon="2.37591">
        <ele>87.8</ele>
        <time>2015-02-16T19:41:42.713Z</time>
      </trkpt>
      <trkpt lat="48.86447" lon="2.37595">
        <ele>88</ele>
        <time>2015-02-16T19:41:43.736Z</time>
      </trkpt>
      <trkpt lat="48.86444" lon="2.376">
        <ele>88.2</ele>
        <time>2015-02-16T19:41:44.768Z</time>
      </trkpt>
      <trkpt lat="48.86441" lon="2.37605">
        <ele>88.5</ele>
        <time>2015-02-16T19:41:45.819Z</time>
      </trkpt>
      <trkpt lat="48.86435" lon="2.37614">
        <ele>89</ele>
        <time>2015-02-16T19:41:47.718Z</time>
      </trkpt>
      <trkpt lat="48.86432" lon="2.37618">
        <ele>89.2</ele>
        <time>2015-02-16T19:41:48.722Z</time>
      </trkpt>
      <trkpt lat="48.86427" lon="2.37626">
        <ele>89.5</ele>
        <time>2015-02-16T19:41:50.884Z</time>
      </trkpt>
      <trkpt lat="48.86425" lon="2.37631">
        <ele>89.7</ele>
        <time>2015-02-16T19:41:51.648Z</time>
      </trkpt>
      <trkpt lat="48.8642" lon="2.37641">
        <ele>90.1</ele>
        <time>2015-02-16T19:41:53.704Z</time>
      </trkpt>
      <trkpt lat="48.86417" lon="2.37646">
        <ele>90.3</ele>
        <time>2015-02-16T19:41:54.734Z</time>
      </trkpt>
      <trkpt lat="48.86411" lon="2.37653">
        <ele>90.7</ele>
        <time>2015-02-16T19:41:56.650Z</time>
      </trkpt>
      <trkpt lat="48.86409" lon="2.37657">
        <ele>90.9</ele>
        <time>2015-02-16T19:41:57.650Z</time>
      </trkpt>
      <trkpt lat="48.86403" lon="2.37667">
        <ele>91.4</ele>
        <time>2015-02-16T19:42:00.984Z</time>
      </trkpt>
      <trkpt lat="48.86401" lon="2.37669">
        <ele>91.6</ele>
        <time>2015-02-16T19:42:01.742Z</time>
      </trkpt>
      <trkpt lat="48.864" lon="2.37676">
        <ele>92.5</ele>
        <time>2015-02-16T19:42:03.673Z</time>
      </trkpt>
      <trkpt lat="48.86401" lon="2.37686">
        <ele>94.2</ele>
        <time>2015-02-16T19:42:04.675Z</time>
      </trkpt>
      <trkpt lat="48.86404" lon="2.37694">
        <ele>95.1</ele>
        <time>2015-02-16T19:42:05.690Z</time>
      </trkpt>
      <trkpt lat="48.86408" lon="2.37703">
        <ele>96.1</ele>
        <time>2015-02-16T19:42:06.715Z</time>
      </trkpt>
      <trkpt lat="48.8641" lon="2.37711">
        <ele>96.8</ele>
        <time>2015-02-16T19:42:07.749Z</time>
      </trkpt>
      <trkpt lat="48.86412" lon="2.37716">
        <ele>96.8</ele>
        <time>2015-02-16T19:42:08.651Z</time>
      </trkpt>
      <trkpt lat="48.86416" lon="2.37726">
        <ele>97.3</ele>
        <time>2015-02-16T19:42:11.145Z</time>
      </trkpt>
      <trkpt lat="48.86419" lon="2.37734">
        <ele>98.5</ele>
        <time>2015-02-16T19:42:11.728Z</time>
      </trkpt>
      <trkpt lat="48.8642" lon="2.37736">
        <ele>98.7</ele>
        <time>2015-02-16T19:42:12.768Z</time>
      </trkpt>
      <trkpt lat="48.86421" lon="2.37738">
        <ele>98.8</ele>
        <time>2015-02-16T19:42:13.679Z</time>
      </trkpt>
      <trkpt lat="48.86422" lon="2.37741">
        <ele>99.1</ele>
        <time>2015-02-16T19:42:14.758Z</time>
      </trkpt>
      <trkpt lat="48.8642" lon="2.37753">
        <ele>99.6</ele>
        <time>2015-02-16T19:42:21.337Z</time>
      </trkpt>
      <trkpt lat="48.86418" lon="2.37756">
        <ele>99.7</ele>
        <time>2015-02-16T19:42:21.673Z</time>
      </trkpt>
      <trkpt lat="48.86411" lon="2.37765">
        <ele>100.2</ele>
        <time>2015-02-16T19:42:26.476Z</time>
      </trkpt>
      <trkpt lat="48.8641" lon="2.37766">
        <ele>100.4</ele>
        <time>2015-02-16T19:42:26.672Z</time>
      </trkpt>
      <trkpt lat="48.86405" lon="2.37769">
        <ele>100.5</ele>
        <time>2015-02-16T19:42:28.693Z</time>
      </trkpt>
      <trkpt lat="48.86401" lon="2.37772">
        <ele>100.5</ele>
        <time>2015-02-16T19:42:29.698Z</time>
      </trkpt>
      <trkpt lat="48.86394" lon="2.37777">
        <ele>100.6</ele>
        <time>2015-02-16T19:42:31.786Z</time>
      </trkpt>
      <trkpt lat="48.86344" lon="2.37861">
        <ele>104.2</ele>
        <time>2015-02-16T19:43:02.696Z</time>
      </trkpt>
      <trkpt lat="48.86347" lon="2.3787">
        <ele>101.8</ele>
        <time>2015-02-16T19:43:04.640Z</time>
      </trkpt>
      <trkpt lat="48.86351" lon="2.37876">
        <ele>98.7</ele>
        <time>2015-02-16T19:43:05.682Z</time>
      </trkpt>
      <trkpt lat="48.86352" lon="2.37882">
        <ele>95.8</ele>
        <time>2015-02-16T19:43:14.684Z</time>
      </trkpt>
      <trkpt lat="48.86352" lon="2.37883">
        <ele>95.8</ele>
        <time>2015-02-16T19:43:15.777Z</time>
      </trkpt>
      <trkpt lat="48.86353" lon="2.37883">
        <ele>96.2</ele>
        <time>2015-02-16T19:43:21.715Z</time>
      </trkpt>
      <trkpt lat="48.86352" lon="2.37884">
        <ele>96.4</ele>
        <time>2015-02-16T19:43:22.718Z</time>
      </trkpt>
      <trkpt lat="48.86361" lon="2.3788">
        <ele>95.2</ele>
        <time>2015-02-16T19:43:33.706Z</time>
      </trkpt>
      <trkpt lat="48.86361" lon="2.37878">
        <ele>95.2</ele>
        <time>2015-02-16T19:43:34.715Z</time>
      </trkpt>
      <trkpt lat="48.86361" lon="2.37878">
        <ele>95.2</ele>
        <time>2015-02-16T19:43:35.562Z</time>
      </trkpt>
      <trkpt lat="48.86353" lon="2.37836">
        <ele>96.3</ele>
        <time>2015-02-16T19:44:46.657Z</time>
      </trkpt>
      <trkpt lat="48.86349" lon="2.37828">
        <ele>96.7</ele>
        <time>2015-02-16T19:44:47.660Z</time>
      </trkpt>
      <trkpt lat="48.86343" lon="2.37819">
        <ele>97.8</ele>
        <time>2015-02-16T19:44:48.670Z</time>
      </trkpt>
      <trkpt lat="48.8634" lon="2.37808">
        <ele>100.6</ele>
        <time>2015-02-16T19:44:50.712Z</time>
      </trkpt>
      <trkpt lat="48.86339" lon="2.37802">
        <ele>101.5</ele>
        <time>2015-02-16T19:44:51.704Z</time>
      </trkpt>
      <trkpt lat="48.8634" lon="2.37793">
        <ele>105</ele>
        <time>2015-02-16T19:44:53.669Z</time>
      </trkpt>
      <trkpt lat="48.86338" lon="2.37789">
        <ele>106.4</ele>
        <time>2015-02-16T19:44:54.701Z</time>
      </trkpt>
      <trkpt lat="48.8634" lon="2.37777">
        <ele>111.1</ele>
        <time>2015-02-16T19:44:58.390Z</time>
      </trkpt>
      <trkpt lat="48.8634" lon="2.37773">
        <ele>112.5</ele>
        <time>2015-02-16T19:44:58.725Z</time>
      </trkpt>
      <trkpt lat="48.86338" lon="2.3776">
        <ele>111.9</ele>
        <time>2015-02-16T19:45:02.700Z</time>
      </trkpt>
      <trkpt lat="48.86337" lon="2.37758">
        <ele>111.3</ele>
        <time>2015-02-16T19:45:03.737Z</time>
      </trkpt>
      <trkpt lat="48.86331" lon="2.37749">
        <ele>115</ele>
        <time>2015-02-16T19:45:07.714Z</time>
      </trkpt>
      <trkpt lat="48.8633" lon="2.37747">
        <ele>115.6</ele>
        <time>2015-02-16T19:45:08.726Z</time>
      </trkpt>
      <trkpt lat="48.86328" lon="2.37745">
        <ele>115.9</ele>
        <time>2015-02-16T19:45:13.686Z</time>
      </trkpt>
      <trkpt lat="48.86329" lon="2.37744">
        <ele>115.9</ele>
        <time>2015-02-16T19:45:14.710Z</time>
      </trkpt>
      <trkpt lat="48.8633" lon="2.37746">
        <ele>115.8</ele>
        <time>2015-02-16T19:45:15.715Z</time>
      </trkpt>
      <trkpt lat="48.86336" lon="2.37753">
        <ele>104.8</ele>
        <time>2015-02-16T19:45:21.461Z</time>
      </trkpt>
      <trkpt lat="48.86335" lon="2.37752">
        <ele>104.3</ele>
        <time>2015-02-16T19:45:21.710Z</time>
      </trkpt>
      <trkpt lat="48.86335" lon="2.37751">
        <ele>104.1</ele>
        <time>2015-02-16T19:45:28.636Z</time>
      </trkpt>
      <trkpt lat="48.86332" lon="2.37751">
        <ele>101.9</ele>
        <time>2015-02-16T19:45:29.672Z</time>
      </trkpt>
      <trkpt lat="48.86337" lon="2.3776">
        <ele>99.5</ele>
        <time>2015-02-16T19:45:40.690Z</time>
      </trkpt>
      <trkpt lat="48.86337" lon="2.37762">
        <ele>98.8</ele>
        <time>2015-02-16T19:45:41.706Z</time>
      </trkpt>
      <trkpt lat="48.8634" lon="2.37773">
        <ele>96</ele>
        <time>2015-02-16T19:45:46.699Z</time>
      </trkpt>
      <trkpt lat="48.86343" lon="2.37773">
        <ele>96.3</ele>
        <time>2015-02-16T19:45:47.708Z</time>
      </trkpt>
      <trkpt lat="48.86349" lon="2.37781">
        <ele>98.3</ele>
        <time>2015-02-16T19:45:53.669Z</time>
      </trkpt>
      <trkpt lat="48.8635" lon="2.37784">
        <ele>98.7</ele>
        <time>2015-02-16T19:45:54.678Z</time>
      </trkpt>
      <trkpt lat="48.86356" lon="2.37793">
        <ele>101</ele>
        <time>2015-02-16T19:46:05.807Z</time>
      </trkpt>
      <trkpt lat="48.86357" lon="2.37795">
        <ele>101.2</ele>
        <time>2015-02-16T19:46:06.800Z</time>
      </trkpt>
      <trkpt lat="48.86357" lon="2.37797">
        <ele>101.5</ele>
        <time>2015-02-16T19:46:07.647Z</time>
      </trkpt>
      <trkpt lat="48.86358" lon="2.37887">
        <ele>89.2</ele>
        <time>2015-02-16T19:47:50.870Z</time>
      </trkpt>
      <trkpt lat="48.86307" lon="2.379">
        <ele>90.1</ele>
        <time>2015-02-16T19:48:05.656Z</time>
      </trkpt>
      <trkpt lat="48.86302" lon="2.37904">
        <ele>89</ele>
        <time>2015-02-16T19:48:07.712Z</time>
      </trkpt>
      <trkpt lat="48.86298" lon="2.37905">
        <ele>89.1</ele>
        <time>2015-02-16T19:48:08.720Z</time>
      </trkpt>
      <trkpt lat="48.86294" lon="2.37907">
        <ele>89.3</ele>
        <time>2015-02-16T19:48:09.616Z</time>
      </trkpt>
      <trkpt lat="48.86235" lon="2.37951">
        <ele>97</ele>
        <time>2015-02-16T19:48:27.748Z</time>
      </trkpt>
      <trkpt lat="48.86229" lon="2.37953">
        <ele>97.4</ele>
        <time>2015-02-16T19:48:30.480Z</time>
      </trkpt>
      <trkpt lat="48.86074" lon="2.38027">
        <ele>105.2</ele>
        <time>2015-02-16T19:49:09.655Z</time>
      </trkpt>
      <trkpt lat="48.86074" lon="2.38034">
        <ele>102.4</ele>
        <time>2015-02-16T19:49:10.685Z</time>
      </trkpt>
      <trkpt lat="48.86064" lon="2.38046">
        <ele>103.2</ele>
        <time>2015-02-16T19:49:13.734Z</time>
      </trkpt>
      <trkpt lat="48.86058" lon="2.38055">
        <ele>102.8</ele>
        <time>2015-02-16T19:49:15.662Z</time>
      </trkpt>
      <trkpt lat="48.86048" lon="2.38068">
        <ele>103.8</ele>
        <time>2015-02-16T19:49:18.762Z</time>
      </trkpt>
      <trkpt lat="48.86042" lon="2.38077">
        <ele>103.1</ele>
        <time>2015-02-16T19:49:20.655Z</time>
      </trkpt>
      <trkpt lat="48.86039" lon="2.38082">
        <ele>102.7</ele>
        <time>2015-02-16T19:49:21.670Z</time>
      </trkpt>
      <trkpt lat="48.86035" lon="2.38086">
        <ele>102.4</ele>
        <time>2015-02-16T19:49:22.730Z</time>
      </trkpt>
      <trkpt lat="48.86032" lon="2.38091">
        <ele>102</ele>
        <time>2015-02-16T19:49:23.732Z</time>
      </trkpt>
      <trkpt lat="48.86026" lon="2.38101">
        <ele>101.4</ele>
        <time>2015-02-16T19:49:25.743Z</time>
      </trkpt>
      <trkpt lat="48.86024" lon="2.38107">
        <ele>101</ele>
        <time>2015-02-16T19:49:26.723Z</time>
      </trkpt>
      <trkpt lat="48.8602" lon="2.38112">
        <ele>100.6</ele>
        <time>2015-02-16T19:49:27.669Z</time>
      </trkpt>
      <trkpt lat="48.86017" lon="2.38117">
        <ele>100.1</ele>
        <time>2015-02-16T19:49:28.654Z</time>
      </trkpt>
      <trkpt lat="48.8601" lon="2.38124">
        <ele>99.5</ele>
        <time>2015-02-16T19:49:30.716Z</time>
      </trkpt>
      <trkpt lat="48.86006" lon="2.38126">
        <ele>99.2</ele>
        <time>2015-02-16T19:49:31.722Z</time>
      </trkpt>
      <trkpt lat="48.85999" lon="2.3813">
        <ele>98.6</ele>
        <time>2015-02-16T19:49:33.664Z</time>
      </trkpt>
      <trkpt lat="48.85997" lon="2.38134">
        <ele>98</ele>
        <time>2015-02-16T19:49:34.678Z</time>
      </trkpt>
      <trkpt lat="48.85998" lon="2.38142">
        <ele>94.9</ele>
        <time>2015-02-16T19:49:35.704Z</time>
      </trkpt>
      <trkpt lat="48.85999" lon="2.38148">
        <ele>92.4</ele>
        <time>2015-02-16T19:49:36.715Z</time>
      </trkpt>
      <trkpt lat="48.85997" lon="2.38157">
        <ele>87.9</ele>
        <time>2015-02-16T19:49:38.664Z</time>
      </trkpt>
      <trkpt lat="48.85994" lon="2.3816">
        <ele>88.3</ele>
        <time>2015-02-16T19:49:39.690Z</time>
      </trkpt>
      <trkpt lat="48.85986" lon="2.38163">
        <ele>89</ele>
        <time>2015-02-16T19:49:41.683Z</time>
      </trkpt>
      <trkpt lat="48.85891" lon="2.38254">
        <ele>98.7</ele>
        <time>2015-02-16T19:50:13.748Z</time>
      </trkpt>
      <trkpt lat="48.8589" lon="2.38257">
        <ele>97.9</ele>
        <time>2015-02-16T19:50:14.715Z</time>
      </trkpt>
      <trkpt lat="48.85873" lon="2.38277">
        <ele>94.7</ele>
        <time>2015-02-16T19:50:21.752Z</time>
      </trkpt>
      <trkpt lat="48.85852" lon="2.38292">
        <ele>95.1</ele>
        <time>2015-02-16T19:50:27.661Z</time>
      </trkpt>
      <trkpt lat="48.85847" lon="2.38298">
        <ele>93.9</ele>
        <time>2015-02-16T19:50:29.722Z</time>
      </trkpt>
      <trkpt lat="48.85848" lon="2.38305">
        <ele>93.6</ele>
        <time>2015-02-16T19:50:30.741Z</time>
      </trkpt>
      <trkpt lat="48.85848" lon="2.38317">
        <ele>92.4</ele>
        <time>2015-02-16T19:50:33.695Z</time>
      </trkpt>
      <trkpt lat="48.85847" lon="2.3832">
        <ele>92.5</ele>
        <time>2015-02-16T19:50:34.700Z</time>
      </trkpt>
      <trkpt lat="48.85849" lon="2.38328">
        <ele>93</ele>
        <time>2015-02-16T19:50:43.688Z</time>
      </trkpt>
      <trkpt lat="48.85852" lon="2.38334">
        <ele>93.6</ele>
        <time>2015-02-16T19:50:44.703Z</time>
      </trkpt>
      <trkpt lat="48.85855" lon="2.38343">
        <ele>94.4</ele>
        <time>2015-02-16T19:50:55.683Z</time>
      </trkpt>
      <trkpt lat="48.85856" lon="2.3835">
        <ele>95</ele>
        <time>2015-02-16T19:50:56.688Z</time>
      </trkpt>
      <trkpt lat="48.85852" lon="2.38361">
        <ele>95.3</ele>
        <time>2015-02-16T19:51:00.739Z</time>
      </trkpt>
      <trkpt lat="48.85854" lon="2.38367">
        <ele>93.5</ele>
        <time>2015-02-16T19:51:01.750Z</time>
      </trkpt>
      <trkpt lat="48.85857" lon="2.38377">
        <ele>92.3</ele>
        <time>2015-02-16T19:51:03.658Z</time>
      </trkpt>
      <trkpt lat="48.85858" lon="2.38381">
        <ele>92.2</ele>
        <time>2015-02-16T19:51:04.670Z</time>
      </trkpt>
      <trkpt lat="48.85862" lon="2.38391">
        <ele>91.6</ele>
        <time>2015-02-16T19:51:06.707Z</time>
      </trkpt>
      <trkpt lat="48.85865" lon="2.38396">
        <ele>90.9</ele>
        <time>2015-02-16T19:51:07.710Z</time>
      </trkpt>
      <trkpt lat="48.85869" lon="2.38407">
        <ele>89.8</ele>
        <time>2015-02-16T19:51:09.736Z</time>
      </trkpt>
      <trkpt lat="48.85871" lon="2.38411">
        <ele>89.7</ele>
        <time>2015-02-16T19:51:10.732Z</time>
      </trkpt>
      <trkpt lat="48.85874" lon="2.38422">
        <ele>89.2</ele>
        <time>2015-02-16T19:51:12.733Z</time>
      </trkpt>
      <trkpt lat="48.85876" lon="2.38427">
        <ele>89.2</ele>
        <time>2015-02-16T19:51:13.730Z</time>
      </trkpt>
      <trkpt lat="48.85881" lon="2.38438">
        <ele>88.9</ele>
        <time>2015-02-16T19:51:15.684Z</time>
      </trkpt>
      <trkpt lat="48.85882" lon="2.38444">
        <ele>88.9</ele>
        <time>2015-02-16T19:51:16.680Z</time>
      </trkpt>
      <trkpt lat="48.85885" lon="2.38455">
        <ele>88.6</ele>
        <time>2015-02-16T19:51:18.736Z</time>
      </trkpt>
      <trkpt lat="48.85887" lon="2.3846">
        <ele>88.5</ele>
        <time>2015-02-16T19:51:19.853Z</time>
      </trkpt>
      <trkpt lat="48.8589" lon="2.38471">
        <ele>88.5</ele>
        <time>2015-02-16T19:51:21.678Z</time>
      </trkpt>
      <trkpt lat="48.85891" lon="2.38476">
        <ele>88.9</ele>
        <time>2015-02-16T19:51:22.689Z</time>
      </trkpt>
      <trkpt lat="48.85896" lon="2.38487">
        <ele>89.1</ele>
        <time>2015-02-16T19:51:25.056Z</time>
      </trkpt>
      <trkpt lat="48.85899" lon="2.38492">
        <ele>89.2</ele>
        <time>2015-02-16T19:51:25.756Z</time>
      </trkpt>
      <trkpt lat="48.85902" lon="2.38504">
        <ele>89.9</ele>
        <time>2015-02-16T19:51:28.163Z</time>
      </trkpt>
      <trkpt lat="48.85905" lon="2.3851">
        <ele>90</ele>
        <time>2015-02-16T19:51:28.726Z</time>
      </trkpt>
      <trkpt lat="48.85909" lon="2.38519">
        <ele>89.7</ele>
        <time>2015-02-16T19:51:30.663Z</time>
      </trkpt>
      <trkpt lat="48.8591" lon="2.38524">
        <ele>89.7</ele>
        <time>2015-02-16T19:51:31.680Z</time>
      </trkpt>
      <trkpt lat="48.85914" lon="2.38535">
        <ele>90.2</ele>
        <time>2015-02-16T19:51:33.698Z</time>
      </trkpt>
      <trkpt lat="48.85916" lon="2.3854">
        <ele>90.2</ele>
        <time>2015-02-16T19:51:34.701Z</time>
      </trkpt>
      <trkpt lat="48.85921" lon="2.3855">
        <ele>90.9</ele>
        <time>2015-02-16T19:51:36.743Z</time>
      </trkpt>
      <trkpt lat="48.85923" lon="2.38555">
        <ele>90.9</ele>
        <time>2015-02-16T19:51:37.669Z</time>
      </trkpt>
      <trkpt lat="48.85926" lon="2.38564">
        <ele>91.3</ele>
        <time>2015-02-16T19:51:39.675Z</time>
      </trkpt>
      <trkpt lat="48.85927" lon="2.38569">
        <ele>91.4</ele>
        <time>2015-02-16T19:51:40.695Z</time>
      </trkpt>
      <trkpt lat="48.85928" lon="2.38579">
        <ele>91.7</ele>
        <time>2015-02-16T19:51:42.714Z</time>
      </trkpt>
      <trkpt lat="48.85929" lon="2.38582">
        <ele>91.9</ele>
        <time>2015-02-16T19:51:43.710Z</time>
      </trkpt>
      <trkpt lat="48.85933" lon="2.3859">
        <ele>92.9</ele>
        <time>2015-02-16T19:51:45.729Z</time>
      </trkpt>
      <trkpt lat="48.85935" lon="2.38593">
        <ele>93.3</ele>
        <time>2015-02-16T19:51:46.743Z</time>
      </trkpt>
      <trkpt lat="48.85939" lon="2.38603">
        <ele>93.8</ele>
        <time>2015-02-16T19:51:48.794Z</time>
      </trkpt>
      <trkpt lat="48.85941" lon="2.38607">
        <ele>94</ele>
        <time>2015-02-16T19:51:49.699Z</time>
      </trkpt>
      <trkpt lat="48.85943" lon="2.38618">
        <ele>94.6</ele>
        <time>2015-02-16T19:51:51.664Z</time>
      </trkpt>
      <trkpt lat="48.85945" lon="2.38622">
        <ele>95.2</ele>
        <time>2015-02-16T19:51:52.712Z</time>
      </trkpt>
      <trkpt lat="48.85949" lon="2.38631">
        <ele>96.1</ele>
        <time>2015-02-16T19:51:54.765Z</time>
      </trkpt>
      <trkpt lat="48.8595" lon="2.38636">
        <ele>96.4</ele>
        <time>2015-02-16T19:51:55.783Z</time>
      </trkpt>
      <trkpt lat="48.85951" lon="2.38649">
        <ele>96.5</ele>
        <time>2015-02-16T19:51:58.964Z</time>
      </trkpt>
      <trkpt lat="48.85952" lon="2.38653">
        <ele>96.5</ele>
        <time>2015-02-16T19:51:59.737Z</time>
      </trkpt>
      <trkpt lat="48.85957" lon="2.38664">
        <ele>96.6</ele>
        <time>2015-02-16T19:52:04.730Z</time>
      </trkpt>
      <trkpt lat="48.85954" lon="2.38667">
        <ele>96.5</ele>
        <time>2015-02-16T19:52:05.668Z</time>
      </trkpt>
      <trkpt lat="48.85954" lon="2.38677">
        <ele>96.2</ele>
        <time>2015-02-16T19:52:08.735Z</time>
      </trkpt>
      <trkpt lat="48.85955" lon="2.38681">
        <ele>96.1</ele>
        <time>2015-02-16T19:52:09.734Z</time>
      </trkpt>
      <trkpt lat="48.85956" lon="2.38694">
        <ele>96</ele>
        <time>2015-02-16T19:52:12.693Z</time>
      </trkpt>
      <trkpt lat="48.85957" lon="2.38698">
        <ele>96.3</ele>
        <time>2015-02-16T19:52:13.696Z</time>
      </trkpt>
      <trkpt lat="48.85961" lon="2.3871">
        <ele>96.3</ele>
        <time>2015-02-16T19:52:16.846Z</time>
      </trkpt>
      <trkpt lat="48.85963" lon="2.38714">
        <ele>96.3</ele>
        <time>2015-02-16T19:52:17.659Z</time>
      </trkpt>
      <trkpt lat="48.85965" lon="2.38724">
        <ele>96</ele>
        <time>2015-02-16T19:52:19.700Z</time>
      </trkpt>
      <trkpt lat="48.85965" lon="2.38729">
        <ele>96.1</ele>
        <time>2015-02-16T19:52:20.715Z</time>
      </trkpt>
      <trkpt lat="48.85968" lon="2.38738">
        <ele>96.4</ele>
        <time>2015-02-16T19:52:22.737Z</time>
      </trkpt>
      <trkpt lat="48.85968" lon="2.38744">
        <ele>96.5</ele>
        <time>2015-02-16T19:52:23.748Z</time>
      </trkpt>
      <trkpt lat="48.8597" lon="2.38754">
        <ele>96.5</ele>
        <time>2015-02-16T19:52:26.425Z</time>
      </trkpt>
      <trkpt lat="48.85971" lon="2.38759">
        <ele>96.6</ele>
        <time>2015-02-16T19:52:26.723Z</time>
      </trkpt>
      <trkpt lat="48.85975" lon="2.38768">
        <ele>96.9</ele>
        <time>2015-02-16T19:52:28.664Z</time>
      </trkpt>
      <trkpt lat="48.85977" lon="2.38773">
        <ele>97</ele>
        <time>2015-02-16T19:52:29.707Z</time>
      </trkpt>
      <trkpt lat="48.85981" lon="2.38783">
        <ele>97.1</ele>
        <time>2015-02-16T19:52:31.730Z</time>
      </trkpt>
      <trkpt lat="48.85982" lon="2.38788">
        <ele>97</ele>
        <time>2015-02-16T19:52:32.636Z</time>
      </trkpt>
      <trkpt lat="48.85985" lon="2.38798">
        <ele>97</ele>
        <time>2015-02-16T19:52:35.560Z</time>
      </trkpt>
      <trkpt lat="48.85987" lon="2.38802">
        <ele>97</ele>
        <time>2015-02-16T19:52:35.677Z</time>
      </trkpt>
      <trkpt lat="48.85992" lon="2.38809">
        <ele>97</ele>
        <time>2015-02-16T19:52:37.696Z</time>
      </trkpt>
      <trkpt lat="48.85993" lon="2.38813">
        <ele>97</ele>
        <time>2015-02-16T19:52:38.701Z</time>
      </trkpt>
      <trkpt lat="48.85998" lon="2.3882">
        <ele>97.1</ele>
        <time>2015-02-16T19:52:40.744Z</time>
      </trkpt>
      <trkpt lat="48.86" lon="2.38824">
        <ele>96.9</ele>
        <time>2015-02-16T19:52:41.658Z</time>
      </trkpt>
      <trkpt lat="48.86001" lon="2.38835">
        <ele>96.9</ele>
        <time>2015-02-16T19:52:45.701Z</time>
      </trkpt>
      <trkpt lat="48.86001" lon="2.38837">
        <ele>96.9</ele>
        <time>2015-02-16T19:52:45.754Z</time>
      </trkpt>
      <trkpt lat="48.85998" lon="2.38849">
        <ele>97.8</ele>
        <time>2015-02-16T19:52:49.642Z</time>
      </trkpt>
      <trkpt lat="48.85996" lon="2.38851">
        <ele>97.9</ele>
        <time>2015-02-16T19:52:50.716Z</time>
      </trkpt>
      <trkpt lat="48.85996" lon="2.38851">
        <ele>97.9</ele>
        <time>2015-02-16T19:52:50.819Z</time>
      </trkpt>
      <trkpt lat="48.85993" lon="2.38852">
        <ele>97.6</ele>
        <time>2015-02-16T19:52:51.740Z</time>
      </trkpt>
      <trkpt lat="48.85993" lon="2.38853">
        <ele>98.2</ele>
        <time>2015-02-16T19:52:56.733Z</time>
      </trkpt>
      <trkpt lat="48.85991" lon="2.38854">
        <ele>99.1</ele>
        <time>2015-02-16T19:52:57.630Z</time>
      </trkpt>
      <trkpt lat="48.85985" lon="2.38861">
        <ele>98.9</ele>
        <time>2015-02-16T19:53:00.975Z</time>
      </trkpt>
      <trkpt lat="48.85983" lon="2.38864">
        <ele>98.8</ele>
        <time>2015-02-16T19:53:01.713Z</time>
      </trkpt>
      <trkpt lat="48.85977" lon="2.38869">
        <ele>99.1</ele>
        <time>2015-02-16T19:53:03.658Z</time>
      </trkpt>
      <trkpt lat="48.85973" lon="2.38872">
        <ele>99.2</ele>
        <time>2015-02-16T19:53:05.697Z</time>
      </trkpt>
      <trkpt lat="48.85966" lon="2.38878">
        <ele>98.9</ele>
        <time>2015-02-16T19:53:08.653Z</time>
      </trkpt>
      <trkpt lat="48.85964" lon="2.3888">
        <ele>99.1</ele>
        <time>2015-02-16T19:53:09.657Z</time>
      </trkpt>
      <trkpt lat="48.85955" lon="2.38882">
        <ele>98.8</ele>
        <time>2015-02-16T19:53:13.209Z</time>
      </trkpt>
      <trkpt lat="48.85952" lon="2.38884">
        <ele>98.6</ele>
        <time>2015-02-16T19:53:13.681Z</time>
      </trkpt>
      <trkpt lat="48.85944" lon="2.38887">
        <ele>98.4</ele>
        <time>2015-02-16T19:53:16.639Z</time>
      </trkpt>
      <trkpt lat="48.85942" lon="2.38888">
        <ele>98.5</ele>
        <time>2015-02-16T19:53:17.656Z</time>
      </trkpt>
      <trkpt lat="48.85935" lon="2.38889">
        <ele>98.3</ele>
        <time>2015-02-16T19:53:19.733Z</time>
      </trkpt>
      <trkpt lat="48.85931" lon="2.38889">
        <ele>98.3</ele>
        <time>2015-02-16T19:53:20.653Z</time>
      </trkpt>
      <trkpt lat="48.85924" lon="2.3889">
        <ele>98.3</ele>
        <time>2015-02-16T19:53:22.681Z</time>
      </trkpt>
      <trkpt lat="48.85921" lon="2.3889">
        <ele>98.3</ele>
        <time>2015-02-16T19:53:23.853Z</time>
      </trkpt>
      <trkpt lat="48.85915" lon="2.38893">
        <ele>98.4</ele>
        <time>2015-02-16T19:53:26.455Z</time>
      </trkpt>
      <trkpt lat="48.85889" lon="2.38901">
        <ele>98.9</ele>
        <time>2015-02-16T19:53:32.615Z</time>
      </trkpt>
      <trkpt lat="48.85882" lon="2.38903">
        <ele>99</ele>
        <time>2015-02-16T19:53:35.502Z</time>
      </trkpt>
      <trkpt lat="48.85878" lon="2.38904">
        <ele>99</ele>
        <time>2015-02-16T19:53:35.620Z</time>
      </trkpt>
      <trkpt lat="48.8587" lon="2.38904">
        <ele>99.2</ele>
        <time>2015-02-16T19:53:37.668Z</time>
      </trkpt>
      <trkpt lat="48.85867" lon="2.38904">
        <ele>99.3</ele>
        <time>2015-02-16T19:53:38.680Z</time>
      </trkpt>
      <trkpt lat="48.85862" lon="2.38904">
        <ele>99.4</ele>
        <time>2015-02-16T19:53:40.528Z</time>
      </trkpt>
      <trkpt lat="48.85857" lon="2.38904">
        <ele>99.5</ele>
        <time>2015-02-16T19:53:40.721Z</time>
      </trkpt>
      <trkpt lat="48.8585" lon="2.38904">
        <ele>99.7</ele>
        <time>2015-02-16T19:53:42.792Z</time>
      </trkpt>
      <trkpt lat="48.85846" lon="2.38905">
        <ele>99.9</ele>
        <time>2015-02-16T19:53:43.700Z</time>
      </trkpt>
      <trkpt lat="48.8584" lon="2.38907">
        <ele>100.1</ele>
        <time>2015-02-16T19:53:45.644Z</time>
      </trkpt>
      <trkpt lat="48.85836" lon="2.3891">
        <ele>100.2</ele>
        <time>2015-02-16T19:53:46.690Z</time>
      </trkpt>
      <trkpt lat="48.8583" lon="2.38915">
        <ele>100.3</ele>
        <time>2015-02-16T19:53:48.753Z</time>
      </trkpt>
      <trkpt lat="48.85829" lon="2.38919">
        <ele>100.2</ele>
        <time>2015-02-16T19:53:49.651Z</time>
      </trkpt>
      <trkpt lat="48.85827" lon="2.38923">
        <ele>100.4</ele>
        <time>2015-02-16T19:53:50.652Z</time>
      </trkpt>
      <trkpt lat="48.85828" lon="2.38934">
        <ele>101.4</ele>
        <time>2015-02-16T19:53:51.661Z</time>
      </trkpt>
      <trkpt lat="48.85827" lon="2.38945">
        <ele>101.6</ele>
        <time>2015-02-16T19:53:55.639Z</time>
      </trkpt>
      <trkpt lat="48.85826" lon="2.38948">
        <ele>101.8</ele>
        <time>2015-02-16T19:53:55.679Z</time>
      </trkpt>
      <trkpt lat="48.85822" lon="2.38958">
        <ele>102.2</ele>
        <time>2015-02-16T19:53:58.713Z</time>
      </trkpt>
      <trkpt lat="48.85821" lon="2.3896">
        <ele>102.3</ele>
        <time>2015-02-16T19:53:59.749Z</time>
      </trkpt>
      <trkpt lat="48.85816" lon="2.38971">
        <ele>102.3</ele>
        <time>2015-02-16T19:54:02.792Z</time>
      </trkpt>
      <trkpt lat="48.85814" lon="2.38975">
        <ele>102.4</ele>
        <time>2015-02-16T19:54:03.669Z</time>
      </trkpt>
      <trkpt lat="48.8581" lon="2.38986">
        <ele>102.6</ele>
        <time>2015-02-16T19:54:06.730Z</time>
      </trkpt>
      <trkpt lat="48.85809" lon="2.38991">
        <ele>102.7</ele>
        <time>2015-02-16T19:54:07.726Z</time>
      </trkpt>
      <trkpt lat="48.85805" lon="2.38999">
        <ele>103.1</ele>
        <time>2015-02-16T19:54:09.671Z</time>
      </trkpt>
      <trkpt lat="48.85803" lon="2.39002">
        <ele>103.3</ele>
        <time>2015-02-16T19:54:10.685Z</time>
      </trkpt>
      <trkpt lat="48.85801" lon="2.39013">
        <ele>104.1</ele>
        <time>2015-02-16T19:54:12.720Z</time>
      </trkpt>
      <trkpt lat="48.85801" lon="2.39019">
        <ele>104.2</ele>
        <time>2015-02-16T19:54:13.724Z</time>
      </trkpt>
      <trkpt lat="48.85799" lon="2.39027">
        <ele>104.4</ele>
        <time>2015-02-16T19:54:15.830Z</time>
      </trkpt>
      <trkpt lat="48.85797" lon="2.39032">
        <ele>104.7</ele>
        <time>2015-02-16T19:54:16.763Z</time>
      </trkpt>
      <trkpt lat="48.85793" lon="2.39039">
        <ele>105</ele>
        <time>2015-02-16T19:54:18.716Z</time>
      </trkpt>
      <trkpt lat="48.85791" lon="2.39047">
        <ele>105.2</ele>
        <time>2015-02-16T19:54:20.730Z</time>
      </trkpt>
      <trkpt lat="48.85787" lon="2.39056">
        <ele>105.5</ele>
        <time>2015-02-16T19:54:22.753Z</time>
      </trkpt>
      <trkpt lat="48.85786" lon="2.39059">
        <ele>105.7</ele>
        <time>2015-02-16T19:54:23.789Z</time>
      </trkpt>
      <trkpt lat="48.85783" lon="2.39071">
        <ele>105.9</ele>
        <time>2015-02-16T19:54:26.724Z</time>
      </trkpt>
      <trkpt lat="48.85782" lon="2.39075">
        <ele>106</ele>
        <time>2015-02-16T19:54:27.731Z</time>
      </trkpt>
      <trkpt lat="48.85781" lon="2.39085">
        <ele>106.4</ele>
        <time>2015-02-16T19:54:30.515Z</time>
      </trkpt>
      <trkpt lat="48.85781" lon="2.39092">
        <ele>106.8</ele>
        <time>2015-02-16T19:54:30.766Z</time>
      </trkpt>
      <trkpt lat="48.8578" lon="2.39104">
        <ele>107.4</ele>
        <time>2015-02-16T19:54:32.684Z</time>
      </trkpt>
      <trkpt lat="48.85779" lon="2.39109">
        <ele>107.7</ele>
        <time>2015-02-16T19:54:33.698Z</time>
      </trkpt>
      <trkpt lat="48.85777" lon="2.39122">
        <ele>108.1</ele>
        <time>2015-02-16T19:54:36.830Z</time>
      </trkpt>
      <trkpt lat="48.85775" lon="2.39125">
        <ele>108.2</ele>
        <time>2015-02-16T19:54:37.702Z</time>
      </trkpt>
      <trkpt lat="48.85771" lon="2.3913">
        <ele>108</ele>
        <time>2015-02-16T19:54:40.585Z</time>
      </trkpt>
      <trkpt lat="48.85766" lon="2.39133">
        <ele>107.7</ele>
        <time>2015-02-16T19:54:40.728Z</time>
      </trkpt>
      <trkpt lat="48.85758" lon="2.39138">
        <ele>107.3</ele>
        <time>2015-02-16T19:54:42.758Z</time>
      </trkpt>
      <trkpt lat="48.85754" lon="2.3914">
        <ele>107.3</ele>
        <time>2015-02-16T19:54:43.695Z</time>
      </trkpt>
      <trkpt lat="48.85746" lon="2.39146">
        <ele>107</ele>
        <time>2015-02-16T19:54:46.727Z</time>
      </trkpt>
      <trkpt lat="48.85743" lon="2.39148">
        <ele>107</ele>
        <time>2015-02-16T19:54:47.758Z</time>
      </trkpt>
      <trkpt lat="48.85735" lon="2.39152">
        <ele>106.6</ele>
        <time>2015-02-16T19:54:50.860Z</time>
      </trkpt>
      <trkpt lat="48.85735" lon="2.39154">
        <ele>105.6</ele>
        <time>2015-02-16T19:54:51.698Z</time>
      </trkpt>
      <trkpt lat="48.8573" lon="2.39159">
        <ele>105.3</ele>
        <time>2015-02-16T19:54:53.692Z</time>
      </trkpt>
      <trkpt lat="48.85727" lon="2.39162">
        <ele>105.2</ele>
        <time>2015-02-16T19:54:54.704Z</time>
      </trkpt>
      <trkpt lat="48.8572" lon="2.39164">
        <ele>105.2</ele>
        <time>2015-02-16T19:54:56.636Z</time>
      </trkpt>
      <trkpt lat="48.85696" lon="2.39164">
        <ele>105.2</ele>
        <time>2015-02-16T19:55:02.694Z</time>
      </trkpt>
      <trkpt lat="48.85688" lon="2.39164">
        <ele>104.9</ele>
        <time>2015-02-16T19:55:04.728Z</time>
      </trkpt>
      <trkpt lat="48.85684" lon="2.39164">
        <ele>104.8</ele>
        <time>2015-02-16T19:55:05.789Z</time>
      </trkpt>
      <trkpt lat="48.85679" lon="2.39163">
        <ele>104.6</ele>
        <time>2015-02-16T19:55:07.253Z</time>
      </trkpt>
      <trkpt lat="48.85674" lon="2.39162">
        <ele>104.4</ele>
        <time>2015-02-16T19:55:07.722Z</time>
      </trkpt>
      <trkpt lat="48.85601" lon="2.39167">
        <ele>104.5</ele>
        <time>2015-02-16T19:55:22.722Z</time>
      </trkpt>
      <trkpt lat="48.85594" lon="2.39171">
        <ele>104.2</ele>
        <time>2015-02-16T19:55:24.814Z</time>
      </trkpt>
      <trkpt lat="48.8559" lon="2.39173">
        <ele>104.2</ele>
        <time>2015-02-16T19:55:25.697Z</time>
      </trkpt>
      <trkpt lat="48.85586" lon="2.39181">
        <ele>102.1</ele>
        <time>2015-02-16T19:55:27.790Z</time>
      </trkpt>
      <trkpt lat="48.85586" lon="2.39187">
        <ele>100</ele>
        <time>2015-02-16T19:55:28.680Z</time>
      </trkpt>
      <trkpt lat="48.85581" lon="2.39191">
        <ele>98.8</ele>
        <time>2015-02-16T19:55:30.723Z</time>
      </trkpt>
      <trkpt lat="48.85577" lon="2.39192">
        <ele>98.7</ele>
        <time>2015-02-16T19:55:31.736Z</time>
      </trkpt>
      <trkpt lat="48.8557" lon="2.39193">
        <ele>98.6</ele>
        <time>2015-02-16T19:55:33.754Z</time>
      </trkpt>
      <trkpt lat="48.85566" lon="2.39195">
        <ele>98.5</ele>
        <time>2015-02-16T19:55:34.663Z</time>
      </trkpt>
      <trkpt lat="48.85559" lon="2.39198">
        <ele>97.9</ele>
        <time>2015-02-16T19:55:36.738Z</time>
      </trkpt>
      <trkpt lat="48.85554" lon="2.39198">
        <ele>97.6</ele>
        <time>2015-02-16T19:55:37.726Z</time>
      </trkpt>
      <trkpt lat="48.85546" lon="2.39196">
        <ele>97</ele>
        <time>2015-02-16T19:55:40.566Z</time>
      </trkpt>
      <trkpt lat="48.85541" lon="2.39195">
        <ele>96.9</ele>
        <time>2015-02-16T19:55:40.632Z</time>
      </trkpt>
      <trkpt lat="48.85534" lon="2.39203">
        <ele>92.8</ele>
        <time>2015-02-16T19:55:44.655Z</time>
      </trkpt>
      <trkpt lat="48.85531" lon="2.39204">
        <ele>92.6</ele>
        <time>2015-02-16T19:55:45.674Z</time>
      </trkpt>
      <trkpt lat="48.85523" lon="2.3921">
        <ele>91.5</ele>
        <time>2015-02-16T19:55:48.718Z</time>
      </trkpt>
      <trkpt lat="48.8552" lon="2.39211">
        <ele>91.1</ele>
        <time>2015-02-16T19:55:49.745Z</time>
      </trkpt>
      <trkpt lat="48.85512" lon="2.39212">
        <ele>90.4</ele>
        <time>2015-02-16T19:55:51.655Z</time>
      </trkpt>
      <trkpt lat="48.85507" lon="2.39213">
        <ele>90.2</ele>
        <time>2015-02-16T19:55:52.688Z</time>
      </trkpt>
      <trkpt lat="48.85503" lon="2.39214">
        <ele>90.1</ele>
        <time>2015-02-16T19:55:53.705Z</time>
      </trkpt>
      <trkpt lat="48.85498" lon="2.39213">
        <ele>90</ele>
        <time>2015-02-16T19:55:54.706Z</time>
      </trkpt>
      <trkpt lat="48.85493" lon="2.39214">
        <ele>89.8</ele>
        <time>2015-02-16T19:55:55.712Z</time>
      </trkpt>
      <trkpt lat="48.85489" lon="2.39214">
        <ele>89.7</ele>
        <time>2015-02-16T19:55:56.694Z</time>
      </trkpt>
      <trkpt lat="48.85482" lon="2.39214">
        <ele>89.5</ele>
        <time>2015-02-16T19:55:57.657Z</time>
      </trkpt>
      <trkpt lat="48.85476" lon="2.39215">
        <ele>89.3</ele>
        <time>2015-02-16T19:55:58.678Z</time>
      </trkpt>
      <trkpt lat="48.8547" lon="2.39214">
        <ele>89.2</ele>
        <time>2015-02-16T19:55:59.795Z</time>
      </trkpt>
      <trkpt lat="48.85465" lon="2.39214">
        <ele>89.1</ele>
        <time>2015-02-16T19:56:00.756Z</time>
      </trkpt>
      <trkpt lat="48.8546" lon="2.39216">
        <ele>89.1</ele>
        <time>2015-02-16T19:56:01.734Z</time>
      </trkpt>
      <trkpt lat="48.85456" lon="2.39218">
        <ele>89.1</ele>
        <time>2015-02-16T19:56:02.665Z</time>
      </trkpt>
      <trkpt lat="48.85447" lon="2.39221">
        <ele>89.2</ele>
        <time>2015-02-16T19:56:04.686Z</time>
      </trkpt>
      <trkpt lat="48.85442" lon="2.39223">
        <ele>89.2</ele>
        <time>2015-02-16T19:56:05.709Z</time>
      </trkpt>
      <trkpt lat="48.85438" lon="2.39224">
        <ele>89.2</ele>
        <time>2015-02-16T19:56:06.728Z</time>
      </trkpt>
      <trkpt lat="48.85433" lon="2.39226">
        <ele>89.2</ele>
        <time>2015-02-16T19:56:07.745Z</time>
      </trkpt>
      <trkpt lat="48.85429" lon="2.39227">
        <ele>89.3</ele>
        <time>2015-02-16T19:56:08.665Z</time>
      </trkpt>
      <trkpt lat="48.85424" lon="2.39229">
        <ele>89</ele>
        <time>2015-02-16T19:56:09.701Z</time>
      </trkpt>
      <trkpt lat="48.8542" lon="2.3923">
        <ele>88.9</ele>
        <time>2015-02-16T19:56:10.710Z</time>
      </trkpt>
      <trkpt lat="48.85415" lon="2.39232">
        <ele>88.5</ele>
        <time>2015-02-16T19:56:11.720Z</time>
      </trkpt>
      <trkpt lat="48.85411" lon="2.39235">
        <ele>88</ele>
        <time>2015-02-16T19:56:13.437Z</time>
      </trkpt>
      <trkpt lat="48.85407" lon="2.39237">
        <ele>87.5</ele>
        <time>2015-02-16T19:56:13.755Z</time>
      </trkpt>
      <trkpt lat="48.85398" lon="2.39239">
        <ele>86.6</ele>
        <time>2015-02-16T19:56:15.666Z</time>
      </trkpt>
      <trkpt lat="48.85393" lon="2.3924">
        <ele>86.1</ele>
        <time>2015-02-16T19:56:16.677Z</time>
      </trkpt>
      <trkpt lat="48.85389" lon="2.3924">
        <ele>86.1</ele>
        <time>2015-02-16T19:56:18.576Z</time>
      </trkpt>
      <trkpt lat="48.85384" lon="2.39241">
        <ele>86.1</ele>
        <time>2015-02-16T19:56:18.700Z</time>
      </trkpt>
      <trkpt lat="48.85376" lon="2.39244">
        <ele>85.9</ele>
        <time>2015-02-16T19:56:20.730Z</time>
      </trkpt>
      <trkpt lat="48.85372" lon="2.39244">
        <ele>85.9</ele>
        <time>2015-02-16T19:56:21.735Z</time>
      </trkpt>
      <trkpt lat="48.85365" lon="2.39245">
        <ele>85.8</ele>
        <time>2015-02-16T19:56:23.655Z</time>
      </trkpt>
      <trkpt lat="48.85361" lon="2.39246">
        <ele>85.7</ele>
        <time>2015-02-16T19:56:24.784Z</time>
      </trkpt>
      <trkpt lat="48.85354" lon="2.39249">
        <ele>85.7</ele>
        <time>2015-02-16T19:56:26.654Z</time>
      </trkpt>
      <trkpt lat="48.85352" lon="2.39251">
        <ele>85.6</ele>
        <time>2015-02-16T19:56:27.673Z</time>
      </trkpt>
      <trkpt lat="48.85353" lon="2.39258">
        <ele>84.7</ele>
        <time>2015-02-16T19:56:29.720Z</time>
      </trkpt>
      <trkpt lat="48.85352" lon="2.3926">
        <ele>84.8</ele>
        <time>2015-02-16T19:56:30.724Z</time>
      </trkpt>
      <trkpt lat="48.85352" lon="2.39267">
        <ele>85.1</ele>
        <time>2015-02-16T19:56:32.726Z</time>
      </trkpt>
      <trkpt lat="48.85395" lon="2.3939">
        <ele>56.6</ele>
        <time>2015-02-16T19:57:02.801Z</time>
      </trkpt>
      <trkpt lat="48.85389" lon="2.39399">
        <ele>56.4</ele>
        <time>2015-02-16T19:57:05.679Z</time>
      </trkpt>
      <trkpt lat="48.85387" lon="2.39401">
        <ele>56.8</ele>
        <time>2015-02-16T19:57:06.730Z</time>
      </trkpt>
      <trkpt lat="48.85379" lon="2.39404">
        <ele>57.7</ele>
        <time>2015-02-16T19:57:09.665Z</time>
      </trkpt>
      <trkpt lat="48.85376" lon="2.39405">
        <ele>57.9</ele>
        <time>2015-02-16T19:57:10.684Z</time>
      </trkpt>
      <trkpt lat="48.85368" lon="2.39407">
        <ele>58.5</ele>
        <time>2015-02-16T19:57:13.668Z</time>
      </trkpt>
      <trkpt lat="48.85366" lon="2.39409">
        <ele>58.7</ele>
        <time>2015-02-16T19:57:14.666Z</time>
      </trkpt>
      <trkpt lat="48.85358" lon="2.39414">
        <ele>59.6</ele>
        <time>2015-02-16T19:57:19.655Z</time>
      </trkpt>
      <trkpt lat="48.85357" lon="2.39417">
        <ele>61.6</ele>
        <time>2015-02-16T19:57:20.670Z</time>
      </trkpt>
      <trkpt lat="48.85351" lon="2.3942">
        <ele>68.9</ele>
        <time>2015-02-16T19:57:23.700Z</time>
      </trkpt>
      <trkpt lat="48.85348" lon="2.39421">
        <ele>70.9</ele>
        <time>2015-02-16T19:57:24.705Z</time>
      </trkpt>
      <trkpt lat="48.8534" lon="2.39428">
        <ele>78.8</ele>
        <time>2015-02-16T19:57:28.635Z</time>
      </trkpt>
      <trkpt lat="48.8534" lon="2.39429">
        <ele>80.5</ele>
        <time>2015-02-16T19:57:29.660Z</time>
      </trkpt>
      <trkpt lat="48.85348" lon="2.39434">
        <ele>82.3</ele>
        <time>2015-02-16T19:57:32.664Z</time>
      </trkpt>
      <trkpt lat="48.8535" lon="2.39435">
        <ele>83</ele>
        <time>2015-02-16T19:57:33.683Z</time>
      </trkpt>
      <trkpt lat="48.85357" lon="2.39429">
        <ele>86.1</ele>
        <time>2015-02-16T19:57:40.789Z</time>
      </trkpt>
      <trkpt lat="48.85358" lon="2.39429">
        <ele>86.9</ele>
        <time>2015-02-16T19:57:41.719Z</time>
      </trkpt>
      <trkpt lat="48.85353" lon="2.39432">
        <ele>88.3</ele>
        <time>2015-02-16T19:57:43.626Z</time>
      </trkpt>
      <trkpt lat="48.85346" lon="2.39436">
        <ele>88.2</ele>
        <time>2015-02-16T19:57:44.665Z</time>
      </trkpt>
      <trkpt lat="48.8535" lon="2.39425">
        <ele>89.1</ele>
        <time>2015-02-16T19:57:52.678Z</time>
      </trkpt>
      <trkpt lat="48.85351" lon="2.39423">
        <ele>89.1</ele>
        <time>2015-02-16T19:57:53.699Z</time>
      </trkpt>
      <trkpt lat="48.85353" lon="2.39414">
        <ele>89.3</ele>
        <time>2015-02-16T19:57:56.729Z</time>
      </trkpt>
      <trkpt lat="48.85344" lon="2.39413">
        <ele>89.1</ele>
        <time>2015-02-16T19:57:57.739Z</time>
      </trkpt>
      <trkpt lat="48.85337" lon="2.39413">
        <ele>88.9</ele>
        <time>2015-02-16T19:57:58.659Z</time>
      </trkpt>
      <trkpt lat="48.85331" lon="2.39413">
        <ele>89</ele>
        <time>2015-02-16T19:57:59.669Z</time>
      </trkpt>
      <trkpt lat="48.85243" lon="2.39437">
        <ele>91.9</ele>
        <time>2015-02-16T19:58:21.646Z</time>
      </trkpt>
      <trkpt lat="48.85244" lon="2.3944">
        <ele>93.2</ele>
        <time>2015-02-16T19:58:31.647Z</time>
      </trkpt>
      <trkpt lat="48.85277" lon="2.39436">
        <ele>95.9</ele>
        <time>2015-02-16T19:58:48.660Z</time>
      </trkpt>
      <trkpt lat="48.85284" lon="2.39434">
        <ele>96.1</ele>
        <time>2015-02-16T19:58:51.699Z</time>
      </trkpt>
      <trkpt lat="48.85286" lon="2.39434">
        <ele>96</ele>
        <time>2015-02-16T19:58:52.622Z</time>
      </trkpt>
      <trkpt lat="48.85293" lon="2.39437">
        <ele>95.1</ele>
        <time>2015-02-16T19:58:56.268Z</time>
      </trkpt>
      <trkpt lat="48.85296" lon="2.39439">
        <ele>94.5</ele>
        <time>2015-02-16T19:58:57.696Z</time>
      </trkpt>
      <trkpt lat="48.85301" lon="2.39443">
        <ele>93.5</ele>
        <time>2015-02-16T19:59:01.664Z</time>
      </trkpt>
      <trkpt lat="48.85304" lon="2.39446">
        <ele>93.3</ele>
        <time>2015-02-16T19:59:03.685Z</time>
      </trkpt>
      <trkpt lat="48.85309" lon="2.39451">
        <ele>93.5</ele>
        <time>2015-02-16T19:59:05.714Z</time>
      </trkpt>
      <trkpt lat="48.85312" lon="2.39456">
        <ele>93.8</ele>
        <time>2015-02-16T19:59:06.738Z</time>
      </trkpt>
      <trkpt lat="48.85315" lon="2.39465">
        <ele>94</ele>
        <time>2015-02-16T19:59:09.487Z</time>
      </trkpt>
      <trkpt lat="48.85321" lon="2.39469">
        <ele>94.1</ele>
        <time>2015-02-16T19:59:09.741Z</time>
      </trkpt>
      <trkpt lat="48.85325" lon="2.39475">
        <ele>94.3</ele>
        <time>2015-02-16T19:59:10.630Z</time>
      </trkpt>
      <trkpt lat="48.85328" lon="2.39481">
        <ele>94.4</ele>
        <time>2015-02-16T19:59:11.628Z</time>
      </trkpt>
      <trkpt lat="48.85331" lon="2.39493">
        <ele>94.7</ele>
        <time>2015-02-16T19:59:13.609Z</time>
      </trkpt>
      <trkpt lat="48.85333" lon="2.39498">
        <ele>94.9</ele>
        <time>2015-02-16T19:59:14.615Z</time>
      </trkpt>
      <trkpt lat="48.85337" lon="2.39508">
        <ele>94.7</ele>
        <time>2015-02-16T19:59:16.660Z</time>
      </trkpt>
      <trkpt lat="48.85339" lon="2.39518">
        <ele>94.7</ele>
        <time>2015-02-16T19:59:18.679Z</time>
      </trkpt>
      <trkpt lat="48.8534" lon="2.39528">
        <ele>94.8</ele>
        <time>2015-02-16T19:59:20.700Z</time>
      </trkpt>
      <trkpt lat="48.8534" lon="2.39533">
        <ele>94.9</ele>
        <time>2015-02-16T19:59:21.617Z</time>
      </trkpt>
      <trkpt lat="48.85341" lon="2.39544">
        <ele>94.9</ele>
        <time>2015-02-16T19:59:24.727Z</time>
      </trkpt>
      <trkpt lat="48.85342" lon="2.39548">
        <ele>94.9</ele>
        <time>2015-02-16T19:59:24.773Z</time>
      </trkpt>
      <trkpt lat="48.85348" lon="2.3955">
        <ele>95.2</ele>
        <time>2015-02-16T19:59:25.651Z</time>
      </trkpt>
      <trkpt lat="48.85354" lon="2.39553">
        <ele>94.7</ele>
        <time>2015-02-16T19:59:26.654Z</time>
      </trkpt>
      <trkpt lat="48.8536" lon="2.3956">
        <ele>93.9</ele>
        <time>2015-02-16T19:59:28.694Z</time>
      </trkpt>
      <trkpt lat="48.85362" lon="2.39565">
        <ele>93.5</ele>
        <time>2015-02-16T19:59:29.706Z</time>
      </trkpt>
      <trkpt lat="48.85367" lon="2.39573">
        <ele>93.3</ele>
        <time>2015-02-16T19:59:31.641Z</time>
      </trkpt>
      <trkpt lat="48.85369" lon="2.39576">
        <ele>93.6</ele>
        <time>2015-02-16T19:59:32.735Z</time>
      </trkpt>
      <trkpt lat="48.85372" lon="2.39583">
        <ele>94</ele>
        <time>2015-02-16T19:59:35.624Z</time>
      </trkpt>
      <trkpt lat="48.85375" lon="2.39588">
        <ele>93.4</ele>
        <time>2015-02-16T19:59:35.669Z</time>
      </trkpt>
      <trkpt lat="48.85379" lon="2.39595">
        <ele>93.4</ele>
        <time>2015-02-16T19:59:37.696Z</time>
      </trkpt>
      <trkpt lat="48.85383" lon="2.39598">
        <ele>93.5</ele>
        <time>2015-02-16T19:59:38.700Z</time>
      </trkpt>
      <trkpt lat="48.85387" lon="2.39608">
        <ele>94.8</ele>
        <time>2015-02-16T19:59:40.687Z</time>
      </trkpt>
      <trkpt lat="48.85389" lon="2.3961">
        <ele>94.4</ele>
        <time>2015-02-16T19:59:41.678Z</time>
      </trkpt>
      <trkpt lat="48.85387" lon="2.3962">
        <ele>98.1</ele>
        <time>2015-02-16T19:59:50.843Z</time>
      </trkpt>
      <trkpt lat="48.85384" lon="2.39624">
        <ele>98.9</ele>
        <time>2015-02-16T19:59:51.680Z</time>
      </trkpt>
      <trkpt lat="48.85383" lon="2.39636">
        <ele>100</ele>
        <time>2015-02-16T19:59:55.916Z</time>
      </trkpt>
      <trkpt lat="48.85384" lon="2.3964">
        <ele>99.6</ele>
        <time>2015-02-16T19:59:56.661Z</time>
      </trkpt>
      <trkpt lat="48.8539" lon="2.39647">
        <ele>99</ele>
        <time>2015-02-16T19:59:58.675Z</time>
      </trkpt>
      <trkpt lat="48.85393" lon="2.39651">
        <ele>99.2</ele>
        <time>2015-02-16T19:59:59.683Z</time>
      </trkpt>
      <trkpt lat="48.85399" lon="2.39661">
        <ele>99.2</ele>
        <time>2015-02-16T20:00:01.696Z</time>
      </trkpt>
      <trkpt lat="48.85402" lon="2.39666">
        <ele>99.2</ele>
        <time>2015-02-16T20:00:02.695Z</time>
      </trkpt>
      <trkpt lat="48.85408" lon="2.39674">
        <ele>99.3</ele>
        <time>2015-02-16T20:00:04.745Z</time>
      </trkpt>
      <trkpt lat="48.8541" lon="2.39678">
        <ele>99.3</ele>
        <time>2015-02-16T20:00:05.645Z</time>
      </trkpt>
      <trkpt lat="48.85415" lon="2.39686">
        <ele>99.6</ele>
        <time>2015-02-16T20:00:07.699Z</time>
      </trkpt>
      <trkpt lat="48.85418" lon="2.39692">
        <ele>99.9</ele>
        <time>2015-02-16T20:00:08.775Z</time>
      </trkpt>
      <trkpt lat="48.8542" lon="2.39697">
        <ele>100.3</ele>
        <time>2015-02-16T20:00:09.627Z</time>
      </trkpt>
      <trkpt lat="48.85422" lon="2.39704">
        <ele>100.6</ele>
        <time>2015-02-16T20:00:10.651Z</time>
      </trkpt>
      <trkpt lat="48.85424" lon="2.3971">
        <ele>100.7</ele>
        <time>2015-02-16T20:00:11.656Z</time>
      </trkpt>
      <trkpt lat="48.85426" lon="2.39717">
        <ele>100.6</ele>
        <time>2015-02-16T20:00:12.684Z</time>
      </trkpt>
      <trkpt lat="48.85428" lon="2.39724">
        <ele>100.4</ele>
        <time>2015-02-16T20:00:13.803Z</time>
      </trkpt>
      <trkpt lat="48.8543" lon="2.39729">
        <ele>100.3</ele>
        <time>2015-02-16T20:00:14.644Z</time>
      </trkpt>
      <trkpt lat="48.85433" lon="2.3974">
        <ele>100.3</ele>
        <time>2015-02-16T20:00:16.685Z</time>
      </trkpt>
      <trkpt lat="48.85435" lon="2.39746">
        <ele>100.2</ele>
        <time>2015-02-16T20:00:17.675Z</time>
      </trkpt>
      <trkpt lat="48.85438" lon="2.39757">
        <ele>100.1</ele>
        <time>2015-02-16T20:00:19.712Z</time>
      </trkpt>
      <trkpt lat="48.8544" lon="2.39762">
        <ele>100.2</ele>
        <time>2015-02-16T20:00:20.723Z</time>
      </trkpt>
      <trkpt lat="48.85439" lon="2.39772">
        <ele>100</ele>
        <time>2015-02-16T20:00:23.707Z</time>
      </trkpt>
      <trkpt lat="48.85431" lon="2.39783">
        <ele>99.9</ele>
        <time>2015-02-16T20:00:26.740Z</time>
      </trkpt>
      <trkpt lat="48.85425" lon="2.3979">
        <ele>99.9</ele>
        <time>2015-02-16T20:00:28.755Z</time>
      </trkpt>
      <trkpt lat="48.85421" lon="2.39792">
        <ele>99.8</ele>
        <time>2015-02-16T20:00:29.687Z</time>
      </trkpt>
      <trkpt lat="48.85413" lon="2.39795">
        <ele>99.4</ele>
        <time>2015-02-16T20:00:31.717Z</time>
      </trkpt>
      <trkpt lat="48.85407" lon="2.39795">
        <ele>99</ele>
        <time>2015-02-16T20:00:32.727Z</time>
      </trkpt>
      <trkpt lat="48.85403" lon="2.39796">
        <ele>99</ele>
        <time>2015-02-16T20:00:33.641Z</time>
      </trkpt>
      <trkpt lat="48.85398" lon="2.39797">
        <ele>98.8</ele>
        <time>2015-02-16T20:00:34.649Z</time>
      </trkpt>
      <trkpt lat="48.85391" lon="2.39801">
        <ele>99.4</ele>
        <time>2015-02-16T20:00:36.684Z</time>
      </trkpt>
      <trkpt lat="48.85387" lon="2.39803">
        <ele>99.6</ele>
        <time>2015-02-16T20:00:37.708Z</time>
      </trkpt>
      <trkpt lat="48.85379" lon="2.39808">
        <ele>99.7</ele>
        <time>2015-02-16T20:00:39.649Z</time>
      </trkpt>
      <trkpt lat="48.85376" lon="2.3981">
        <ele>99.7</ele>
        <time>2015-02-16T20:00:40.731Z</time>
      </trkpt>
      <trkpt lat="48.85371" lon="2.39814">
        <ele>100</ele>
        <time>2015-02-16T20:00:41.703Z</time>
      </trkpt>
      <trkpt lat="48.85365" lon="2.39818">
        <ele>100.1</ele>
        <time>2015-02-16T20:00:42.715Z</time>
      </trkpt>
      <trkpt lat="48.85361" lon="2.3982">
        <ele>100.1</ele>
        <time>2015-02-16T20:00:43.726Z</time>
      </trkpt>
      <trkpt lat="48.85356" lon="2.39822">
        <ele>100.1</ele>
        <time>2015-02-16T20:00:44.737Z</time>
      </trkpt>
      <trkpt lat="48.85347" lon="2.39823">
        <ele>100.3</ele>
        <time>2015-02-16T20:00:46.637Z</time>
      </trkpt>
      <trkpt lat="48.85343" lon="2.39825">
        <ele>100.3</ele>
        <time>2015-02-16T20:00:47.634Z</time>
      </trkpt>
      <trkpt lat="48.85335" lon="2.39827">
        <ele>100.4</ele>
        <time>2015-02-16T20:00:51.621Z</time>
      </trkpt>
      <trkpt lat="48.85333" lon="2.39828">
        <ele>100.4</ele>
        <time>2015-02-16T20:00:52.628Z</time>
      </trkpt>
      <trkpt lat="48.85328" lon="2.39831">
        <ele>100.5</ele>
        <time>2015-02-16T20:00:54.705Z</time>
      </trkpt>
      <trkpt lat="48.8529" lon="2.39843">
        <ele>100.8</ele>
        <time>2015-02-16T20:01:03.732Z</time>
      </trkpt>
      <trkpt lat="48.85285" lon="2.39846">
        <ele>100.9</ele>
        <time>2015-02-16T20:01:04.645Z</time>
      </trkpt>
      <trkpt lat="48.8528" lon="2.39849">
        <ele>101.1</ele>
        <time>2015-02-16T20:01:05.677Z</time>
      </trkpt>
      <trkpt lat="48.8528" lon="2.39849">
        <ele>101.1</ele>
        <time>2015-02-16T20:01:05.959Z</time>
      </trkpt>
      <trkpt lat="48.8519" lon="2.39889">
        <ele>102.8</ele>
        <time>2015-02-16T20:01:24.707Z</time>
      </trkpt>
      <trkpt lat="48.85183" lon="2.39888">
        <ele>103.1</ele>
        <time>2015-02-16T20:01:26.653Z</time>
      </trkpt>
      <trkpt lat="48.85179" lon="2.39888">
        <ele>103.1</ele>
        <time>2015-02-16T20:01:27.687Z</time>
      </trkpt>
      <trkpt lat="48.85172" lon="2.39893">
        <ele>102.9</ele>
        <time>2015-02-16T20:01:30.752Z</time>
      </trkpt>
      <trkpt lat="48.85168" lon="2.39898">
        <ele>103</ele>
        <time>2015-02-16T20:01:31.649Z</time>
      </trkpt>
      <trkpt lat="48.85161" lon="2.39904">
        <ele>103</ele>
        <time>2015-02-16T20:01:32.664Z</time>
      </trkpt>
      <trkpt lat="48.85157" lon="2.39908">
        <ele>103</ele>
        <time>2015-02-16T20:01:33.675Z</time>
      </trkpt>
      <trkpt lat="48.85153" lon="2.39916">
        <ele>103.1</ele>
        <time>2015-02-16T20:01:35.708Z</time>
      </trkpt>
      <trkpt lat="48.85152" lon="2.39921">
        <ele>103.6</ele>
        <time>2015-02-16T20:01:36.736Z</time>
      </trkpt>
      <trkpt lat="48.85154" lon="2.39929">
        <ele>104.2</ele>
        <time>2015-02-16T20:01:39.686Z</time>
      </trkpt>
      <trkpt lat="48.85155" lon="2.39931">
        <ele>104.3</ele>
        <time>2015-02-16T20:01:40.699Z</time>
      </trkpt>
      <trkpt lat="48.85156" lon="2.39932">
        <ele>104.2</ele>
        <time>2015-02-16T20:01:41.725Z</time>
      </trkpt>
      <trkpt lat="48.85154" lon="2.39944">
        <ele>107.1</ele>
        <time>2015-02-16T20:01:50.686Z</time>
      </trkpt>
      <trkpt lat="48.85153" lon="2.39946">
        <ele>107.1</ele>
        <time>2015-02-16T20:01:51.691Z</time>
      </trkpt>
      <trkpt lat="48.85149" lon="2.39958">
        <ele>107.9</ele>
        <time>2015-02-16T20:01:56.650Z</time>
      </trkpt>
      <trkpt lat="48.85149" lon="2.39962">
        <ele>107.7</ele>
        <time>2015-02-16T20:01:57.668Z</time>
      </trkpt>
      <trkpt lat="48.85152" lon="2.3997">
        <ele>107.5</ele>
        <time>2015-02-16T20:01:59.653Z</time>
      </trkpt>
      <trkpt lat="48.85154" lon="2.39976">
        <ele>107.5</ele>
        <time>2015-02-16T20:02:00.656Z</time>
      </trkpt>
      <trkpt lat="48.85158" lon="2.39985">
        <ele>107.3</ele>
        <time>2015-02-16T20:02:02.679Z</time>
      </trkpt>
      <trkpt lat="48.85159" lon="2.3999">
        <ele>107.4</ele>
        <time>2015-02-16T20:02:03.706Z</time>
      </trkpt>
      <trkpt lat="48.85163" lon="2.40001">
        <ele>107.8</ele>
        <time>2015-02-16T20:02:05.660Z</time>
      </trkpt>
      <trkpt lat="48.85164" lon="2.40007">
        <ele>107.8</ele>
        <time>2015-02-16T20:02:06.686Z</time>
      </trkpt>
      <trkpt lat="48.85168" lon="2.40017">
        <ele>107.8</ele>
        <time>2015-02-16T20:02:08.702Z</time>
      </trkpt>
      <trkpt lat="48.85171" lon="2.40023">
        <ele>107.9</ele>
        <time>2015-02-16T20:02:09.723Z</time>
      </trkpt>
      <trkpt lat="48.85175" lon="2.40033">
        <ele>107.4</ele>
        <time>2015-02-16T20:02:11.651Z</time>
      </trkpt>
      <trkpt lat="48.85177" lon="2.40036">
        <ele>107</ele>
        <time>2015-02-16T20:02:12.692Z</time>
      </trkpt>
      <trkpt lat="48.85171" lon="2.40046">
        <ele>106.7</ele>
        <time>2015-02-16T20:02:17.654Z</time>
      </trkpt>
      <trkpt lat="48.8517" lon="2.40047">
        <ele>106.9</ele>
        <time>2015-02-16T20:02:18.712Z</time>
      </trkpt>
      <trkpt lat="48.85163" lon="2.40049">
        <ele>106.7</ele>
        <time>2015-02-16T20:02:21.780Z</time>
      </trkpt>
      <trkpt lat="48.8516" lon="2.4005">
        <ele>106.6</ele>
        <time>2015-02-16T20:02:22.709Z</time>
      </trkpt>
      <trkpt lat="48.85151" lon="2.40048">
        <ele>106.5</ele>
        <time>2015-02-16T20:02:25.715Z</time>
      </trkpt>
      <trkpt lat="48.8515" lon="2.40045">
        <ele>106.5</ele>
        <time>2015-02-16T20:02:26.745Z</time>
      </trkpt>
      <trkpt lat="48.85131" lon="2.40011">
        <ele>106.3</ele>
        <time>2015-02-16T20:02:42.690Z</time>
      </trkpt>
      <trkpt lat="48.85123" lon="2.40006">
        <ele>106.2</ele>
        <time>2015-02-16T20:02:44.626Z</time>
      </trkpt>
      <trkpt lat="48.8512" lon="2.40002">
        <ele>106.1</ele>
        <time>2015-02-16T20:02:45.728Z</time>
      </trkpt>
      <trkpt lat="48.85115" lon="2.39995">
        <ele>106.1</ele>
        <time>2015-02-16T20:02:47.637Z</time>
      </trkpt>
      <trkpt lat="48.85112" lon="2.39993">
        <ele>106</ele>
        <time>2015-02-16T20:02:48.683Z</time>
      </trkpt>
      <trkpt lat="48.85105" lon="2.39985">
        <ele>105.9</ele>
        <time>2015-02-16T20:02:50.728Z</time>
      </trkpt>
      <trkpt lat="48.85101" lon="2.3998">
        <ele>105.8</ele>
        <time>2015-02-16T20:02:51.764Z</time>
      </trkpt>
      <trkpt lat="48.85098" lon="2.39976">
        <ele>105.7</ele>
        <time>2015-02-16T20:02:52.646Z</time>
      </trkpt>
      <trkpt lat="48.85049" lon="2.39935">
        <ele>105.4</ele>
        <time>2015-02-16T20:03:02.694Z</time>
      </trkpt>
      <trkpt lat="48.85047" lon="2.39945">
        <ele>105.4</ele>
        <time>2015-02-16T20:03:06.685Z</time>
      </trkpt>
      <trkpt lat="48.85048" lon="2.39952">
        <ele>105.3</ele>
        <time>2015-02-16T20:03:07.689Z</time>
      </trkpt>
      <trkpt lat="48.85052" lon="2.39962">
        <ele>105.2</ele>
        <time>2015-02-16T20:03:09.727Z</time>
      </trkpt>
      <trkpt lat="48.85062" lon="2.39993">
        <ele>104.4</ele>
        <time>2015-02-16T20:03:14.684Z</time>
      </trkpt>
      <trkpt lat="48.85066" lon="2.40005">
        <ele>104.4</ele>
        <time>2015-02-16T20:03:16.627Z</time>
      </trkpt>
      <trkpt lat="48.85066" lon="2.4001">
        <ele>104.2</ele>
        <time>2015-02-16T20:03:17.664Z</time>
      </trkpt>
      <trkpt lat="48.85068" lon="2.40021">
        <ele>104.2</ele>
        <time>2015-02-16T20:03:19.706Z</time>
      </trkpt>
      <trkpt lat="48.8507" lon="2.40026">
        <ele>104.4</ele>
        <time>2015-02-16T20:03:20.722Z</time>
      </trkpt>
      <trkpt lat="48.85073" lon="2.40037">
        <ele>104.8</ele>
        <time>2015-02-16T20:03:22.654Z</time>
      </trkpt>
      <trkpt lat="48.85076" lon="2.40044">
        <ele>105.2</ele>
        <time>2015-02-16T20:03:23.762Z</time>
      </trkpt>
      <trkpt lat="48.85077" lon="2.40051">
        <ele>105.3</ele>
        <time>2015-02-16T20:03:24.680Z</time>
      </trkpt>
      <trkpt lat="48.8508" lon="2.40057">
        <ele>105.4</ele>
        <time>2015-02-16T20:03:25.685Z</time>
      </trkpt>
      <trkpt lat="48.85081" lon="2.40065">
        <ele>105.5</ele>
        <time>2015-02-16T20:03:26.705Z</time>
      </trkpt>
      <trkpt lat="48.85082" lon="2.40073">
        <ele>105.7</ele>
        <time>2015-02-16T20:03:27.716Z</time>
      </trkpt>
      <trkpt lat="48.85085" lon="2.40085">
        <ele>106.2</ele>
        <time>2015-02-16T20:03:29.646Z</time>
      </trkpt>
      <trkpt lat="48.85087" lon="2.40091">
        <ele>106.3</ele>
        <time>2015-02-16T20:03:30.702Z</time>
      </trkpt>
      <trkpt lat="48.85088" lon="2.40098">
        <ele>106.4</ele>
        <time>2015-02-16T20:03:31.669Z</time>
      </trkpt>
      <trkpt lat="48.8509" lon="2.40104">
        <ele>106.6</ele>
        <time>2015-02-16T20:03:32.660Z</time>
      </trkpt>
      <trkpt lat="48.85092" lon="2.40116">
        <ele>106.9</ele>
        <time>2015-02-16T20:03:34.716Z</time>
      </trkpt>
      <trkpt lat="48.85094" lon="2.40122">
        <ele>107.1</ele>
        <time>2015-02-16T20:03:35.734Z</time>
      </trkpt>
      <trkpt lat="48.85095" lon="2.40134">
        <ele>107.4</ele>
        <time>2015-02-16T20:03:37.687Z</time>
      </trkpt>
      <trkpt lat="48.85096" lon="2.40139">
        <ele>107.7</ele>
        <time>2015-02-16T20:03:38.697Z</time>
      </trkpt>
      <trkpt lat="48.85098" lon="2.40152">
        <ele>108.1</ele>
        <time>2015-02-16T20:03:41.647Z</time>
      </trkpt>
      <trkpt lat="48.85095" lon="2.40179">
        <ele>108.1</ele>
        <time>2015-02-16T20:03:49.714Z</time>
      </trkpt>
      <trkpt lat="48.85095" lon="2.4018">
        <ele>108.1</ele>
        <time>2015-02-16T20:03:51.579Z</time>
      </trkpt>
      <trkpt lat="48.85095" lon="2.4018">
        <ele>108.1</ele>
        <time>2015-02-16T20:03:51.630Z</time>
      </trkpt>
      <trkpt lat="48.85095" lon="2.4018">
        <ele>108</ele>
        <time>2015-02-16T20:03:52.670Z</time>
      </trkpt>
      <trkpt lat="48.85092" lon="2.40183">
        <ele>107.8</ele>
        <time>2015-02-16T20:03:56.709Z</time>
      </trkpt>
      <trkpt lat="48.84943" lon="2.40222">
        <ele>107.1</ele>
        <time>2015-02-16T20:04:22.665Z</time>
      </trkpt>
      <trkpt lat="48.84935" lon="2.40224">
        <ele>106.3</ele>
        <time>2015-02-16T20:04:24.695Z</time>
      </trkpt>
      <trkpt lat="48.84931" lon="2.40226">
        <ele>106.1</ele>
        <time>2015-02-16T20:04:25.730Z</time>
      </trkpt>
      <trkpt lat="48.84926" lon="2.40227">
        <ele>106.3</ele>
        <time>2015-02-16T20:04:26.633Z</time>
      </trkpt>
      <trkpt lat="48.84922" lon="2.40228">
        <ele>106.1</ele>
        <time>2015-02-16T20:04:27.643Z</time>
      </trkpt>
      <trkpt lat="48.84916" lon="2.40233">
        <ele>105.5</ele>
        <time>2015-02-16T20:04:29.693Z</time>
      </trkpt>
      <trkpt lat="48.84913" lon="2.40236">
        <ele>105.4</ele>
        <time>2015-02-16T20:04:30.763Z</time>
      </trkpt>
      <trkpt lat="48.84906" lon="2.40241">
        <ele>105.2</ele>
        <time>2015-02-16T20:04:32.680Z</time>
      </trkpt>
      <trkpt lat="48.84903" lon="2.40242">
        <ele>105.1</ele>
        <time>2015-02-16T20:04:33.704Z</time>
      </trkpt>
      <trkpt lat="48.84896" lon="2.40247">
        <ele>104.7</ele>
        <time>2015-02-16T20:04:37.743Z</time>
      </trkpt>
      <trkpt lat="48.84896" lon="2.40252">
        <ele>105.2</ele>
        <time>2015-02-16T20:04:38.657Z</time>
      </trkpt>
      <trkpt lat="48.84898" lon="2.40261">
        <ele>105.5</ele>
        <time>2015-02-16T20:04:40.692Z</time>
      </trkpt>
      <trkpt lat="48.84899" lon="2.40266">
        <ele>105.8</ele>
        <time>2015-02-16T20:04:41.723Z</time>
      </trkpt>
      <trkpt lat="48.84901" lon="2.40275">
        <ele>107</ele>
        <time>2015-02-16T20:04:43.640Z</time>
      </trkpt>
      <trkpt lat="48.84903" lon="2.4028">
        <ele>107.7</ele>
        <time>2015-02-16T20:04:44.656Z</time>
      </trkpt>
      <trkpt lat="48.84905" lon="2.4029">
        <ele>108</ele>
        <time>2015-02-16T20:04:46.688Z</time>
      </trkpt>
      <trkpt lat="48.84906" lon="2.40296">
        <ele>106.9</ele>
        <time>2015-02-16T20:04:47.700Z</time>
      </trkpt>
      <trkpt lat="48.84908" lon="2.40308">
        <ele>106.4</ele>
        <time>2015-02-16T20:04:49.646Z</time>
      </trkpt>
      <trkpt lat="48.84909" lon="2.40313">
        <ele>105.9</ele>
        <time>2015-02-16T20:04:50.639Z</time>
      </trkpt>
      <trkpt lat="48.84912" lon="2.40321">
        <ele>106.3</ele>
        <time>2015-02-16T20:04:52.678Z</time>
      </trkpt>
      <trkpt lat="48.84912" lon="2.40326">
        <ele>106.6</ele>
        <time>2015-02-16T20:04:53.684Z</time>
      </trkpt>
      <trkpt lat="48.84914" lon="2.40336">
        <ele>106.6</ele>
        <time>2015-02-16T20:04:55.684Z</time>
      </trkpt>
      <trkpt lat="48.84914" lon="2.40341">
        <ele>106.7</ele>
        <time>2015-02-16T20:04:56.695Z</time>
      </trkpt>
      <trkpt lat="48.84915" lon="2.40353">
        <ele>106.8</ele>
        <time>2015-02-16T20:04:58.724Z</time>
      </trkpt>
      <trkpt lat="48.84915" lon="2.40359">
        <ele>106.8</ele>
        <time>2015-02-16T20:04:59.736Z</time>
      </trkpt>
      <trkpt lat="48.84917" lon="2.40371">
        <ele>106.8</ele>
        <time>2015-02-16T20:05:01.685Z</time>
      </trkpt>
      <trkpt lat="48.84917" lon="2.40377">
        <ele>106.5</ele>
        <time>2015-02-16T20:05:02.693Z</time>
      </trkpt>
      <trkpt lat="48.84915" lon="2.40384">
        <ele>106.2</ele>
        <time>2015-02-16T20:05:03.749Z</time>
      </trkpt>
      <trkpt lat="48.84913" lon="2.40391">
        <ele>105</ele>
        <time>2015-02-16T20:05:04.652Z</time>
      </trkpt>
      <trkpt lat="48.84912" lon="2.40399">
        <ele>103.9</ele>
        <time>2015-02-16T20:05:05.709Z</time>
      </trkpt>
      <trkpt lat="48.84911" lon="2.40406">
        <ele>103.4</ele>
        <time>2015-02-16T20:05:06.717Z</time>
      </trkpt>
      <trkpt lat="48.84907" lon="2.40412">
        <ele>103.1</ele>
        <time>2015-02-16T20:05:07.642Z</time>
      </trkpt>
      <trkpt lat="48.849" lon="2.40417">
        <ele>102.3</ele>
        <time>2015-02-16T20:05:08.647Z</time>
      </trkpt>
      <trkpt lat="48.84892" lon="2.40419">
        <ele>102</ele>
        <time>2015-02-16T20:05:10.659Z</time>
      </trkpt>
      <trkpt lat="48.84888" lon="2.40419">
        <ele>101.8</ele>
        <time>2015-02-16T20:05:11.678Z</time>
      </trkpt>
      <trkpt lat="48.84881" lon="2.40418">
        <ele>101.6</ele>
        <time>2015-02-16T20:05:13.722Z</time>
      </trkpt>
      <trkpt lat="48.84878" lon="2.40417">
        <ele>101.7</ele>
        <time>2015-02-16T20:05:14.654Z</time>
      </trkpt>
      <trkpt lat="48.84872" lon="2.40416">
        <ele>101.3</ele>
        <time>2015-02-16T20:05:16.737Z</time>
      </trkpt>
      <trkpt lat="48.84869" lon="2.40417">
        <ele>101.3</ele>
        <time>2015-02-16T20:05:17.622Z</time>
      </trkpt>
      <trkpt lat="48.84863" lon="2.40419">
        <ele>100.8</ele>
        <time>2015-02-16T20:05:20.545Z</time>
      </trkpt>
      <trkpt lat="48.84855" lon="2.4042">
        <ele>100.3</ele>
        <time>2015-02-16T20:05:21.682Z</time>
      </trkpt>
      <trkpt lat="48.84848" lon="2.4042">
        <ele>99.7</ele>
        <time>2015-02-16T20:05:23.622Z</time>
      </trkpt>
      <trkpt lat="48.84844" lon="2.40421">
        <ele>99.5</ele>
        <time>2015-02-16T20:05:24.687Z</time>
      </trkpt>
      <trkpt lat="48.84836" lon="2.40422">
        <ele>99</ele>
        <time>2015-02-16T20:05:27.717Z</time>
      </trkpt>
      <trkpt lat="48.84833" lon="2.4042">
        <ele>98.9</ele>
        <time>2015-02-16T20:05:28.615Z</time>
      </trkpt>
      <trkpt lat="48.84819" lon="2.40419">
        <ele>97.7</ele>
        <time>2015-02-16T20:05:32.710Z</time>
      </trkpt>
      <trkpt lat="48.84813" lon="2.40411">
        <ele>97.2</ele>
        <time>2015-02-16T20:05:36.720Z</time>
      </trkpt>
      <trkpt lat="48.84813" lon="2.40408">
        <ele>96.9</ele>
        <time>2015-02-16T20:05:37.639Z</time>
      </trkpt>
      <trkpt lat="48.84811" lon="2.40396">
        <ele>95.9</ele>
        <time>2015-02-16T20:05:41.690Z</time>
      </trkpt>
      <trkpt lat="48.8481" lon="2.40393">
        <ele>95.7</ele>
        <time>2015-02-16T20:05:42.690Z</time>
      </trkpt>
      <trkpt lat="48.84807" lon="2.40384">
        <ele>95.3</ele>
        <time>2015-02-16T20:05:45.771Z</time>
      </trkpt>
      <trkpt lat="48.84806" lon="2.4038">
        <ele>95</ele>
        <time>2015-02-16T20:05:46.660Z</time>
      </trkpt>
      <trkpt lat="48.84797" lon="2.40379">
        <ele>96</ele>
        <time>2015-02-16T20:05:53.668Z</time>
      </trkpt>
      <trkpt lat="48.84796" lon="2.40378">
        <ele>96.1</ele>
        <time>2015-02-16T20:05:54.704Z</time>
      </trkpt>
      <trkpt lat="48.84787" lon="2.40375">
        <ele>96.8</ele>
        <time>2015-02-16T20:06:31.746Z</time>
      </trkpt>
      <trkpt lat="48.84786" lon="2.40374">
        <ele>97</ele>
        <time>2015-02-16T20:06:32.637Z</time>
      </trkpt>
      <trkpt lat="48.84781" lon="2.40365">
        <ele>97.4</ele>
        <time>2015-02-16T20:06:38.634Z</time>
      </trkpt>
      <trkpt lat="48.8478" lon="2.40363">
        <ele>97.6</ele>
        <time>2015-02-16T20:06:39.650Z</time>
      </trkpt>
      <trkpt lat="48.84773" lon="2.40354">
        <ele>98.4</ele>
        <time>2015-02-16T20:06:45.646Z</time>
      </trkpt>
      <trkpt lat="48.84771" lon="2.40353">
        <ele>98.7</ele>
        <time>2015-02-16T20:06:45.731Z</time>
      </trkpt>
      <trkpt lat="48.84765" lon="2.40346">
        <ele>99.7</ele>
        <time>2015-02-16T20:06:50.913Z</time>
      </trkpt>
      <trkpt lat="48.84764" lon="2.40344">
        <ele>99.9</ele>
        <time>2015-02-16T20:06:51.641Z</time>
      </trkpt>
      <trkpt lat="48.84756" lon="2.40341">
        <ele>100.4</ele>
        <time>2015-02-16T20:06:56.737Z</time>
      </trkpt>
      <trkpt lat="48.84755" lon="2.40341">
        <ele>100.4</ele>
        <time>2015-02-16T20:06:57.749Z</time>
      </trkpt>
      <trkpt lat="48.84749" lon="2.40345">
        <ele>100.4</ele>
        <time>2015-02-16T20:07:02.698Z</time>
      </trkpt>
      <trkpt lat="48.84746" lon="2.40345">
        <ele>100.4</ele>
        <time>2015-02-16T20:07:03.713Z</time>
      </trkpt>
      <trkpt lat="48.84739" lon="2.40345">
        <ele>100.2</ele>
        <time>2015-02-16T20:07:06.689Z</time>
      </trkpt>
      <trkpt lat="48.84736" lon="2.40344">
        <ele>100.3</ele>
        <time>2015-02-16T20:07:07.719Z</time>
      </trkpt>
      <trkpt lat="48.84728" lon="2.4034">
        <ele>100.4</ele>
        <time>2015-02-16T20:07:09.648Z</time>
      </trkpt>
      <trkpt lat="48.84723" lon="2.40337">
        <ele>100.4</ele>
        <time>2015-02-16T20:07:10.659Z</time>
      </trkpt>
      <trkpt lat="48.84718" lon="2.40335">
        <ele>100.4</ele>
        <time>2015-02-16T20:07:11.685Z</time>
      </trkpt>
      <trkpt lat="48.84712" lon="2.40334">
        <ele>100.2</ele>
        <time>2015-02-16T20:07:12.710Z</time>
      </trkpt>
      <trkpt lat="48.84707" lon="2.40332">
        <ele>100.1</ele>
        <time>2015-02-16T20:07:13.613Z</time>
      </trkpt>
      <trkpt lat="48.84702" lon="2.40331">
        <ele>100.1</ele>
        <time>2015-02-16T20:07:14.668Z</time>
      </trkpt>
      <trkpt lat="48.84698" lon="2.4033">
        <ele>100.2</ele>
        <time>2015-02-16T20:07:16.229Z</time>
      </trkpt>
      <trkpt lat="48.84693" lon="2.4033">
        <ele>100.2</ele>
        <time>2015-02-16T20:07:16.690Z</time>
      </trkpt>
      <trkpt lat="48.84684" lon="2.4033">
        <ele>100.1</ele>
        <time>2015-02-16T20:07:18.719Z</time>
      </trkpt>
      <trkpt lat="48.84681" lon="2.4033">
        <ele>100.2</ele>
        <time>2015-02-16T20:07:19.642Z</time>
      </trkpt>
      <trkpt lat="48.84673" lon="2.40328">
        <ele>100.3</ele>
        <time>2015-02-16T20:07:21.689Z</time>
      </trkpt>
      <trkpt lat="48.84668" lon="2.40326">
        <ele>100.4</ele>
        <time>2015-02-16T20:07:22.698Z</time>
      </trkpt>
      <trkpt lat="48.84661" lon="2.40327">
        <ele>100.3</ele>
        <time>2015-02-16T20:07:24.663Z</time>
      </trkpt>
      <trkpt lat="48.84569" lon="2.40305">
        <ele>101</ele>
        <time>2015-02-16T20:07:47.742Z</time>
      </trkpt>
      <trkpt lat="48.84563" lon="2.40299">
        <ele>101.2</ele>
        <time>2015-02-16T20:07:49.717Z</time>
      </trkpt>
      <trkpt lat="48.84559" lon="2.40297">
        <ele>101.1</ele>
        <time>2015-02-16T20:07:50.755Z</time>
      </trkpt>
      <trkpt lat="48.84556" lon="2.40294">
        <ele>101.1</ele>
        <time>2015-02-16T20:07:51.773Z</time>
      </trkpt>
      <trkpt lat="48.84516" lon="2.40271">
        <ele>101.3</ele>
        <time>2015-02-16T20:08:00.632Z</time>
      </trkpt>
      <trkpt lat="48.84509" lon="2.40264">
        <ele>101.5</ele>
        <time>2015-02-16T20:08:02.697Z</time>
      </trkpt>
      <trkpt lat="48.84507" lon="2.40259">
        <ele>101.5</ele>
        <time>2015-02-16T20:08:03.710Z</time>
      </trkpt>
      <trkpt lat="48.84508" lon="2.40247">
        <ele>101.3</ele>
        <time>2015-02-16T20:08:05.652Z</time>
      </trkpt>
      <trkpt lat="48.84509" lon="2.40242">
        <ele>101.3</ele>
        <time>2015-02-16T20:08:06.670Z</time>
      </trkpt>
      <trkpt lat="48.84511" lon="2.40232">
        <ele>101.6</ele>
        <time>2015-02-16T20:08:08.681Z</time>
      </trkpt>
      <trkpt lat="48.84511" lon="2.40227">
        <ele>102</ele>
        <time>2015-02-16T20:08:09.706Z</time>
      </trkpt>
      <trkpt lat="48.8451" lon="2.40216">
        <ele>102.5</ele>
        <time>2015-02-16T20:08:12.753Z</time>
      </trkpt>
      <trkpt lat="48.8451" lon="2.40212">
        <ele>102.5</ele>
        <time>2015-02-16T20:08:13.660Z</time>
      </trkpt>
      <trkpt lat="48.84505" lon="2.40202">
        <ele>103.1</ele>
        <time>2015-02-16T20:08:16.701Z</time>
      </trkpt>
      <trkpt lat="48.84501" lon="2.40198">
        <ele>103.2</ele>
        <time>2015-02-16T20:08:17.725Z</time>
      </trkpt>
      <trkpt lat="48.84495" lon="2.40195">
        <ele>103.4</ele>
        <time>2015-02-16T20:08:19.669Z</time>
      </trkpt>
      <trkpt lat="48.84491" lon="2.40195">
        <ele>103.5</ele>
        <time>2015-02-16T20:08:20.672Z</time>
      </trkpt>
      <trkpt lat="48.84484" lon="2.40195">
        <ele>103.6</ele>
        <time>2015-02-16T20:08:22.710Z</time>
      </trkpt>
      <trkpt lat="48.84481" lon="2.40193">
        <ele>103.7</ele>
        <time>2015-02-16T20:08:23.750Z</time>
      </trkpt>
      <trkpt lat="48.84473" lon="2.40189">
        <ele>104.1</ele>
        <time>2015-02-16T20:08:25.655Z</time>
      </trkpt>
      <trkpt lat="48.84468" lon="2.40187">
        <ele>104.2</ele>
        <time>2015-02-16T20:08:26.668Z</time>
      </trkpt>
      <trkpt lat="48.84461" lon="2.40183">
        <ele>104.2</ele>
        <time>2015-02-16T20:08:28.640Z</time>
      </trkpt>
      <trkpt lat="48.84456" lon="2.40182">
        <ele>104.1</ele>
        <time>2015-02-16T20:08:29.652Z</time>
      </trkpt>
      <trkpt lat="48.84452" lon="2.4018">
        <ele>104.2</ele>
        <time>2015-02-16T20:08:30.690Z</time>
      </trkpt>
      <trkpt lat="48.84448" lon="2.40177">
        <ele>104.3</ele>
        <time>2015-02-16T20:08:31.702Z</time>
      </trkpt>
      <trkpt lat="48.84439" lon="2.40173">
        <ele>104.3</ele>
        <time>2015-02-16T20:08:33.723Z</time>
      </trkpt>
      <trkpt lat="48.84435" lon="2.40172">
        <ele>104.1</ele>
        <time>2015-02-16T20:08:34.752Z</time>
      </trkpt>
      <trkpt lat="48.84427" lon="2.4017">
        <ele>103.7</ele>
        <time>2015-02-16T20:08:36.680Z</time>
      </trkpt>
      <trkpt lat="48.84423" lon="2.40169">
        <ele>103.6</ele>
        <time>2015-02-16T20:08:37.679Z</time>
      </trkpt>
      <trkpt lat="48.84414" lon="2.40166">
        <ele>103.2</ele>
        <time>2015-02-16T20:08:39.636Z</time>
      </trkpt>
      <trkpt lat="48.8441" lon="2.40165">
        <ele>103.2</ele>
        <time>2015-02-16T20:08:40.650Z</time>
      </trkpt>
      <trkpt lat="48.84405" lon="2.40164">
        <ele>103.3</ele>
        <time>2015-02-16T20:08:41.661Z</time>
      </trkpt>
      <trkpt lat="48.84401" lon="2.40162">
        <ele>103.3</ele>
        <time>2015-02-16T20:08:42.694Z</time>
      </trkpt>
      <trkpt lat="48.84396" lon="2.40161">
        <ele>103.3</ele>
        <time>2015-02-16T20:08:43.735Z</time>
      </trkpt>
      <trkpt lat="48.84392" lon="2.40159">
        <ele>103.3</ele>
        <time>2015-02-16T20:08:44.640Z</time>
      </trkpt>
      <trkpt lat="48.84387" lon="2.40158">
        <ele>103.3</ele>
        <time>2015-02-16T20:08:45.656Z</time>
      </trkpt>
      <trkpt lat="48.84382" lon="2.40156">
        <ele>103.4</ele>
        <time>2015-02-16T20:08:46.700Z</time>
      </trkpt>
      <trkpt lat="48.84377" lon="2.40154">
        <ele>103.3</ele>
        <time>2015-02-16T20:08:47.747Z</time>
      </trkpt>
      <trkpt lat="48.84373" lon="2.40153">
        <ele>103.4</ele>
        <time>2015-02-16T20:08:48.725Z</time>
      </trkpt>
      <trkpt lat="48.84364" lon="2.4015">
        <ele>103.5</ele>
        <time>2015-02-16T20:08:50.653Z</time>
      </trkpt>
      <trkpt lat="48.8436" lon="2.40149">
        <ele>103.7</ele>
        <time>2015-02-16T20:08:51.654Z</time>
      </trkpt>
      <trkpt lat="48.84352" lon="2.40146">
        <ele>103.6</ele>
        <time>2015-02-16T20:08:53.704Z</time>
      </trkpt>
      <trkpt lat="48.84348" lon="2.40145">
        <ele>103.7</ele>
        <time>2015-02-16T20:08:54.717Z</time>
      </trkpt>
      <trkpt lat="48.8434" lon="2.40143">
        <ele>103.9</ele>
        <time>2015-02-16T20:08:56.666Z</time>
      </trkpt>
      <trkpt lat="48.84335" lon="2.40142">
        <ele>103.9</ele>
        <time>2015-02-16T20:08:57.681Z</time>
      </trkpt>
      <trkpt lat="48.8433" lon="2.40141">
        <ele>104.1</ele>
        <time>2015-02-16T20:08:58.706Z</time>
      </trkpt>
      <trkpt lat="48.84325" lon="2.4014">
        <ele>104.6</ele>
        <time>2015-02-16T20:08:59.716Z</time>
      </trkpt>
      <trkpt lat="48.84321" lon="2.40138">
        <ele>105.3</ele>
        <time>2015-02-16T20:09:00.691Z</time>
      </trkpt>
      <trkpt lat="48.84316" lon="2.40136">
        <ele>105.8</ele>
        <time>2015-02-16T20:09:01.689Z</time>
      </trkpt>
      <trkpt lat="48.84311" lon="2.40135">
        <ele>106.4</ele>
        <time>2015-02-16T20:09:02.700Z</time>
      </trkpt>
      <trkpt lat="48.84306" lon="2.40134">
        <ele>106.9</ele>
        <time>2015-02-16T20:09:03.706Z</time>
      </trkpt>
      <trkpt lat="48.84301" lon="2.40133">
        <ele>106.9</ele>
        <time>2015-02-16T20:09:04.638Z</time>
      </trkpt>
      <trkpt lat="48.84297" lon="2.40132">
        <ele>106.8</ele>
        <time>2015-02-16T20:09:05.648Z</time>
      </trkpt>
      <trkpt lat="48.84292" lon="2.4013">
        <ele>106.6</ele>
        <time>2015-02-16T20:09:06.695Z</time>
      </trkpt>
      <trkpt lat="48.84287" lon="2.40128">
        <ele>106.5</ele>
        <time>2015-02-16T20:09:07.707Z</time>
      </trkpt>
      <trkpt lat="48.84283" lon="2.40126">
        <ele>106.3</ele>
        <time>2015-02-16T20:09:08.645Z</time>
      </trkpt>
      <trkpt lat="48.84278" lon="2.40125">
        <ele>106.3</ele>
        <time>2015-02-16T20:09:09.646Z</time>
      </trkpt>
      <trkpt lat="48.84269" lon="2.40121">
        <ele>106.2</ele>
        <time>2015-02-16T20:09:11.654Z</time>
      </trkpt>
      <trkpt lat="48.84265" lon="2.40119">
        <ele>106</ele>
        <time>2015-02-16T20:09:12.782Z</time>
      </trkpt>
      <trkpt lat="48.84257" lon="2.40115">
        <ele>105.9</ele>
        <time>2015-02-16T20:09:14.654Z</time>
      </trkpt>
      <trkpt lat="48.84253" lon="2.40113">
        <ele>105.8</ele>
        <time>2015-02-16T20:09:15.749Z</time>
      </trkpt>
      <trkpt lat="48.84248" lon="2.40111">
        <ele>105.7</ele>
        <time>2015-02-16T20:09:16.653Z</time>
      </trkpt>
      <trkpt lat="48.84244" lon="2.40109">
        <ele>105.7</ele>
        <time>2015-02-16T20:09:17.683Z</time>
      </trkpt>
      <trkpt lat="48.84236" lon="2.40104">
        <ele>105.6</ele>
        <time>2015-02-16T20:09:19.684Z</time>
      </trkpt>
      <trkpt lat="48.84231" lon="2.40103">
        <ele>105.4</ele>
        <time>2015-02-16T20:09:20.696Z</time>
      </trkpt>
      <trkpt lat="48.84224" lon="2.40099">
        <ele>105.3</ele>
        <time>2015-02-16T20:09:22.715Z</time>
      </trkpt>
      <trkpt lat="48.8422" lon="2.40097">
        <ele>105.3</ele>
        <time>2015-02-16T20:09:23.730Z</time>
      </trkpt>
      <trkpt lat="48.84212" lon="2.40093">
        <ele>105.5</ele>
        <time>2015-02-16T20:09:25.692Z</time>
      </trkpt>
      <trkpt lat="48.84208" lon="2.40091">
        <ele>105.5</ele>
        <time>2015-02-16T20:09:26.690Z</time>
      </trkpt>
      <trkpt lat="48.84199" lon="2.40089">
        <ele>105.6</ele>
        <time>2015-02-16T20:09:28.827Z</time>
      </trkpt>
      <trkpt lat="48.84195" lon="2.40087">
        <ele>105.7</ele>
        <time>2015-02-16T20:09:29.725Z</time>
      </trkpt>
      <trkpt lat="48.84187" lon="2.40083">
        <ele>105.7</ele>
        <time>2015-02-16T20:09:32.473Z</time>
      </trkpt>
      <trkpt lat="48.84183" lon="2.40082">
        <ele>105.7</ele>
        <time>2015-02-16T20:09:32.626Z</time>
      </trkpt>
      <trkpt lat="48.84175" lon="2.40077">
        <ele>105.7</ele>
        <time>2015-02-16T20:09:35.504Z</time>
      </trkpt>
      <trkpt lat="48.8417" lon="2.40075">
        <ele>105.6</ele>
        <time>2015-02-16T20:09:35.723Z</time>
      </trkpt>
      <trkpt lat="48.84165" lon="2.40073">
        <ele>105.7</ele>
        <time>2015-02-16T20:09:36.743Z</time>
      </trkpt>
      <trkpt lat="48.84161" lon="2.40071">
        <ele>105.6</ele>
        <time>2015-02-16T20:09:37.653Z</time>
      </trkpt>
      <trkpt lat="48.84156" lon="2.4007">
        <ele>105.7</ele>
        <time>2015-02-16T20:09:38.659Z</time>
      </trkpt>
      <trkpt lat="48.84151" lon="2.4007">
        <ele>106</ele>
        <time>2015-02-16T20:09:39.667Z</time>
      </trkpt>
      <trkpt lat="48.84146" lon="2.40069">
        <ele>106.3</ele>
        <time>2015-02-16T20:09:40.690Z</time>
      </trkpt>
      <trkpt lat="48.84141" lon="2.40068">
        <ele>106.5</ele>
        <time>2015-02-16T20:09:41.704Z</time>
      </trkpt>
      <trkpt lat="48.84133" lon="2.40065">
        <ele>106.8</ele>
        <time>2015-02-16T20:09:43.724Z</time>
      </trkpt>
      <trkpt lat="48.84128" lon="2.40065">
        <ele>106.8</ele>
        <time>2015-02-16T20:09:44.729Z</time>
      </trkpt>
      <trkpt lat="48.84124" lon="2.40064">
        <ele>107</ele>
        <time>2015-02-16T20:09:45.755Z</time>
      </trkpt>
      <trkpt lat="48.84119" lon="2.40062">
        <ele>107.2</ele>
        <time>2015-02-16T20:09:46.673Z</time>
      </trkpt>
      <trkpt lat="48.84113" lon="2.4006">
        <ele>108.6</ele>
        <time>2015-02-16T20:09:47.671Z</time>
      </trkpt>
      <trkpt lat="48.84106" lon="2.40057">
        <ele>112</ele>
        <time>2015-02-16T20:09:48.686Z</time>
      </trkpt>
      <trkpt lat="48.84101" lon="2.40055">
        <ele>112.3</ele>
        <time>2015-02-16T20:09:49.704Z</time>
      </trkpt>
      <trkpt lat="48.84096" lon="2.40053">
        <ele>112.4</ele>
        <time>2015-02-16T20:09:50.771Z</time>
      </trkpt>
      <trkpt lat="48.84092" lon="2.4005">
        <ele>112.1</ele>
        <time>2015-02-16T20:09:51.619Z</time>
      </trkpt>
      <trkpt lat="48.84088" lon="2.40047">
        <ele>111.9</ele>
        <time>2015-02-16T20:09:52.677Z</time>
      </trkpt>
      <trkpt lat="48.84083" lon="2.40045">
        <ele>111.6</ele>
        <time>2015-02-16T20:09:53.699Z</time>
      </trkpt>
      <trkpt lat="48.84079" lon="2.40043">
        <ele>111.4</ele>
        <time>2015-02-16T20:09:54.706Z</time>
      </trkpt>
      <trkpt lat="48.84074" lon="2.40042">
        <ele>111.2</ele>
        <time>2015-02-16T20:09:55.775Z</time>
      </trkpt>
      <trkpt lat="48.84069" lon="2.40042">
        <ele>111</ele>
        <time>2015-02-16T20:09:56.734Z</time>
      </trkpt>
      <trkpt lat="48.84064" lon="2.4004">
        <ele>110.9</ele>
        <time>2015-02-16T20:09:57.636Z</time>
      </trkpt>
      <trkpt lat="48.8406" lon="2.40038">
        <ele>110.9</ele>
        <time>2015-02-16T20:09:58.687Z</time>
      </trkpt>
      <trkpt lat="48.84055" lon="2.40037">
        <ele>110.9</ele>
        <time>2015-02-16T20:09:59.651Z</time>
      </trkpt>
      <trkpt lat="48.84051" lon="2.40035">
        <ele>110.7</ele>
        <time>2015-02-16T20:10:00.681Z</time>
      </trkpt>
      <trkpt lat="48.84046" lon="2.40033">
        <ele>110.5</ele>
        <time>2015-02-16T20:10:01.688Z</time>
      </trkpt>
      <trkpt lat="48.84042" lon="2.40031">
        <ele>110.3</ele>
        <time>2015-02-16T20:10:02.694Z</time>
      </trkpt>
      <trkpt lat="48.84035" lon="2.40027">
        <ele>109.8</ele>
        <time>2015-02-16T20:10:04.732Z</time>
      </trkpt>
      <trkpt lat="48.84031" lon="2.40026">
        <ele>109.6</ele>
        <time>2015-02-16T20:10:05.673Z</time>
      </trkpt>
      <trkpt lat="48.84023" lon="2.40023">
        <ele>109.5</ele>
        <time>2015-02-16T20:10:07.647Z</time>
      </trkpt>
      <trkpt lat="48.8402" lon="2.40022">
        <ele>109.5</ele>
        <time>2015-02-16T20:10:08.646Z</time>
      </trkpt>
      <trkpt lat="48.84012" lon="2.4002">
        <ele>109.6</ele>
        <time>2015-02-16T20:10:10.889Z</time>
      </trkpt>
      <trkpt lat="48.84008" lon="2.40019">
        <ele>109.8</ele>
        <time>2015-02-16T20:10:11.729Z</time>
      </trkpt>
      <trkpt lat="48.84002" lon="2.40016">
        <ele>110.1</ele>
        <time>2015-02-16T20:10:13.644Z</time>
      </trkpt>
      <trkpt lat="48.83999" lon="2.40014">
        <ele>110</ele>
        <time>2015-02-16T20:10:14.650Z</time>
      </trkpt>
      <trkpt lat="48.83993" lon="2.40006">
        <ele>110.3</ele>
        <time>2015-02-16T20:10:18.080Z</time>
      </trkpt>
      <trkpt lat="48.83992" lon="2.40004">
        <ele>110.6</ele>
        <time>2015-02-16T20:10:18.687Z</time>
      </trkpt>
      <trkpt lat="48.83985" lon="2.4">
        <ele>111.8</ele>
        <time>2015-02-16T20:10:24.714Z</time>
      </trkpt>
      <trkpt lat="48.83986" lon="2.39999">
        <ele>111.8</ele>
        <time>2015-02-16T20:10:25.732Z</time>
      </trkpt>
      <trkpt lat="48.83986" lon="2.39999">
        <ele>111.8</ele>
        <time>2015-02-16T20:10:26.133Z</time>
      </trkpt>
      <trkpt lat="48.83986" lon="2.39999">
        <ele>111.7</ele>
        <time>2015-02-16T20:10:26.642Z</time>
      </trkpt>
      <trkpt lat="48.83991" lon="2.39996">
        <ele>111</ele>
        <time>2015-02-16T20:10:31.670Z</time>
      </trkpt>
      <trkpt lat="48.83992" lon="2.39994">
        <ele>110.4</ele>
        <time>2015-02-16T20:10:32.841Z</time>
      </trkpt>
      <trkpt lat="48.83993" lon="2.39994">
        <ele>110.1</ele>
        <time>2015-02-16T20:10:50.767Z</time>
      </trkpt>
      <trkpt lat="48.83998" lon="2.39988">
        <ele>106.7</ele>
        <time>2015-02-16T20:10:51.655Z</time>
      </trkpt>
      <trkpt lat="48.83991" lon="2.39982">
        <ele>105.6</ele>
        <time>2015-02-16T20:10:59.696Z</time>
      </trkpt>
      <trkpt lat="48.8399" lon="2.39981">
        <ele>105.5</ele>
        <time>2015-02-16T20:11:00.713Z</time>
      </trkpt>
      <trkpt lat="48.83988" lon="2.3997">
        <ele>105.7</ele>
        <time>2015-02-16T20:11:04.694Z</time>
      </trkpt>
      <trkpt lat="48.83988" lon="2.39966">
        <ele>105.7</ele>
        <time>2015-02-16T20:11:05.700Z</time>
      </trkpt>
      <trkpt lat="48.83988" lon="2.39955">
        <ele>105.6</ele>
        <time>2015-02-16T20:11:07.725Z</time>
      </trkpt>
      <trkpt lat="48.83988" lon="2.39949">
        <ele>105.7</ele>
        <time>2015-02-16T20:11:08.741Z</time>
      </trkpt>
      <trkpt lat="48.83987" lon="2.39937">
        <ele>106.1</ele>
        <time>2015-02-16T20:11:10.639Z</time>
      </trkpt>
      <trkpt lat="48.83986" lon="2.39931">
        <ele>106</ele>
        <time>2015-02-16T20:11:11.653Z</time>
      </trkpt>
      <trkpt lat="48.83985" lon="2.3992">
        <ele>106.1</ele>
        <time>2015-02-16T20:11:13.650Z</time>
      </trkpt>
      <trkpt lat="48.83984" lon="2.39914">
        <ele>106</ele>
        <time>2015-02-16T20:11:14.666Z</time>
      </trkpt>
      <trkpt lat="48.83984" lon="2.39901">
        <ele>106</ele>
        <time>2015-02-16T20:11:16.754Z</time>
      </trkpt>
      <trkpt lat="48.83984" lon="2.39894">
        <ele>106</ele>
        <time>2015-02-16T20:11:17.648Z</time>
      </trkpt>
      <trkpt lat="48.83983" lon="2.39883">
        <ele>105.8</ele>
        <time>2015-02-16T20:11:19.678Z</time>
      </trkpt>
      <trkpt lat="48.83981" lon="2.39878">
        <ele>106.1</ele>
        <time>2015-02-16T20:11:20.689Z</time>
      </trkpt>
      <trkpt lat="48.8398" lon="2.39872">
        <ele>106.1</ele>
        <time>2015-02-16T20:11:21.705Z</time>
      </trkpt>
      <trkpt lat="48.83979" lon="2.39865">
        <ele>106</ele>
        <time>2015-02-16T20:11:22.708Z</time>
      </trkpt>
      <trkpt lat="48.83979" lon="2.39852">
        <ele>106.3</ele>
        <time>2015-02-16T20:11:24.728Z</time>
      </trkpt>
      <trkpt lat="48.83979" lon="2.39846">
        <ele>106.4</ele>
        <time>2015-02-16T20:11:25.637Z</time>
      </trkpt>
      <trkpt lat="48.83979" lon="2.39839">
        <ele>106.4</ele>
        <time>2015-02-16T20:11:26.654Z</time>
      </trkpt>
      <trkpt lat="48.8398" lon="2.39831">
        <ele>106.5</ele>
        <time>2015-02-16T20:11:27.662Z</time>
      </trkpt>
      <trkpt lat="48.83981" lon="2.39823">
        <ele>106.5</ele>
        <time>2015-02-16T20:11:28.679Z</time>
      </trkpt>
      <trkpt lat="48.83982" lon="2.39815">
        <ele>106.6</ele>
        <time>2015-02-16T20:11:29.693Z</time>
      </trkpt>
      <trkpt lat="48.83981" lon="2.39808">
        <ele>106.6</ele>
        <time>2015-02-16T20:11:30.751Z</time>
      </trkpt>
      <trkpt lat="48.83981" lon="2.398">
        <ele>106.6</ele>
        <time>2015-02-16T20:11:31.641Z</time>
      </trkpt>
      <trkpt lat="48.83981" lon="2.39793">
        <ele>106.7</ele>
        <time>2015-02-16T20:11:32.688Z</time>
      </trkpt>
      <trkpt lat="48.8398" lon="2.39785">
        <ele>106.7</ele>
        <time>2015-02-16T20:11:33.699Z</time>
      </trkpt>
      <trkpt lat="48.8398" lon="2.39777">
        <ele>106.6</ele>
        <time>2015-02-16T20:11:34.720Z</time>
      </trkpt>
      <trkpt lat="48.83979" lon="2.39769">
        <ele>106.4</ele>
        <time>2015-02-16T20:11:35.614Z</time>
      </trkpt>
      <trkpt lat="48.83978" lon="2.3976">
        <ele>106.2</ele>
        <time>2015-02-16T20:11:36.657Z</time>
      </trkpt>
      <trkpt lat="48.83977" lon="2.39751">
        <ele>106</ele>
        <time>2015-02-16T20:11:37.660Z</time>
      </trkpt>
      <trkpt lat="48.83976" lon="2.39742">
        <ele>105.9</ele>
        <time>2015-02-16T20:11:38.686Z</time>
      </trkpt>
      <trkpt lat="48.83976" lon="2.39734">
        <ele>105.9</ele>
        <time>2015-02-16T20:11:39.698Z</time>
      </trkpt>
      <trkpt lat="48.83974" lon="2.39727">
        <ele>105.8</ele>
        <time>2015-02-16T20:11:40.707Z</time>
      </trkpt>
      <trkpt lat="48.83974" lon="2.3972">
        <ele>105.6</ele>
        <time>2015-02-16T20:11:41.712Z</time>
      </trkpt>
      <trkpt lat="48.83972" lon="2.39712">
        <ele>105.4</ele>
        <time>2015-02-16T20:11:42.762Z</time>
      </trkpt>
      <trkpt lat="48.83974" lon="2.39704">
        <ele>105.3</ele>
        <time>2015-02-16T20:11:43.639Z</time>
      </trkpt>
      <trkpt lat="48.83975" lon="2.39697">
        <ele>105.3</ele>
        <time>2015-02-16T20:11:44.648Z</time>
      </trkpt>
      <trkpt lat="48.83975" lon="2.39689">
        <ele>105.3</ele>
        <time>2015-02-16T20:11:45.676Z</time>
      </trkpt>
      <trkpt lat="48.83978" lon="2.39676">
        <ele>105.2</ele>
        <time>2015-02-16T20:11:47.720Z</time>
      </trkpt>
      <trkpt lat="48.83979" lon="2.3967">
        <ele>105.2</ele>
        <time>2015-02-16T20:11:48.724Z</time>
      </trkpt>
      <trkpt lat="48.83981" lon="2.39657">
        <ele>105.2</ele>
        <time>2015-02-16T20:11:50.683Z</time>
      </trkpt>
      <trkpt lat="48.83982" lon="2.3965">
        <ele>105.1</ele>
        <time>2015-02-16T20:11:51.639Z</time>
      </trkpt>
      <trkpt lat="48.83984" lon="2.39637">
        <ele>105</ele>
        <time>2015-02-16T20:11:53.663Z</time>
      </trkpt>
      <trkpt lat="48.83984" lon="2.3963">
        <ele>104.7</ele>
        <time>2015-02-16T20:11:54.690Z</time>
      </trkpt>
      <trkpt lat="48.83986" lon="2.39617">
        <ele>104.5</ele>
        <time>2015-02-16T20:11:56.740Z</time>
      </trkpt>
      <trkpt lat="48.83988" lon="2.39611">
        <ele>104.5</ele>
        <time>2015-02-16T20:11:57.643Z</time>
      </trkpt>
      <trkpt lat="48.83988" lon="2.39604">
        <ele>104.4</ele>
        <time>2015-02-16T20:11:58.643Z</time>
      </trkpt>
      <trkpt lat="48.83989" lon="2.39596">
        <ele>104.1</ele>
        <time>2015-02-16T20:11:59.645Z</time>
      </trkpt>
      <trkpt lat="48.83989" lon="2.39589">
        <ele>104</ele>
        <time>2015-02-16T20:12:01.220Z</time>
      </trkpt>
      <trkpt lat="48.83988" lon="2.39583">
        <ele>103.9</ele>
        <time>2015-02-16T20:12:01.670Z</time>
      </trkpt>
      <trkpt lat="48.83987" lon="2.39576">
        <ele>103.9</ele>
        <time>2015-02-16T20:12:02.678Z</time>
      </trkpt>
      <trkpt lat="48.83985" lon="2.39568">
        <ele>103.9</ele>
        <time>2015-02-16T20:12:03.697Z</time>
      </trkpt>
      <trkpt lat="48.83984" lon="2.39561">
        <ele>104</ele>
        <time>2015-02-16T20:12:04.711Z</time>
      </trkpt>
      <trkpt lat="48.83982" lon="2.39555">
        <ele>104</ele>
        <time>2015-02-16T20:12:05.713Z</time>
      </trkpt>
      <trkpt lat="48.83978" lon="2.39545">
        <ele>103.8</ele>
        <time>2015-02-16T20:12:07.641Z</time>
      </trkpt>
      <trkpt lat="48.83975" lon="2.3954">
        <ele>104.2</ele>
        <time>2015-02-16T20:12:08.677Z</time>
      </trkpt>
      <trkpt lat="48.83972" lon="2.39531">
        <ele>105.1</ele>
        <time>2015-02-16T20:12:11.271Z</time>
      </trkpt>
      <trkpt lat="48.83971" lon="2.39527">
        <ele>105.4</ele>
        <time>2015-02-16T20:12:11.733Z</time>
      </trkpt>
      <trkpt lat="48.83975" lon="2.39516">
        <ele>105.7</ele>
        <time>2015-02-16T20:12:19.706Z</time>
      </trkpt>
      <trkpt lat="48.83976" lon="2.39515">
        <ele>105.6</ele>
        <time>2015-02-16T20:12:20.648Z</time>
      </trkpt>
      <trkpt lat="48.83976" lon="2.39515">
        <ele>105.6</ele>
        <time>2015-02-16T20:12:21.410Z</time>
      </trkpt>
      <trkpt lat="48.83976" lon="2.39515">
        <ele>105.6</ele>
        <time>2015-02-16T20:12:21.659Z</time>
      </trkpt>
      <trkpt lat="48.83976" lon="2.39517">
        <ele>105.3</ele>
        <time>2015-02-16T20:12:36.698Z</time>
      </trkpt>
      <trkpt lat="48.83975" lon="2.39525">
        <ele>107.1</ele>
        <time>2015-02-16T20:12:37.720Z</time>
      </trkpt>
      <trkpt lat="48.83967" lon="2.3952">
        <ele>108.2</ele>
        <time>2015-02-16T20:12:41.714Z</time>
      </trkpt>
      <trkpt lat="48.83965" lon="2.39519">
        <ele>108.5</ele>
        <time>2015-02-16T20:12:42.729Z</time>
      </trkpt>
      <trkpt lat="48.83959" lon="2.39512">
        <ele>109.2</ele>
        <time>2015-02-16T20:12:45.728Z</time>
      </trkpt>
      <trkpt lat="48.83958" lon="2.39509">
        <ele>109.2</ele>
        <time>2015-02-16T20:12:46.733Z</time>
      </trkpt>
      <trkpt lat="48.83956" lon="2.39498">
        <ele>108.8</ele>
        <time>2015-02-16T20:12:48.660Z</time>
      </trkpt>
      <trkpt lat="48.83954" lon="2.39493">
        <ele>108.6</ele>
        <time>2015-02-16T20:12:49.666Z</time>
      </trkpt>
      <trkpt lat="48.83952" lon="2.39482">
        <ele>108.7</ele>
        <time>2015-02-16T20:12:51.702Z</time>
      </trkpt>
      <trkpt lat="48.8395" lon="2.39477">
        <ele>108.7</ele>
        <time>2015-02-16T20:12:52.715Z</time>
      </trkpt>
      <trkpt lat="48.83949" lon="2.39466">
        <ele>108.8</ele>
        <time>2015-02-16T20:12:54.673Z</time>
      </trkpt>
      <trkpt lat="48.83948" lon="2.39462">
        <ele>108.7</ele>
        <time>2015-02-16T20:12:55.693Z</time>
      </trkpt>
      <trkpt lat="48.83945" lon="2.3945">
        <ele>108.4</ele>
        <time>2015-02-16T20:12:58.692Z</time>
      </trkpt>
      <trkpt lat="48.83943" lon="2.39447">
        <ele>108.2</ele>
        <time>2015-02-16T20:12:59.618Z</time>
      </trkpt>
      <trkpt lat="48.83937" lon="2.39437">
        <ele>108</ele>
        <time>2015-02-16T20:13:02.696Z</time>
      </trkpt>
      <trkpt lat="48.83935" lon="2.39433">
        <ele>107.9</ele>
        <time>2015-02-16T20:13:03.817Z</time>
      </trkpt>
      <trkpt lat="48.8393" lon="2.39426">
        <ele>107.6</ele>
        <time>2015-02-16T20:13:06.133Z</time>
      </trkpt>
      <trkpt lat="48.83927" lon="2.39423">
        <ele>107.5</ele>
        <time>2015-02-16T20:13:06.699Z</time>
      </trkpt>
      <trkpt lat="48.83921" lon="2.39417">
        <ele>107.2</ele>
        <time>2015-02-16T20:13:08.736Z</time>
      </trkpt>
      <trkpt lat="48.83918" lon="2.39414">
        <ele>107</ele>
        <time>2015-02-16T20:13:09.629Z</time>
      </trkpt>
      <trkpt lat="48.83912" lon="2.39408">
        <ele>106.8</ele>
        <time>2015-02-16T20:13:11.669Z</time>
      </trkpt>
      <trkpt lat="48.8391" lon="2.39404">
        <ele>106.6</ele>
        <time>2015-02-16T20:13:12.672Z</time>
      </trkpt>
      <trkpt lat="48.83904" lon="2.39398">
        <ele>106.3</ele>
        <time>2015-02-16T20:13:14.720Z</time>
      </trkpt>
      <trkpt lat="48.83899" lon="2.3939">
        <ele>106</ele>
        <time>2015-02-16T20:13:16.620Z</time>
      </trkpt>
      <trkpt lat="48.83894" lon="2.39382">
        <ele>105.8</ele>
        <time>2015-02-16T20:13:18.689Z</time>
      </trkpt>
      <trkpt lat="48.83892" lon="2.39378">
        <ele>105.9</ele>
        <time>2015-02-16T20:13:19.625Z</time>
      </trkpt>
      <trkpt lat="48.83886" lon="2.39369">
        <ele>106</ele>
        <time>2015-02-16T20:13:21.648Z</time>
      </trkpt>
      <trkpt lat="48.83883" lon="2.39365">
        <ele>105.9</ele>
        <time>2015-02-16T20:13:22.677Z</time>
      </trkpt>
      <trkpt lat="48.83876" lon="2.39357">
        <ele>105.9</ele>
        <time>2015-02-16T20:13:24.715Z</time>
      </trkpt>
      <trkpt lat="48.83874" lon="2.39354">
        <ele>106</ele>
        <time>2015-02-16T20:13:25.601Z</time>
      </trkpt>
      <trkpt lat="48.8387" lon="2.39346">
        <ele>106.1</ele>
        <time>2015-02-16T20:13:27.712Z</time>
      </trkpt>
      <trkpt lat="48.83868" lon="2.39341">
        <ele>106.2</ele>
        <time>2015-02-16T20:13:28.731Z</time>
      </trkpt>
      <trkpt lat="48.83863" lon="2.39332">
        <ele>106.1</ele>
        <time>2015-02-16T20:13:30.646Z</time>
      </trkpt>
      <trkpt lat="48.8386" lon="2.39327">
        <ele>106.2</ele>
        <time>2015-02-16T20:13:31.661Z</time>
      </trkpt>
      <trkpt lat="48.83855" lon="2.39317">
        <ele>105.9</ele>
        <time>2015-02-16T20:13:33.701Z</time>
      </trkpt>
      <trkpt lat="48.83853" lon="2.39311">
        <ele>105.9</ele>
        <time>2015-02-16T20:13:34.602Z</time>
      </trkpt>
      <trkpt lat="48.83849" lon="2.39301">
        <ele>105.9</ele>
        <time>2015-02-16T20:13:36.660Z</time>
      </trkpt>
      <trkpt lat="48.83846" lon="2.39295">
        <ele>106</ele>
        <time>2015-02-16T20:13:37.669Z</time>
      </trkpt>
      <trkpt lat="48.83843" lon="2.39289">
        <ele>106</ele>
        <time>2015-02-16T20:13:38.681Z</time>
      </trkpt>
      <trkpt lat="48.83841" lon="2.39283">
        <ele>105.9</ele>
        <time>2015-02-16T20:13:39.619Z</time>
      </trkpt>
      <trkpt lat="48.83838" lon="2.39277">
        <ele>105.9</ele>
        <time>2015-02-16T20:13:40.617Z</time>
      </trkpt>
      <trkpt lat="48.83835" lon="2.39272">
        <ele>105.9</ele>
        <time>2015-02-16T20:13:41.633Z</time>
      </trkpt>
      <trkpt lat="48.8383" lon="2.39262">
        <ele>105.9</ele>
        <time>2015-02-16T20:13:43.672Z</time>
      </trkpt>
      <trkpt lat="48.83828" lon="2.39256">
        <ele>105.8</ele>
        <time>2015-02-16T20:13:44.685Z</time>
      </trkpt>
      <trkpt lat="48.83826" lon="2.39249">
        <ele>105.7</ele>
        <time>2015-02-16T20:13:45.630Z</time>
      </trkpt>
      <trkpt lat="48.83823" lon="2.39243">
        <ele>105.7</ele>
        <time>2015-02-16T20:13:46.653Z</time>
      </trkpt>
      <trkpt lat="48.8382" lon="2.39238">
        <ele>105.5</ele>
        <time>2015-02-16T20:13:47.668Z</time>
      </trkpt>
      <trkpt lat="48.83817" lon="2.39232">
        <ele>105.4</ele>
        <time>2015-02-16T20:13:48.698Z</time>
      </trkpt>
      <trkpt lat="48.83814" lon="2.39226">
        <ele>105.3</ele>
        <time>2015-02-16T20:13:49.594Z</time>
      </trkpt>
      <trkpt lat="48.8381" lon="2.3922">
        <ele>105.3</ele>
        <time>2015-02-16T20:13:50.620Z</time>
      </trkpt>
      <trkpt lat="48.83807" lon="2.39215">
        <ele>105.3</ele>
        <time>2015-02-16T20:13:51.626Z</time>
      </trkpt>
      <trkpt lat="48.83804" lon="2.39209">
        <ele>105.2</ele>
        <time>2015-02-16T20:13:52.629Z</time>
      </trkpt>
      <trkpt lat="48.838" lon="2.39205">
        <ele>105.2</ele>
        <time>2015-02-16T20:13:53.666Z</time>
      </trkpt>
      <trkpt lat="48.83797" lon="2.39199">
        <ele>105.1</ele>
        <time>2015-02-16T20:13:54.656Z</time>
      </trkpt>
      <trkpt lat="48.8379" lon="2.39191">
        <ele>105</ele>
        <time>2015-02-16T20:13:56.608Z</time>
      </trkpt>
      <trkpt lat="48.83784" lon="2.39187">
        <ele>104.8</ele>
        <time>2015-02-16T20:13:57.659Z</time>
      </trkpt>
      <trkpt lat="48.83777" lon="2.39179">
        <ele>104.5</ele>
        <time>2015-02-16T20:13:59.725Z</time>
      </trkpt>
      <trkpt lat="48.83775" lon="2.39175">
        <ele>104.4</ele>
        <time>2015-02-16T20:14:00.652Z</time>
      </trkpt>
      <trkpt lat="48.83768" lon="2.39169">
        <ele>104</ele>
        <time>2015-02-16T20:14:02.679Z</time>
      </trkpt>
      <trkpt lat="48.83765" lon="2.39164">
        <ele>104</ele>
        <time>2015-02-16T20:14:03.693Z</time>
      </trkpt>
      <trkpt lat="48.83761" lon="2.39158">
        <ele>103.8</ele>
        <time>2015-02-16T20:14:04.626Z</time>
      </trkpt>
      <trkpt lat="48.83755" lon="2.39153">
        <ele>103.8</ele>
        <time>2015-02-16T20:14:05.635Z</time>
      </trkpt>
      <trkpt lat="48.83751" lon="2.39149">
        <ele>103.9</ele>
        <time>2015-02-16T20:14:06.669Z</time>
      </trkpt>
      <trkpt lat="48.83747" lon="2.39144">
        <ele>104.1</ele>
        <time>2015-02-16T20:14:07.691Z</time>
      </trkpt>
      <trkpt lat="48.83745" lon="2.39138">
        <ele>104.1</ele>
        <time>2015-02-16T20:14:08.689Z</time>
      </trkpt>
      <trkpt lat="48.83743" lon="2.39131">
        <ele>104.2</ele>
        <time>2015-02-16T20:14:09.705Z</time>
      </trkpt>
      <trkpt lat="48.83741" lon="2.39119">
        <ele>103.8</ele>
        <time>2015-02-16T20:14:11.699Z</time>
      </trkpt>
      <trkpt lat="48.8374" lon="2.39114">
        <ele>103.3</ele>
        <time>2015-02-16T20:14:12.708Z</time>
      </trkpt>
      <trkpt lat="48.83738" lon="2.39108">
        <ele>102.9</ele>
        <time>2015-02-16T20:14:13.714Z</time>
      </trkpt>
      <trkpt lat="48.83737" lon="2.39101">
        <ele>102.5</ele>
        <time>2015-02-16T20:14:14.625Z</time>
      </trkpt>
      <trkpt lat="48.83733" lon="2.3909">
        <ele>102.1</ele>
        <time>2015-02-16T20:14:15.635Z</time>
      </trkpt>
      <trkpt lat="48.8373" lon="2.3908">
        <ele>101.7</ele>
        <time>2015-02-16T20:14:16.672Z</time>
      </trkpt>
      <trkpt lat="48.83728" lon="2.3907">
        <ele>101</ele>
        <time>2015-02-16T20:14:17.695Z</time>
      </trkpt>
      <trkpt lat="48.83726" lon="2.39061">
        <ele>100.4</ele>
        <time>2015-02-16T20:14:18.711Z</time>
      </trkpt>
      <trkpt lat="48.83724" lon="2.39053">
        <ele>100.4</ele>
        <time>2015-02-16T20:14:19.645Z</time>
      </trkpt>
      <trkpt lat="48.83722" lon="2.39045">
        <ele>100</ele>
        <time>2015-02-16T20:14:20.652Z</time>
      </trkpt>
      <trkpt lat="48.8372" lon="2.39036">
        <ele>99.9</ele>
        <time>2015-02-16T20:14:21.678Z</time>
      </trkpt>
      <trkpt lat="48.83717" lon="2.39027">
        <ele>100.5</ele>
        <time>2015-02-16T20:14:22.687Z</time>
      </trkpt>
      <trkpt lat="48.83713" lon="2.39018">
        <ele>100.8</ele>
        <time>2015-02-16T20:14:23.646Z</time>
      </trkpt>
      <trkpt lat="48.8371" lon="2.3901">
        <ele>100.6</ele>
        <time>2015-02-16T20:14:24.683Z</time>
      </trkpt>
      <trkpt lat="48.83708" lon="2.39002">
        <ele>100.4</ele>
        <time>2015-02-16T20:14:25.683Z</time>
      </trkpt>
      <trkpt lat="48.83704" lon="2.38987">
        <ele>100.3</ele>
        <time>2015-02-16T20:14:27.726Z</time>
      </trkpt>
      <trkpt lat="48.83696" lon="2.38956">
        <ele>100.5</ele>
        <time>2015-02-16T20:14:31.698Z</time>
      </trkpt>
      <trkpt lat="48.83691" lon="2.38935">
        <ele>100.5</ele>
        <time>2015-02-16T20:14:34.653Z</time>
      </trkpt>
      <trkpt lat="48.83689" lon="2.38927">
        <ele>100.5</ele>
        <time>2015-02-16T20:14:35.670Z</time>
      </trkpt>
      <trkpt lat="48.83685" lon="2.38916">
        <ele>100.5</ele>
        <time>2015-02-16T20:14:37.687Z</time>
      </trkpt>
      <trkpt lat="48.83682" lon="2.38906">
        <ele>100.5</ele>
        <time>2015-02-16T20:14:39.614Z</time>
      </trkpt>
      <trkpt lat="48.83681" lon="2.38902">
        <ele>100.4</ele>
        <time>2015-02-16T20:14:40.621Z</time>
      </trkpt>
      <trkpt lat="48.83677" lon="2.38894">
        <ele>100</ele>
        <time>2015-02-16T20:14:43.714Z</time>
      </trkpt>
      <trkpt lat="48.83671" lon="2.38869">
        <ele>99.7</ele>
        <time>2015-02-16T20:14:47.855Z</time>
      </trkpt>
      <trkpt lat="48.83667" lon="2.38859">
        <ele>100.2</ele>
        <time>2015-02-16T20:14:49.674Z</time>
      </trkpt>
      <trkpt lat="48.83661" lon="2.38843">
        <ele>101.8</ele>
        <time>2015-02-16T20:14:50.687Z</time>
      </trkpt>
      <trkpt lat="48.83657" lon="2.38832">
        <ele>101.9</ele>
        <time>2015-02-16T20:14:53.646Z</time>
      </trkpt>
      <trkpt lat="48.83655" lon="2.38828">
        <ele>101.9</ele>
        <time>2015-02-16T20:14:54.770Z</time>
      </trkpt>
      <trkpt lat="48.83652" lon="2.38822">
        <ele>101.8</ele>
        <time>2015-02-16T20:14:55.709Z</time>
      </trkpt>
      <trkpt lat="48.83652" lon="2.38812">
        <ele>101.3</ele>
        <time>2015-02-16T20:14:56.716Z</time>
      </trkpt>
      <trkpt lat="48.83655" lon="2.38801">
        <ele>101.1</ele>
        <time>2015-02-16T20:14:58.612Z</time>
      </trkpt>
      <trkpt lat="48.83655" lon="2.38796">
        <ele>101</ele>
        <time>2015-02-16T20:14:59.650Z</time>
      </trkpt>
      <trkpt lat="48.83656" lon="2.38789">
        <ele>100.9</ele>
        <time>2015-02-16T20:15:00.694Z</time>
      </trkpt>
      <trkpt lat="48.83658" lon="2.3878">
        <ele>100.7</ele>
        <time>2015-02-16T20:15:01.714Z</time>
      </trkpt>
      <trkpt lat="48.8366" lon="2.38772">
        <ele>100.6</ele>
        <time>2015-02-16T20:15:02.634Z</time>
      </trkpt>
      <trkpt lat="48.8366" lon="2.38765">
        <ele>100.3</ele>
        <time>2015-02-16T20:15:03.644Z</time>
      </trkpt>
      <trkpt lat="48.83659" lon="2.38754">
        <ele>100</ele>
        <time>2015-02-16T20:15:05.718Z</time>
      </trkpt>
      <trkpt lat="48.83657" lon="2.38749">
        <ele>99.8</ele>
        <time>2015-02-16T20:15:06.734Z</time>
      </trkpt>
      <trkpt lat="48.83652" lon="2.38739">
        <ele>99.7</ele>
        <time>2015-02-16T20:15:08.635Z</time>
      </trkpt>
      <trkpt lat="48.83649" lon="2.38733">
        <ele>99.6</ele>
        <time>2015-02-16T20:15:09.614Z</time>
      </trkpt>
      <trkpt lat="48.83647" lon="2.38726">
        <ele>99.4</ele>
        <time>2015-02-16T20:15:10.650Z</time>
      </trkpt>
      <trkpt lat="48.83644" lon="2.3872">
        <ele>99.1</ele>
        <time>2015-02-16T20:15:11.663Z</time>
      </trkpt>
      <trkpt lat="48.83639" lon="2.38713">
        <ele>98.9</ele>
        <time>2015-02-16T20:15:12.680Z</time>
      </trkpt>
      <trkpt lat="48.83635" lon="2.38708">
        <ele>98.8</ele>
        <time>2015-02-16T20:15:13.691Z</time>
      </trkpt>
      <trkpt lat="48.83631" lon="2.38702">
        <ele>98.7</ele>
        <time>2015-02-16T20:15:14.713Z</time>
      </trkpt>
      <trkpt lat="48.83628" lon="2.38697">
        <ele>98.7</ele>
        <time>2015-02-16T20:15:15.716Z</time>
      </trkpt>
      <trkpt lat="48.83624" lon="2.38692">
        <ele>98.6</ele>
        <time>2015-02-16T20:15:16.648Z</time>
      </trkpt>
      <trkpt lat="48.83619" lon="2.38689">
        <ele>98.5</ele>
        <time>2015-02-16T20:15:17.664Z</time>
      </trkpt>
      <trkpt lat="48.83611" lon="2.38683">
        <ele>98.3</ele>
        <time>2015-02-16T20:15:19.685Z</time>
      </trkpt>
      <trkpt lat="48.83608" lon="2.3868">
        <ele>98.3</ele>
        <time>2015-02-16T20:15:20.697Z</time>
      </trkpt>
      <trkpt lat="48.83601" lon="2.38673">
        <ele>98.2</ele>
        <time>2015-02-16T20:15:22.660Z</time>
      </trkpt>
      <trkpt lat="48.83599" lon="2.3867">
        <ele>98.4</ele>
        <time>2015-02-16T20:15:23.681Z</time>
      </trkpt>
      <trkpt lat="48.83594" lon="2.38663">
        <ele>98.1</ele>
        <time>2015-02-16T20:15:25.644Z</time>
      </trkpt>
      <trkpt lat="48.83591" lon="2.3866">
        <ele>98.1</ele>
        <time>2015-02-16T20:15:26.715Z</time>
      </trkpt>
      <trkpt lat="48.83586" lon="2.38649">
        <ele>97.3</ele>
        <time>2015-02-16T20:15:29.669Z</time>
      </trkpt>
      <trkpt lat="48.83585" lon="2.38646">
        <ele>97.1</ele>
        <time>2015-02-16T20:15:30.719Z</time>
      </trkpt>
      <trkpt lat="48.8358" lon="2.38637">
        <ele>96.2</ele>
        <time>2015-02-16T20:15:34.644Z</time>
      </trkpt>
      <trkpt lat="48.83579" lon="2.38634">
        <ele>96.3</ele>
        <time>2015-02-16T20:15:35.662Z</time>
      </trkpt>
      <trkpt lat="48.83578" lon="2.38622">
        <ele>95.4</ele>
        <time>2015-02-16T20:15:42.720Z</time>
      </trkpt>
      <trkpt lat="48.83577" lon="2.38621">
        <ele>95.3</ele>
        <time>2015-02-16T20:15:43.651Z</time>
      </trkpt>
      <trkpt lat="48.83572" lon="2.38613">
        <ele>95.3</ele>
        <time>2015-02-16T20:15:47.717Z</time>
      </trkpt>
      <trkpt lat="48.83571" lon="2.3861">
        <ele>95.3</ele>
        <time>2015-02-16T20:15:48.731Z</time>
      </trkpt>
      <trkpt lat="48.83567" lon="2.38602">
        <ele>95.3</ele>
        <time>2015-02-16T20:15:50.670Z</time>
      </trkpt>
      <trkpt lat="48.83564" lon="2.38598">
        <ele>95.3</ele>
        <time>2015-02-16T20:15:51.677Z</time>
      </trkpt>
      <trkpt lat="48.83559" lon="2.38589">
        <ele>95.4</ele>
        <time>2015-02-16T20:15:53.696Z</time>
      </trkpt>
      <trkpt lat="48.83556" lon="2.38585">
        <ele>95.4</ele>
        <time>2015-02-16T20:15:54.727Z</time>
      </trkpt>
      <trkpt lat="48.83551" lon="2.38579">
        <ele>95.2</ele>
        <time>2015-02-16T20:15:56.645Z</time>
      </trkpt>
      <trkpt lat="48.83549" lon="2.38575">
        <ele>95.2</ele>
        <time>2015-02-16T20:15:57.644Z</time>
      </trkpt>
      <trkpt lat="48.83543" lon="2.38567">
        <ele>94.3</ele>
        <time>2015-02-16T20:15:59.663Z</time>
      </trkpt>
      <trkpt lat="48.83541" lon="2.38563">
        <ele>93.9</ele>
        <time>2015-02-16T20:16:00.695Z</time>
      </trkpt>
      <trkpt lat="48.83537" lon="2.38553">
        <ele>94</ele>
        <time>2015-02-16T20:16:02.725Z</time>
      </trkpt>
      <trkpt lat="48.83535" lon="2.38549">
        <ele>94.2</ele>
        <time>2015-02-16T20:16:03.642Z</time>
      </trkpt>
      <trkpt lat="48.83531" lon="2.3854">
        <ele>94.7</ele>
        <time>2015-02-16T20:16:05.674Z</time>
      </trkpt>
      <trkpt lat="48.83528" lon="2.38535">
        <ele>94.9</ele>
        <time>2015-02-16T20:16:06.693Z</time>
      </trkpt>
      <trkpt lat="48.83524" lon="2.38527">
        <ele>94.9</ele>
        <time>2015-02-16T20:16:08.630Z</time>
      </trkpt>
      <trkpt lat="48.83522" lon="2.38522">
        <ele>95</ele>
        <time>2015-02-16T20:16:09.645Z</time>
      </trkpt>
      <trkpt lat="48.83516" lon="2.38513">
        <ele>95</ele>
        <time>2015-02-16T20:16:11.699Z</time>
      </trkpt>
      <trkpt lat="48.83513" lon="2.38509">
        <ele>94.8</ele>
        <time>2015-02-16T20:16:12.709Z</time>
      </trkpt>
      <trkpt lat="48.83507" lon="2.385">
        <ele>94.6</ele>
        <time>2015-02-16T20:16:14.638Z</time>
      </trkpt>
      <trkpt lat="48.83505" lon="2.38494">
        <ele>94.1</ele>
        <time>2015-02-16T20:16:15.655Z</time>
      </trkpt>
      <trkpt lat="48.835" lon="2.38484">
        <ele>93.8</ele>
        <time>2015-02-16T20:16:17.698Z</time>
      </trkpt>
      <trkpt lat="48.83498" lon="2.3848">
        <ele>93.7</ele>
        <time>2015-02-16T20:16:18.704Z</time>
      </trkpt>
      <trkpt lat="48.83494" lon="2.38469">
        <ele>93.3</ele>
        <time>2015-02-16T20:16:20.635Z</time>
      </trkpt>
      <trkpt lat="48.83492" lon="2.38464">
        <ele>92.9</ele>
        <time>2015-02-16T20:16:21.645Z</time>
      </trkpt>
      <trkpt lat="48.83487" lon="2.38454">
        <ele>92.3</ele>
        <time>2015-02-16T20:16:23.684Z</time>
      </trkpt>
      <trkpt lat="48.83485" lon="2.38451">
        <ele>91.9</ele>
        <time>2015-02-16T20:16:24.709Z</time>
      </trkpt>
      <trkpt lat="48.83481" lon="2.38443">
        <ele>91.9</ele>
        <time>2015-02-16T20:16:26.632Z</time>
      </trkpt>
      <trkpt lat="48.83479" lon="2.38438">
        <ele>91.9</ele>
        <time>2015-02-16T20:16:27.650Z</time>
      </trkpt>
      <trkpt lat="48.83473" lon="2.38428">
        <ele>91.8</ele>
        <time>2015-02-16T20:16:29.647Z</time>
      </trkpt>
      <trkpt lat="48.83471" lon="2.38422">
        <ele>91.9</ele>
        <time>2015-02-16T20:16:30.691Z</time>
      </trkpt>
      <trkpt lat="48.83468" lon="2.38412">
        <ele>92.1</ele>
        <time>2015-02-16T20:16:32.784Z</time>
      </trkpt>
      <trkpt lat="48.83465" lon="2.38405">
        <ele>92.2</ele>
        <time>2015-02-16T20:16:33.673Z</time>
      </trkpt>
      <trkpt lat="48.83462" lon="2.38397">
        <ele>92.3</ele>
        <time>2015-02-16T20:16:34.690Z</time>
      </trkpt>
      <trkpt lat="48.8346" lon="2.38392">
        <ele>92.4</ele>
        <time>2015-02-16T20:16:35.696Z</time>
      </trkpt>
      <trkpt lat="48.83455" lon="2.38383">
        <ele>92.4</ele>
        <time>2015-02-16T20:16:37.721Z</time>
      </trkpt>
      <trkpt lat="48.83452" lon="2.38379">
        <ele>92.4</ele>
        <time>2015-02-16T20:16:38.662Z</time>
      </trkpt>
      <trkpt lat="48.83447" lon="2.38371">
        <ele>92.3</ele>
        <time>2015-02-16T20:16:40.672Z</time>
      </trkpt>
      <trkpt lat="48.83445" lon="2.38365">
        <ele>92.3</ele>
        <time>2015-02-16T20:16:41.684Z</time>
      </trkpt>
      <trkpt lat="48.83442" lon="2.38359">
        <ele>92.2</ele>
        <time>2015-02-16T20:16:42.979Z</time>
      </trkpt>
      <trkpt lat="48.83439" lon="2.38351">
        <ele>92.1</ele>
        <time>2015-02-16T20:16:43.614Z</time>
      </trkpt>
      <trkpt lat="48.83436" lon="2.38344">
        <ele>92</ele>
        <time>2015-02-16T20:16:44.635Z</time>
      </trkpt>
      <trkpt lat="48.83432" lon="2.38337">
        <ele>92.1</ele>
        <time>2015-02-16T20:16:45.643Z</time>
      </trkpt>
      <trkpt lat="48.83428" lon="2.3833">
        <ele>92.3</ele>
        <time>2015-02-16T20:16:46.695Z</time>
      </trkpt>
      <trkpt lat="48.83425" lon="2.38324">
        <ele>92.4</ele>
        <time>2015-02-16T20:16:47.703Z</time>
      </trkpt>
      <trkpt lat="48.83421" lon="2.38319">
        <ele>92.6</ele>
        <time>2015-02-16T20:16:48.700Z</time>
      </trkpt>
      <trkpt lat="48.83417" lon="2.38313">
        <ele>92.6</ele>
        <time>2015-02-16T20:16:49.704Z</time>
      </trkpt>
      <trkpt lat="48.83414" lon="2.38306">
        <ele>92.9</ele>
        <time>2015-02-16T20:16:50.732Z</time>
      </trkpt>
      <trkpt lat="48.8341" lon="2.383">
        <ele>93.5</ele>
        <time>2015-02-16T20:16:51.620Z</time>
      </trkpt>
      <trkpt lat="48.83407" lon="2.38295">
        <ele>94</ele>
        <time>2015-02-16T20:16:53.138Z</time>
      </trkpt>
      <trkpt lat="48.83403" lon="2.38291">
        <ele>94.2</ele>
        <time>2015-02-16T20:16:53.686Z</time>
      </trkpt>
      <trkpt lat="48.83398" lon="2.38281">
        <ele>94.3</ele>
        <time>2015-02-16T20:16:55.663Z</time>
      </trkpt>
      <trkpt lat="48.83396" lon="2.38277">
        <ele>94.2</ele>
        <time>2015-02-16T20:16:56.695Z</time>
      </trkpt>
      <trkpt lat="48.8339" lon="2.38268">
        <ele>93.8</ele>
        <time>2015-02-16T20:16:58.608Z</time>
      </trkpt>
      <trkpt lat="48.83388" lon="2.38263">
        <ele>93.9</ele>
        <time>2015-02-16T20:16:59.639Z</time>
      </trkpt>
      <trkpt lat="48.83384" lon="2.38253">
        <ele>93.4</ele>
        <time>2015-02-16T20:17:01.848Z</time>
      </trkpt>
      <trkpt lat="48.83381" lon="2.38248">
        <ele>92.7</ele>
        <time>2015-02-16T20:17:02.667Z</time>
      </trkpt>
      <trkpt lat="48.83376" lon="2.38239">
        <ele>92</ele>
        <time>2015-02-16T20:17:04.688Z</time>
      </trkpt>
      <trkpt lat="48.83373" lon="2.38234">
        <ele>91.9</ele>
        <time>2015-02-16T20:17:05.692Z</time>
      </trkpt>
      <trkpt lat="48.83369" lon="2.38225">
        <ele>91.4</ele>
        <time>2015-02-16T20:17:07.694Z</time>
      </trkpt>
      <trkpt lat="48.83366" lon="2.38222">
        <ele>91.3</ele>
        <time>2015-02-16T20:17:08.726Z</time>
      </trkpt>
      <trkpt lat="48.83362" lon="2.38216">
        <ele>91.3</ele>
        <time>2015-02-16T20:17:10.649Z</time>
      </trkpt>
      <trkpt lat="48.83359" lon="2.38212">
        <ele>91.4</ele>
        <time>2015-02-16T20:17:11.696Z</time>
      </trkpt>
      <trkpt lat="48.83354" lon="2.38204">
        <ele>91.4</ele>
        <time>2015-02-16T20:17:13.802Z</time>
      </trkpt>
      <trkpt lat="48.83352" lon="2.38201">
        <ele>91.4</ele>
        <time>2015-02-16T20:17:14.677Z</time>
      </trkpt>
      <trkpt lat="48.83346" lon="2.38193">
        <ele>91.3</ele>
        <time>2015-02-16T20:17:16.710Z</time>
      </trkpt>
      <trkpt lat="48.83344" lon="2.38188">
        <ele>91.1</ele>
        <time>2015-02-16T20:17:17.730Z</time>
      </trkpt>
      <trkpt lat="48.83339" lon="2.38178">
        <ele>90.8</ele>
        <time>2015-02-16T20:17:19.623Z</time>
      </trkpt>
      <trkpt lat="48.83337" lon="2.38173">
        <ele>90.9</ele>
        <time>2015-02-16T20:17:20.675Z</time>
      </trkpt>
      <trkpt lat="48.83332" lon="2.38165">
        <ele>90.5</ele>
        <time>2015-02-16T20:17:22.698Z</time>
      </trkpt>
      <trkpt lat="48.8333" lon="2.38161">
        <ele>90.3</ele>
        <time>2015-02-16T20:17:23.710Z</time>
      </trkpt>
      <trkpt lat="48.83326" lon="2.38153">
        <ele>90.1</ele>
        <time>2015-02-16T20:17:25.629Z</time>
      </trkpt>
      <trkpt lat="48.83324" lon="2.38149">
        <ele>89.8</ele>
        <time>2015-02-16T20:17:26.645Z</time>
      </trkpt>
      <trkpt lat="48.8332" lon="2.38141">
        <ele>89.7</ele>
        <time>2015-02-16T20:17:28.654Z</time>
      </trkpt>
      <trkpt lat="48.83317" lon="2.38137">
        <ele>89.8</ele>
        <time>2015-02-16T20:17:29.661Z</time>
      </trkpt>
      <trkpt lat="48.83313" lon="2.38129">
        <ele>89.9</ele>
        <time>2015-02-16T20:17:31.721Z</time>
      </trkpt>
      <trkpt lat="48.8331" lon="2.38125">
        <ele>90</ele>
        <time>2015-02-16T20:17:32.737Z</time>
      </trkpt>
      <trkpt lat="48.83306" lon="2.38116">
        <ele>90.1</ele>
        <time>2015-02-16T20:17:34.648Z</time>
      </trkpt>
      <trkpt lat="48.83303" lon="2.38111">
        <ele>90.1</ele>
        <time>2015-02-16T20:17:35.659Z</time>
      </trkpt>
      <trkpt lat="48.83299" lon="2.38102">
        <ele>90</ele>
        <time>2015-02-16T20:17:37.703Z</time>
      </trkpt>
      <trkpt lat="48.83296" lon="2.38098">
        <ele>89.9</ele>
        <time>2015-02-16T20:17:38.716Z</time>
      </trkpt>
      <trkpt lat="48.83291" lon="2.38088">
        <ele>89.9</ele>
        <time>2015-02-16T20:17:40.818Z</time>
      </trkpt>
      <trkpt lat="48.83289" lon="2.38084">
        <ele>90</ele>
        <time>2015-02-16T20:17:41.642Z</time>
      </trkpt>
      <trkpt lat="48.83283" lon="2.38074">
        <ele>90.1</ele>
        <time>2015-02-16T20:17:43.696Z</time>
      </trkpt>
      <trkpt lat="48.8328" lon="2.38069">
        <ele>90.1</ele>
        <time>2015-02-16T20:17:44.701Z</time>
      </trkpt>
      <trkpt lat="48.83277" lon="2.38063">
        <ele>90</ele>
        <time>2015-02-16T20:17:45.884Z</time>
      </trkpt>
      <trkpt lat="48.83273" lon="2.38057">
        <ele>89.8</ele>
        <time>2015-02-16T20:17:46.653Z</time>
      </trkpt>
      <trkpt lat="48.8327" lon="2.38052">
        <ele>89.7</ele>
        <time>2015-02-16T20:17:47.763Z</time>
      </trkpt>
      <trkpt lat="48.83267" lon="2.38047">
        <ele>89.7</ele>
        <time>2015-02-16T20:17:48.798Z</time>
      </trkpt>
      <trkpt lat="48.83264" lon="2.38041">
        <ele>89.7</ele>
        <time>2015-02-16T20:17:49.651Z</time>
      </trkpt>
      <trkpt lat="48.83261" lon="2.38036">
        <ele>89.5</ele>
        <time>2015-02-16T20:17:50.648Z</time>
      </trkpt>
      <trkpt lat="48.83258" lon="2.3803">
        <ele>89.3</ele>
        <time>2015-02-16T20:17:51.661Z</time>
      </trkpt>
      <trkpt lat="48.83255" lon="2.38025">
        <ele>89.3</ele>
        <time>2015-02-16T20:17:52.690Z</time>
      </trkpt>
      <trkpt lat="48.83252" lon="2.3802">
        <ele>89.2</ele>
        <time>2015-02-16T20:17:53.718Z</time>
      </trkpt>
      <trkpt lat="48.83249" lon="2.38015">
        <ele>89.2</ele>
        <time>2015-02-16T20:17:54.729Z</time>
      </trkpt>
      <trkpt lat="48.83246" lon="2.38009">
        <ele>89.1</ele>
        <time>2015-02-16T20:17:55.740Z</time>
      </trkpt>
      <trkpt lat="48.83243" lon="2.38004">
        <ele>89.2</ele>
        <time>2015-02-16T20:17:56.653Z</time>
      </trkpt>
      <trkpt lat="48.83237" lon="2.37994">
        <ele>89.1</ele>
        <time>2015-02-16T20:17:58.642Z</time>
      </trkpt>
      <trkpt lat="48.83235" lon="2.37989">
        <ele>89.2</ele>
        <time>2015-02-16T20:17:59.648Z</time>
      </trkpt>
      <trkpt lat="48.83232" lon="2.37984">
        <ele>89.3</ele>
        <time>2015-02-16T20:18:00.676Z</time>
      </trkpt>
      <trkpt lat="48.83229" lon="2.37978">
        <ele>89.5</ele>
        <time>2015-02-16T20:18:01.677Z</time>
      </trkpt>
      <trkpt lat="48.83223" lon="2.37969">
        <ele>89.7</ele>
        <time>2015-02-16T20:18:03.718Z</time>
      </trkpt>
      <trkpt lat="48.83221" lon="2.37965">
        <ele>89.8</ele>
        <time>2015-02-16T20:18:04.653Z</time>
      </trkpt>
      <trkpt lat="48.83216" lon="2.37956">
        <ele>90</ele>
        <time>2015-02-16T20:18:06.676Z</time>
      </trkpt>
      <trkpt lat="48.83214" lon="2.37951">
        <ele>90</ele>
        <time>2015-02-16T20:18:07.679Z</time>
      </trkpt>
      <trkpt lat="48.83208" lon="2.37942">
        <ele>90.4</ele>
        <time>2015-02-16T20:18:09.719Z</time>
      </trkpt>
      <trkpt lat="48.83205" lon="2.37939">
        <ele>90.3</ele>
        <time>2015-02-16T20:18:10.725Z</time>
      </trkpt>
      <trkpt lat="48.83201" lon="2.37931">
        <ele>90.3</ele>
        <time>2015-02-16T20:18:12.676Z</time>
      </trkpt>
      <trkpt lat="48.83199" lon="2.37927">
        <ele>90.2</ele>
        <time>2015-02-16T20:18:13.726Z</time>
      </trkpt>
      <trkpt lat="48.83194" lon="2.37919">
        <ele>90.2</ele>
        <time>2015-02-16T20:18:15.639Z</time>
      </trkpt>
      <trkpt lat="48.83192" lon="2.37914">
        <ele>90.2</ele>
        <time>2015-02-16T20:18:16.673Z</time>
      </trkpt>
      <trkpt lat="48.83187" lon="2.37904">
        <ele>90.4</ele>
        <time>2015-02-16T20:18:18.708Z</time>
      </trkpt>
      <trkpt lat="48.83185" lon="2.379">
        <ele>90.4</ele>
        <time>2015-02-16T20:18:19.635Z</time>
      </trkpt>
      <trkpt lat="48.8318" lon="2.37892">
        <ele>90.5</ele>
        <time>2015-02-16T20:18:21.713Z</time>
      </trkpt>
      <trkpt lat="48.83177" lon="2.37885">
        <ele>90.5</ele>
        <time>2015-02-16T20:18:22.636Z</time>
      </trkpt>
      <trkpt lat="48.83171" lon="2.37876">
        <ele>90.5</ele>
        <time>2015-02-16T20:18:24.687Z</time>
      </trkpt>
      <trkpt lat="48.83169" lon="2.37871">
        <ele>90.6</ele>
        <time>2015-02-16T20:18:25.721Z</time>
      </trkpt>
      <trkpt lat="48.83163" lon="2.37861">
        <ele>90.5</ele>
        <time>2015-02-16T20:18:27.669Z</time>
      </trkpt>
      <trkpt lat="48.8316" lon="2.37856">
        <ele>90.6</ele>
        <time>2015-02-16T20:18:28.679Z</time>
      </trkpt>
      <trkpt lat="48.83154" lon="2.37846">
        <ele>90.8</ele>
        <time>2015-02-16T20:18:30.709Z</time>
      </trkpt>
      <trkpt lat="48.83152" lon="2.37841">
        <ele>91</ele>
        <time>2015-02-16T20:18:31.714Z</time>
      </trkpt>
      <trkpt lat="48.83147" lon="2.37834">
        <ele>91.2</ele>
        <time>2015-02-16T20:18:33.631Z</time>
      </trkpt>
      <trkpt lat="48.83145" lon="2.37831">
        <ele>91.5</ele>
        <time>2015-02-16T20:18:34.706Z</time>
      </trkpt>
      <trkpt lat="48.83141" lon="2.37823">
        <ele>91.9</ele>
        <time>2015-02-16T20:18:37.671Z</time>
      </trkpt>
      <trkpt lat="48.83139" lon="2.3782">
        <ele>92.2</ele>
        <time>2015-02-16T20:18:38.682Z</time>
      </trkpt>
      <trkpt lat="48.83133" lon="2.37811">
        <ele>92.7</ele>
        <time>2015-02-16T20:18:41.686Z</time>
      </trkpt>
      <trkpt lat="48.8313" lon="2.37807">
        <ele>92.6</ele>
        <time>2015-02-16T20:18:42.665Z</time>
      </trkpt>
      <trkpt lat="48.83125" lon="2.37796">
        <ele>92.2</ele>
        <time>2015-02-16T20:18:45.848Z</time>
      </trkpt>
      <trkpt lat="48.83122" lon="2.37793">
        <ele>92.2</ele>
        <time>2015-02-16T20:18:46.731Z</time>
      </trkpt>
      <trkpt lat="48.83117" lon="2.37783">
        <ele>92.7</ele>
        <time>2015-02-16T20:18:49.632Z</time>
      </trkpt>
      <trkpt lat="48.83115" lon="2.3778">
        <ele>92.7</ele>
        <time>2015-02-16T20:18:50.656Z</time>
      </trkpt>
      <trkpt lat="48.83111" lon="2.37772">
        <ele>92.7</ele>
        <time>2015-02-16T20:18:52.682Z</time>
      </trkpt>
      <trkpt lat="48.83109" lon="2.37769">
        <ele>92.8</ele>
        <time>2015-02-16T20:18:53.702Z</time>
      </trkpt>
      <trkpt lat="48.83104" lon="2.3776">
        <ele>93.3</ele>
        <time>2015-02-16T20:18:56.648Z</time>
      </trkpt>
      <trkpt lat="48.83103" lon="2.37758">
        <ele>93.4</ele>
        <time>2015-02-16T20:18:57.662Z</time>
      </trkpt>
      <trkpt lat="48.83098" lon="2.37748">
        <ele>94</ele>
        <time>2015-02-16T20:19:00.985Z</time>
      </trkpt>
      <trkpt lat="48.83096" lon="2.37745">
        <ele>94.3</ele>
        <time>2015-02-16T20:19:01.740Z</time>
      </trkpt>
      <trkpt lat="48.83092" lon="2.3774">
        <ele>94.6</ele>
        <time>2015-02-16T20:19:03.645Z</time>
      </trkpt>
      <trkpt lat="48.83089" lon="2.37736">
        <ele>95.4</ele>
        <time>2015-02-16T20:19:04.672Z</time>
      </trkpt>
      <trkpt lat="48.83084" lon="2.37729">
        <ele>96.4</ele>
        <time>2015-02-16T20:19:06.691Z</time>
      </trkpt>
      <trkpt lat="48.83082" lon="2.37724">
        <ele>96.7</ele>
        <time>2015-02-16T20:19:07.731Z</time>
      </trkpt>
      <trkpt lat="48.83078" lon="2.37713">
        <ele>97.1</ele>
        <time>2015-02-16T20:19:11.174Z</time>
      </trkpt>
      <trkpt lat="48.83077" lon="2.3771">
        <ele>97.4</ele>
        <time>2015-02-16T20:19:11.762Z</time>
      </trkpt>
      <trkpt lat="48.83073" lon="2.37699">
        <ele>98.4</ele>
        <time>2015-02-16T20:19:16.272Z</time>
      </trkpt>
      <trkpt lat="48.83073" lon="2.37695">
        <ele>98.7</ele>
        <time>2015-02-16T20:19:16.646Z</time>
      </trkpt>
      <trkpt lat="48.83073" lon="2.37695">
        <ele>99.4</ele>
        <time>2015-02-16T20:19:17.649Z</time>
      </trkpt>
      <trkpt lat="48.83073" lon="2.37695">
        <ele>99.9</ele>
        <time>2015-02-16T20:19:30.439Z</time>
      </trkpt>
      <trkpt lat="48.83073" lon="2.37697">
        <ele>102.8</ele>
        <time>2015-02-16T20:19:30.728Z</time>
      </trkpt>
      <trkpt lat="48.83073" lon="2.37693">
        <ele>102</ele>
        <time>2015-02-16T20:19:42.737Z</time>
      </trkpt>
      <trkpt lat="48.83072" lon="2.37693">
        <ele>102.1</ele>
        <time>2015-02-16T20:19:43.641Z</time>
      </trkpt>
      <trkpt lat="48.83073" lon="2.37692">
        <ele>102</ele>
        <time>2015-02-16T20:19:44.648Z</time>
      </trkpt>
      <trkpt lat="48.83073" lon="2.37689">
        <ele>101.7</ele>
        <time>2015-02-16T20:19:47.673Z</time>
      </trkpt>
      <trkpt lat="48.83072" lon="2.37688">
        <ele>101.7</ele>
        <time>2015-02-16T20:19:48.714Z</time>
      </trkpt>
      <trkpt lat="48.83072" lon="2.37688">
        <ele>101.5</ele>
        <time>2015-02-16T20:19:49.724Z</time>
      </trkpt>
      <trkpt lat="48.83068" lon="2.37677">
        <ele>102.3</ele>
        <time>2015-02-16T20:19:59.669Z</time>
      </trkpt>
      <trkpt lat="48.83067" lon="2.37676">
        <ele>102.3</ele>
        <time>2015-02-16T20:20:00.696Z</time>
      </trkpt>
      <trkpt lat="48.83061" lon="2.37669">
        <ele>102.6</ele>
        <time>2015-02-16T20:20:04.619Z</time>
      </trkpt>
      <trkpt lat="48.83059" lon="2.37667">
        <ele>102.7</ele>
        <time>2015-02-16T20:20:05.640Z</time>
      </trkpt>
      <trkpt lat="48.83052" lon="2.3766">
        <ele>103.8</ele>
        <time>2015-02-16T20:20:09.718Z</time>
      </trkpt>
      <trkpt lat="48.83049" lon="2.37659">
        <ele>104</ele>
        <time>2015-02-16T20:20:10.730Z</time>
      </trkpt>
      <trkpt lat="48.83041" lon="2.37654">
        <ele>104.6</ele>
        <time>2015-02-16T20:20:13.692Z</time>
      </trkpt>
      <trkpt lat="48.83039" lon="2.37651">
        <ele>104.5</ele>
        <time>2015-02-16T20:20:14.704Z</time>
      </trkpt>
      <trkpt lat="48.83035" lon="2.37645">
        <ele>104.5</ele>
        <time>2015-02-16T20:20:16.733Z</time>
      </trkpt>
      <trkpt lat="48.83033" lon="2.3764">
        <ele>104.4</ele>
        <time>2015-02-16T20:20:17.748Z</time>
      </trkpt>
      <trkpt lat="48.83028" lon="2.37631">
        <ele>104.3</ele>
        <time>2015-02-16T20:20:21.427Z</time>
      </trkpt>
      <trkpt lat="48.83026" lon="2.37629">
        <ele>104.3</ele>
        <time>2015-02-16T20:20:21.677Z</time>
      </trkpt>
      <trkpt lat="48.83021" lon="2.37622">
        <ele>104.3</ele>
        <time>2015-02-16T20:20:24.696Z</time>
      </trkpt>
      <trkpt lat="48.83019" lon="2.37619">
        <ele>104.4</ele>
        <time>2015-02-16T20:20:25.724Z</time>
      </trkpt>
      <trkpt lat="48.83014" lon="2.37608">
        <ele>104.1</ele>
        <time>2015-02-16T20:20:28.700Z</time>
      </trkpt>
      <trkpt lat="48.83012" lon="2.37603">
        <ele>103.7</ele>
        <time>2015-02-16T20:20:29.719Z</time>
      </trkpt>
      <trkpt lat="48.83007" lon="2.37593">
        <ele>103.4</ele>
        <time>2015-02-16T20:20:31.689Z</time>
      </trkpt>
      <trkpt lat="48.83005" lon="2.37589">
        <ele>103.1</ele>
        <time>2015-02-16T20:20:32.730Z</time>
      </trkpt>
      <trkpt lat="48.83" lon="2.37581">
        <ele>103</ele>
        <time>2015-02-16T20:20:35.569Z</time>
      </trkpt>
      <trkpt lat="48.82998" lon="2.37577">
        <ele>103</ele>
        <time>2015-02-16T20:20:35.639Z</time>
      </trkpt>
      <trkpt lat="48.82993" lon="2.37567">
        <ele>103.2</ele>
        <time>2015-02-16T20:20:37.687Z</time>
      </trkpt>
      <trkpt lat="48.8299" lon="2.3756">
        <ele>103.3</ele>
        <time>2015-02-16T20:20:38.698Z</time>
      </trkpt>
      <trkpt lat="48.82987" lon="2.37552">
        <ele>103.4</ele>
        <time>2015-02-16T20:20:40.610Z</time>
      </trkpt>
      <trkpt lat="48.82984" lon="2.37546">
        <ele>103.5</ele>
        <time>2015-02-16T20:20:40.709Z</time>
      </trkpt>
      <trkpt lat="48.82981" lon="2.37539">
        <ele>103.5</ele>
        <time>2015-02-16T20:20:41.635Z</time>
      </trkpt>
      <trkpt lat="48.82978" lon="2.37534">
        <ele>103.5</ele>
        <time>2015-02-16T20:20:42.737Z</time>
      </trkpt>
      <trkpt lat="48.82974" lon="2.37523">
        <ele>103.6</ele>
        <time>2015-02-16T20:20:45.708Z</time>
      </trkpt>
      <trkpt lat="48.82972" lon="2.37518">
        <ele>103.6</ele>
        <time>2015-02-16T20:20:45.743Z</time>
      </trkpt>
      <trkpt lat="48.8297" lon="2.37512">
        <ele>103.5</ele>
        <time>2015-02-16T20:20:46.627Z</time>
      </trkpt>
      <trkpt lat="48.82967" lon="2.37506">
        <ele>103.5</ele>
        <time>2015-02-16T20:20:47.628Z</time>
      </trkpt>
      <trkpt lat="48.82964" lon="2.37499">
        <ele>103.4</ele>
        <time>2015-02-16T20:20:48.653Z</time>
      </trkpt>
      <trkpt lat="48.82961" lon="2.37491">
        <ele>103.4</ele>
        <time>2015-02-16T20:20:49.654Z</time>
      </trkpt>
      <trkpt lat="48.82959" lon="2.37483">
        <ele>103.5</ele>
        <time>2015-02-16T20:20:50.671Z</time>
      </trkpt>
      <trkpt lat="48.82957" lon="2.37478">
        <ele>103.6</ele>
        <time>2015-02-16T20:20:51.674Z</time>
      </trkpt>
      <trkpt lat="48.82952" lon="2.37467">
        <ele>103.7</ele>
        <time>2015-02-16T20:20:53.691Z</time>
      </trkpt>
      <trkpt lat="48.8295" lon="2.37463">
        <ele>103.8</ele>
        <time>2015-02-16T20:20:54.740Z</time>
      </trkpt>
      <trkpt lat="48.82944" lon="2.37455">
        <ele>103.1</ele>
        <time>2015-02-16T20:20:55.596Z</time>
      </trkpt>
      <trkpt lat="48.8294" lon="2.37452">
        <ele>103.1</ele>
        <time>2015-02-16T20:20:56.604Z</time>
      </trkpt>
      <trkpt lat="48.82935" lon="2.37445">
        <ele>103.2</ele>
        <time>2015-02-16T20:20:58.626Z</time>
      </trkpt>
      <trkpt lat="48.82933" lon="2.37442">
        <ele>103.2</ele>
        <time>2015-02-16T20:20:59.652Z</time>
      </trkpt>
      <trkpt lat="48.82927" lon="2.37433">
        <ele>103.2</ele>
        <time>2015-02-16T20:21:03.649Z</time>
      </trkpt>
      <trkpt lat="48.82926" lon="2.37431">
        <ele>103.1</ele>
        <time>2015-02-16T20:21:04.668Z</time>
      </trkpt>
      <trkpt lat="48.82926" lon="2.37431">
        <ele>103.1</ele>
        <time>2015-02-16T20:21:05.706Z</time>
      </trkpt>
      <trkpt lat="48.82924" lon="2.37432">
        <ele>103.1</ele>
        <time>2015-02-16T20:21:05.977Z</time>
      </trkpt>
      <trkpt lat="48.82922" lon="2.37433">
        <ele>103.4</ele>
        <time>2015-02-16T20:21:06.673Z</time>
      </trkpt>
      <trkpt lat="48.82918" lon="2.37424">
        <ele>103.7</ele>
        <time>2015-02-16T20:21:10.735Z</time>
      </trkpt>
      <trkpt lat="48.82916" lon="2.3742">
        <ele>103.8</ele>
        <time>2015-02-16T20:21:11.632Z</time>
      </trkpt>
      <trkpt lat="48.82912" lon="2.37411">
        <ele>103.8</ele>
        <time>2015-02-16T20:21:14.716Z</time>
      </trkpt>
      <trkpt lat="48.8291" lon="2.37409">
        <ele>103.8</ele>
        <time>2015-02-16T20:21:15.764Z</time>
      </trkpt>
      <trkpt lat="48.82904" lon="2.37401">
        <ele>103.7</ele>
        <time>2015-02-16T20:21:18.703Z</time>
      </trkpt>
      <trkpt lat="48.82902" lon="2.37398">
        <ele>103.6</ele>
        <time>2015-02-16T20:21:19.715Z</time>
      </trkpt>
      <trkpt lat="48.82898" lon="2.37391">
        <ele>103.7</ele>
        <time>2015-02-16T20:21:21.642Z</time>
      </trkpt>
      <trkpt lat="48.82895" lon="2.37388">
        <ele>103.9</ele>
        <time>2015-02-16T20:21:22.655Z</time>
      </trkpt>
      <trkpt lat="48.82892" lon="2.3738">
        <ele>104.1</ele>
        <time>2015-02-16T20:21:24.690Z</time>
      </trkpt>
      <trkpt lat="48.8289" lon="2.37376">
        <ele>104.3</ele>
        <time>2015-02-16T20:21:25.701Z</time>
      </trkpt>
      <trkpt lat="48.82885" lon="2.37371">
        <ele>104.4</ele>
        <time>2015-02-16T20:21:27.645Z</time>
      </trkpt>
      <trkpt lat="48.82882" lon="2.37368">
        <ele>104.4</ele>
        <time>2015-02-16T20:21:28.686Z</time>
      </trkpt>
      <trkpt lat="48.82877" lon="2.37361">
        <ele>104.6</ele>
        <time>2015-02-16T20:21:30.641Z</time>
      </trkpt>
      <trkpt lat="48.82876" lon="2.37358">
        <ele>104.6</ele>
        <time>2015-02-16T20:21:31.660Z</time>
      </trkpt>
      <trkpt lat="48.82873" lon="2.37345">
        <ele>104</ele>
        <time>2015-02-16T20:21:35.568Z</time>
      </trkpt>
      <trkpt lat="48.82873" lon="2.37341">
        <ele>103.9</ele>
        <time>2015-02-16T20:21:35.692Z</time>
      </trkpt>
      <trkpt lat="48.82871" lon="2.3733">
        <ele>103.4</ele>
        <time>2015-02-16T20:21:39.629Z</time>
      </trkpt>
      <trkpt lat="48.8287" lon="2.37328">
        <ele>103.3</ele>
        <time>2015-02-16T20:21:40.652Z</time>
      </trkpt>
      <trkpt lat="48.82866" lon="2.37317">
        <ele>103</ele>
        <time>2015-02-16T20:21:45.719Z</time>
      </trkpt>
      <trkpt lat="48.82865" lon="2.37316">
        <ele>103.1</ele>
        <time>2015-02-16T20:21:46.664Z</time>
      </trkpt>
      <trkpt lat="48.82864" lon="2.37312">
        <ele>102.8</ele>
        <time>2015-02-16T20:21:49.631Z</time>
      </trkpt>
      <trkpt lat="48.82864" lon="2.37311">
        <ele>103.1</ele>
        <time>2015-02-16T20:21:50.633Z</time>
      </trkpt>
      <trkpt lat="48.82864" lon="2.37311">
        <ele>103.1</ele>
        <time>2015-02-16T20:21:51.096Z</time>
      </trkpt>
      <trkpt lat="48.82863" lon="2.37309">
        <ele>103.2</ele>
        <time>2015-02-16T20:21:51.668Z</time>
      </trkpt>
      <trkpt lat="48.82863" lon="2.37309">
        <ele>103.3</ele>
        <time>2015-02-16T20:21:52.632Z</time>
      </trkpt>
      <trkpt lat="48.82863" lon="2.37308">
        <ele>103.4</ele>
        <time>2015-02-16T20:21:53.622Z</time>
      </trkpt>
      <trkpt lat="48.82863" lon="2.37307">
        <ele>103.6</ele>
        <time>2015-02-16T20:21:56.659Z</time>
      </trkpt>
      <trkpt lat="48.82862" lon="2.37308">
        <ele>103.7</ele>
        <time>2015-02-16T20:21:57.693Z</time>
      </trkpt>
      <trkpt lat="48.82862" lon="2.37307">
        <ele>103.9</ele>
        <time>2015-02-16T20:21:58.722Z</time>
      </trkpt>
      <trkpt lat="48.82861" lon="2.37305">
        <ele>103.9</ele>
        <time>2015-02-16T20:21:59.629Z</time>
      </trkpt>
      <trkpt lat="48.82854" lon="2.3731">
        <ele>104.6</ele>
        <time>2015-02-16T20:22:12.640Z</time>
      </trkpt>
      <trkpt lat="48.82854" lon="2.37319">
        <ele>104.4</ele>
        <time>2015-02-16T20:22:17.665Z</time>
      </trkpt>
      <trkpt lat="48.82844" lon="2.3733">
        <ele>104</ele>
        <time>2015-02-16T20:22:19.712Z</time>
      </trkpt>
      <trkpt lat="48.82836" lon="2.37333">
        <ele>103.8</ele>
        <time>2015-02-16T20:22:21.534Z</time>
      </trkpt>
      <trkpt lat="48.8283" lon="2.37337">
        <ele>103.7</ele>
        <time>2015-02-16T20:22:21.602Z</time>
      </trkpt>
      <trkpt lat="48.82824" lon="2.3734">
        <ele>103.8</ele>
        <time>2015-02-16T20:22:22.630Z</time>
      </trkpt>
      <trkpt lat="48.82819" lon="2.37345">
        <ele>103.6</ele>
        <time>2015-02-16T20:22:23.728Z</time>
      </trkpt>
      <trkpt lat="48.82815" lon="2.37349">
        <ele>103.6</ele>
        <time>2015-02-16T20:22:24.746Z</time>
      </trkpt>
      <trkpt lat="48.82811" lon="2.37354">
        <ele>103.5</ele>
        <time>2015-02-16T20:22:25.641Z</time>
      </trkpt>
      <trkpt lat="48.82807" lon="2.3736">
        <ele>103.5</ele>
        <time>2015-02-16T20:22:26.770Z</time>
      </trkpt>
      <trkpt lat="48.82802" lon="2.37364">
        <ele>103.3</ele>
        <time>2015-02-16T20:22:27.675Z</time>
      </trkpt>
      <trkpt lat="48.82798" lon="2.37367">
        <ele>103.3</ele>
        <time>2015-02-16T20:22:28.685Z</time>
      </trkpt>
      <trkpt lat="48.82794" lon="2.37372">
        <ele>103.2</ele>
        <time>2015-02-16T20:22:29.692Z</time>
      </trkpt>
      <trkpt lat="48.82789" lon="2.37376">
        <ele>103.2</ele>
        <time>2015-02-16T20:22:30.653Z</time>
      </trkpt>
      <trkpt lat="48.82784" lon="2.37381">
        <ele>103.1</ele>
        <time>2015-02-16T20:22:31.676Z</time>
      </trkpt>
      <trkpt lat="48.82779" lon="2.37386">
        <ele>103</ele>
        <time>2015-02-16T20:22:32.691Z</time>
      </trkpt>
      <trkpt lat="48.82774" lon="2.3739">
        <ele>102.9</ele>
        <time>2015-02-16T20:22:33.704Z</time>
      </trkpt>
      <trkpt lat="48.82769" lon="2.37395">
        <ele>102.8</ele>
        <time>2015-02-16T20:22:35.512Z</time>
      </trkpt>
      <trkpt lat="48.82764" lon="2.37399">
        <ele>102.7</ele>
        <time>2015-02-16T20:22:35.591Z</time>
      </trkpt>
      <trkpt lat="48.8276" lon="2.37403">
        <ele>102.6</ele>
        <time>2015-02-16T20:22:36.632Z</time>
      </trkpt>
      <trkpt lat="48.82755" lon="2.37407">
        <ele>102.6</ele>
        <time>2015-02-16T20:22:37.652Z</time>
      </trkpt>
      <trkpt lat="48.82751" lon="2.3741">
        <ele>102.6</ele>
        <time>2015-02-16T20:22:38.663Z</time>
      </trkpt>
      <trkpt lat="48.82746" lon="2.37413">
        <ele>102.5</ele>
        <time>2015-02-16T20:22:39.682Z</time>
      </trkpt>
      <trkpt lat="48.82746" lon="2.37413">
        <ele>102.5</ele>
        <time>2015-02-16T20:22:40.567Z</time>
      </trkpt>
      <trkpt lat="48.82737" lon="2.37418">
        <ele>102.4</ele>
        <time>2015-02-16T20:22:41.624Z</time>
      </trkpt>
      <trkpt lat="48.82728" lon="2.3742">
        <ele>102.2</ele>
        <time>2015-02-16T20:22:43.710Z</time>
      </trkpt>
      <trkpt lat="48.82725" lon="2.37417">
        <ele>102</ele>
        <time>2015-02-16T20:22:44.715Z</time>
      </trkpt>
      <trkpt lat="48.82721" lon="2.37409">
        <ele>101.4</ele>
        <time>2015-02-16T20:22:46.697Z</time>
      </trkpt>
      <trkpt lat="48.82718" lon="2.37395">
        <ele>101.1</ele>
        <time>2015-02-16T20:22:50.732Z</time>
      </trkpt>
      <trkpt lat="48.82719" lon="2.37391">
        <ele>101.2</ele>
        <time>2015-02-16T20:22:51.628Z</time>
      </trkpt>
      <trkpt lat="48.82729" lon="2.37335">
        <ele>101.8</ele>
        <time>2015-02-16T20:23:01.689Z</time>
      </trkpt>
      <trkpt lat="48.82731" lon="2.37324">
        <ele>101.8</ele>
        <time>2015-02-16T20:23:03.623Z</time>
      </trkpt>
      <trkpt lat="48.82734" lon="2.37317">
        <ele>101.8</ele>
        <time>2015-02-16T20:23:04.660Z</time>
      </trkpt>
      <trkpt lat="48.82738" lon="2.37312">
        <ele>101.9</ele>
        <time>2015-02-16T20:23:05.705Z</time>
      </trkpt>
      <trkpt lat="48.8274" lon="2.37306">
        <ele>102</ele>
        <time>2015-02-16T20:23:06.694Z</time>
      </trkpt>
      <trkpt lat="48.82743" lon="2.37301">
        <ele>102</ele>
        <time>2015-02-16T20:23:07.750Z</time>
      </trkpt>
      <trkpt lat="48.82748" lon="2.37281">
        <ele>102.3</ele>
        <time>2015-02-16T20:23:10.632Z</time>
      </trkpt>
      <trkpt lat="48.8275" lon="2.37267">
        <ele>102.3</ele>
        <time>2015-02-16T20:23:12.632Z</time>
      </trkpt>
      <trkpt lat="48.8275" lon="2.37262">
        <ele>102.4</ele>
        <time>2015-02-16T20:23:13.686Z</time>
      </trkpt>
      <trkpt lat="48.8275" lon="2.37251">
        <ele>102.4</ele>
        <time>2015-02-16T20:23:15.657Z</time>
      </trkpt>
      <trkpt lat="48.82748" lon="2.37245">
        <ele>102.6</ele>
        <time>2015-02-16T20:23:16.662Z</time>
      </trkpt>
      <trkpt lat="48.82748" lon="2.37237">
        <ele>102.5</ele>
        <time>2015-02-16T20:23:17.670Z</time>
      </trkpt>
      <trkpt lat="48.82751" lon="2.37225">
        <ele>101.8</ele>
        <time>2015-02-16T20:23:18.771Z</time>
      </trkpt>
      <trkpt lat="48.82753" lon="2.3722">
        <ele>102</ele>
        <time>2015-02-16T20:23:19.685Z</time>
      </trkpt>
      <trkpt lat="48.82755" lon="2.37212">
        <ele>101.6</ele>
        <time>2015-02-16T20:23:20.690Z</time>
      </trkpt>
      <trkpt lat="48.82759" lon="2.37205">
        <ele>101</ele>
        <time>2015-02-16T20:23:21.706Z</time>
      </trkpt>
      <trkpt lat="48.82762" lon="2.37195">
        <ele>101</ele>
        <time>2015-02-16T20:23:22.602Z</time>
      </trkpt>
      <trkpt lat="48.82763" lon="2.37182">
        <ele>102.2</ele>
        <time>2015-02-16T20:23:26.687Z</time>
      </trkpt>
      <trkpt lat="48.82763" lon="2.37181">
        <ele>102.5</ele>
        <time>2015-02-16T20:23:27.697Z</time>
      </trkpt>
      <trkpt lat="48.82758" lon="2.37171">
        <ele>104.7</ele>
        <time>2015-02-16T20:23:38.684Z</time>
      </trkpt>
      <trkpt lat="48.82757" lon="2.3717">
        <ele>104.7</ele>
        <time>2015-02-16T20:23:39.684Z</time>
      </trkpt>
      <trkpt lat="48.8275" lon="2.37161">
        <ele>105.3</ele>
        <time>2015-02-16T20:23:48.696Z</time>
      </trkpt>
      <trkpt lat="48.8275" lon="2.3716">
        <ele>105.4</ele>
        <time>2015-02-16T20:23:49.610Z</time>
      </trkpt>
      <trkpt lat="48.82753" lon="2.37147">
        <ele>105.9</ele>
        <time>2015-02-16T20:23:55.882Z</time>
      </trkpt>
      <trkpt lat="48.82755" lon="2.37144">
        <ele>106</ele>
        <time>2015-02-16T20:23:56.619Z</time>
      </trkpt>
      <trkpt lat="48.82758" lon="2.37135">
        <ele>106.2</ele>
        <time>2015-02-16T20:23:59.617Z</time>
      </trkpt>
      <trkpt lat="48.82759" lon="2.37132">
        <ele>106.4</ele>
        <time>2015-02-16T20:24:00.743Z</time>
      </trkpt>
      <trkpt lat="48.82762" lon="2.37122">
        <ele>106.7</ele>
        <time>2015-02-16T20:24:03.644Z</time>
      </trkpt>
      <trkpt lat="48.82763" lon="2.37119">
        <ele>106.8</ele>
        <time>2015-02-16T20:24:04.700Z</time>
      </trkpt>
      <trkpt lat="48.82766" lon="2.37109">
        <ele>107.3</ele>
        <time>2015-02-16T20:24:07.689Z</time>
      </trkpt>
      <trkpt lat="48.82767" lon="2.37106">
        <ele>107.3</ele>
        <time>2015-02-16T20:24:08.707Z</time>
      </trkpt>
      <trkpt lat="48.82769" lon="2.37095">
        <ele>108</ele>
        <time>2015-02-16T20:24:12.673Z</time>
      </trkpt>
      <trkpt lat="48.82769" lon="2.37092">
        <ele>108.4</ele>
        <time>2015-02-16T20:24:13.686Z</time>
      </trkpt>
      <trkpt lat="48.82773" lon="2.37085">
        <ele>108.8</ele>
        <time>2015-02-16T20:24:16.736Z</time>
      </trkpt>
      <trkpt lat="48.82776" lon="2.37081">
        <ele>108.7</ele>
        <time>2015-02-16T20:24:17.670Z</time>
      </trkpt>
      <trkpt lat="48.8278" lon="2.37069">
        <ele>108.6</ele>
        <time>2015-02-16T20:24:20.607Z</time>
      </trkpt>
      <trkpt lat="48.8278" lon="2.37066">
        <ele>108.5</ele>
        <time>2015-02-16T20:24:21.606Z</time>
      </trkpt>
      <trkpt lat="48.82783" lon="2.37057">
        <ele>108.4</ele>
        <time>2015-02-16T20:24:23.687Z</time>
      </trkpt>
      <trkpt lat="48.82787" lon="2.37043">
        <ele>108.2</ele>
        <time>2015-02-16T20:24:26.725Z</time>
      </trkpt>
      <trkpt lat="48.82806" lon="2.36982">
        <ele>107.4</ele>
        <time>2015-02-16T20:24:40.601Z</time>
      </trkpt>
      <trkpt lat="48.82806" lon="2.36982">
        <ele>107.4</ele>
        <time>2015-02-16T20:24:40.612Z</time>
      </trkpt>
      <trkpt lat="48.82801" lon="2.36965">
        <ele>108.3</ele>
        <time>2015-02-16T20:24:43.678Z</time>
      </trkpt>
      <trkpt lat="48.82801" lon="2.36953">
        <ele>108.7</ele>
        <time>2015-02-16T20:24:45.689Z</time>
      </trkpt>
      <trkpt lat="48.82801" lon="2.36948">
        <ele>108.8</ele>
        <time>2015-02-16T20:24:46.633Z</time>
      </trkpt>
      <trkpt lat="48.82802" lon="2.36934">
        <ele>108.8</ele>
        <time>2015-02-16T20:24:49.616Z</time>
      </trkpt>
      <trkpt lat="48.82803" lon="2.36924">
        <ele>108.6</ele>
        <time>2015-02-16T20:24:52.666Z</time>
      </trkpt>
      <trkpt lat="48.82803" lon="2.36919">
        <ele>108.6</ele>
        <time>2015-02-16T20:24:53.673Z</time>
      </trkpt>
      <trkpt lat="48.82804" lon="2.36908">
        <ele>109</ele>
        <time>2015-02-16T20:24:55.859Z</time>
      </trkpt>
      <trkpt lat="48.82806" lon="2.36903">
        <ele>109.3</ele>
        <time>2015-02-16T20:24:56.691Z</time>
      </trkpt>
      <trkpt lat="48.82808" lon="2.36891">
        <ele>109.7</ele>
        <time>2015-02-16T20:24:59.624Z</time>
      </trkpt>
      <trkpt lat="48.8281" lon="2.36886">
        <ele>109.8</ele>
        <time>2015-02-16T20:25:00.667Z</time>
      </trkpt>
      <trkpt lat="48.82814" lon="2.36877">
        <ele>110</ele>
        <time>2015-02-16T20:25:02.695Z</time>
      </trkpt>
      <trkpt lat="48.82815" lon="2.36869">
        <ele>111</ele>
        <time>2015-02-16T20:25:03.592Z</time>
      </trkpt>
      <trkpt lat="48.82817" lon="2.36857">
        <ele>112.4</ele>
        <time>2015-02-16T20:25:05.973Z</time>
      </trkpt>
      <trkpt lat="48.82819" lon="2.36852">
        <ele>113.2</ele>
        <time>2015-02-16T20:25:06.638Z</time>
      </trkpt>
      <trkpt lat="48.82821" lon="2.36842">
        <ele>114.2</ele>
        <time>2015-02-16T20:25:11.649Z</time>
      </trkpt>
      <trkpt lat="48.8282" lon="2.36838">
        <ele>114.5</ele>
        <time>2015-02-16T20:25:12.733Z</time>
      </trkpt>
      <trkpt lat="48.82819" lon="2.36826">
        <ele>114.2</ele>
        <time>2015-02-16T20:25:14.624Z</time>
      </trkpt>
      <trkpt lat="48.82818" lon="2.36821">
        <ele>114</ele>
        <time>2015-02-16T20:25:15.644Z</time>
      </trkpt>
      <trkpt lat="48.82817" lon="2.36814">
        <ele>113.7</ele>
        <time>2015-02-16T20:25:16.665Z</time>
      </trkpt>
      <trkpt lat="48.8282" lon="2.36803">
        <ele>113.5</ele>
        <time>2015-02-16T20:25:17.684Z</time>
      </trkpt>
      <trkpt lat="48.82819" lon="2.3679">
        <ele>112.8</ele>
        <time>2015-02-16T20:25:19.653Z</time>
      </trkpt>
      <trkpt lat="48.8282" lon="2.36784">
        <ele>112.4</ele>
        <time>2015-02-16T20:25:20.667Z</time>
      </trkpt>
      <trkpt lat="48.8282" lon="2.36777">
        <ele>112.1</ele>
        <time>2015-02-16T20:25:21.670Z</time>
      </trkpt>
      <trkpt lat="48.82823" lon="2.36769">
        <ele>111.8</ele>
        <time>2015-02-16T20:25:22.681Z</time>
      </trkpt>
      <trkpt lat="48.82825" lon="2.36763">
        <ele>111.6</ele>
        <time>2015-02-16T20:25:23.682Z</time>
      </trkpt>
      <trkpt lat="48.82827" lon="2.36757">
        <ele>111.6</ele>
        <time>2015-02-16T20:25:24.685Z</time>
      </trkpt>
      <trkpt lat="48.82829" lon="2.36747">
        <ele>111.6</ele>
        <time>2015-02-16T20:25:26.701Z</time>
      </trkpt>
      <trkpt lat="48.8283" lon="2.36742">
        <ele>111.5</ele>
        <time>2015-02-16T20:25:27.617Z</time>
      </trkpt>
      <trkpt lat="48.82834" lon="2.36732">
        <ele>111.3</ele>
        <time>2015-02-16T20:25:30.676Z</time>
      </trkpt>
      <trkpt lat="48.82835" lon="2.36728">
        <ele>111.2</ele>
        <time>2015-02-16T20:25:31.709Z</time>
      </trkpt>
      <trkpt lat="48.8284" lon="2.36717">
        <ele>111.3</ele>
        <time>2015-02-16T20:25:35.708Z</time>
      </trkpt>
      <trkpt lat="48.82841" lon="2.36715">
        <ele>111.3</ele>
        <time>2015-02-16T20:25:36.732Z</time>
      </trkpt>
      <trkpt lat="48.82847" lon="2.36709">
        <ele>111.3</ele>
        <time>2015-02-16T20:25:40.623Z</time>
      </trkpt>
      <trkpt lat="48.82849" lon="2.36706">
        <ele>111.6</ele>
        <time>2015-02-16T20:25:41.640Z</time>
      </trkpt>
      <trkpt lat="48.82851" lon="2.36697">
        <ele>111.7</ele>
        <time>2015-02-16T20:25:43.677Z</time>
      </trkpt>
      <trkpt lat="48.82852" lon="2.36692">
        <ele>111.7</ele>
        <time>2015-02-16T20:25:44.683Z</time>
      </trkpt>
      <trkpt lat="48.82854" lon="2.3668">
        <ele>111.3</ele>
        <time>2015-02-16T20:25:46.609Z</time>
      </trkpt>
      <trkpt lat="48.82854" lon="2.36675">
        <ele>111</ele>
        <time>2015-02-16T20:25:47.640Z</time>
      </trkpt>
      <trkpt lat="48.82857" lon="2.36662">
        <ele>111</ele>
        <time>2015-02-16T20:25:49.672Z</time>
      </trkpt>
      <trkpt lat="48.82858" lon="2.36657">
        <ele>110.9</ele>
        <time>2015-02-16T20:25:50.614Z</time>
      </trkpt>
      <trkpt lat="48.8286" lon="2.36646">
        <ele>110.9</ele>
        <time>2015-02-16T20:25:52.625Z</time>
      </trkpt>
      <trkpt lat="48.82861" lon="2.3664">
        <ele>110.9</ele>
        <time>2015-02-16T20:25:53.630Z</time>
      </trkpt>
      <trkpt lat="48.82863" lon="2.36628">
        <ele>110.8</ele>
        <time>2015-02-16T20:25:55.683Z</time>
      </trkpt>
      <trkpt lat="48.82871" lon="2.36595">
        <ele>110.5</ele>
        <time>2015-02-16T20:26:00.719Z</time>
      </trkpt>
      <trkpt lat="48.82882" lon="2.36575">
        <ele>110.5</ele>
        <time>2015-02-16T20:26:03.750Z</time>
      </trkpt>
      <trkpt lat="48.82884" lon="2.36569">
        <ele>110.7</ele>
        <time>2015-02-16T20:26:04.590Z</time>
      </trkpt>
      <trkpt lat="48.82886" lon="2.36562">
        <ele>110.9</ele>
        <time>2015-02-16T20:26:05.748Z</time>
      </trkpt>
      <trkpt lat="48.82887" lon="2.36555">
        <ele>111.3</ele>
        <time>2015-02-16T20:26:06.705Z</time>
      </trkpt>
      <trkpt lat="48.82889" lon="2.36549">
        <ele>111.7</ele>
        <time>2015-02-16T20:26:07.589Z</time>
      </trkpt>
      <trkpt lat="48.82895" lon="2.3654">
        <ele>112.1</ele>
        <time>2015-02-16T20:26:09.629Z</time>
      </trkpt>
      <trkpt lat="48.82901" lon="2.36535">
        <ele>112.5</ele>
        <time>2015-02-16T20:26:10.640Z</time>
      </trkpt>
      <trkpt lat="48.82906" lon="2.36531">
        <ele>112.3</ele>
        <time>2015-02-16T20:26:11.661Z</time>
      </trkpt>
      <trkpt lat="48.82909" lon="2.36525">
        <ele>112.4</ele>
        <time>2015-02-16T20:26:12.671Z</time>
      </trkpt>
      <trkpt lat="48.82911" lon="2.3652">
        <ele>112.2</ele>
        <time>2015-02-16T20:26:13.716Z</time>
      </trkpt>
      <trkpt lat="48.82914" lon="2.36514">
        <ele>111.7</ele>
        <time>2015-02-16T20:26:14.719Z</time>
      </trkpt>
      <trkpt lat="48.82913" lon="2.36501">
        <ele>111.6</ele>
        <time>2015-02-16T20:26:16.701Z</time>
      </trkpt>
      <trkpt lat="48.82911" lon="2.36494">
        <ele>112.1</ele>
        <time>2015-02-16T20:26:17.698Z</time>
      </trkpt>
      <trkpt lat="48.82909" lon="2.36483">
        <ele>112.9</ele>
        <time>2015-02-16T20:26:19.621Z</time>
      </trkpt>
      <trkpt lat="48.82908" lon="2.36479">
        <ele>113.4</ele>
        <time>2015-02-16T20:26:20.636Z</time>
      </trkpt>
      <trkpt lat="48.82911" lon="2.36468">
        <ele>115.3</ele>
        <time>2015-02-16T20:26:24.706Z</time>
      </trkpt>
      <trkpt lat="48.82913" lon="2.36465">
        <ele>115.9</ele>
        <time>2015-02-16T20:26:25.636Z</time>
      </trkpt>
      <trkpt lat="48.82919" lon="2.36457">
        <ele>117</ele>
        <time>2015-02-16T20:26:28.688Z</time>
      </trkpt>
      <trkpt lat="48.82921" lon="2.36455">
        <ele>117.3</ele>
        <time>2015-02-16T20:26:29.697Z</time>
      </trkpt>
      <trkpt lat="48.82927" lon="2.36449">
        <ele>118.3</ele>
        <time>2015-02-16T20:26:32.627Z</time>
      </trkpt>
      <trkpt lat="48.82929" lon="2.36445">
        <ele>118.4</ele>
        <time>2015-02-16T20:26:33.701Z</time>
      </trkpt>
      <trkpt lat="48.82935" lon="2.36438">
        <ele>119.6</ele>
        <time>2015-02-16T20:26:36.660Z</time>
      </trkpt>
      <trkpt lat="48.82937" lon="2.36436">
        <ele>119.9</ele>
        <time>2015-02-16T20:26:37.682Z</time>
      </trkpt>
      <trkpt lat="48.8294" lon="2.36428">
        <ele>120.7</ele>
        <time>2015-02-16T20:26:39.702Z</time>
      </trkpt>
      <trkpt lat="48.82941" lon="2.36423">
        <ele>120.4</ele>
        <time>2015-02-16T20:26:40.724Z</time>
      </trkpt>
      <trkpt lat="48.82945" lon="2.36411">
        <ele>119.7</ele>
        <time>2015-02-16T20:26:42.670Z</time>
      </trkpt>
      <trkpt lat="48.82946" lon="2.36405">
        <ele>119</ele>
        <time>2015-02-16T20:26:43.694Z</time>
      </trkpt>
      <trkpt lat="48.82951" lon="2.36394">
        <ele>118.1</ele>
        <time>2015-02-16T20:26:45.723Z</time>
      </trkpt>
      <trkpt lat="48.82952" lon="2.36388">
        <ele>118.1</ele>
        <time>2015-02-16T20:26:46.729Z</time>
      </trkpt>
      <trkpt lat="48.82954" lon="2.36377">
        <ele>117.3</ele>
        <time>2015-02-16T20:26:49.661Z</time>
      </trkpt>
      <trkpt lat="48.82955" lon="2.36374">
        <ele>117.3</ele>
        <time>2015-02-16T20:26:50.676Z</time>
      </trkpt>
      <trkpt lat="48.82962" lon="2.36366">
        <ele>117.8</ele>
        <time>2015-02-16T20:26:54.711Z</time>
      </trkpt>
      <trkpt lat="48.82964" lon="2.36364">
        <ele>117.9</ele>
        <time>2015-02-16T20:26:55.739Z</time>
      </trkpt>
      <trkpt lat="48.82971" lon="2.36359">
        <ele>118.1</ele>
        <time>2015-02-16T20:26:57.690Z</time>
      </trkpt>
      <trkpt lat="48.82974" lon="2.36356">
        <ele>118.2</ele>
        <time>2015-02-16T20:26:58.707Z</time>
      </trkpt>
      <trkpt lat="48.82979" lon="2.36349">
        <ele>118.4</ele>
        <time>2015-02-16T20:27:00.651Z</time>
      </trkpt>
      <trkpt lat="48.82984" lon="2.36343">
        <ele>118.7</ele>
        <time>2015-02-16T20:27:02.668Z</time>
      </trkpt>
      <trkpt lat="48.82989" lon="2.36335">
        <ele>118.9</ele>
        <time>2015-02-16T20:27:04.676Z</time>
      </trkpt>
      <trkpt lat="48.82991" lon="2.36331">
        <ele>118.9</ele>
        <time>2015-02-16T20:27:05.647Z</time>
      </trkpt>
      <trkpt lat="48.82995" lon="2.36324">
        <ele>119.2</ele>
        <time>2015-02-16T20:27:07.667Z</time>
      </trkpt>
      <trkpt lat="48.82997" lon="2.36321">
        <ele>119.4</ele>
        <time>2015-02-16T20:27:08.685Z</time>
      </trkpt>
      <trkpt lat="48.83" lon="2.36311">
        <ele>119.7</ele>
        <time>2015-02-16T20:27:11.621Z</time>
      </trkpt>
      <trkpt lat="48.83" lon="2.36304">
        <ele>119.4</ele>
        <time>2015-02-16T20:27:12.664Z</time>
      </trkpt>
      <trkpt lat="48.82999" lon="2.36294">
        <ele>118.5</ele>
        <time>2015-02-16T20:27:13.627Z</time>
      </trkpt>
      <trkpt lat="48.83" lon="2.36286">
        <ele>118.1</ele>
        <time>2015-02-16T20:27:14.630Z</time>
      </trkpt>
      <trkpt lat="48.83001" lon="2.36278">
        <ele>117.7</ele>
        <time>2015-02-16T20:27:15.711Z</time>
      </trkpt>
      <trkpt lat="48.83001" lon="2.3627">
        <ele>117.4</ele>
        <time>2015-02-16T20:27:16.717Z</time>
      </trkpt>
      <trkpt lat="48.83003" lon="2.36259">
        <ele>116.7</ele>
        <time>2015-02-16T20:27:18.667Z</time>
      </trkpt>
      <trkpt lat="48.83006" lon="2.36255">
        <ele>116.3</ele>
        <time>2015-02-16T20:27:19.673Z</time>
      </trkpt>
      <trkpt lat="48.83013" lon="2.36247">
        <ele>115.5</ele>
        <time>2015-02-16T20:27:21.723Z</time>
      </trkpt>
      <trkpt lat="48.83016" lon="2.36243">
        <ele>115.1</ele>
        <time>2015-02-16T20:27:22.698Z</time>
      </trkpt>
      <trkpt lat="48.83018" lon="2.36238">
        <ele>114.6</ele>
        <time>2015-02-16T20:27:23.706Z</time>
      </trkpt>
      <trkpt lat="48.83027" lon="2.36226">
        <ele>113.2</ele>
        <time>2015-02-16T20:27:26.629Z</time>
      </trkpt>
      <trkpt lat="48.83032" lon="2.36217">
        <ele>112</ele>
        <time>2015-02-16T20:27:28.640Z</time>
      </trkpt>
      <trkpt lat="48.83035" lon="2.36212">
        <ele>111.9</ele>
        <time>2015-02-16T20:27:29.666Z</time>
      </trkpt>
      <trkpt lat="48.83039" lon="2.36201">
        <ele>112.9</ele>
        <time>2015-02-16T20:27:31.701Z</time>
      </trkpt>
      <trkpt lat="48.83042" lon="2.36196">
        <ele>113.6</ele>
        <time>2015-02-16T20:27:32.704Z</time>
      </trkpt>
      <trkpt lat="48.83045" lon="2.3619">
        <ele>114</ele>
        <time>2015-02-16T20:27:33.622Z</time>
      </trkpt>
      <trkpt lat="48.83049" lon="2.36185">
        <ele>114.3</ele>
        <time>2015-02-16T20:27:34.620Z</time>
      </trkpt>
      <trkpt lat="48.83052" lon="2.36181">
        <ele>114.3</ele>
        <time>2015-02-16T20:27:35.759Z</time>
      </trkpt>
      <trkpt lat="48.83055" lon="2.36176">
        <ele>114.2</ele>
        <time>2015-02-16T20:27:36.729Z</time>
      </trkpt>
      <trkpt lat="48.83059" lon="2.36172">
        <ele>114.3</ele>
        <time>2015-02-16T20:27:37.621Z</time>
      </trkpt>
      <trkpt lat="48.83063" lon="2.36168">
        <ele>114.1</ele>
        <time>2015-02-16T20:27:38.654Z</time>
      </trkpt>
      <trkpt lat="48.83068" lon="2.36161">
        <ele>113.8</ele>
        <time>2015-02-16T20:27:40.775Z</time>
      </trkpt>
      <trkpt lat="48.83083" lon="2.36145">
        <ele>113.8</ele>
        <time>2015-02-16T20:27:45.855Z</time>
      </trkpt>
      <trkpt lat="48.83088" lon="2.36138">
        <ele>113.6</ele>
        <time>2015-02-16T20:27:47.680Z</time>
      </trkpt>
      <trkpt lat="48.8309" lon="2.36134">
        <ele>113.3</ele>
        <time>2015-02-16T20:27:48.693Z</time>
      </trkpt>
      <trkpt lat="48.83097" lon="2.36125">
        <ele>112.9</ele>
        <time>2015-02-16T20:27:50.947Z</time>
      </trkpt>
      <trkpt lat="48.831" lon="2.36121">
        <ele>112.7</ele>
        <time>2015-02-16T20:27:51.690Z</time>
      </trkpt>
      <trkpt lat="48.83105" lon="2.36115">
        <ele>113.1</ele>
        <time>2015-02-16T20:27:52.714Z</time>
      </trkpt>
      <trkpt lat="48.83108" lon="2.3611">
        <ele>113.2</ele>
        <time>2015-02-16T20:27:53.606Z</time>
      </trkpt>
      <trkpt lat="48.83112" lon="2.36103">
        <ele>113.7</ele>
        <time>2015-02-16T20:27:56.157Z</time>
      </trkpt>
      <trkpt lat="48.83115" lon="2.361">
        <ele>114</ele>
        <time>2015-02-16T20:27:56.677Z</time>
      </trkpt>
      <trkpt lat="48.83121" lon="2.36092">
        <ele>115.5</ele>
        <time>2015-02-16T20:27:58.699Z</time>
      </trkpt>
      <trkpt lat="48.83124" lon="2.36087">
        <ele>116.5</ele>
        <time>2015-02-16T20:27:59.708Z</time>
      </trkpt>
      <trkpt lat="48.83132" lon="2.36083">
        <ele>118.8</ele>
        <time>2015-02-16T20:28:02.668Z</time>
      </trkpt>
      <trkpt lat="48.83135" lon="2.3608">
        <ele>119.3</ele>
        <time>2015-02-16T20:28:03.686Z</time>
      </trkpt>
      <trkpt lat="48.83142" lon="2.36074">
        <ele>120.4</ele>
        <time>2015-02-16T20:28:06.630Z</time>
      </trkpt>
      <trkpt lat="48.83145" lon="2.36071">
        <ele>120.8</ele>
        <time>2015-02-16T20:28:06.679Z</time>
      </trkpt>
      <trkpt lat="48.83149" lon="2.36065">
        <ele>123.2</ele>
        <time>2015-02-16T20:28:09.656Z</time>
      </trkpt>
      <trkpt lat="48.83152" lon="2.36062">
        <ele>123.4</ele>
        <time>2015-02-16T20:28:10.674Z</time>
      </trkpt>
      <trkpt lat="48.83157" lon="2.36054">
        <ele>123.5</ele>
        <time>2015-02-16T20:28:12.743Z</time>
      </trkpt>
      <trkpt lat="48.8316" lon="2.36051">
        <ele>123.7</ele>
        <time>2015-02-16T20:28:13.650Z</time>
      </trkpt>
      <trkpt lat="48.83165" lon="2.36042">
        <ele>123.1</ele>
        <time>2015-02-16T20:28:16.758Z</time>
      </trkpt>
      <trkpt lat="48.83167" lon="2.36037">
        <ele>122.6</ele>
        <time>2015-02-16T20:28:16.794Z</time>
      </trkpt>
      <trkpt lat="48.83172" lon="2.36029">
        <ele>122.2</ele>
        <time>2015-02-16T20:28:18.663Z</time>
      </trkpt>
      <trkpt lat="48.83175" lon="2.36026">
        <ele>122.1</ele>
        <time>2015-02-16T20:28:19.671Z</time>
      </trkpt>
      <trkpt lat="48.83181" lon="2.36017">
        <ele>121.4</ele>
        <time>2015-02-16T20:28:37.665Z</time>
      </trkpt>
      <trkpt lat="48.83191" lon="2.35999">
        <ele>117.1</ele>
        <time>2015-02-16T20:28:38.684Z</time>
      </trkpt>
      <trkpt lat="48.83187" lon="2.35988">
        <ele>115</ele>
        <time>2015-02-16T20:28:47.731Z</time>
      </trkpt>
      <trkpt lat="48.83186" lon="2.35986">
        <ele>115</ele>
        <time>2015-02-16T20:28:48.736Z</time>
      </trkpt>
      <trkpt lat="48.83182" lon="2.35977">
        <ele>114.7</ele>
        <time>2015-02-16T20:28:52.664Z</time>
      </trkpt>
      <trkpt lat="48.8318" lon="2.35974">
        <ele>114.4</ele>
        <time>2015-02-16T20:28:53.676Z</time>
      </trkpt>
      <trkpt lat="48.83176" lon="2.35962">
        <ele>113.4</ele>
        <time>2015-02-16T20:28:57.632Z</time>
      </trkpt>
      <trkpt lat="48.83176" lon="2.35959">
        <ele>113.2</ele>
        <time>2015-02-16T20:28:58.634Z</time>
      </trkpt>
      <trkpt lat="48.83175" lon="2.35949">
        <ele>113.7</ele>
        <time>2015-02-16T20:29:01.691Z</time>
      </trkpt>
      <trkpt lat="48.83175" lon="2.35944">
        <ele>114</ele>
        <time>2015-02-16T20:29:02.705Z</time>
      </trkpt>
      <trkpt lat="48.83173" lon="2.35934">
        <ele>114.5</ele>
        <time>2015-02-16T20:29:04.656Z</time>
      </trkpt>
      <trkpt lat="48.83172" lon="2.35929">
        <ele>114.5</ele>
        <time>2015-02-16T20:29:05.694Z</time>
      </trkpt>
      <trkpt lat="48.83166" lon="2.3592">
        <ele>114.7</ele>
        <time>2015-02-16T20:29:07.622Z</time>
      </trkpt>
      <trkpt lat="48.83164" lon="2.35915">
        <ele>114.6</ele>
        <time>2015-02-16T20:29:08.633Z</time>
      </trkpt>
      <trkpt lat="48.8316" lon="2.35906">
        <ele>114.6</ele>
        <time>2015-02-16T20:29:11.141Z</time>
      </trkpt>
      <trkpt lat="48.83158" lon="2.35903">
        <ele>114.5</ele>
        <time>2015-02-16T20:29:11.809Z</time>
      </trkpt>
      <trkpt lat="48.83155" lon="2.35894">
        <ele>114.3</ele>
        <time>2015-02-16T20:29:13.667Z</time>
      </trkpt>
      <trkpt lat="48.83154" lon="2.35889">
        <ele>114</ele>
        <time>2015-02-16T20:29:14.679Z</time>
      </trkpt>
      <trkpt lat="48.8315" lon="2.35879">
        <ele>113.8</ele>
        <time>2015-02-16T20:29:16.739Z</time>
      </trkpt>
      <trkpt lat="48.83148" lon="2.35874">
        <ele>113.5</ele>
        <time>2015-02-16T20:29:17.622Z</time>
      </trkpt>
      <trkpt lat="48.83146" lon="2.35865">
        <ele>113.4</ele>
        <time>2015-02-16T20:29:19.667Z</time>
      </trkpt>
      <trkpt lat="48.83144" lon="2.35859">
        <ele>113.3</ele>
        <time>2015-02-16T20:29:20.705Z</time>
      </trkpt>
      <trkpt lat="48.8314" lon="2.35848">
        <ele>113.2</ele>
        <time>2015-02-16T20:29:23.095Z</time>
      </trkpt>
      <trkpt lat="48.83138" lon="2.35842">
        <ele>113.3</ele>
        <time>2015-02-16T20:29:23.650Z</time>
      </trkpt>
      <trkpt lat="48.83134" lon="2.35835">
        <ele>113</ele>
        <time>2015-02-16T20:29:26.549Z</time>
      </trkpt>
      <trkpt lat="48.83132" lon="2.35829">
        <ele>113</ele>
        <time>2015-02-16T20:29:26.640Z</time>
      </trkpt>
      <trkpt lat="48.83131" lon="2.35819">
        <ele>111.3</ele>
        <time>2015-02-16T20:29:28.635Z</time>
      </trkpt>
      <trkpt lat="48.8313" lon="2.35815">
        <ele>111.1</ele>
        <time>2015-02-16T20:29:29.655Z</time>
      </trkpt>
      <trkpt lat="48.83125" lon="2.35804">
        <ele>111.3</ele>
        <time>2015-02-16T20:29:35.569Z</time>
      </trkpt>
      <trkpt lat="48.83124" lon="2.35802">
        <ele>111.2</ele>
        <time>2015-02-16T20:29:35.669Z</time>
      </trkpt>
      <trkpt lat="48.83119" lon="2.35792">
        <ele>110.8</ele>
        <time>2015-02-16T20:29:40.724Z</time>
      </trkpt>
      <trkpt lat="48.83118" lon="2.35789">
        <ele>110.9</ele>
        <time>2015-02-16T20:29:40.783Z</time>
      </trkpt>
      <trkpt lat="48.83116" lon="2.35779">
        <ele>110.8</ele>
        <time>2015-02-16T20:29:43.732Z</time>
      </trkpt>
      <trkpt lat="48.83115" lon="2.35776">
        <ele>110.8</ele>
        <time>2015-02-16T20:29:44.651Z</time>
      </trkpt>
      <trkpt lat="48.83112" lon="2.35765">
        <ele>110.3</ele>
        <time>2015-02-16T20:29:47.691Z</time>
      </trkpt>
      <trkpt lat="48.83111" lon="2.35761">
        <ele>109.9</ele>
        <time>2015-02-16T20:29:48.728Z</time>
      </trkpt>
      <trkpt lat="48.83108" lon="2.35753">
        <ele>109.1</ele>
        <time>2015-02-16T20:29:50.881Z</time>
      </trkpt>
      <trkpt lat="48.83106" lon="2.35749">
        <ele>108.8</ele>
        <time>2015-02-16T20:29:51.656Z</time>
      </trkpt>
      <trkpt lat="48.83103" lon="2.35737">
        <ele>108.6</ele>
        <time>2015-02-16T20:29:55.866Z</time>
      </trkpt>
      <trkpt lat="48.83102" lon="2.35735">
        <ele>108.7</ele>
        <time>2015-02-16T20:29:56.664Z</time>
      </trkpt>
      <trkpt lat="48.83098" lon="2.35726">
        <ele>109</ele>
        <time>2015-02-16T20:30:00.936Z</time>
      </trkpt>
      <trkpt lat="48.83096" lon="2.35722">
        <ele>108.9</ele>
        <time>2015-02-16T20:30:01.665Z</time>
      </trkpt>
      <trkpt lat="48.83092" lon="2.3571">
        <ele>108.8</ele>
        <time>2015-02-16T20:30:04.593Z</time>
      </trkpt>
      <trkpt lat="48.8309" lon="2.35706">
        <ele>108.9</ele>
        <time>2015-02-16T20:30:05.616Z</time>
      </trkpt>
      <trkpt lat="48.83088" lon="2.35697">
        <ele>109.1</ele>
        <time>2015-02-16T20:30:07.656Z</time>
      </trkpt>
      <trkpt lat="48.83087" lon="2.35692">
        <ele>109.2</ele>
        <time>2015-02-16T20:30:08.611Z</time>
      </trkpt>
      <trkpt lat="48.83082" lon="2.35682">
        <ele>109.9</ele>
        <time>2015-02-16T20:30:11.623Z</time>
      </trkpt>
      <trkpt lat="48.8308" lon="2.35679">
        <ele>109.7</ele>
        <time>2015-02-16T20:30:12.658Z</time>
      </trkpt>
      <trkpt lat="48.83076" lon="2.35672">
        <ele>109.9</ele>
        <time>2015-02-16T20:30:14.672Z</time>
      </trkpt>
      <trkpt lat="48.83075" lon="2.35667">
        <ele>110.5</ele>
        <time>2015-02-16T20:30:15.688Z</time>
      </trkpt>
      <trkpt lat="48.83072" lon="2.35657">
        <ele>111.5</ele>
        <time>2015-02-16T20:30:17.653Z</time>
      </trkpt>
      <trkpt lat="48.83071" lon="2.35653">
        <ele>111.7</ele>
        <time>2015-02-16T20:30:18.679Z</time>
      </trkpt>
      <trkpt lat="48.83067" lon="2.35645">
        <ele>112.2</ele>
        <time>2015-02-16T20:30:22.650Z</time>
      </trkpt>
      <trkpt lat="48.83066" lon="2.35642">
        <ele>112.2</ele>
        <time>2015-02-16T20:30:23.652Z</time>
      </trkpt>
      <trkpt lat="48.83062" lon="2.35632">
        <ele>112.5</ele>
        <time>2015-02-16T20:30:28.636Z</time>
      </trkpt>
      <trkpt lat="48.83062" lon="2.3563">
        <ele>112.3</ele>
        <time>2015-02-16T20:30:29.654Z</time>
      </trkpt>
      <trkpt lat="48.8306" lon="2.35618">
        <ele>111</ele>
        <time>2015-02-16T20:30:35.669Z</time>
      </trkpt>
      <trkpt lat="48.83059" lon="2.35616">
        <ele>110.8</ele>
        <time>2015-02-16T20:30:35.758Z</time>
      </trkpt>
      <trkpt lat="48.83058" lon="2.35603">
        <ele>110.2</ele>
        <time>2015-02-16T20:30:40.731Z</time>
      </trkpt>
      <trkpt lat="48.83057" lon="2.356">
        <ele>110.2</ele>
        <time>2015-02-16T20:30:40.801Z</time>
      </trkpt>
      <trkpt lat="48.83058" lon="2.35604">
        <ele>109.9</ele>
        <time>2015-02-16T20:30:58.624Z</time>
      </trkpt>
      <trkpt lat="48.83058" lon="2.35604">
        <ele>110</ele>
        <time>2015-02-16T20:30:59.639Z</time>
      </trkpt>
      <trkpt lat="48.83058" lon="2.35603">
        <ele>110</ele>
        <time>2015-02-16T20:31:01.654Z</time>
      </trkpt>
      <trkpt lat="48.83057" lon="2.35606">
        <ele>110.3</ele>
        <time>2015-02-16T20:31:04.696Z</time>
      </trkpt>
      <trkpt lat="48.83061" lon="2.35598">
        <ele>109.7</ele>
        <time>2015-02-16T20:31:09.650Z</time>
      </trkpt>
      <trkpt lat="48.83062" lon="2.35591">
        <ele>109.1</ele>
        <time>2015-02-16T20:31:10.667Z</time>
      </trkpt>
      <trkpt lat="48.83062" lon="2.35591">
        <ele>109.1</ele>
        <time>2015-02-16T20:31:11.470Z</time>
      </trkpt>
      <trkpt lat="48.83062" lon="2.35587">
        <ele>109.1</ele>
        <time>2015-02-16T20:31:11.591Z</time>
      </trkpt>
      <trkpt lat="48.83062" lon="2.35587">
        <ele>109.1</ele>
        <time>2015-02-16T20:31:22.648Z</time>
      </trkpt>
      <trkpt lat="48.83064" lon="2.35579">
        <ele>109</ele>
        <time>2015-02-16T20:31:23.671Z</time>
      </trkpt>
      <trkpt lat="48.83069" lon="2.35571">
        <ele>108.3</ele>
        <time>2015-02-16T20:31:27.695Z</time>
      </trkpt>
      <trkpt lat="48.83071" lon="2.35568">
        <ele>108.3</ele>
        <time>2015-02-16T20:31:28.750Z</time>
      </trkpt>
      <trkpt lat="48.8307" lon="2.35557">
        <ele>108.4</ele>
        <time>2015-02-16T20:31:32.708Z</time>
      </trkpt>
      <trkpt lat="48.8307" lon="2.35554">
        <ele>108.8</ele>
        <time>2015-02-16T20:31:33.727Z</time>
      </trkpt>
      <trkpt lat="48.8307" lon="2.3554">
        <ele>109.5</ele>
        <time>2015-02-16T20:31:37.683Z</time>
      </trkpt>
      <trkpt lat="48.83071" lon="2.35537">
        <ele>109.5</ele>
        <time>2015-02-16T20:31:38.695Z</time>
      </trkpt>
      <trkpt lat="48.8307" lon="2.35524">
        <ele>110.1</ele>
        <time>2015-02-16T20:31:43.626Z</time>
      </trkpt>
      <trkpt lat="48.83069" lon="2.35521">
        <ele>110.4</ele>
        <time>2015-02-16T20:31:44.618Z</time>
      </trkpt>
      <trkpt lat="48.83068" lon="2.3551">
        <ele>111.5</ele>
        <time>2015-02-16T20:31:47.654Z</time>
      </trkpt>
      <trkpt lat="48.83068" lon="2.35507">
        <ele>111.4</ele>
        <time>2015-02-16T20:31:48.665Z</time>
      </trkpt>
      <trkpt lat="48.83071" lon="2.35496">
        <ele>111.3</ele>
        <time>2015-02-16T20:31:51.708Z</time>
      </trkpt>
      <trkpt lat="48.83073" lon="2.35492">
        <ele>111.2</ele>
        <time>2015-02-16T20:31:52.622Z</time>
      </trkpt>
      <trkpt lat="48.83077" lon="2.35484">
        <ele>110.8</ele>
        <time>2015-02-16T20:31:54.634Z</time>
      </trkpt>
      <trkpt lat="48.83078" lon="2.35481">
        <ele>110.6</ele>
        <time>2015-02-16T20:31:55.668Z</time>
      </trkpt>
      <trkpt lat="48.83084" lon="2.35473">
        <ele>111.1</ele>
        <time>2015-02-16T20:31:58.648Z</time>
      </trkpt>
      <trkpt lat="48.83085" lon="2.3547">
        <ele>111.1</ele>
        <time>2015-02-16T20:31:59.666Z</time>
      </trkpt>
      <trkpt lat="48.83085" lon="2.35461">
        <ele>111.5</ele>
        <time>2015-02-16T20:32:03.607Z</time>
      </trkpt>
      <trkpt lat="48.83085" lon="2.35461">
        <ele>111.6</ele>
        <time>2015-02-16T20:32:04.624Z</time>
      </trkpt>
      <trkpt lat="48.83086" lon="2.3546">
        <ele>111.3</ele>
        <time>2015-02-16T20:32:31.668Z</time>
      </trkpt>
      <trkpt lat="48.83085" lon="2.35454">
        <ele>111.8</ele>
        <time>2015-02-16T20:32:32.678Z</time>
      </trkpt>
      <trkpt lat="48.8309" lon="2.35444">
        <ele>114.9</ele>
        <time>2015-02-16T20:32:46.654Z</time>
      </trkpt>
      <trkpt lat="48.83091" lon="2.35444">
        <ele>115</ele>
        <time>2015-02-16T20:32:47.673Z</time>
      </trkpt>
      <trkpt lat="48.83096" lon="2.35436">
        <ele>116.8</ele>
        <time>2015-02-16T20:32:53.647Z</time>
      </trkpt>
      <trkpt lat="48.83098" lon="2.35431">
        <ele>117.3</ele>
        <time>2015-02-16T20:32:54.720Z</time>
      </trkpt>
      <trkpt lat="48.831" lon="2.35421">
        <ele>117.8</ele>
        <time>2015-02-16T20:32:56.660Z</time>
      </trkpt>
      <trkpt lat="48.831" lon="2.35416">
        <ele>118.1</ele>
        <time>2015-02-16T20:32:57.678Z</time>
      </trkpt>
      <trkpt lat="48.831" lon="2.35406">
        <ele>118.3</ele>
        <time>2015-02-16T20:32:59.615Z</time>
      </trkpt>
      <trkpt lat="48.83099" lon="2.35401">
        <ele>118.3</ele>
        <time>2015-02-16T20:33:00.621Z</time>
      </trkpt>
      <trkpt lat="48.83098" lon="2.35389">
        <ele>119</ele>
        <time>2015-02-16T20:33:02.669Z</time>
      </trkpt>
      <trkpt lat="48.83097" lon="2.35383">
        <ele>119.4</ele>
        <time>2015-02-16T20:33:03.693Z</time>
      </trkpt>
      <trkpt lat="48.83095" lon="2.35371">
        <ele>119.5</ele>
        <time>2015-02-16T20:33:06.458Z</time>
      </trkpt>
      <trkpt lat="48.83094" lon="2.35366">
        <ele>119.4</ele>
        <time>2015-02-16T20:33:06.622Z</time>
      </trkpt>
      <trkpt lat="48.83092" lon="2.35355">
        <ele>119.3</ele>
        <time>2015-02-16T20:33:08.646Z</time>
      </trkpt>
      <trkpt lat="48.8309" lon="2.3535">
        <ele>119.2</ele>
        <time>2015-02-16T20:33:09.659Z</time>
      </trkpt>
      <trkpt lat="48.83087" lon="2.35338">
        <ele>119</ele>
        <time>2015-02-16T20:33:11.696Z</time>
      </trkpt>
      <trkpt lat="48.83086" lon="2.35332">
        <ele>119.2</ele>
        <time>2015-02-16T20:33:12.690Z</time>
      </trkpt>
      <trkpt lat="48.83083" lon="2.35319">
        <ele>119.7</ele>
        <time>2015-02-16T20:33:14.714Z</time>
      </trkpt>
      <trkpt lat="48.83081" lon="2.35313">
        <ele>119.8</ele>
        <time>2015-02-16T20:33:15.622Z</time>
      </trkpt>
      <trkpt lat="48.83079" lon="2.35301">
        <ele>120</ele>
        <time>2015-02-16T20:33:17.633Z</time>
      </trkpt>
      <trkpt lat="48.83077" lon="2.35295">
        <ele>120</ele>
        <time>2015-02-16T20:33:18.640Z</time>
      </trkpt>
      <trkpt lat="48.83075" lon="2.35289">
        <ele>119.9</ele>
        <time>2015-02-16T20:33:19.647Z</time>
      </trkpt>
      <trkpt lat="48.83073" lon="2.35283">
        <ele>119.8</ele>
        <time>2015-02-16T20:33:20.646Z</time>
      </trkpt>
      <trkpt lat="48.83071" lon="2.35276">
        <ele>119.8</ele>
        <time>2015-02-16T20:33:21.684Z</time>
      </trkpt>
      <trkpt lat="48.83068" lon="2.35268">
        <ele>119.7</ele>
        <time>2015-02-16T20:33:22.678Z</time>
      </trkpt>
      <trkpt lat="48.83066" lon="2.35262">
        <ele>119.7</ele>
        <time>2015-02-16T20:33:23.702Z</time>
      </trkpt>
      <trkpt lat="48.83064" lon="2.35255">
        <ele>119.8</ele>
        <time>2015-02-16T20:33:24.714Z</time>
      </trkpt>
      <trkpt lat="48.83062" lon="2.35248">
        <ele>119.8</ele>
        <time>2015-02-16T20:33:25.721Z</time>
      </trkpt>
      <trkpt lat="48.83059" lon="2.35239">
        <ele>120.1</ele>
        <time>2015-02-16T20:33:26.610Z</time>
      </trkpt>
      <trkpt lat="48.83057" lon="2.35231">
        <ele>120.3</ele>
        <time>2015-02-16T20:33:27.611Z</time>
      </trkpt>
      <trkpt lat="48.83055" lon="2.35223">
        <ele>120.3</ele>
        <time>2015-02-16T20:33:28.614Z</time>
      </trkpt>
      <trkpt lat="48.83052" lon="2.35214">
        <ele>120.4</ele>
        <time>2015-02-16T20:33:29.622Z</time>
      </trkpt>
      <trkpt lat="48.8305" lon="2.35206">
        <ele>120.4</ele>
        <time>2015-02-16T20:33:30.631Z</time>
      </trkpt>
      <trkpt lat="48.83047" lon="2.35197">
        <ele>120.2</ele>
        <time>2015-02-16T20:33:31.656Z</time>
      </trkpt>
      <trkpt lat="48.83044" lon="2.35189">
        <ele>120</ele>
        <time>2015-02-16T20:33:32.666Z</time>
      </trkpt>
      <trkpt lat="48.83041" lon="2.3518">
        <ele>119.8</ele>
        <time>2015-02-16T20:33:33.684Z</time>
      </trkpt>
      <trkpt lat="48.83039" lon="2.35173">
        <ele>119.7</ele>
        <time>2015-02-16T20:33:34.587Z</time>
      </trkpt>
      <trkpt lat="48.83037" lon="2.35166">
        <ele>119.6</ele>
        <time>2015-02-16T20:33:35.703Z</time>
      </trkpt>
      <trkpt lat="48.83035" lon="2.3516">
        <ele>119.4</ele>
        <time>2015-02-16T20:33:36.723Z</time>
      </trkpt>
      <trkpt lat="48.83034" lon="2.35152">
        <ele>119.3</ele>
        <time>2015-02-16T20:33:37.632Z</time>
      </trkpt>
      <trkpt lat="48.83031" lon="2.35145">
        <ele>119.2</ele>
        <time>2015-02-16T20:33:38.639Z</time>
      </trkpt>
      <trkpt lat="48.83028" lon="2.35137">
        <ele>119.1</ele>
        <time>2015-02-16T20:33:39.645Z</time>
      </trkpt>
      <trkpt lat="48.83025" lon="2.35129">
        <ele>119</ele>
        <time>2015-02-16T20:33:40.675Z</time>
      </trkpt>
      <trkpt lat="48.83022" lon="2.35122">
        <ele>118.9</ele>
        <time>2015-02-16T20:33:41.687Z</time>
      </trkpt>
      <trkpt lat="48.8302" lon="2.35114">
        <ele>118.9</ele>
        <time>2015-02-16T20:33:42.690Z</time>
      </trkpt>
      <trkpt lat="48.83018" lon="2.35107">
        <ele>118.8</ele>
        <time>2015-02-16T20:33:43.609Z</time>
      </trkpt>
      <trkpt lat="48.83016" lon="2.35098">
        <ele>118.6</ele>
        <time>2015-02-16T20:33:44.613Z</time>
      </trkpt>
      <trkpt lat="48.83013" lon="2.3509">
        <ele>118.2</ele>
        <time>2015-02-16T20:33:45.674Z</time>
      </trkpt>
      <trkpt lat="48.83011" lon="2.35081">
        <ele>118.3</ele>
        <time>2015-02-16T20:33:46.670Z</time>
      </trkpt>
      <trkpt lat="48.83008" lon="2.35073">
        <ele>118.4</ele>
        <time>2015-02-16T20:33:47.705Z</time>
      </trkpt>
      <trkpt lat="48.83006" lon="2.35066">
        <ele>118.6</ele>
        <time>2015-02-16T20:33:48.713Z</time>
      </trkpt>
      <trkpt lat="48.83004" lon="2.35059">
        <ele>118.7</ele>
        <time>2015-02-16T20:33:49.631Z</time>
      </trkpt>
      <trkpt lat="48.83002" lon="2.35052">
        <ele>119</ele>
        <time>2015-02-16T20:33:50.622Z</time>
      </trkpt>
      <trkpt lat="48.83" lon="2.35046">
        <ele>119</ele>
        <time>2015-02-16T20:33:51.654Z</time>
      </trkpt>
      <trkpt lat="48.82998" lon="2.3504">
        <ele>119</ele>
        <time>2015-02-16T20:33:52.647Z</time>
      </trkpt>
      <trkpt lat="48.82995" lon="2.35033">
        <ele>119.1</ele>
        <time>2015-02-16T20:33:53.683Z</time>
      </trkpt>
      <trkpt lat="48.82992" lon="2.35026">
        <ele>119.4</ele>
        <time>2015-02-16T20:33:54.692Z</time>
      </trkpt>
      <trkpt lat="48.82989" lon="2.35018">
        <ele>119.2</ele>
        <time>2015-02-16T20:33:55.703Z</time>
      </trkpt>
      <trkpt lat="48.82986" lon="2.3501">
        <ele>119.3</ele>
        <time>2015-02-16T20:33:56.593Z</time>
      </trkpt>
      <trkpt lat="48.82983" lon="2.35001">
        <ele>119.5</ele>
        <time>2015-02-16T20:33:57.631Z</time>
      </trkpt>
      <trkpt lat="48.82982" lon="2.34992">
        <ele>119.4</ele>
        <time>2015-02-16T20:33:58.631Z</time>
      </trkpt>
      <trkpt lat="48.8298" lon="2.34982">
        <ele>119.4</ele>
        <time>2015-02-16T20:33:59.645Z</time>
      </trkpt>
      <trkpt lat="48.8298" lon="2.34972">
        <ele>119.3</ele>
        <time>2015-02-16T20:34:00.655Z</time>
      </trkpt>
      <trkpt lat="48.8298" lon="2.34962">
        <ele>119.2</ele>
        <time>2015-02-16T20:34:01.688Z</time>
      </trkpt>
      <trkpt lat="48.8298" lon="2.34953">
        <ele>119.1</ele>
        <time>2015-02-16T20:34:02.622Z</time>
      </trkpt>
      <trkpt lat="48.82981" lon="2.34945">
        <ele>118.9</ele>
        <time>2015-02-16T20:34:03.625Z</time>
      </trkpt>
      <trkpt lat="48.82983" lon="2.34937">
        <ele>118.5</ele>
        <time>2015-02-16T20:34:04.629Z</time>
      </trkpt>
      <trkpt lat="48.82984" lon="2.34925">
        <ele>116.7</ele>
        <time>2015-02-16T20:34:05.587Z</time>
      </trkpt>
      <trkpt lat="48.82986" lon="2.34913">
        <ele>115.5</ele>
        <time>2015-02-16T20:34:06.701Z</time>
      </trkpt>
      <trkpt lat="48.82988" lon="2.34902">
        <ele>114.5</ele>
        <time>2015-02-16T20:34:07.716Z</time>
      </trkpt>
      <trkpt lat="48.8299" lon="2.34892">
        <ele>114.1</ele>
        <time>2015-02-16T20:34:08.655Z</time>
      </trkpt>
      <trkpt lat="48.82991" lon="2.34881">
        <ele>113.7</ele>
        <time>2015-02-16T20:34:09.661Z</time>
      </trkpt>
      <trkpt lat="48.82994" lon="2.34869">
        <ele>113.7</ele>
        <time>2015-02-16T20:34:10.738Z</time>
      </trkpt>
      <trkpt lat="48.82996" lon="2.34859">
        <ele>113.5</ele>
        <time>2015-02-16T20:34:11.665Z</time>
      </trkpt>
      <trkpt lat="48.82999" lon="2.34848">
        <ele>112.9</ele>
        <time>2015-02-16T20:34:12.677Z</time>
      </trkpt>
      <trkpt lat="48.83002" lon="2.34838">
        <ele>112.5</ele>
        <time>2015-02-16T20:34:13.708Z</time>
      </trkpt>
      <trkpt lat="48.83004" lon="2.34827">
        <ele>112</ele>
        <time>2015-02-16T20:34:14.624Z</time>
      </trkpt>
      <trkpt lat="48.83006" lon="2.34817">
        <ele>111.6</ele>
        <time>2015-02-16T20:34:15.649Z</time>
      </trkpt>
      <trkpt lat="48.83008" lon="2.34807">
        <ele>111</ele>
        <time>2015-02-16T20:34:16.666Z</time>
      </trkpt>
      <trkpt lat="48.83011" lon="2.34798">
        <ele>110.6</ele>
        <time>2015-02-16T20:34:17.700Z</time>
      </trkpt>
      <trkpt lat="48.83013" lon="2.34786">
        <ele>110.2</ele>
        <time>2015-02-16T20:34:18.646Z</time>
      </trkpt>
      <trkpt lat="48.83015" lon="2.34776">
        <ele>109.9</ele>
        <time>2015-02-16T20:34:19.681Z</time>
      </trkpt>
      <trkpt lat="48.83017" lon="2.34766">
        <ele>110</ele>
        <time>2015-02-16T20:34:20.621Z</time>
      </trkpt>
      <trkpt lat="48.83018" lon="2.34756">
        <ele>109.7</ele>
        <time>2015-02-16T20:34:21.618Z</time>
      </trkpt>
      <trkpt lat="48.8302" lon="2.34746">
        <ele>109.6</ele>
        <time>2015-02-16T20:34:22.626Z</time>
      </trkpt>
      <trkpt lat="48.83021" lon="2.34735">
        <ele>109.8</ele>
        <time>2015-02-16T20:34:23.656Z</time>
      </trkpt>
      <trkpt lat="48.83023" lon="2.34725">
        <ele>110.2</ele>
        <time>2015-02-16T20:34:24.671Z</time>
      </trkpt>
      <trkpt lat="48.83024" lon="2.34715">
        <ele>110.3</ele>
        <time>2015-02-16T20:34:25.700Z</time>
      </trkpt>
      <trkpt lat="48.83026" lon="2.34705">
        <ele>110.2</ele>
        <time>2015-02-16T20:34:26.715Z</time>
      </trkpt>
      <trkpt lat="48.83029" lon="2.34696">
        <ele>110.1</ele>
        <time>2015-02-16T20:34:27.614Z</time>
      </trkpt>
      <trkpt lat="48.83032" lon="2.34685">
        <ele>110</ele>
        <time>2015-02-16T20:34:28.633Z</time>
      </trkpt>
      <trkpt lat="48.83036" lon="2.34674">
        <ele>109.5</ele>
        <time>2015-02-16T20:34:29.646Z</time>
      </trkpt>
      <trkpt lat="48.8304" lon="2.34663">
        <ele>109.2</ele>
        <time>2015-02-16T20:34:30.664Z</time>
      </trkpt>
      <trkpt lat="48.83045" lon="2.34653">
        <ele>109.2</ele>
        <time>2015-02-16T20:34:31.719Z</time>
      </trkpt>
      <trkpt lat="48.83047" lon="2.34642">
        <ele>109.2</ele>
        <time>2015-02-16T20:34:32.623Z</time>
      </trkpt>
      <trkpt lat="48.8305" lon="2.34631">
        <ele>109.2</ele>
        <time>2015-02-16T20:34:33.626Z</time>
      </trkpt>
      <trkpt lat="48.83053" lon="2.3462">
        <ele>109.2</ele>
        <time>2015-02-16T20:34:34.650Z</time>
      </trkpt>
      <trkpt lat="48.83055" lon="2.34609">
        <ele>109.4</ele>
        <time>2015-02-16T20:34:35.681Z</time>
      </trkpt>
      <trkpt lat="48.83058" lon="2.34597">
        <ele>109.1</ele>
        <time>2015-02-16T20:34:36.687Z</time>
      </trkpt>
      <trkpt lat="48.83062" lon="2.34586">
        <ele>107.8</ele>
        <time>2015-02-16T20:34:37.695Z</time>
      </trkpt>
      <trkpt lat="48.83065" lon="2.34576">
        <ele>107.5</ele>
        <time>2015-02-16T20:34:38.704Z</time>
      </trkpt>
      <trkpt lat="48.8307" lon="2.34568">
        <ele>106.3</ele>
        <time>2015-02-16T20:34:39.611Z</time>
      </trkpt>
      <trkpt lat="48.83072" lon="2.34559">
        <ele>106.1</ele>
        <time>2015-02-16T20:34:40.610Z</time>
      </trkpt>
      <trkpt lat="48.83075" lon="2.34553">
        <ele>105.5</ele>
        <time>2015-02-16T20:34:41.620Z</time>
      </trkpt>
      <trkpt lat="48.83078" lon="2.34545">
        <ele>104.9</ele>
        <time>2015-02-16T20:34:42.819Z</time>
      </trkpt>
      <trkpt lat="48.8308" lon="2.34537">
        <ele>104.2</ele>
        <time>2015-02-16T20:34:43.686Z</time>
      </trkpt>
      <trkpt lat="48.83082" lon="2.3453">
        <ele>103.9</ele>
        <time>2015-02-16T20:34:44.690Z</time>
      </trkpt>
      <trkpt lat="48.83084" lon="2.34522">
        <ele>103.3</ele>
        <time>2015-02-16T20:34:45.699Z</time>
      </trkpt>
      <trkpt lat="48.83086" lon="2.34515">
        <ele>102.9</ele>
        <time>2015-02-16T20:34:46.591Z</time>
      </trkpt>
      <trkpt lat="48.83088" lon="2.34507">
        <ele>102.7</ele>
        <time>2015-02-16T20:34:47.613Z</time>
      </trkpt>
      <trkpt lat="48.8309" lon="2.345">
        <ele>102.4</ele>
        <time>2015-02-16T20:34:48.634Z</time>
      </trkpt>
      <trkpt lat="48.83092" lon="2.34492">
        <ele>101.9</ele>
        <time>2015-02-16T20:34:49.630Z</time>
      </trkpt>
      <trkpt lat="48.83095" lon="2.34484">
        <ele>101.7</ele>
        <time>2015-02-16T20:34:50.648Z</time>
      </trkpt>
      <trkpt lat="48.83098" lon="2.34476">
        <ele>101.6</ele>
        <time>2015-02-16T20:34:51.660Z</time>
      </trkpt>
      <trkpt lat="48.831" lon="2.34468">
        <ele>101.5</ele>
        <time>2015-02-16T20:34:52.676Z</time>
      </trkpt>
      <trkpt lat="48.83103" lon="2.3446">
        <ele>101.9</ele>
        <time>2015-02-16T20:34:53.706Z</time>
      </trkpt>
      <trkpt lat="48.83105" lon="2.34452">
        <ele>101.9</ele>
        <time>2015-02-16T20:34:54.736Z</time>
      </trkpt>
      <trkpt lat="48.83107" lon="2.34444">
        <ele>101.6</ele>
        <time>2015-02-16T20:34:55.628Z</time>
      </trkpt>
      <trkpt lat="48.83109" lon="2.34436">
        <ele>101.3</ele>
        <time>2015-02-16T20:34:56.630Z</time>
      </trkpt>
      <trkpt lat="48.83111" lon="2.34429">
        <ele>101.3</ele>
        <time>2015-02-16T20:34:57.644Z</time>
      </trkpt>
      <trkpt lat="48.83114" lon="2.34422">
        <ele>101.1</ele>
        <time>2015-02-16T20:34:58.659Z</time>
      </trkpt>
      <trkpt lat="48.83115" lon="2.34414">
        <ele>100.5</ele>
        <time>2015-02-16T20:34:59.690Z</time>
      </trkpt>
      <trkpt lat="48.83117" lon="2.34407">
        <ele>99.9</ele>
        <time>2015-02-16T20:35:00.713Z</time>
      </trkpt>
      <trkpt lat="48.8312" lon="2.34396">
        <ele>99.6</ele>
        <time>2015-02-16T20:35:02.629Z</time>
      </trkpt>
      <trkpt lat="48.83121" lon="2.34389">
        <ele>99.3</ele>
        <time>2015-02-16T20:35:03.640Z</time>
      </trkpt>
      <trkpt lat="48.83123" lon="2.34379">
        <ele>99.6</ele>
        <time>2015-02-16T20:35:05.667Z</time>
      </trkpt>
      <trkpt lat="48.83124" lon="2.34373">
        <ele>99.7</ele>
        <time>2015-02-16T20:35:06.686Z</time>
      </trkpt>
      <trkpt lat="48.83128" lon="2.34363">
        <ele>99.3</ele>
        <time>2015-02-16T20:35:08.629Z</time>
      </trkpt>
      <trkpt lat="48.8313" lon="2.34358">
        <ele>99.2</ele>
        <time>2015-02-16T20:35:09.704Z</time>
      </trkpt>
      <trkpt lat="48.83133" lon="2.34345">
        <ele>98.8</ele>
        <time>2015-02-16T20:35:11.643Z</time>
      </trkpt>
      <trkpt lat="48.83135" lon="2.34339">
        <ele>98.8</ele>
        <time>2015-02-16T20:35:12.751Z</time>
      </trkpt>
      <trkpt lat="48.83137" lon="2.34331">
        <ele>98.5</ele>
        <time>2015-02-16T20:35:13.635Z</time>
      </trkpt>
      <trkpt lat="48.83138" lon="2.34324">
        <ele>98.2</ele>
        <time>2015-02-16T20:35:14.641Z</time>
      </trkpt>
      <trkpt lat="48.83141" lon="2.34312">
        <ele>98.2</ele>
        <time>2015-02-16T20:35:16.701Z</time>
      </trkpt>
      <trkpt lat="48.83142" lon="2.34305">
        <ele>98.1</ele>
        <time>2015-02-16T20:35:17.623Z</time>
      </trkpt>
      <trkpt lat="48.83144" lon="2.34299">
        <ele>97.9</ele>
        <time>2015-02-16T20:35:18.628Z</time>
      </trkpt>
      <trkpt lat="48.83147" lon="2.34293">
        <ele>97.7</ele>
        <time>2015-02-16T20:35:19.646Z</time>
      </trkpt>
      <trkpt lat="48.83149" lon="2.34286">
        <ele>97.4</ele>
        <time>2015-02-16T20:35:20.686Z</time>
      </trkpt>
      <trkpt lat="48.8315" lon="2.34278">
        <ele>97.4</ele>
        <time>2015-02-16T20:35:21.694Z</time>
      </trkpt>
      <trkpt lat="48.83152" lon="2.3427">
        <ele>98.1</ele>
        <time>2015-02-16T20:35:22.599Z</time>
      </trkpt>
      <trkpt lat="48.83153" lon="2.34264">
        <ele>98</ele>
        <time>2015-02-16T20:35:23.603Z</time>
      </trkpt>
      <trkpt lat="48.83157" lon="2.34252">
        <ele>97.8</ele>
        <time>2015-02-16T20:35:25.651Z</time>
      </trkpt>
      <trkpt lat="48.83159" lon="2.34246">
        <ele>97.8</ele>
        <time>2015-02-16T20:35:26.675Z</time>
      </trkpt>
      <trkpt lat="48.83161" lon="2.34239">
        <ele>97.8</ele>
        <time>2015-02-16T20:35:27.682Z</time>
      </trkpt>
      <trkpt lat="48.83163" lon="2.3423">
        <ele>97.8</ele>
        <time>2015-02-16T20:35:28.694Z</time>
      </trkpt>
      <trkpt lat="48.83164" lon="2.34223">
        <ele>97.7</ele>
        <time>2015-02-16T20:35:29.615Z</time>
      </trkpt>
      <trkpt lat="48.83166" lon="2.34216">
        <ele>97.7</ele>
        <time>2015-02-16T20:35:30.666Z</time>
      </trkpt>
      <trkpt lat="48.83168" lon="2.34208">
        <ele>97.9</ele>
        <time>2015-02-16T20:35:31.652Z</time>
      </trkpt>
      <trkpt lat="48.8317" lon="2.34201">
        <ele>97.9</ele>
        <time>2015-02-16T20:35:32.661Z</time>
      </trkpt>
      <trkpt lat="48.83171" lon="2.34193">
        <ele>97.6</ele>
        <time>2015-02-16T20:35:33.684Z</time>
      </trkpt>
      <trkpt lat="48.83173" lon="2.34187">
        <ele>97.7</ele>
        <time>2015-02-16T20:35:34.692Z</time>
      </trkpt>
      <trkpt lat="48.83176" lon="2.34175">
        <ele>97.5</ele>
        <time>2015-02-16T20:35:36.711Z</time>
      </trkpt>
      <trkpt lat="48.83177" lon="2.3417">
        <ele>97.5</ele>
        <time>2015-02-16T20:35:37.745Z</time>
      </trkpt>
      <trkpt lat="48.83179" lon="2.34158">
        <ele>97.6</ele>
        <time>2015-02-16T20:35:39.632Z</time>
      </trkpt>
      <trkpt lat="48.8318" lon="2.34153">
        <ele>97.7</ele>
        <time>2015-02-16T20:35:40.640Z</time>
      </trkpt>
      <trkpt lat="48.83182" lon="2.34143">
        <ele>97.3</ele>
        <time>2015-02-16T20:35:42.640Z</time>
      </trkpt>
      <trkpt lat="48.83185" lon="2.34137">
        <ele>96.7</ele>
        <time>2015-02-16T20:35:43.654Z</time>
      </trkpt>
      <trkpt lat="48.83188" lon="2.34131">
        <ele>96.4</ele>
        <time>2015-02-16T20:35:44.696Z</time>
      </trkpt>
      <trkpt lat="48.8319" lon="2.34126">
        <ele>96.2</ele>
        <time>2015-02-16T20:35:45.704Z</time>
      </trkpt>
      <trkpt lat="48.83194" lon="2.34115">
        <ele>96</ele>
        <time>2015-02-16T20:35:47.612Z</time>
      </trkpt>
      <trkpt lat="48.83196" lon="2.3411">
        <ele>96</ele>
        <time>2015-02-16T20:35:48.646Z</time>
      </trkpt>
      <trkpt lat="48.832" lon="2.34102">
        <ele>96</ele>
        <time>2015-02-16T20:35:50.622Z</time>
      </trkpt>
      <trkpt lat="48.83202" lon="2.34098">
        <ele>96.2</ele>
        <time>2015-02-16T20:35:51.633Z</time>
      </trkpt>
      <trkpt lat="48.83204" lon="2.34088">
        <ele>96.9</ele>
        <time>2015-02-16T20:35:53.589Z</time>
      </trkpt>
      <trkpt lat="48.83204" lon="2.34083">
        <ele>97.1</ele>
        <time>2015-02-16T20:35:54.648Z</time>
      </trkpt>
      <trkpt lat="48.83206" lon="2.3407">
        <ele>98.1</ele>
        <time>2015-02-16T20:35:57.612Z</time>
      </trkpt>
      <trkpt lat="48.83206" lon="2.34064">
        <ele>98.1</ele>
        <time>2015-02-16T20:35:58.672Z</time>
      </trkpt>
      <trkpt lat="48.83208" lon="2.34054">
        <ele>98.4</ele>
        <time>2015-02-16T20:36:00.679Z</time>
      </trkpt>
      <trkpt lat="48.8321" lon="2.3405">
        <ele>98.4</ele>
        <time>2015-02-16T20:36:01.685Z</time>
      </trkpt>
      <trkpt lat="48.83213" lon="2.34043">
        <ele>98.5</ele>
        <time>2015-02-16T20:36:03.617Z</time>
      </trkpt>
      <trkpt lat="48.83214" lon="2.34038">
        <ele>98.8</ele>
        <time>2015-02-16T20:36:04.614Z</time>
      </trkpt>
      <trkpt lat="48.83219" lon="2.34028">
        <ele>99.2</ele>
        <time>2015-02-16T20:36:06.662Z</time>
      </trkpt>
      <trkpt lat="48.83221" lon="2.34024">
        <ele>99.3</ele>
        <time>2015-02-16T20:36:07.674Z</time>
      </trkpt>
      <trkpt lat="48.83224" lon="2.34012">
        <ele>99.4</ele>
        <time>2015-02-16T20:36:09.673Z</time>
      </trkpt>
      <trkpt lat="48.83226" lon="2.34006">
        <ele>99.4</ele>
        <time>2015-02-16T20:36:10.692Z</time>
      </trkpt>
      <trkpt lat="48.83228" lon="2.33994">
        <ele>99.5</ele>
        <time>2015-02-16T20:36:12.724Z</time>
      </trkpt>
      <trkpt lat="48.83229" lon="2.33987">
        <ele>99.5</ele>
        <time>2015-02-16T20:36:13.637Z</time>
      </trkpt>
      <trkpt lat="48.83231" lon="2.33976">
        <ele>99.7</ele>
        <time>2015-02-16T20:36:16.103Z</time>
      </trkpt>
      <trkpt lat="48.83233" lon="2.33969">
        <ele>99.6</ele>
        <time>2015-02-16T20:36:16.655Z</time>
      </trkpt>
      <trkpt lat="48.83235" lon="2.33957">
        <ele>99.8</ele>
        <time>2015-02-16T20:36:18.691Z</time>
      </trkpt>
      <trkpt lat="48.83237" lon="2.33951">
        <ele>99.7</ele>
        <time>2015-02-16T20:36:19.696Z</time>
      </trkpt>
      <trkpt lat="48.83239" lon="2.33938">
        <ele>100</ele>
        <time>2015-02-16T20:36:21.598Z</time>
      </trkpt>
      <trkpt lat="48.83241" lon="2.33932">
        <ele>100.3</ele>
        <time>2015-02-16T20:36:22.613Z</time>
      </trkpt>
      <trkpt lat="48.83242" lon="2.33925">
        <ele>100.6</ele>
        <time>2015-02-16T20:36:23.609Z</time>
      </trkpt>
      <trkpt lat="48.83244" lon="2.33919">
        <ele>100.7</ele>
        <time>2015-02-16T20:36:24.694Z</time>
      </trkpt>
      <trkpt lat="48.83247" lon="2.33907">
        <ele>100.9</ele>
        <time>2015-02-16T20:36:26.672Z</time>
      </trkpt>
      <trkpt lat="48.83248" lon="2.33902">
        <ele>101.3</ele>
        <time>2015-02-16T20:36:27.685Z</time>
      </trkpt>
      <trkpt lat="48.8325" lon="2.33892">
        <ele>102</ele>
        <time>2015-02-16T20:36:29.619Z</time>
      </trkpt>
      <trkpt lat="48.83251" lon="2.33887">
        <ele>102.3</ele>
        <time>2015-02-16T20:36:30.708Z</time>
      </trkpt>
      <trkpt lat="48.83253" lon="2.33877">
        <ele>102.6</ele>
        <time>2015-02-16T20:36:32.766Z</time>
      </trkpt>
      <trkpt lat="48.83255" lon="2.33872">
        <ele>102.8</ele>
        <time>2015-02-16T20:36:33.647Z</time>
      </trkpt>
      <trkpt lat="48.83259" lon="2.33864">
        <ele>103.1</ele>
        <time>2015-02-16T20:36:35.677Z</time>
      </trkpt>
      <trkpt lat="48.8326" lon="2.3386">
        <ele>103.3</ele>
        <time>2015-02-16T20:36:36.695Z</time>
      </trkpt>
      <trkpt lat="48.83263" lon="2.33851">
        <ele>103.4</ele>
        <time>2015-02-16T20:36:38.584Z</time>
      </trkpt>
      <trkpt lat="48.83264" lon="2.33846">
        <ele>103.6</ele>
        <time>2015-02-16T20:36:39.614Z</time>
      </trkpt>
      <trkpt lat="48.83268" lon="2.33837">
        <ele>104</ele>
        <time>2015-02-16T20:36:41.644Z</time>
      </trkpt>
      <trkpt lat="48.83269" lon="2.33833">
        <ele>104.1</ele>
        <time>2015-02-16T20:36:42.644Z</time>
      </trkpt>
      <trkpt lat="48.83271" lon="2.33823">
        <ele>104.4</ele>
        <time>2015-02-16T20:36:44.675Z</time>
      </trkpt>
      <trkpt lat="48.83272" lon="2.33818">
        <ele>104.4</ele>
        <time>2015-02-16T20:36:45.688Z</time>
      </trkpt>
      <trkpt lat="48.83274" lon="2.3381">
        <ele>104.8</ele>
        <time>2015-02-16T20:36:48.361Z</time>
      </trkpt>
      <trkpt lat="48.83275" lon="2.33805">
        <ele>105</ele>
        <time>2015-02-16T20:36:48.619Z</time>
      </trkpt>
      <trkpt lat="48.83279" lon="2.33794">
        <ele>104.9</ele>
        <time>2015-02-16T20:36:50.851Z</time>
      </trkpt>
      <trkpt lat="48.8328" lon="2.33789">
        <ele>104.9</ele>
        <time>2015-02-16T20:36:51.654Z</time>
      </trkpt>
      <trkpt lat="48.83283" lon="2.33778">
        <ele>104.8</ele>
        <time>2015-02-16T20:36:53.693Z</time>
      </trkpt>
      <trkpt lat="48.83284" lon="2.33772">
        <ele>104.8</ele>
        <time>2015-02-16T20:36:54.718Z</time>
      </trkpt>
      <trkpt lat="48.83285" lon="2.33764">
        <ele>104.7</ele>
        <time>2015-02-16T20:36:55.832Z</time>
      </trkpt>
      <trkpt lat="48.83286" lon="2.33757">
        <ele>104.1</ele>
        <time>2015-02-16T20:36:56.615Z</time>
      </trkpt>
      <trkpt lat="48.83288" lon="2.3375">
        <ele>104.1</ele>
        <time>2015-02-16T20:36:57.605Z</time>
      </trkpt>
      <trkpt lat="48.8329" lon="2.33743">
        <ele>104</ele>
        <time>2015-02-16T20:36:58.647Z</time>
      </trkpt>
      <trkpt lat="48.83292" lon="2.33736">
        <ele>104</ele>
        <time>2015-02-16T20:36:59.678Z</time>
      </trkpt>
      <trkpt lat="48.83294" lon="2.33729">
        <ele>104.2</ele>
        <time>2015-02-16T20:37:00.678Z</time>
      </trkpt>
      <trkpt lat="48.83297" lon="2.33723">
        <ele>104.3</ele>
        <time>2015-02-16T20:37:01.715Z</time>
      </trkpt>
      <trkpt lat="48.83299" lon="2.33717">
        <ele>104.5</ele>
        <time>2015-02-16T20:37:02.614Z</time>
      </trkpt>
      <trkpt lat="48.83301" lon="2.3371">
        <ele>104.6</ele>
        <time>2015-02-16T20:37:03.616Z</time>
      </trkpt>
      <trkpt lat="48.83303" lon="2.33704">
        <ele>104.7</ele>
        <time>2015-02-16T20:37:04.630Z</time>
      </trkpt>
      <trkpt lat="48.83305" lon="2.33698">
        <ele>104.8</ele>
        <time>2015-02-16T20:37:06.150Z</time>
      </trkpt>
      <trkpt lat="48.83307" lon="2.33692">
        <ele>104.9</ele>
        <time>2015-02-16T20:37:06.661Z</time>
      </trkpt>
      <trkpt lat="48.83311" lon="2.3368">
        <ele>105.4</ele>
        <time>2015-02-16T20:37:08.616Z</time>
      </trkpt>
      <trkpt lat="48.83313" lon="2.33674">
        <ele>105.7</ele>
        <time>2015-02-16T20:37:09.646Z</time>
      </trkpt>
      <trkpt lat="48.83316" lon="2.33667">
        <ele>106</ele>
        <time>2015-02-16T20:37:11.198Z</time>
      </trkpt>
      <trkpt lat="48.83318" lon="2.3366">
        <ele>106.4</ele>
        <time>2015-02-16T20:37:11.692Z</time>
      </trkpt>
      <trkpt lat="48.8332" lon="2.33655">
        <ele>106</ele>
        <time>2015-02-16T20:37:12.693Z</time>
      </trkpt>
      <trkpt lat="48.83323" lon="2.33649">
        <ele>106.1</ele>
        <time>2015-02-16T20:37:13.698Z</time>
      </trkpt>
      <trkpt lat="48.83327" lon="2.33638">
        <ele>106.3</ele>
        <time>2015-02-16T20:37:16.267Z</time>
      </trkpt>
      <trkpt lat="48.83329" lon="2.33633">
        <ele>106.4</ele>
        <time>2015-02-16T20:37:16.621Z</time>
      </trkpt>
      <trkpt lat="48.83331" lon="2.33623">
        <ele>107</ele>
        <time>2015-02-16T20:37:19.665Z</time>
      </trkpt>
      <trkpt lat="48.83332" lon="2.3362">
        <ele>107.2</ele>
        <time>2015-02-16T20:37:20.669Z</time>
      </trkpt>
      <trkpt lat="48.83335" lon="2.33613">
        <ele>107.2</ele>
        <time>2015-02-16T20:37:26.701Z</time>
      </trkpt>
      <trkpt lat="48.83335" lon="2.33613">
        <ele>107.3</ele>
        <time>2015-02-16T20:37:27.722Z</time>
      </trkpt>
      <trkpt lat="48.83335" lon="2.33613">
        <ele>107.4</ele>
        <time>2015-02-16T20:40:05.877Z</time>
      </trkpt>
      <trkpt lat="48.83335" lon="2.33609">
        <ele>110.3</ele>
        <time>2015-02-16T20:40:06.653Z</time>
      </trkpt>
      <trkpt lat="48.83335" lon="2.3361">
        <ele>110.2</ele>
        <time>2015-02-16T20:40:07.668Z</time>
      </trkpt>
      <trkpt lat="48.83335" lon="2.3361">
        <ele>110.3</ele>
        <time>2015-02-16T20:40:08.682Z</time>
      </trkpt>
      <trkpt lat="48.83335" lon="2.3361">
        <ele>110.3</ele>
        <time>2015-02-16T20:40:09.581Z</time>
      </trkpt>
      <trkpt lat="48.83335" lon="2.3361">
        <ele>110.4</ele>
        <time>2015-02-16T20:40:10.958Z</time>
      </trkpt>
      <trkpt lat="48.83335" lon="2.33609">
        <ele>110.5</ele>
        <time>2015-02-16T20:40:11.668Z</time>
      </trkpt>
      <trkpt lat="48.83334" lon="2.33608">
        <ele>110.7</ele>
        <time>2015-02-16T20:40:39.611Z</time>
      </trkpt>
      <trkpt lat="48.83332" lon="2.33605">
        <ele>111.9</ele>
        <time>2015-02-16T20:40:40.623Z</time>
      </trkpt>
      <trkpt lat="48.83334" lon="2.33594">
        <ele>111.4</ele>
        <time>2015-02-16T20:40:47.621Z</time>
      </trkpt>
      <trkpt lat="48.83334" lon="2.33591">
        <ele>111.4</ele>
        <time>2015-02-16T20:40:48.649Z</time>
      </trkpt>
      <trkpt lat="48.83338" lon="2.33579">
        <ele>111.5</ele>
        <time>2015-02-16T20:40:52.775Z</time>
      </trkpt>
      <trkpt lat="48.8334" lon="2.33576">
        <ele>111.4</ele>
        <time>2015-02-16T20:40:53.640Z</time>
      </trkpt>
      <trkpt lat="48.83343" lon="2.33564">
        <ele>110.9</ele>
        <time>2015-02-16T20:40:56.729Z</time>
      </trkpt>
      <trkpt lat="48.83344" lon="2.33559">
        <ele>110.8</ele>
        <time>2015-02-16T20:40:57.614Z</time>
      </trkpt>
      <trkpt lat="48.83348" lon="2.33551">
        <ele>110.5</ele>
        <time>2015-02-16T20:40:59.629Z</time>
      </trkpt>
      <trkpt lat="48.83349" lon="2.33547">
        <ele>110.2</ele>
        <time>2015-02-16T20:41:00.640Z</time>
      </trkpt>
      <trkpt lat="48.83354" lon="2.33539">
        <ele>109.3</ele>
        <time>2015-02-16T20:41:02.664Z</time>
      </trkpt>
      <trkpt lat="48.83356" lon="2.33534">
        <ele>109</ele>
        <time>2015-02-16T20:41:03.678Z</time>
      </trkpt>
      <trkpt lat="48.83358" lon="2.33523">
        <ele>108.8</ele>
        <time>2015-02-16T20:41:06.255Z</time>
      </trkpt>
      <trkpt lat="48.83359" lon="2.33518">
        <ele>108.8</ele>
        <time>2015-02-16T20:41:06.657Z</time>
      </trkpt>
      <trkpt lat="48.83361" lon="2.33507">
        <ele>109</ele>
        <time>2015-02-16T20:41:08.657Z</time>
      </trkpt>
      <trkpt lat="48.83363" lon="2.33501">
        <ele>109.2</ele>
        <time>2015-02-16T20:41:09.660Z</time>
      </trkpt>
      <trkpt lat="48.83365" lon="2.33489">
        <ele>109.2</ele>
        <time>2015-02-16T20:41:11.330Z</time>
      </trkpt>
      <trkpt lat="48.83367" lon="2.33483">
        <ele>109.2</ele>
        <time>2015-02-16T20:41:12.657Z</time>
      </trkpt>
      <trkpt lat="48.83369" lon="2.33477">
        <ele>109.2</ele>
        <time>2015-02-16T20:41:13.674Z</time>
      </trkpt>
      <trkpt lat="48.83371" lon="2.3347">
        <ele>109.2</ele>
        <time>2015-02-16T20:41:14.680Z</time>
      </trkpt>
      <trkpt lat="48.83373" lon="2.33459">
        <ele>109.3</ele>
        <time>2015-02-16T20:41:16.698Z</time>
      </trkpt>
      <trkpt lat="48.83375" lon="2.33453">
        <ele>109.3</ele>
        <time>2015-02-16T20:41:17.701Z</time>
      </trkpt>
      <trkpt lat="48.83378" lon="2.33441">
        <ele>109.8</ele>
        <time>2015-02-16T20:41:19.707Z</time>
      </trkpt>
      <trkpt lat="48.8338" lon="2.33435">
        <ele>109.9</ele>
        <time>2015-02-16T20:41:20.650Z</time>
      </trkpt>
      <trkpt lat="48.83383" lon="2.33423">
        <ele>110.4</ele>
        <time>2015-02-16T20:41:22.611Z</time>
      </trkpt>
      <trkpt lat="48.83385" lon="2.33418">
        <ele>110.7</ele>
        <time>2015-02-16T20:41:23.611Z</time>
      </trkpt>
      <trkpt lat="48.83389" lon="2.33408">
        <ele>110.6</ele>
        <time>2015-02-16T20:41:25.634Z</time>
      </trkpt>
      <trkpt lat="48.83391" lon="2.33403">
        <ele>110.5</ele>
        <time>2015-02-16T20:41:26.659Z</time>
      </trkpt>
      <trkpt lat="48.83396" lon="2.33392">
        <ele>110.2</ele>
        <time>2015-02-16T20:41:30.618Z</time>
      </trkpt>
      <trkpt lat="48.83398" lon="2.33389">
        <ele>110.5</ele>
        <time>2015-02-16T20:41:30.666Z</time>
      </trkpt>
      <trkpt lat="48.83401" lon="2.33381">
        <ele>111.4</ele>
        <time>2015-02-16T20:41:32.666Z</time>
      </trkpt>
      <trkpt lat="48.83403" lon="2.33377">
        <ele>111.7</ele>
        <time>2015-02-16T20:41:33.584Z</time>
      </trkpt>
      <trkpt lat="48.83407" lon="2.33367">
        <ele>111.7</ele>
        <time>2015-02-16T20:41:36.612Z</time>
      </trkpt>
      <trkpt lat="48.83409" lon="2.33365">
        <ele>111.8</ele>
        <time>2015-02-16T20:41:37.614Z</time>
      </trkpt>
      <trkpt lat="48.83412" lon="2.33354">
        <ele>112</ele>
        <time>2015-02-16T20:41:41.666Z</time>
      </trkpt>
      <trkpt lat="48.83414" lon="2.33352">
        <ele>111.9</ele>
        <time>2015-02-16T20:41:42.706Z</time>
      </trkpt>
      <trkpt lat="48.83417" lon="2.3334">
        <ele>111.8</ele>
        <time>2015-02-16T20:41:46.770Z</time>
      </trkpt>
      <trkpt lat="48.83418" lon="2.33337">
        <ele>111.7</ele>
        <time>2015-02-16T20:41:47.570Z</time>
      </trkpt>
      <trkpt lat="48.83422" lon="2.33328">
        <ele>111.7</ele>
        <time>2015-02-16T20:41:50.960Z</time>
      </trkpt>
      <trkpt lat="48.83424" lon="2.33325">
        <ele>111.5</ele>
        <time>2015-02-16T20:41:51.596Z</time>
      </trkpt>
      <trkpt lat="48.83429" lon="2.33315">
        <ele>111.1</ele>
        <time>2015-02-16T20:41:54.594Z</time>
      </trkpt>
      <trkpt lat="48.8343" lon="2.33312">
        <ele>110.9</ele>
        <time>2015-02-16T20:41:55.666Z</time>
      </trkpt>
      <trkpt lat="48.83434" lon="2.33301">
        <ele>110.9</ele>
        <time>2015-02-16T20:41:59.699Z</time>
      </trkpt>
      <trkpt lat="48.83435" lon="2.33298">
        <ele>110.9</ele>
        <time>2015-02-16T20:42:00.617Z</time>
      </trkpt>
      <trkpt lat="48.83439" lon="2.33289">
        <ele>111</ele>
        <time>2015-02-16T20:42:03.767Z</time>
      </trkpt>
      <trkpt lat="48.8344" lon="2.33286">
        <ele>110.9</ele>
        <time>2015-02-16T20:42:04.612Z</time>
      </trkpt>
      <trkpt lat="48.83443" lon="2.33276">
        <ele>110.6</ele>
        <time>2015-02-16T20:42:07.611Z</time>
      </trkpt>
      <trkpt lat="48.83443" lon="2.33272">
        <ele>110.5</ele>
        <time>2015-02-16T20:42:08.614Z</time>
      </trkpt>
      <trkpt lat="48.83445" lon="2.33259">
        <ele>110.3</ele>
        <time>2015-02-16T20:42:12.703Z</time>
      </trkpt>
      <trkpt lat="48.83446" lon="2.33256">
        <ele>109.8</ele>
        <time>2015-02-16T20:42:13.722Z</time>
      </trkpt>
      <trkpt lat="48.83445" lon="2.33243">
        <ele>109.6</ele>
        <time>2015-02-16T20:42:17.666Z</time>
      </trkpt>
      <trkpt lat="48.83444" lon="2.3324">
        <ele>109.5</ele>
        <time>2015-02-16T20:42:18.696Z</time>
      </trkpt>
      <trkpt lat="48.83439" lon="2.3323">
        <ele>108.6</ele>
        <time>2015-02-16T20:42:22.606Z</time>
      </trkpt>
      <trkpt lat="48.83437" lon="2.33227">
        <ele>108.6</ele>
        <time>2015-02-16T20:42:23.616Z</time>
      </trkpt>
      <trkpt lat="48.83429" lon="2.33221">
        <ele>107.7</ele>
        <time>2015-02-16T20:42:27.613Z</time>
      </trkpt>
      <trkpt lat="48.83427" lon="2.33221">
        <ele>107.5</ele>
        <time>2015-02-16T20:42:28.609Z</time>
      </trkpt>
      <trkpt lat="48.83419" lon="2.33217">
        <ele>106.9</ele>
        <time>2015-02-16T20:42:32.602Z</time>
      </trkpt>
      <trkpt lat="48.83417" lon="2.33214">
        <ele>107.1</ele>
        <time>2015-02-16T20:42:33.644Z</time>
      </trkpt>
      <trkpt lat="48.83411" lon="2.33208">
        <ele>107.3</ele>
        <time>2015-02-16T20:42:36.705Z</time>
      </trkpt>
      <trkpt lat="48.83408" lon="2.33206">
        <ele>107.4</ele>
        <time>2015-02-16T20:42:37.636Z</time>
      </trkpt>
      <trkpt lat="48.83401" lon="2.33199">
        <ele>107.9</ele>
        <time>2015-02-16T20:42:40.614Z</time>
      </trkpt>
      <trkpt lat="48.83399" lon="2.33198">
        <ele>108.1</ele>
        <time>2015-02-16T20:42:41.640Z</time>
      </trkpt>
      <trkpt lat="48.83393" lon="2.33193">
        <ele>108.4</ele>
        <time>2015-02-16T20:42:44.628Z</time>
      </trkpt>
      <trkpt lat="48.83391" lon="2.33191">
        <ele>108.4</ele>
        <time>2015-02-16T20:42:45.635Z</time>
      </trkpt>
      <trkpt lat="48.83382" lon="2.33188">
        <ele>108.4</ele>
        <time>2015-02-16T20:42:51.690Z</time>
      </trkpt>
      <trkpt lat="48.83381" lon="2.33187">
        <ele>108.6</ele>
        <time>2015-02-16T20:42:52.693Z</time>
      </trkpt>
      <trkpt lat="48.83381" lon="2.33187">
        <ele>108.6</ele>
        <time>2015-02-16T20:42:52.867Z</time>
      </trkpt>
      <trkpt lat="48.8338" lon="2.33187">
        <ele>109.2</ele>
        <time>2015-02-16T20:42:53.712Z</time>
      </trkpt>
      <trkpt lat="48.8338" lon="2.33187">
        <ele>109.3</ele>
        <time>2015-02-16T20:43:03.672Z</time>
      </trkpt>
      <trkpt lat="48.83379" lon="2.33187">
        <ele>109.5</ele>
        <time>2015-02-16T20:43:04.804Z</time>
      </trkpt>
      <trkpt lat="48.83372" lon="2.33181">
        <ele>109.9</ele>
        <time>2015-02-16T20:43:09.656Z</time>
      </trkpt>
      <trkpt lat="48.83371" lon="2.3318">
        <ele>109.9</ele>
        <time>2015-02-16T20:43:10.612Z</time>
      </trkpt>
      <trkpt lat="48.83364" lon="2.33175">
        <ele>110.5</ele>
        <time>2015-02-16T20:43:13.685Z</time>
      </trkpt>
      <trkpt lat="48.83361" lon="2.33173">
        <ele>110.9</ele>
        <time>2015-02-16T20:43:14.607Z</time>
      </trkpt>
      <trkpt lat="48.83353" lon="2.33171">
        <ele>112.2</ele>
        <time>2015-02-16T20:43:18.198Z</time>
      </trkpt>
      <trkpt lat="48.83351" lon="2.3317">
        <ele>112.5</ele>
        <time>2015-02-16T20:43:18.668Z</time>
      </trkpt>
      <trkpt lat="48.83343" lon="2.33165">
        <ele>113</ele>
        <time>2015-02-16T20:43:21.631Z</time>
      </trkpt>
      <trkpt lat="48.83341" lon="2.33162">
        <ele>113.2</ele>
        <time>2015-02-16T20:43:22.634Z</time>
      </trkpt>
      <trkpt lat="48.83334" lon="2.33156">
        <ele>113.5</ele>
        <time>2015-02-16T20:43:25.711Z</time>
      </trkpt>
      <trkpt lat="48.83331" lon="2.33153">
        <ele>113.7</ele>
        <time>2015-02-16T20:43:26.638Z</time>
      </trkpt>
      <trkpt lat="48.83324" lon="2.33148">
        <ele>114</ele>
        <time>2015-02-16T20:43:30.640Z</time>
      </trkpt>
      <trkpt lat="48.83321" lon="2.33144">
        <ele>114.1</ele>
        <time>2015-02-16T20:43:30.688Z</time>
      </trkpt>
      <trkpt lat="48.83316" lon="2.33138">
        <ele>114.3</ele>
        <time>2015-02-16T20:43:32.636Z</time>
      </trkpt>
      <trkpt lat="48.83314" lon="2.33135">
        <ele>114.4</ele>
        <time>2015-02-16T20:43:33.669Z</time>
      </trkpt>
      <trkpt lat="48.83308" lon="2.33128">
        <ele>114.4</ele>
        <time>2015-02-16T20:43:35.674Z</time>
      </trkpt>
      <trkpt lat="48.83305" lon="2.33125">
        <ele>114.5</ele>
        <time>2015-02-16T20:43:36.656Z</time>
      </trkpt>
      <trkpt lat="48.83298" lon="2.33119">
        <ele>114.4</ele>
        <time>2015-02-16T20:43:38.700Z</time>
      </trkpt>
      <trkpt lat="48.83295" lon="2.33116">
        <ele>114.3</ele>
        <time>2015-02-16T20:43:39.714Z</time>
      </trkpt>
      <trkpt lat="48.83289" lon="2.33111">
        <ele>114.2</ele>
        <time>2015-02-16T20:43:41.615Z</time>
      </trkpt>
      <trkpt lat="48.83286" lon="2.33108">
        <ele>114.3</ele>
        <time>2015-02-16T20:43:42.748Z</time>
      </trkpt>
      <trkpt lat="48.83279" lon="2.33103">
        <ele>114.3</ele>
        <time>2015-02-16T20:43:44.625Z</time>
      </trkpt>
      <trkpt lat="48.83276" lon="2.33102">
        <ele>114.3</ele>
        <time>2015-02-16T20:43:45.640Z</time>
      </trkpt>
      <trkpt lat="48.83269" lon="2.33097">
        <ele>114.5</ele>
        <time>2015-02-16T20:43:47.683Z</time>
      </trkpt>
      <trkpt lat="48.83266" lon="2.33094">
        <ele>114.6</ele>
        <time>2015-02-16T20:43:48.651Z</time>
      </trkpt>
      <trkpt lat="48.83261" lon="2.33089">
        <ele>114.6</ele>
        <time>2015-02-16T20:43:50.882Z</time>
      </trkpt>
      <trkpt lat="48.83258" lon="2.33085">
        <ele>114.5</ele>
        <time>2015-02-16T20:43:51.704Z</time>
      </trkpt>
      <trkpt lat="48.83252" lon="2.3308">
        <ele>114.3</ele>
        <time>2015-02-16T20:43:53.640Z</time>
      </trkpt>
      <trkpt lat="48.83249" lon="2.33077">
        <ele>114.3</ele>
        <time>2015-02-16T20:43:54.647Z</time>
      </trkpt>
      <trkpt lat="48.83244" lon="2.33073">
        <ele>114.1</ele>
        <time>2015-02-16T20:43:56.656Z</time>
      </trkpt>
      <trkpt lat="48.83241" lon="2.3307">
        <ele>114</ele>
        <time>2015-02-16T20:43:57.658Z</time>
      </trkpt>
      <trkpt lat="48.83233" lon="2.33063">
        <ele>115.3</ele>
        <time>2015-02-16T20:44:00.958Z</time>
      </trkpt>
      <trkpt lat="48.83233" lon="2.33062">
        <ele>115.6</ele>
        <time>2015-02-16T20:44:01.650Z</time>
      </trkpt>
      <trkpt lat="48.83236" lon="2.33051">
        <ele>115.2</ele>
        <time>2015-02-16T20:44:06.643Z</time>
      </trkpt>
      <trkpt lat="48.83237" lon="2.33048">
        <ele>115</ele>
        <time>2015-02-16T20:44:07.657Z</time>
      </trkpt>
      <trkpt lat="48.8324" lon="2.33039">
        <ele>114.4</ele>
        <time>2015-02-16T20:44:10.594Z</time>
      </trkpt>
      <trkpt lat="48.83241" lon="2.33036">
        <ele>114.5</ele>
        <time>2015-02-16T20:44:11.590Z</time>
      </trkpt>
      <trkpt lat="48.83243" lon="2.33025">
        <ele>114.6</ele>
        <time>2015-02-16T20:44:14.717Z</time>
      </trkpt>
      <trkpt lat="48.83243" lon="2.33022">
        <ele>114.6</ele>
        <time>2015-02-16T20:44:15.596Z</time>
      </trkpt>
      <trkpt lat="48.83243" lon="2.33008">
        <ele>114</ele>
        <time>2015-02-16T20:44:21.364Z</time>
      </trkpt>
      <trkpt lat="48.83242" lon="2.33007">
        <ele>113.8</ele>
        <time>2015-02-16T20:44:21.587Z</time>
      </trkpt>
      <trkpt lat="48.83247" lon="2.32997">
        <ele>112.8</ele>
        <time>2015-02-16T20:44:26.483Z</time>
      </trkpt>
      <trkpt lat="48.83248" lon="2.32995">
        <ele>112.6</ele>
        <time>2015-02-16T20:44:26.628Z</time>
      </trkpt>
      <trkpt lat="48.83251" lon="2.32987">
        <ele>111.8</ele>
        <time>2015-02-16T20:44:28.598Z</time>
      </trkpt>
      <trkpt lat="48.83252" lon="2.32982">
        <ele>111.5</ele>
        <time>2015-02-16T20:44:29.601Z</time>
      </trkpt>
      <trkpt lat="48.83252" lon="2.32971">
        <ele>111.1</ele>
        <time>2015-02-16T20:44:32.653Z</time>
      </trkpt>
      <trkpt lat="48.83251" lon="2.32967">
        <ele>110.7</ele>
        <time>2015-02-16T20:44:33.592Z</time>
      </trkpt>
      <trkpt lat="48.83254" lon="2.32954">
        <ele>110</ele>
        <time>2015-02-16T20:44:36.676Z</time>
      </trkpt>
      <trkpt lat="48.83255" lon="2.3295">
        <ele>109.8</ele>
        <time>2015-02-16T20:44:37.702Z</time>
      </trkpt>
      <trkpt lat="48.83257" lon="2.32941">
        <ele>109.2</ele>
        <time>2015-02-16T20:44:39.653Z</time>
      </trkpt>
      <trkpt lat="48.83258" lon="2.32936">
        <ele>108.9</ele>
        <time>2015-02-16T20:44:40.670Z</time>
      </trkpt>
      <trkpt lat="48.83261" lon="2.32928">
        <ele>108.3</ele>
        <time>2015-02-16T20:44:42.647Z</time>
      </trkpt>
      <trkpt lat="48.83262" lon="2.32923">
        <ele>107.9</ele>
        <time>2015-02-16T20:44:43.685Z</time>
      </trkpt>
      <trkpt lat="48.83265" lon="2.32916">
        <ele>106.9</ele>
        <time>2015-02-16T20:44:44.591Z</time>
      </trkpt>
      <trkpt lat="48.83267" lon="2.32911">
        <ele>106.3</ele>
        <time>2015-02-16T20:44:45.595Z</time>
      </trkpt>
      <trkpt lat="48.8327" lon="2.32905">
        <ele>105.7</ele>
        <time>2015-02-16T20:44:46.606Z</time>
      </trkpt>
      <trkpt lat="48.83274" lon="2.32899">
        <ele>104.7</ele>
        <time>2015-02-16T20:44:47.611Z</time>
      </trkpt>
      <trkpt lat="48.83278" lon="2.32893">
        <ele>103.8</ele>
        <time>2015-02-16T20:44:48.615Z</time>
      </trkpt>
      <trkpt lat="48.83284" lon="2.32886">
        <ele>103.2</ele>
        <time>2015-02-16T20:44:49.620Z</time>
      </trkpt>
      <trkpt lat="48.83289" lon="2.32876">
        <ele>102.9</ele>
        <time>2015-02-16T20:44:51.647Z</time>
      </trkpt>
      <trkpt lat="48.83288" lon="2.32869">
        <ele>102.7</ele>
        <time>2015-02-16T20:44:52.582Z</time>
      </trkpt>
      <trkpt lat="48.83287" lon="2.32856">
        <ele>102.8</ele>
        <time>2015-02-16T20:44:54.595Z</time>
      </trkpt>
      <trkpt lat="48.83287" lon="2.32849">
        <ele>103.2</ele>
        <time>2015-02-16T20:44:55.621Z</time>
      </trkpt>
      <trkpt lat="48.83288" lon="2.32837">
        <ele>103.5</ele>
        <time>2015-02-16T20:44:57.671Z</time>
      </trkpt>
      <trkpt lat="48.8329" lon="2.3283">
        <ele>103.9</ele>
        <time>2015-02-16T20:44:58.700Z</time>
      </trkpt>
      <trkpt lat="48.83292" lon="2.32823">
        <ele>104.1</ele>
        <time>2015-02-16T20:44:59.670Z</time>
      </trkpt>
      <trkpt lat="48.83294" lon="2.32817">
        <ele>104.4</ele>
        <time>2015-02-16T20:45:00.611Z</time>
      </trkpt>
      <trkpt lat="48.83297" lon="2.32807">
        <ele>104.9</ele>
        <time>2015-02-16T20:45:02.593Z</time>
      </trkpt>
      <trkpt lat="48.83298" lon="2.32803">
        <ele>105.1</ele>
        <time>2015-02-16T20:45:03.601Z</time>
      </trkpt>
      <trkpt lat="48.833" lon="2.32793">
        <ele>105.5</ele>
        <time>2015-02-16T20:45:06.161Z</time>
      </trkpt>
      <trkpt lat="48.833" lon="2.32785">
        <ele>106.8</ele>
        <time>2015-02-16T20:45:06.654Z</time>
      </trkpt>
      <trkpt lat="48.833" lon="2.32772">
        <ele>109.6</ele>
        <time>2015-02-16T20:45:08.681Z</time>
      </trkpt>
      <trkpt lat="48.83302" lon="2.32766">
        <ele>110.9</ele>
        <time>2015-02-16T20:45:09.719Z</time>
      </trkpt>
      <trkpt lat="48.83306" lon="2.32754">
        <ele>113.8</ele>
        <time>2015-02-16T20:45:11.642Z</time>
      </trkpt>
      <trkpt lat="48.83307" lon="2.32752">
        <ele>114.1</ele>
        <time>2015-02-16T20:45:12.661Z</time>
      </trkpt>
      <trkpt lat="48.83311" lon="2.3274">
        <ele>113.8</ele>
        <time>2015-02-16T20:45:18.635Z</time>
      </trkpt>
      <trkpt lat="48.83312" lon="2.32738">
        <ele>113.7</ele>
        <time>2015-02-16T20:45:19.644Z</time>
      </trkpt>
      <trkpt lat="48.83315" lon="2.32728">
        <ele>114</ele>
        <time>2015-02-16T20:45:25.616Z</time>
      </trkpt>
      <trkpt lat="48.83316" lon="2.32726">
        <ele>114</ele>
        <time>2015-02-16T20:45:26.623Z</time>
      </trkpt>
      <trkpt lat="48.83315" lon="2.32715">
        <ele>114.9</ele>
        <time>2015-02-16T20:45:31.650Z</time>
      </trkpt>
      <trkpt lat="48.83315" lon="2.32712">
        <ele>115</ele>
        <time>2015-02-16T20:45:32.664Z</time>
      </trkpt>
      <trkpt lat="48.8332" lon="2.32707">
        <ele>117.3</ele>
        <time>2015-02-16T20:45:53.655Z</time>
      </trkpt>
      <trkpt lat="48.83321" lon="2.32707">
        <ele>117.4</ele>
        <time>2015-02-16T20:45:54.669Z</time>
      </trkpt>
      <trkpt lat="48.83321" lon="2.32708">
        <ele>117.6</ele>
        <time>2015-02-16T20:45:55.685Z</time>
      </trkpt>
      <trkpt lat="48.83325" lon="2.32708">
        <ele>117.8</ele>
        <time>2015-02-16T20:45:59.668Z</time>
      </trkpt>
      <trkpt lat="48.83325" lon="2.32708">
        <ele>117.9</ele>
        <time>2015-02-16T20:46:00.675Z</time>
      </trkpt>
      <trkpt lat="48.83325" lon="2.32708">
        <ele>118.2</ele>
        <time>2015-02-16T20:46:01.691Z</time>
      </trkpt>
      <trkpt lat="48.83325" lon="2.32709">
        <ele>118.5</ele>
        <time>2015-02-16T20:46:02.622Z</time>
      </trkpt>
      <trkpt lat="48.83326" lon="2.32708">
        <ele>120.1</ele>
        <time>2015-02-16T20:46:17.595Z</time>
      </trkpt>
      <trkpt lat="48.83326" lon="2.32708">
        <ele>120.4</ele>
        <time>2015-02-16T20:46:18.610Z</time>
      </trkpt>
      <trkpt lat="48.83326" lon="2.32708">
        <ele>120.6</ele>
        <time>2015-02-16T20:46:19.627Z</time>
      </trkpt>
      <trkpt lat="48.83326" lon="2.32707">
        <ele>120.7</ele>
        <time>2015-02-16T20:46:21.487Z</time>
      </trkpt>
      <trkpt lat="48.83326" lon="2.32707">
        <ele>120.7</ele>
        <time>2015-02-16T20:46:21.645Z</time>
      </trkpt>
      <trkpt lat="48.83326" lon="2.32707">
        <ele>120.8</ele>
        <time>2015-02-16T20:46:22.656Z</time>
      </trkpt>
      <trkpt lat="48.83328" lon="2.32717">
        <ele>124.9</ele>
        <time>2015-02-16T20:46:53.664Z</time>
      </trkpt>
      <trkpt lat="48.83328" lon="2.32716">
        <ele>125.1</ele>
        <time>2015-02-16T20:46:54.700Z</time>
      </trkpt>
      <trkpt lat="48.83328" lon="2.32715">
        <ele>125.3</ele>
        <time>2015-02-16T20:46:55.723Z</time>
      </trkpt>
      <trkpt lat="48.83326" lon="2.32707">
        <ele>126.2</ele>
        <time>2015-02-16T20:47:06.641Z</time>
      </trkpt>
      <trkpt lat="48.83326" lon="2.32707">
        <ele>126.3</ele>
        <time>2015-02-16T20:47:07.638Z</time>
      </trkpt>
      <trkpt lat="48.83326" lon="2.32706">
        <ele>126.4</ele>
        <time>2015-02-16T20:47:11.618Z</time>
      </trkpt>
      <trkpt lat="48.83326" lon="2.32704">
        <ele>125.6</ele>
        <time>2015-02-16T20:47:12.643Z</time>
      </trkpt>
      <trkpt lat="48.83329" lon="2.32693">
        <ele>123.2</ele>
        <time>2015-02-16T20:47:16.108Z</time>
      </trkpt>
      <trkpt lat="48.8333" lon="2.3269">
        <ele>122.8</ele>
        <time>2015-02-16T20:47:16.704Z</time>
      </trkpt>
      <trkpt lat="48.83334" lon="2.32681">
        <ele>120.9</ele>
        <time>2015-02-16T20:47:21.313Z</time>
      </trkpt>
      <trkpt lat="48.83334" lon="2.32678">
        <ele>120.5</ele>
        <time>2015-02-16T20:47:21.640Z</time>
      </trkpt>
      <trkpt lat="48.83335" lon="2.32666">
        <ele>119.2</ele>
        <time>2015-02-16T20:47:27.608Z</time>
      </trkpt>
      <trkpt lat="48.83334" lon="2.32666">
        <ele>119.2</ele>
        <time>2015-02-16T20:47:28.638Z</time>
      </trkpt>
      <trkpt lat="48.83334" lon="2.32666">
        <ele>119.2</ele>
        <time>2015-02-16T20:47:42.650Z</time>
      </trkpt>
      <trkpt lat="48.83336" lon="2.32658">
        <ele>119.2</ele>
        <time>2015-02-16T20:47:43.670Z</time>
      </trkpt>
      <trkpt lat="48.83339" lon="2.32648">
        <ele>119.6</ele>
        <time>2015-02-16T20:47:49.577Z</time>
      </trkpt>
      <trkpt lat="48.8334" lon="2.32645">
        <ele>119.5</ele>
        <time>2015-02-16T20:47:50.595Z</time>
      </trkpt>
      <trkpt lat="48.83344" lon="2.32635">
        <ele>119.7</ele>
        <time>2015-02-16T20:47:56.404Z</time>
      </trkpt>
      <trkpt lat="48.83345" lon="2.32632">
        <ele>119.7</ele>
        <time>2015-02-16T20:47:56.577Z</time>
      </trkpt>
      <trkpt lat="48.8335" lon="2.32624">
        <ele>119.8</ele>
        <time>2015-02-16T20:48:01.490Z</time>
      </trkpt>
      <trkpt lat="48.83351" lon="2.32621">
        <ele>119.7</ele>
        <time>2015-02-16T20:48:01.678Z</time>
      </trkpt>
      <trkpt lat="48.83357" lon="2.32611">
        <ele>119.8</ele>
        <time>2015-02-16T20:48:06.585Z</time>
      </trkpt>
      <trkpt lat="48.83359" lon="2.32609">
        <ele>120</ele>
        <time>2015-02-16T20:48:06.666Z</time>
      </trkpt>
      <trkpt lat="48.83361" lon="2.32596">
        <ele>122.3</ele>
        <time>2015-02-16T20:48:09.701Z</time>
      </trkpt>
      <trkpt lat="48.83361" lon="2.32593">
        <ele>122.6</ele>
        <time>2015-02-16T20:48:10.609Z</time>
      </trkpt>
      <trkpt lat="48.83366" lon="2.32584">
        <ele>122.9</ele>
        <time>2015-02-16T20:48:13.646Z</time>
      </trkpt>
      <trkpt lat="48.83367" lon="2.32581">
        <ele>122.9</ele>
        <time>2015-02-16T20:48:14.667Z</time>
      </trkpt>
      <trkpt lat="48.83373" lon="2.32571">
        <ele>122.6</ele>
        <time>2015-02-16T20:48:17.599Z</time>
      </trkpt>
      <trkpt lat="48.83375" lon="2.32568">
        <ele>122.5</ele>
        <time>2015-02-16T20:48:18.598Z</time>
      </trkpt>
      <trkpt lat="48.83381" lon="2.32561">
        <ele>122.3</ele>
        <time>2015-02-16T20:48:20.624Z</time>
      </trkpt>
      <trkpt lat="48.83383" lon="2.32558">
        <ele>122.1</ele>
        <time>2015-02-16T20:48:21.628Z</time>
      </trkpt>
      <trkpt lat="48.83387" lon="2.32548">
        <ele>121.2</ele>
        <time>2015-02-16T20:48:24.652Z</time>
      </trkpt>
      <trkpt lat="48.83388" lon="2.32545">
        <ele>121</ele>
        <time>2015-02-16T20:48:25.654Z</time>
      </trkpt>
      <trkpt lat="48.83392" lon="2.32538">
        <ele>120.7</ele>
        <time>2015-02-16T20:48:27.572Z</time>
      </trkpt>
      <trkpt lat="48.83394" lon="2.32534">
        <ele>120.5</ele>
        <time>2015-02-16T20:48:28.581Z</time>
      </trkpt>
      <trkpt lat="48.83397" lon="2.32523">
        <ele>120.2</ele>
        <time>2015-02-16T20:48:31.614Z</time>
      </trkpt>
      <trkpt lat="48.83398" lon="2.3252">
        <ele>120.2</ele>
        <time>2015-02-16T20:48:32.664Z</time>
      </trkpt>
      <trkpt lat="48.83402" lon="2.32511">
        <ele>121.3</ele>
        <time>2015-02-16T20:48:35.587Z</time>
      </trkpt>
      <trkpt lat="48.83404" lon="2.32507">
        <ele>121.7</ele>
        <time>2015-02-16T20:48:35.620Z</time>
      </trkpt>
      <trkpt lat="48.83405" lon="2.32498">
        <ele>121.9</ele>
        <time>2015-02-16T20:48:37.654Z</time>
      </trkpt>
      <trkpt lat="48.83403" lon="2.32493">
        <ele>121.6</ele>
        <time>2015-02-16T20:48:38.675Z</time>
      </trkpt>
      <trkpt lat="48.83405" lon="2.3248">
        <ele>121.6</ele>
        <time>2015-02-16T20:48:41.627Z</time>
      </trkpt>
      <trkpt lat="48.83406" lon="2.32477">
        <ele>121.5</ele>
        <time>2015-02-16T20:48:42.688Z</time>
      </trkpt>
      <trkpt lat="48.8341" lon="2.32469">
        <ele>121.2</ele>
        <time>2015-02-16T20:48:45.714Z</time>
      </trkpt>
      <trkpt lat="48.83413" lon="2.32467">
        <ele>121.2</ele>
        <time>2015-02-16T20:48:45.830Z</time>
      </trkpt>
      <trkpt lat="48.83418" lon="2.32461">
        <ele>121.3</ele>
        <time>2015-02-16T20:48:47.636Z</time>
      </trkpt>
      <trkpt lat="48.8342" lon="2.32458">
        <ele>121.5</ele>
        <time>2015-02-16T20:48:48.762Z</time>
      </trkpt>
      <trkpt lat="48.83425" lon="2.32448">
        <ele>123.7</ele>
        <time>2015-02-16T20:48:51.647Z</time>
      </trkpt>
      <trkpt lat="48.83427" lon="2.32445">
        <ele>124</ele>
        <time>2015-02-16T20:48:52.667Z</time>
      </trkpt>
      <trkpt lat="48.83433" lon="2.32438">
        <ele>125.2</ele>
        <time>2015-02-16T20:48:56.635Z</time>
      </trkpt>
      <trkpt lat="48.83435" lon="2.32435">
        <ele>125</ele>
        <time>2015-02-16T20:48:57.679Z</time>
      </trkpt>
      <trkpt lat="48.83439" lon="2.32426">
        <ele>127.4</ele>
        <time>2015-02-16T20:49:00.993Z</time>
      </trkpt>
      <trkpt lat="48.83441" lon="2.32423">
        <ele>127.7</ele>
        <time>2015-02-16T20:49:01.650Z</time>
      </trkpt>
      <trkpt lat="48.83447" lon="2.32415">
        <ele>128.6</ele>
        <time>2015-02-16T20:49:06.080Z</time>
      </trkpt>
      <trkpt lat="48.83447" lon="2.32414">
        <ele>127.8</ele>
        <time>2015-02-16T20:49:06.614Z</time>
      </trkpt>
      <trkpt lat="48.83447" lon="2.32408">
        <ele>127.9</ele>
        <time>2015-02-16T20:49:11.619Z</time>
      </trkpt>
      <trkpt lat="48.83448" lon="2.32408">
        <ele>127.8</ele>
        <time>2015-02-16T20:49:12.670Z</time>
      </trkpt>
      <trkpt lat="48.83448" lon="2.32408">
        <ele>127.7</ele>
        <time>2015-02-16T20:49:13.694Z</time>
      </trkpt>
      <trkpt lat="48.83447" lon="2.32409">
        <ele>127.7</ele>
        <time>2015-02-16T20:49:14.715Z</time>
      </trkpt>
      <trkpt lat="48.83447" lon="2.32409">
        <ele>127.8</ele>
        <time>2015-02-16T20:49:16.649Z</time>
      </trkpt>
      <trkpt lat="48.83447" lon="2.32409">
        <ele>127.6</ele>
        <time>2015-02-16T20:49:17.653Z</time>
      </trkpt>
      <trkpt lat="48.83447" lon="2.32407">
        <ele>127.3</ele>
        <time>2015-02-16T20:49:21.598Z</time>
      </trkpt>
      <trkpt lat="48.83446" lon="2.32407">
        <ele>127</ele>
        <time>2015-02-16T20:49:22.603Z</time>
      </trkpt>
      <trkpt lat="48.83446" lon="2.32407">
        <ele>126.8</ele>
        <time>2015-02-16T20:49:23.606Z</time>
      </trkpt>
      <trkpt lat="48.83446" lon="2.32407">
        <ele>126.7</ele>
        <time>2015-02-16T20:49:24.618Z</time>
      </trkpt>
      <trkpt lat="48.83451" lon="2.32397">
        <ele>123.7</ele>
        <time>2015-02-16T20:49:31.624Z</time>
      </trkpt>
      <trkpt lat="48.83451" lon="2.32395">
        <ele>123.1</ele>
        <time>2015-02-16T20:49:32.660Z</time>
      </trkpt>
      <trkpt lat="48.83451" lon="2.32382">
        <ele>120.9</ele>
        <time>2015-02-16T20:49:39.689Z</time>
      </trkpt>
      <trkpt lat="48.83451" lon="2.32381">
        <ele>120.8</ele>
        <time>2015-02-16T20:49:40.601Z</time>
      </trkpt>
      <trkpt lat="48.83456" lon="2.32371">
        <ele>119.7</ele>
        <time>2015-02-16T20:49:48.645Z</time>
      </trkpt>
      <trkpt lat="48.83457" lon="2.3237">
        <ele>119.7</ele>
        <time>2015-02-16T20:49:49.670Z</time>
      </trkpt>
      <trkpt lat="48.83463" lon="2.32362">
        <ele>118.1</ele>
        <time>2015-02-16T20:49:59.586Z</time>
      </trkpt>
      <trkpt lat="48.83464" lon="2.3236">
        <ele>117.9</ele>
        <time>2015-02-16T20:50:00.608Z</time>
      </trkpt>
      <trkpt lat="48.83466" lon="2.32348">
        <ele>118.1</ele>
        <time>2015-02-16T20:50:09.619Z</time>
      </trkpt>
      <trkpt lat="48.83467" lon="2.32347">
        <ele>118.1</ele>
        <time>2015-02-16T20:50:10.636Z</time>
      </trkpt>
      <trkpt lat="48.83467" lon="2.32347">
        <ele>118.1</ele>
        <time>2015-02-16T20:50:10.995Z</time>
      </trkpt>
      <trkpt lat="48.83467" lon="2.32347">
        <ele>118.2</ele>
        <time>2015-02-16T20:50:11.662Z</time>
      </trkpt>
      <trkpt lat="48.83468" lon="2.32346">
        <ele>118.1</ele>
        <time>2015-02-16T20:50:12.670Z</time>
      </trkpt>
      <trkpt lat="48.83468" lon="2.32344">
        <ele>117.8</ele>
        <time>2015-02-16T20:50:16.759Z</time>
      </trkpt>
      <trkpt lat="48.83468" lon="2.32343">
        <ele>117.6</ele>
        <time>2015-02-16T20:50:17.610Z</time>
      </trkpt>
      <trkpt lat="48.83469" lon="2.32342">
        <ele>117.5</ele>
        <time>2015-02-16T20:50:18.623Z</time>
      </trkpt>
      <trkpt lat="48.83475" lon="2.32333">
        <ele>116.7</ele>
        <time>2015-02-16T20:50:30.671Z</time>
      </trkpt>
      <trkpt lat="48.83475" lon="2.32333">
        <ele>116.7</ele>
        <time>2015-02-16T20:50:30.758Z</time>
      </trkpt>
      <trkpt lat="48.83475" lon="2.32332">
        <ele>116.7</ele>
        <time>2015-02-16T20:50:31.685Z</time>
      </trkpt>
      <trkpt lat="48.83475" lon="2.3233">
        <ele>117.1</ele>
        <time>2015-02-16T20:50:35.787Z</time>
      </trkpt>
      <trkpt lat="48.83475" lon="2.3233">
        <ele>117.3</ele>
        <time>2015-02-16T20:50:35.848Z</time>
      </trkpt>
      <trkpt lat="48.83475" lon="2.3233">
        <ele>117.5</ele>
        <time>2015-02-16T20:50:36.604Z</time>
      </trkpt>
      <trkpt lat="48.83474" lon="2.3233">
        <ele>117.6</ele>
        <time>2015-02-16T20:50:37.601Z</time>
      </trkpt>
      <trkpt lat="48.83478" lon="2.32331">
        <ele>118.2</ele>
        <time>2015-02-16T20:50:46.046Z</time>
      </trkpt>
      <trkpt lat="48.83478" lon="2.3233">
        <ele>118</ele>
        <time>2015-02-16T20:50:46.644Z</time>
      </trkpt>
      <trkpt lat="48.83478" lon="2.3233">
        <ele>117.8</ele>
        <time>2015-02-16T20:50:47.661Z</time>
      </trkpt>
      <trkpt lat="48.83481" lon="2.32317">
        <ele>117.3</ele>
        <time>2015-02-16T20:51:01.683Z</time>
      </trkpt>
      <trkpt lat="48.83482" lon="2.32317">
        <ele>117.3</ele>
        <time>2015-02-16T20:51:02.682Z</time>
      </trkpt>
      <trkpt lat="48.83491" lon="2.32319">
        <ele>116.4</ele>
        <time>2015-02-16T20:51:08.648Z</time>
      </trkpt>
      <trkpt lat="48.83492" lon="2.32319">
        <ele>116.1</ele>
        <time>2015-02-16T20:51:09.674Z</time>
      </trkpt>
      <trkpt lat="48.83496" lon="2.32308">
        <ele>115.2</ele>
        <time>2015-02-16T20:51:23.628Z</time>
      </trkpt>
      <trkpt lat="48.83497" lon="2.32307">
        <ele>115.1</ele>
        <time>2015-02-16T20:51:24.665Z</time>
      </trkpt>
      <trkpt lat="48.83502" lon="2.32296">
        <ele>115.3</ele>
        <time>2015-02-16T20:51:40.783Z</time>
      </trkpt>
      <trkpt lat="48.83502" lon="2.32295">
        <ele>115.4</ele>
        <time>2015-02-16T20:51:41.675Z</time>
      </trkpt>
      <trkpt lat="48.83503" lon="2.32283">
        <ele>115.2</ele>
        <time>2015-02-16T20:51:52.547Z</time>
      </trkpt>
      <trkpt lat="48.83504" lon="2.32281">
        <ele>115.2</ele>
        <time>2015-02-16T20:51:53.576Z</time>
      </trkpt>
      <trkpt lat="48.83505" lon="2.32268">
        <ele>113.6</ele>
        <time>2015-02-16T20:52:02.638Z</time>
      </trkpt>
      <trkpt lat="48.83506" lon="2.32268">
        <ele>113.6</ele>
        <time>2015-02-16T20:52:03.657Z</time>
      </trkpt>
      <trkpt lat="48.83504" lon="2.32264">
        <ele>113.5</ele>
        <time>2015-02-16T20:52:06.377Z</time>
      </trkpt>
      <trkpt lat="48.83503" lon="2.32263">
        <ele>113.5</ele>
        <time>2015-02-16T20:52:06.611Z</time>
      </trkpt>
      <trkpt lat="48.83503" lon="2.32262">
        <ele>113.4</ele>
        <time>2015-02-16T20:52:07.621Z</time>
      </trkpt>
      <trkpt lat="48.83502" lon="2.32256">
        <ele>114.5</ele>
        <time>2015-02-16T20:52:18.629Z</time>
      </trkpt>
      <trkpt lat="48.83503" lon="2.32255">
        <ele>114.6</ele>
        <time>2015-02-16T20:52:19.630Z</time>
      </trkpt>
      <trkpt lat="48.83502" lon="2.32254">
        <ele>114.9</ele>
        <time>2015-02-16T20:52:26.606Z</time>
      </trkpt>
      <trkpt lat="48.83503" lon="2.32249">
        <ele>116.3</ele>
        <time>2015-02-16T20:52:27.611Z</time>
      </trkpt>
      <trkpt lat="48.83503" lon="2.32249">
        <ele>116.1</ele>
        <time>2015-02-16T20:52:28.593Z</time>
      </trkpt>
      <trkpt lat="48.83504" lon="2.32249">
        <ele>116.2</ele>
        <time>2015-02-16T20:52:38.623Z</time>
      </trkpt>
      <trkpt lat="48.83506" lon="2.32247">
        <ele>117.4</ele>
        <time>2015-02-16T20:52:39.627Z</time>
      </trkpt>
      <trkpt lat="48.83507" lon="2.32246">
        <ele>117.5</ele>
        <time>2015-02-16T20:52:40.641Z</time>
      </trkpt>
      <trkpt lat="48.83508" lon="2.32246">
        <ele>117.1</ele>
        <time>2015-02-16T20:52:44.650Z</time>
      </trkpt>
      <trkpt lat="48.83508" lon="2.32246">
        <ele>116.9</ele>
        <time>2015-02-16T20:52:45.663Z</time>
      </trkpt>
      <trkpt lat="48.83508" lon="2.32246">
        <ele>116.9</ele>
        <time>2015-02-16T20:52:46.689Z</time>
      </trkpt>
      <trkpt lat="48.83508" lon="2.32247">
        <ele>117.2</ele>
        <time>2015-02-16T20:53:00.606Z</time>
      </trkpt>
      <trkpt lat="48.83507" lon="2.32246">
        <ele>116.7</ele>
        <time>2015-02-16T20:53:01.650Z</time>
      </trkpt>
      <trkpt lat="48.83509" lon="2.32242">
        <ele>116.6</ele>
        <time>2015-02-16T20:53:05.648Z</time>
      </trkpt>
      <trkpt lat="48.83509" lon="2.32242">
        <ele>116.6</ele>
        <time>2015-02-16T20:53:06.654Z</time>
      </trkpt>
      <trkpt lat="48.83509" lon="2.32242">
        <ele>116.5</ele>
        <time>2015-02-16T20:53:25.630Z</time>
      </trkpt>
      <trkpt lat="48.83509" lon="2.32246">
        <ele>118.5</ele>
        <time>2015-02-16T20:53:26.625Z</time>
      </trkpt>
      <trkpt lat="48.83508" lon="2.32247">
        <ele>119.1</ele>
        <time>2015-02-16T20:53:28.675Z</time>
      </trkpt>
      <trkpt lat="48.83509" lon="2.32248">
        <ele>119.7</ele>
        <time>2015-02-16T20:53:29.685Z</time>
      </trkpt>
      <trkpt lat="48.83509" lon="2.32248">
        <ele>120.2</ele>
        <time>2015-02-16T20:53:35.699Z</time>
      </trkpt>
      <trkpt lat="48.83509" lon="2.32248">
        <ele>120.2</ele>
        <time>2015-02-16T20:53:36.601Z</time>
      </trkpt>
      <trkpt lat="48.83506" lon="2.32251">
        <ele>121</ele>
        <time>2015-02-16T20:53:45.636Z</time>
      </trkpt>
      <trkpt lat="48.83506" lon="2.32251">
        <ele>121.1</ele>
        <time>2015-02-16T20:53:46.647Z</time>
      </trkpt>
      <trkpt lat="48.83506" lon="2.32251">
        <ele>121</ele>
        <time>2015-02-16T20:53:52.668Z</time>
      </trkpt>
      <trkpt lat="48.83506" lon="2.32252">
        <ele>121</ele>
        <time>2015-02-16T20:53:53.578Z</time>
      </trkpt>
      <trkpt lat="48.83504" lon="2.32254">
        <ele>121.1</ele>
        <time>2015-02-16T20:53:56.624Z</time>
      </trkpt>
      <trkpt lat="48.83504" lon="2.32254">
        <ele>121.1</ele>
        <time>2015-02-16T20:53:57.636Z</time>
      </trkpt>
      <trkpt lat="48.83503" lon="2.32254">
        <ele>121</ele>
        <time>2015-02-16T20:53:58.656Z</time>
      </trkpt>
      <trkpt lat="48.83503" lon="2.32254">
        <ele>120.8</ele>
        <time>2015-02-16T20:53:59.734Z</time>
      </trkpt>
      <trkpt lat="48.83509" lon="2.3226">
        <ele>120.2</ele>
        <time>2015-02-16T20:54:06.666Z</time>
      </trkpt>
      <trkpt lat="48.83511" lon="2.32261">
        <ele>120.4</ele>
        <time>2015-02-16T20:54:07.679Z</time>
      </trkpt>
      <trkpt lat="48.83517" lon="2.32268">
        <ele>121</ele>
        <time>2015-02-16T20:54:11.646Z</time>
      </trkpt>
      <trkpt lat="48.83518" lon="2.32271">
        <ele>121.1</ele>
        <time>2015-02-16T20:54:12.653Z</time>
      </trkpt>
      <trkpt lat="48.83524" lon="2.32278">
        <ele>121.4</ele>
        <time>2015-02-16T20:54:17.621Z</time>
      </trkpt>
      <trkpt lat="48.83526" lon="2.3228">
        <ele>121.4</ele>
        <time>2015-02-16T20:54:18.699Z</time>
      </trkpt>
      <trkpt lat="48.83532" lon="2.32289">
        <ele>121.1</ele>
        <time>2015-02-16T20:54:24.616Z</time>
      </trkpt>
      <trkpt lat="48.83534" lon="2.3229">
        <ele>120.9</ele>
        <time>2015-02-16T20:54:25.644Z</time>
      </trkpt>
      <trkpt lat="48.83542" lon="2.32286">
        <ele>119.1</ele>
        <time>2015-02-16T20:54:28.631Z</time>
      </trkpt>
      <trkpt lat="48.83544" lon="2.32285">
        <ele>118.9</ele>
        <time>2015-02-16T20:54:29.647Z</time>
      </trkpt>
      <trkpt lat="48.8355" lon="2.32279">
        <ele>118.2</ele>
        <time>2015-02-16T20:54:32.600Z</time>
      </trkpt>
      <trkpt lat="48.83552" lon="2.32277">
        <ele>118.2</ele>
        <time>2015-02-16T20:54:33.600Z</time>
      </trkpt>
      <trkpt lat="48.83555" lon="2.32267">
        <ele>117.6</ele>
        <time>2015-02-16T20:54:36.584Z</time>
      </trkpt>
      <trkpt lat="48.83557" lon="2.32264">
        <ele>117.5</ele>
        <time>2015-02-16T20:54:37.686Z</time>
      </trkpt>
      <trkpt lat="48.83561" lon="2.32257">
        <ele>117.2</ele>
        <time>2015-02-16T20:54:39.603Z</time>
      </trkpt>
      <trkpt lat="48.83566" lon="2.32253">
        <ele>118.1</ele>
        <time>2015-02-16T20:54:40.649Z</time>
      </trkpt>
      <trkpt lat="48.83572" lon="2.32246">
        <ele>118.3</ele>
        <time>2015-02-16T20:54:42.682Z</time>
      </trkpt>
      <trkpt lat="48.83574" lon="2.32243">
        <ele>118.3</ele>
        <time>2015-02-16T20:54:43.607Z</time>
      </trkpt>
      <trkpt lat="48.83579" lon="2.32237">
        <ele>118.5</ele>
        <time>2015-02-16T20:54:45.636Z</time>
      </trkpt>
      <trkpt lat="48.83582" lon="2.32233">
        <ele>118.6</ele>
        <time>2015-02-16T20:54:46.648Z</time>
      </trkpt>
      <trkpt lat="48.83586" lon="2.32226">
        <ele>119.2</ele>
        <time>2015-02-16T20:54:48.665Z</time>
      </trkpt>
      <trkpt lat="48.83588" lon="2.32223">
        <ele>119.3</ele>
        <time>2015-02-16T20:54:49.686Z</time>
      </trkpt>
      <trkpt lat="48.83593" lon="2.32211">
        <ele>121.6</ele>
        <time>2015-02-16T20:54:52.611Z</time>
      </trkpt>
      <trkpt lat="48.83591" lon="2.32206">
        <ele>121.6</ele>
        <time>2015-02-16T20:54:53.632Z</time>
      </trkpt>
      <trkpt lat="48.83593" lon="2.32196">
        <ele>121.7</ele>
        <time>2015-02-16T20:54:55.646Z</time>
      </trkpt>
      <trkpt lat="48.83594" lon="2.32191">
        <ele>121.5</ele>
        <time>2015-02-16T20:54:56.664Z</time>
      </trkpt>
      <trkpt lat="48.83596" lon="2.32179">
        <ele>121.9</ele>
        <time>2015-02-16T20:54:59.600Z</time>
      </trkpt>
      <trkpt lat="48.83595" lon="2.32176">
        <ele>122.1</ele>
        <time>2015-02-16T20:55:00.597Z</time>
      </trkpt>
      <trkpt lat="48.83592" lon="2.32165">
        <ele>122.2</ele>
        <time>2015-02-16T20:55:03.686Z</time>
      </trkpt>
      <trkpt lat="48.83589" lon="2.32161">
        <ele>122.2</ele>
        <time>2015-02-16T20:55:04.596Z</time>
      </trkpt>
      <trkpt lat="48.83585" lon="2.32154">
        <ele>122.5</ele>
        <time>2015-02-16T20:55:06.612Z</time>
      </trkpt>
      <trkpt lat="48.83583" lon="2.32151">
        <ele>122.7</ele>
        <time>2015-02-16T20:55:07.627Z</time>
      </trkpt>
      <trkpt lat="48.83577" lon="2.32145">
        <ele>123</ele>
        <time>2015-02-16T20:55:09.646Z</time>
      </trkpt>
      <trkpt lat="48.83574" lon="2.32141">
        <ele>123.1</ele>
        <time>2015-02-16T20:55:10.685Z</time>
      </trkpt>
      <trkpt lat="48.83568" lon="2.32131">
        <ele>123.2</ele>
        <time>2015-02-16T20:55:12.614Z</time>
      </trkpt>
      <trkpt lat="48.83565" lon="2.32127">
        <ele>123.4</ele>
        <time>2015-02-16T20:55:13.633Z</time>
      </trkpt>
      <trkpt lat="48.83562" lon="2.32122">
        <ele>123.7</ele>
        <time>2015-02-16T20:55:14.658Z</time>
      </trkpt>
      <trkpt lat="48.83558" lon="2.32118">
        <ele>123.8</ele>
        <time>2015-02-16T20:55:15.661Z</time>
      </trkpt>
      <trkpt lat="48.83553" lon="2.32107">
        <ele>124.7</ele>
        <time>2015-02-16T20:55:17.575Z</time>
      </trkpt>
      <trkpt lat="48.8355" lon="2.32103">
        <ele>125</ele>
        <time>2015-02-16T20:55:18.599Z</time>
      </trkpt>
      <trkpt lat="48.83543" lon="2.32099">
        <ele>125.6</ele>
        <time>2015-02-16T20:55:20.653Z</time>
      </trkpt>
      <trkpt lat="48.8354" lon="2.32096">
        <ele>125.9</ele>
        <time>2015-02-16T20:55:21.664Z</time>
      </trkpt>
      <trkpt lat="48.83535" lon="2.32089">
        <ele>126.3</ele>
        <time>2015-02-16T20:55:23.565Z</time>
      </trkpt>
      <trkpt lat="48.83533" lon="2.32085">
        <ele>126.3</ele>
        <time>2015-02-16T20:55:24.591Z</time>
      </trkpt>
      <trkpt lat="48.83528" lon="2.32074">
        <ele>126.6</ele>
        <time>2015-02-16T20:55:27.654Z</time>
      </trkpt>
      <trkpt lat="48.83526" lon="2.32071">
        <ele>126.4</ele>
        <time>2015-02-16T20:55:28.572Z</time>
      </trkpt>
      <trkpt lat="48.83522" lon="2.32063">
        <ele>126.2</ele>
        <time>2015-02-16T20:55:30.602Z</time>
      </trkpt>
      <trkpt lat="48.83521" lon="2.32059">
        <ele>126.1</ele>
        <time>2015-02-16T20:55:31.653Z</time>
      </trkpt>
      <trkpt lat="48.83516" lon="2.3205">
        <ele>126</ele>
        <time>2015-02-16T20:55:33.572Z</time>
      </trkpt>
      <trkpt lat="48.83514" lon="2.32046">
        <ele>126</ele>
        <time>2015-02-16T20:55:34.582Z</time>
      </trkpt>
      <trkpt lat="48.8351" lon="2.32038">
        <ele>126</ele>
        <time>2015-02-16T20:55:36.656Z</time>
      </trkpt>
      <trkpt lat="48.83507" lon="2.32032">
        <ele>126</ele>
        <time>2015-02-16T20:55:37.677Z</time>
      </trkpt>
      <trkpt lat="48.83502" lon="2.32023">
        <ele>125.8</ele>
        <time>2015-02-16T20:55:39.581Z</time>
      </trkpt>
      <trkpt lat="48.83499" lon="2.32018">
        <ele>125.7</ele>
        <time>2015-02-16T20:55:40.597Z</time>
      </trkpt>
      <trkpt lat="48.83495" lon="2.32008">
        <ele>125.2</ele>
        <time>2015-02-16T20:55:42.626Z</time>
      </trkpt>
      <trkpt lat="48.83492" lon="2.32003">
        <ele>124.9</ele>
        <time>2015-02-16T20:55:43.657Z</time>
      </trkpt>
      <trkpt lat="48.83489" lon="2.31992">
        <ele>124.5</ele>
        <time>2015-02-16T20:55:45.684Z</time>
      </trkpt>
      <trkpt lat="48.83486" lon="2.31986">
        <ele>124.3</ele>
        <time>2015-02-16T20:55:46.592Z</time>
      </trkpt>
      <trkpt lat="48.83483" lon="2.31979">
        <ele>124.1</ele>
        <time>2015-02-16T20:55:47.667Z</time>
      </trkpt>
      <trkpt lat="48.83481" lon="2.31973">
        <ele>123.9</ele>
        <time>2015-02-16T20:55:48.680Z</time>
      </trkpt>
      <trkpt lat="48.83479" lon="2.31966">
        <ele>123.6</ele>
        <time>2015-02-16T20:55:49.691Z</time>
      </trkpt>
      <trkpt lat="48.83477" lon="2.31961">
        <ele>123.3</ele>
        <time>2015-02-16T20:55:50.598Z</time>
      </trkpt>
      <trkpt lat="48.83472" lon="2.3195">
        <ele>123.2</ele>
        <time>2015-02-16T20:55:52.630Z</time>
      </trkpt>
      <trkpt lat="48.8347" lon="2.31945">
        <ele>123</ele>
        <time>2015-02-16T20:55:53.643Z</time>
      </trkpt>
      <trkpt lat="48.83465" lon="2.31934">
        <ele>122.7</ele>
        <time>2015-02-16T20:55:55.688Z</time>
      </trkpt>
      <trkpt lat="48.83462" lon="2.31929">
        <ele>122.4</ele>
        <time>2015-02-16T20:55:56.584Z</time>
      </trkpt>
      <trkpt lat="48.83459" lon="2.31923">
        <ele>122.3</ele>
        <time>2015-02-16T20:55:57.580Z</time>
      </trkpt>
      <trkpt lat="48.83456" lon="2.31918">
        <ele>122.1</ele>
        <time>2015-02-16T20:55:58.603Z</time>
      </trkpt>
      <trkpt lat="48.83453" lon="2.31912">
        <ele>122.4</ele>
        <time>2015-02-16T20:55:59.614Z</time>
      </trkpt>
      <trkpt lat="48.83451" lon="2.31907">
        <ele>122.6</ele>
        <time>2015-02-16T20:56:00.645Z</time>
      </trkpt>
      <trkpt lat="48.83447" lon="2.31902">
        <ele>122.8</ele>
        <time>2015-02-16T20:56:01.701Z</time>
      </trkpt>
      <trkpt lat="48.83444" lon="2.31897">
        <ele>122.7</ele>
        <time>2015-02-16T20:56:02.588Z</time>
      </trkpt>
      <trkpt lat="48.8344" lon="2.31893">
        <ele>122.7</ele>
        <time>2015-02-16T20:56:03.595Z</time>
      </trkpt>
      <trkpt lat="48.83437" lon="2.31888">
        <ele>122.7</ele>
        <time>2015-02-16T20:56:04.601Z</time>
      </trkpt>
      <trkpt lat="48.83432" lon="2.31878">
        <ele>123.2</ele>
        <time>2015-02-16T20:56:06.646Z</time>
      </trkpt>
      <trkpt lat="48.83429" lon="2.31873">
        <ele>123.4</ele>
        <time>2015-02-16T20:56:07.657Z</time>
      </trkpt>
      <trkpt lat="48.83424" lon="2.31865">
        <ele>123.7</ele>
        <time>2015-02-16T20:56:09.586Z</time>
      </trkpt>
      <trkpt lat="48.83422" lon="2.31859">
        <ele>124.1</ele>
        <time>2015-02-16T20:56:10.593Z</time>
      </trkpt>
      <trkpt lat="48.83418" lon="2.31851">
        <ele>124.5</ele>
        <time>2015-02-16T20:56:12.611Z</time>
      </trkpt>
      <trkpt lat="48.83416" lon="2.31846">
        <ele>124.6</ele>
        <time>2015-02-16T20:56:13.665Z</time>
      </trkpt>
      <trkpt lat="48.83411" lon="2.31838">
        <ele>124.8</ele>
        <time>2015-02-16T20:56:15.617Z</time>
      </trkpt>
      <trkpt lat="48.83409" lon="2.31833">
        <ele>125.1</ele>
        <time>2015-02-16T20:56:16.698Z</time>
      </trkpt>
      <trkpt lat="48.83404" lon="2.31825">
        <ele>125.4</ele>
        <time>2015-02-16T20:56:18.590Z</time>
      </trkpt>
      <trkpt lat="48.83403" lon="2.31821">
        <ele>125.9</ele>
        <time>2015-02-16T20:56:19.635Z</time>
      </trkpt>
      <trkpt lat="48.83403" lon="2.31809">
        <ele>127.4</ele>
        <time>2015-02-16T20:56:22.562Z</time>
      </trkpt>
      <trkpt lat="48.83405" lon="2.31805">
        <ele>127.7</ele>
        <time>2015-02-16T20:56:23.614Z</time>
      </trkpt>
      <trkpt lat="48.8341" lon="2.31794">
        <ele>127.6</ele>
        <time>2015-02-16T20:56:26.683Z</time>
      </trkpt>
      <trkpt lat="48.83411" lon="2.31791">
        <ele>127.5</ele>
        <time>2015-02-16T20:56:27.699Z</time>
      </trkpt>
      <trkpt lat="48.83415" lon="2.31782">
        <ele>127.2</ele>
        <time>2015-02-16T20:56:29.604Z</time>
      </trkpt>
      <trkpt lat="48.83417" lon="2.31777">
        <ele>127.1</ele>
        <time>2015-02-16T20:56:30.588Z</time>
      </trkpt>
      <trkpt lat="48.8342" lon="2.31769">
        <ele>127</ele>
        <time>2015-02-16T20:56:32.653Z</time>
      </trkpt>
      <trkpt lat="48.83422" lon="2.31765">
        <ele>126.9</ele>
        <time>2015-02-16T20:56:33.670Z</time>
      </trkpt>
      <trkpt lat="48.83426" lon="2.31757">
        <ele>126.9</ele>
        <time>2015-02-16T20:56:35.582Z</time>
      </trkpt>
      <trkpt lat="48.83428" lon="2.31753">
        <ele>126.8</ele>
        <time>2015-02-16T20:56:36.685Z</time>
      </trkpt>
      <trkpt lat="48.83434" lon="2.31746">
        <ele>126.7</ele>
        <time>2015-02-16T20:56:38.603Z</time>
      </trkpt>
      <trkpt lat="48.83437" lon="2.31742">
        <ele>126.7</ele>
        <time>2015-02-16T20:56:39.629Z</time>
      </trkpt>
      <trkpt lat="48.83442" lon="2.31733">
        <ele>126.1</ele>
        <time>2015-02-16T20:56:41.672Z</time>
      </trkpt>
      <trkpt lat="48.83444" lon="2.31728">
        <ele>125.7</ele>
        <time>2015-02-16T20:56:42.673Z</time>
      </trkpt>
      <trkpt lat="48.83451" lon="2.3172">
        <ele>125.2</ele>
        <time>2015-02-16T20:56:44.723Z</time>
      </trkpt>
      <trkpt lat="48.83454" lon="2.31718">
        <ele>125</ele>
        <time>2015-02-16T20:56:45.571Z</time>
      </trkpt>
      <trkpt lat="48.83461" lon="2.31711">
        <ele>124.6</ele>
        <time>2015-02-16T20:56:47.682Z</time>
      </trkpt>
      <trkpt lat="48.83464" lon="2.31707">
        <ele>124.5</ele>
        <time>2015-02-16T20:56:48.601Z</time>
      </trkpt>
      <trkpt lat="48.8347" lon="2.31699">
        <ele>124.1</ele>
        <time>2015-02-16T20:56:50.656Z</time>
      </trkpt>
      <trkpt lat="48.83472" lon="2.31693">
        <ele>124.4</ele>
        <time>2015-02-16T20:56:51.744Z</time>
      </trkpt>
      <trkpt lat="48.83476" lon="2.31683">
        <ele>125.3</ele>
        <time>2015-02-16T20:56:53.598Z</time>
      </trkpt>
      <trkpt lat="48.83481" lon="2.31679">
        <ele>125.2</ele>
        <time>2015-02-16T20:56:54.661Z</time>
      </trkpt>
      <trkpt lat="48.83488" lon="2.31673">
        <ele>124.6</ele>
        <time>2015-02-16T20:56:56.596Z</time>
      </trkpt>
      <trkpt lat="48.83491" lon="2.3167">
        <ele>124.6</ele>
        <time>2015-02-16T20:56:57.652Z</time>
      </trkpt>
      <trkpt lat="48.83495" lon="2.31663">
        <ele>124.5</ele>
        <time>2015-02-16T20:56:59.624Z</time>
      </trkpt>
      <trkpt lat="48.83498" lon="2.31658">
        <ele>124.4</ele>
        <time>2015-02-16T20:57:00.646Z</time>
      </trkpt>
      <trkpt lat="48.83502" lon="2.3165">
        <ele>124.3</ele>
        <time>2015-02-16T20:57:02.570Z</time>
      </trkpt>
      <trkpt lat="48.83505" lon="2.31646">
        <ele>124.2</ele>
        <time>2015-02-16T20:57:03.588Z</time>
      </trkpt>
      <trkpt lat="48.83509" lon="2.31639">
        <ele>124.2</ele>
        <time>2015-02-16T20:57:05.558Z</time>
      </trkpt>
      <trkpt lat="48.83511" lon="2.31635">
        <ele>124</ele>
        <time>2015-02-16T20:57:06.635Z</time>
      </trkpt>
      <trkpt lat="48.83516" lon="2.31627">
        <ele>123.7</ele>
        <time>2015-02-16T20:57:08.630Z</time>
      </trkpt>
      <trkpt lat="48.83518" lon="2.31624">
        <ele>123.7</ele>
        <time>2015-02-16T20:57:09.634Z</time>
      </trkpt>
      <trkpt lat="48.83524" lon="2.31615">
        <ele>123.5</ele>
        <time>2015-02-16T20:57:12.570Z</time>
      </trkpt>
      <trkpt lat="48.83526" lon="2.31612">
        <ele>123.3</ele>
        <time>2015-02-16T20:57:12.655Z</time>
      </trkpt>
      <trkpt lat="48.8353" lon="2.31605">
        <ele>122.9</ele>
        <time>2015-02-16T20:57:14.592Z</time>
      </trkpt>
      <trkpt lat="48.83532" lon="2.31599">
        <ele>123.2</ele>
        <time>2015-02-16T20:57:15.630Z</time>
      </trkpt>
      <trkpt lat="48.83535" lon="2.31591">
        <ele>124</ele>
        <time>2015-02-16T20:57:17.631Z</time>
      </trkpt>
      <trkpt lat="48.83537" lon="2.31587">
        <ele>124.4</ele>
        <time>2015-02-16T20:57:18.639Z</time>
      </trkpt>
      <trkpt lat="48.83543" lon="2.31579">
        <ele>125.4</ele>
        <time>2015-02-16T20:57:20.662Z</time>
      </trkpt>
      <trkpt lat="48.83546" lon="2.31575">
        <ele>125.8</ele>
        <time>2015-02-16T20:57:21.680Z</time>
      </trkpt>
      <trkpt lat="48.83549" lon="2.31567">
        <ele>126.6</ele>
        <time>2015-02-16T20:57:23.596Z</time>
      </trkpt>
      <trkpt lat="48.83546" lon="2.31562">
        <ele>126.2</ele>
        <time>2015-02-16T20:57:24.605Z</time>
      </trkpt>
      <trkpt lat="48.83545" lon="2.3155">
        <ele>125.7</ele>
        <time>2015-02-16T20:57:28.645Z</time>
      </trkpt>
      <trkpt lat="48.83544" lon="2.31548">
        <ele>125.2</ele>
        <time>2015-02-16T20:57:29.653Z</time>
      </trkpt>
      <trkpt lat="48.83553" lon="2.31549">
        <ele>123.9</ele>
        <time>2015-02-16T20:57:34.591Z</time>
      </trkpt>
      <trkpt lat="48.83555" lon="2.31549">
        <ele>123.5</ele>
        <time>2015-02-16T20:57:35.665Z</time>
      </trkpt>
      <trkpt lat="48.83561" lon="2.31555">
        <ele>122.8</ele>
        <time>2015-02-16T20:57:38.639Z</time>
      </trkpt>
      <trkpt lat="48.83563" lon="2.31558">
        <ele>122.4</ele>
        <time>2015-02-16T20:57:39.650Z</time>
      </trkpt>
      <trkpt lat="48.83567" lon="2.31568">
        <ele>122</ele>
        <time>2015-02-16T20:57:42.623Z</time>
      </trkpt>
      <trkpt lat="48.83568" lon="2.31571">
        <ele>122.1</ele>
        <time>2015-02-16T20:57:43.667Z</time>
      </trkpt>
      <trkpt lat="48.83572" lon="2.31582">
        <ele>122.1</ele>
        <time>2015-02-16T20:57:47.611Z</time>
      </trkpt>
      <trkpt lat="48.83574" lon="2.31585">
        <ele>122.1</ele>
        <time>2015-02-16T20:57:48.650Z</time>
      </trkpt>
      <trkpt lat="48.83578" lon="2.31595">
        <ele>121.6</ele>
        <time>2015-02-16T20:57:51.600Z</time>
      </trkpt>
      <trkpt lat="48.8358" lon="2.31599">
        <ele>121.4</ele>
        <time>2015-02-16T20:57:52.605Z</time>
      </trkpt>
      <trkpt lat="48.83585" lon="2.3161">
        <ele>121</ele>
        <time>2015-02-16T20:57:55.870Z</time>
      </trkpt>
      <trkpt lat="48.83586" lon="2.31613">
        <ele>120.8</ele>
        <time>2015-02-16T20:57:56.611Z</time>
      </trkpt>
      <trkpt lat="48.8359" lon="2.31623">
        <ele>120.6</ele>
        <time>2015-02-16T20:57:59.632Z</time>
      </trkpt>
      <trkpt lat="48.83592" lon="2.31626">
        <ele>120.5</ele>
        <time>2015-02-16T20:58:00.650Z</time>
      </trkpt>
      <trkpt lat="48.83596" lon="2.31635">
        <ele>120.3</ele>
        <time>2015-02-16T20:58:03.599Z</time>
      </trkpt>
      <trkpt lat="48.83597" lon="2.31639">
        <ele>120</ele>
        <time>2015-02-16T20:58:04.603Z</time>
      </trkpt>
      <trkpt lat="48.836" lon="2.31652">
        <ele>119.6</ele>
        <time>2015-02-16T20:58:08.637Z</time>
      </trkpt>
      <trkpt lat="48.83602" lon="2.31655">
        <ele>119.5</ele>
        <time>2015-02-16T20:58:09.676Z</time>
      </trkpt>
      <trkpt lat="48.83606" lon="2.31664">
        <ele>119.2</ele>
        <time>2015-02-16T20:58:11.600Z</time>
      </trkpt>
      <trkpt lat="48.83608" lon="2.31668">
        <ele>118.9</ele>
        <time>2015-02-16T20:58:12.847Z</time>
      </trkpt>
      <trkpt lat="48.83613" lon="2.31676">
        <ele>119.1</ele>
        <time>2015-02-16T20:58:14.679Z</time>
      </trkpt>
      <trkpt lat="48.83614" lon="2.3168">
        <ele>119.4</ele>
        <time>2015-02-16T20:58:15.594Z</time>
      </trkpt>
      <trkpt lat="48.83618" lon="2.3169">
        <ele>119.7</ele>
        <time>2015-02-16T20:58:18.613Z</time>
      </trkpt>
      <trkpt lat="48.8362" lon="2.31694">
        <ele>119.6</ele>
        <time>2015-02-16T20:58:19.599Z</time>
      </trkpt>
      <trkpt lat="48.83622" lon="2.31705">
        <ele>119.2</ele>
        <time>2015-02-16T20:58:22.630Z</time>
      </trkpt>
      <trkpt lat="48.83624" lon="2.31708">
        <ele>119.4</ele>
        <time>2015-02-16T20:58:23.644Z</time>
      </trkpt>
      <trkpt lat="48.8363" lon="2.31715">
        <ele>119.8</ele>
        <time>2015-02-16T20:58:25.660Z</time>
      </trkpt>
      <trkpt lat="48.83634" lon="2.3172">
        <ele>120.5</ele>
        <time>2015-02-16T20:58:26.675Z</time>
      </trkpt>
      <trkpt lat="48.83638" lon="2.31727">
        <ele>121</ele>
        <time>2015-02-16T20:58:28.909Z</time>
      </trkpt>
      <trkpt lat="48.83639" lon="2.3173">
        <ele>120.7</ele>
        <time>2015-02-16T20:58:29.634Z</time>
      </trkpt>
      <trkpt lat="48.83643" lon="2.3174">
        <ele>120.4</ele>
        <time>2015-02-16T20:58:32.695Z</time>
      </trkpt>
      <trkpt lat="48.83643" lon="2.31744">
        <ele>120.5</ele>
        <time>2015-02-16T20:58:33.552Z</time>
      </trkpt>
      <trkpt lat="48.83648" lon="2.31754">
        <ele>120.4</ele>
        <time>2015-02-16T20:58:37.611Z</time>
      </trkpt>
      <trkpt lat="48.8365" lon="2.31756">
        <ele>120.4</ele>
        <time>2015-02-16T20:58:38.781Z</time>
      </trkpt>
      <trkpt lat="48.83655" lon="2.31765">
        <ele>120.2</ele>
        <time>2015-02-16T20:58:42.661Z</time>
      </trkpt>
      <trkpt lat="48.83656" lon="2.31769">
        <ele>120.2</ele>
        <time>2015-02-16T20:58:43.673Z</time>
      </trkpt>
      <trkpt lat="48.83659" lon="2.31775">
        <ele>120</ele>
        <time>2015-02-16T20:58:45.703Z</time>
      </trkpt>
      <trkpt lat="48.83664" lon="2.31777">
        <ele>118.5</ele>
        <time>2015-02-16T20:58:46.650Z</time>
      </trkpt>
      <trkpt lat="48.83669" lon="2.31785">
        <ele>118.4</ele>
        <time>2015-02-16T20:58:50.715Z</time>
      </trkpt>
      <trkpt lat="48.83671" lon="2.31786">
        <ele>118.3</ele>
        <time>2015-02-16T20:58:51.611Z</time>
      </trkpt>
      <trkpt lat="48.83678" lon="2.31788">
        <ele>116.6</ele>
        <time>2015-02-16T20:58:57.586Z</time>
      </trkpt>
      <trkpt lat="48.8368" lon="2.31789">
        <ele>116</ele>
        <time>2015-02-16T20:58:58.681Z</time>
      </trkpt>
      <trkpt lat="48.83687" lon="2.31796">
        <ele>114.6</ele>
        <time>2015-02-16T20:59:02.578Z</time>
      </trkpt>
      <trkpt lat="48.83687" lon="2.31803">
        <ele>114.6</ele>
        <time>2015-02-16T20:59:03.575Z</time>
      </trkpt>
      <trkpt lat="48.83688" lon="2.31813">
        <ele>114.6</ele>
        <time>2015-02-16T20:59:06.332Z</time>
      </trkpt>
      <trkpt lat="48.83689" lon="2.31818">
        <ele>114.4</ele>
        <time>2015-02-16T20:59:06.562Z</time>
      </trkpt>
      <trkpt lat="48.83689" lon="2.31828">
        <ele>114.4</ele>
        <time>2015-02-16T20:59:08.635Z</time>
      </trkpt>
      <trkpt lat="48.8369" lon="2.31834">
        <ele>114.4</ele>
        <time>2015-02-16T20:59:09.641Z</time>
      </trkpt>
      <trkpt lat="48.83694" lon="2.31844">
        <ele>114.4</ele>
        <time>2015-02-16T20:59:12.227Z</time>
      </trkpt>
      <trkpt lat="48.83697" lon="2.3185">
        <ele>114.1</ele>
        <time>2015-02-16T20:59:12.597Z</time>
      </trkpt>
      <trkpt lat="48.837" lon="2.31855">
        <ele>114.1</ele>
        <time>2015-02-16T20:59:13.613Z</time>
      </trkpt>
      <trkpt lat="48.83703" lon="2.3186">
        <ele>114</ele>
        <time>2015-02-16T20:59:14.659Z</time>
      </trkpt>
      <trkpt lat="48.83711" lon="2.31868">
        <ele>113.8</ele>
        <time>2015-02-16T20:59:17.272Z</time>
      </trkpt>
      <trkpt lat="48.83714" lon="2.3187">
        <ele>113.8</ele>
        <time>2015-02-16T20:59:17.569Z</time>
      </trkpt>
      <trkpt lat="48.83719" lon="2.31871">
        <ele>114.3</ele>
        <time>2015-02-16T20:59:18.591Z</time>
      </trkpt>
      <trkpt lat="48.83724" lon="2.31871">
        <ele>114.3</ele>
        <time>2015-02-16T20:59:19.602Z</time>
      </trkpt>
      <trkpt lat="48.83729" lon="2.31872">
        <ele>114.6</ele>
        <time>2015-02-16T20:59:20.683Z</time>
      </trkpt>
      <trkpt lat="48.83735" lon="2.3187">
        <ele>116</ele>
        <time>2015-02-16T20:59:21.689Z</time>
      </trkpt>
      <trkpt lat="48.83743" lon="2.31865">
        <ele>115.7</ele>
        <time>2015-02-16T20:59:23.585Z</time>
      </trkpt>
      <trkpt lat="48.83745" lon="2.31861">
        <ele>115.2</ele>
        <time>2015-02-16T20:59:24.609Z</time>
      </trkpt>
      <trkpt lat="48.8375" lon="2.31852">
        <ele>114.9</ele>
        <time>2015-02-16T20:59:27.561Z</time>
      </trkpt>
      <trkpt lat="48.83753" lon="2.31847">
        <ele>115.7</ele>
        <time>2015-02-16T20:59:27.593Z</time>
      </trkpt>
      <trkpt lat="48.83757" lon="2.31835">
        <ele>115.7</ele>
        <time>2015-02-16T20:59:30.632Z</time>
      </trkpt>
      <trkpt lat="48.83759" lon="2.3183">
        <ele>116</ele>
        <time>2015-02-16T20:59:30.964Z</time>
      </trkpt>
      <trkpt lat="48.83762" lon="2.31824">
        <ele>116.7</ele>
        <time>2015-02-16T20:59:31.678Z</time>
      </trkpt>
      <trkpt lat="48.83766" lon="2.31818">
        <ele>117.7</ele>
        <time>2015-02-16T20:59:32.568Z</time>
      </trkpt>
      <trkpt lat="48.83769" lon="2.31811">
        <ele>118.8</ele>
        <time>2015-02-16T20:59:33.632Z</time>
      </trkpt>
      <trkpt lat="48.83772" lon="2.31804">
        <ele>120.1</ele>
        <time>2015-02-16T20:59:34.595Z</time>
      </trkpt>
      <trkpt lat="48.83776" lon="2.31797">
        <ele>122</ele>
        <time>2015-02-16T20:59:35.864Z</time>
      </trkpt>
      <trkpt lat="48.8378" lon="2.3179">
        <ele>123.8</ele>
        <time>2015-02-16T20:59:36.698Z</time>
      </trkpt>
      <trkpt lat="48.83782" lon="2.31784">
        <ele>124.4</ele>
        <time>2015-02-16T20:59:37.788Z</time>
      </trkpt>
      <trkpt lat="48.83784" lon="2.31778">
        <ele>124.7</ele>
        <time>2015-02-16T20:59:38.634Z</time>
      </trkpt>
      <trkpt lat="48.83789" lon="2.31769">
        <ele>125.5</ele>
        <time>2015-02-16T20:59:40.620Z</time>
      </trkpt>
      <trkpt lat="48.83792" lon="2.31766">
        <ele>126</ele>
        <time>2015-02-16T20:59:41.679Z</time>
      </trkpt>
      <trkpt lat="48.83799" lon="2.31764">
        <ele>127.3</ele>
        <time>2015-02-16T20:59:43.669Z</time>
      </trkpt>
      <trkpt lat="48.83802" lon="2.31761">
        <ele>127.8</ele>
        <time>2015-02-16T20:59:44.619Z</time>
      </trkpt>
      <trkpt lat="48.8381" lon="2.31758">
        <ele>128.8</ele>
        <time>2015-02-16T20:59:48.635Z</time>
      </trkpt>
      <trkpt lat="48.83813" lon="2.31758">
        <ele>129.1</ele>
        <time>2015-02-16T20:59:49.663Z</time>
      </trkpt>
      <trkpt lat="48.8382" lon="2.3175">
        <ele>130.1</ele>
        <time>2015-02-16T20:59:53.602Z</time>
      </trkpt>
      <trkpt lat="48.83822" lon="2.31747">
        <ele>130.5</ele>
        <time>2015-02-16T20:59:54.613Z</time>
      </trkpt>
      <trkpt lat="48.83828" lon="2.31739">
        <ele>131.8</ele>
        <time>2015-02-16T20:59:56.644Z</time>
      </trkpt>
      <trkpt lat="48.83831" lon="2.31736">
        <ele>132.3</ele>
        <time>2015-02-16T20:59:57.718Z</time>
      </trkpt>
      <trkpt lat="48.83835" lon="2.31732">
        <ele>133</ele>
        <time>2015-02-16T20:59:58.601Z</time>
      </trkpt>
      <trkpt lat="48.83839" lon="2.31729">
        <ele>133.9</ele>
        <time>2015-02-16T20:59:59.625Z</time>
      </trkpt>
      <trkpt lat="48.83845" lon="2.31721">
        <ele>135.8</ele>
        <time>2015-02-16T21:00:02.790Z</time>
      </trkpt>
      <trkpt lat="48.83848" lon="2.31717">
        <ele>137.2</ele>
        <time>2015-02-16T21:00:02.817Z</time>
      </trkpt>
      <trkpt lat="48.83854" lon="2.31711">
        <ele>139.7</ele>
        <time>2015-02-16T21:00:04.589Z</time>
      </trkpt>
      <trkpt lat="48.83857" lon="2.31707">
        <ele>140.7</ele>
        <time>2015-02-16T21:00:05.753Z</time>
      </trkpt>
      <trkpt lat="48.83861" lon="2.31699">
        <ele>143.4</ele>
        <time>2015-02-16T21:00:07.617Z</time>
      </trkpt>
      <trkpt lat="48.83863" lon="2.31693">
        <ele>144.8</ele>
        <time>2015-02-16T21:00:08.630Z</time>
      </trkpt>
      <trkpt lat="48.83867" lon="2.31685">
        <ele>146.3</ele>
        <time>2015-02-16T21:00:11.604Z</time>
      </trkpt>
      <trkpt lat="48.83868" lon="2.31682">
        <ele>146.5</ele>
        <time>2015-02-16T21:00:12.624Z</time>
      </trkpt>
      <trkpt lat="48.83875" lon="2.31677">
        <ele>146.6</ele>
        <time>2015-02-16T21:00:16.261Z</time>
      </trkpt>
      <trkpt lat="48.83877" lon="2.31675">
        <ele>146.6</ele>
        <time>2015-02-16T21:00:16.608Z</time>
      </trkpt>
      <trkpt lat="48.83882" lon="2.31665">
        <ele>146.6</ele>
        <time>2015-02-16T21:00:21.450Z</time>
      </trkpt>
      <trkpt lat="48.83884" lon="2.31663">
        <ele>146.7</ele>
        <time>2015-02-16T21:00:21.573Z</time>
      </trkpt>
      <trkpt lat="48.8389" lon="2.31657">
        <ele>147.3</ele>
        <time>2015-02-16T21:00:23.633Z</time>
      </trkpt>
      <trkpt lat="48.83893" lon="2.31654">
        <ele>147.7</ele>
        <time>2015-02-16T21:00:24.611Z</time>
      </trkpt>
      <trkpt lat="48.83899" lon="2.3165">
        <ele>148.4</ele>
        <time>2015-02-16T21:00:26.670Z</time>
      </trkpt>
      <trkpt lat="48.83902" lon="2.31648">
        <ele>148.5</ele>
        <time>2015-02-16T21:00:27.676Z</time>
      </trkpt>
      <trkpt lat="48.83906" lon="2.3164">
        <ele>148.5</ele>
        <time>2015-02-16T21:00:30.665Z</time>
      </trkpt>
      <trkpt lat="48.83908" lon="2.31637">
        <ele>148.5</ele>
        <time>2015-02-16T21:00:31.656Z</time>
      </trkpt>
      <trkpt lat="48.83914" lon="2.3163">
        <ele>148.8</ele>
        <time>2015-02-16T21:00:35.863Z</time>
      </trkpt>
      <trkpt lat="48.83917" lon="2.31629">
        <ele>148.7</ele>
        <time>2015-02-16T21:00:35.950Z</time>
      </trkpt>
      <trkpt lat="48.83922" lon="2.31625">
        <ele>148.3</ele>
        <time>2015-02-16T21:00:37.630Z</time>
      </trkpt>
      <trkpt lat="48.83925" lon="2.31622">
        <ele>148.2</ele>
        <time>2015-02-16T21:00:38.665Z</time>
      </trkpt>
      <trkpt lat="48.83932" lon="2.31616">
        <ele>147.9</ele>
        <time>2015-02-16T21:00:40.614Z</time>
      </trkpt>
      <trkpt lat="48.83935" lon="2.31612">
        <ele>147.8</ele>
        <time>2015-02-16T21:00:41.702Z</time>
      </trkpt>
      <trkpt lat="48.83939" lon="2.31608">
        <ele>147.7</ele>
        <time>2015-02-16T21:00:42.637Z</time>
      </trkpt>
      <trkpt lat="48.83943" lon="2.31603">
        <ele>147.7</ele>
        <time>2015-02-16T21:00:43.628Z</time>
      </trkpt>
      <trkpt lat="48.83947" lon="2.31597">
        <ele>147.7</ele>
        <time>2015-02-16T21:00:44.698Z</time>
      </trkpt>
      <trkpt lat="48.8395" lon="2.3159">
        <ele>148</ele>
        <time>2015-02-16T21:00:45.894Z</time>
      </trkpt>
      <trkpt lat="48.83953" lon="2.31582">
        <ele>148.2</ele>
        <time>2015-02-16T21:00:46.612Z</time>
      </trkpt>
      <trkpt lat="48.83957" lon="2.31575">
        <ele>148.3</ele>
        <time>2015-02-16T21:00:47.579Z</time>
      </trkpt>
      <trkpt lat="48.83962" lon="2.3157">
        <ele>148.4</ele>
        <time>2015-02-16T21:00:48.586Z</time>
      </trkpt>
      <trkpt lat="48.83966" lon="2.31564">
        <ele>148.5</ele>
        <time>2015-02-16T21:00:49.614Z</time>
      </trkpt>
      <trkpt lat="48.8397" lon="2.31558">
        <ele>148.4</ele>
        <time>2015-02-16T21:00:50.641Z</time>
      </trkpt>
      <trkpt lat="48.83975" lon="2.31553">
        <ele>148.3</ele>
        <time>2015-02-16T21:00:51.667Z</time>
      </trkpt>
      <trkpt lat="48.8398" lon="2.31548">
        <ele>148.3</ele>
        <time>2015-02-16T21:00:52.691Z</time>
      </trkpt>
      <trkpt lat="48.83986" lon="2.31544">
        <ele>148.4</ele>
        <time>2015-02-16T21:00:53.603Z</time>
      </trkpt>
      <trkpt lat="48.8399" lon="2.3154">
        <ele>148.3</ele>
        <time>2015-02-16T21:00:54.650Z</time>
      </trkpt>
      <trkpt lat="48.83995" lon="2.31536">
        <ele>148.3</ele>
        <time>2015-02-16T21:00:55.660Z</time>
      </trkpt>
      <trkpt lat="48.84" lon="2.31532">
        <ele>148.3</ele>
        <time>2015-02-16T21:00:56.674Z</time>
      </trkpt>
      <trkpt lat="48.84005" lon="2.31528">
        <ele>148.4</ele>
        <time>2015-02-16T21:00:57.572Z</time>
      </trkpt>
      <trkpt lat="48.8401" lon="2.31524">
        <ele>148.4</ele>
        <time>2015-02-16T21:00:58.577Z</time>
      </trkpt>
      <trkpt lat="48.84015" lon="2.3152">
        <ele>148.4</ele>
        <time>2015-02-16T21:00:59.630Z</time>
      </trkpt>
      <trkpt lat="48.84019" lon="2.31515">
        <ele>148.3</ele>
        <time>2015-02-16T21:01:00.689Z</time>
      </trkpt>
      <trkpt lat="48.84023" lon="2.31509">
        <ele>148.4</ele>
        <time>2015-02-16T21:01:01.629Z</time>
      </trkpt>
      <trkpt lat="48.84026" lon="2.31503">
        <ele>148.9</ele>
        <time>2015-02-16T21:01:02.631Z</time>
      </trkpt>
      <trkpt lat="48.84029" lon="2.31497">
        <ele>149.1</ele>
        <time>2015-02-16T21:01:03.656Z</time>
      </trkpt>
      <trkpt lat="48.84034" lon="2.31492">
        <ele>149.1</ele>
        <time>2015-02-16T21:01:05.595Z</time>
      </trkpt>
      <trkpt lat="48.84037" lon="2.3149">
        <ele>149.1</ele>
        <time>2015-02-16T21:01:06.649Z</time>
      </trkpt>
      <trkpt lat="48.84045" lon="2.31488">
        <ele>148.7</ele>
        <time>2015-02-16T21:01:09.603Z</time>
      </trkpt>
      <trkpt lat="48.84048" lon="2.31488">
        <ele>148.3</ele>
        <time>2015-02-16T21:01:10.647Z</time>
      </trkpt>
      <trkpt lat="48.84056" lon="2.31484">
        <ele>147.7</ele>
        <time>2015-02-16T21:01:13.641Z</time>
      </trkpt>
      <trkpt lat="48.84059" lon="2.31483">
        <ele>147.7</ele>
        <time>2015-02-16T21:01:14.719Z</time>
      </trkpt>
      <trkpt lat="48.84066" lon="2.31488">
        <ele>142.2</ele>
        <time>2015-02-16T21:01:21.610Z</time>
      </trkpt>
      <trkpt lat="48.84068" lon="2.31486">
        <ele>141.9</ele>
        <time>2015-02-16T21:01:22.618Z</time>
      </trkpt>
      <trkpt lat="48.84074" lon="2.31476">
        <ele>141.8</ele>
        <time>2015-02-16T21:01:25.631Z</time>
      </trkpt>
      <trkpt lat="48.84076" lon="2.31474">
        <ele>141.7</ele>
        <time>2015-02-16T21:01:26.633Z</time>
      </trkpt>
      <trkpt lat="48.84083" lon="2.31466">
        <ele>141.1</ele>
        <time>2015-02-16T21:01:29.669Z</time>
      </trkpt>
      <trkpt lat="48.84086" lon="2.31464">
        <ele>140.9</ele>
        <time>2015-02-16T21:01:30.589Z</time>
      </trkpt>
      <trkpt lat="48.84092" lon="2.31459">
        <ele>140</ele>
        <time>2015-02-16T21:01:32.590Z</time>
      </trkpt>
      <trkpt lat="48.84095" lon="2.31456">
        <ele>139.8</ele>
        <time>2015-02-16T21:01:33.595Z</time>
      </trkpt>
      <trkpt lat="48.84101" lon="2.31451">
        <ele>139.2</ele>
        <time>2015-02-16T21:01:35.656Z</time>
      </trkpt>
      <trkpt lat="48.84104" lon="2.31448">
        <ele>139.1</ele>
        <time>2015-02-16T21:01:36.596Z</time>
      </trkpt>
      <trkpt lat="48.8411" lon="2.31456">
        <ele>137.7</ele>
        <time>2015-02-16T21:01:40.591Z</time>
      </trkpt>
      <trkpt lat="48.84111" lon="2.31461">
        <ele>136.9</ele>
        <time>2015-02-16T21:01:41.587Z</time>
      </trkpt>
      <trkpt lat="48.84111" lon="2.31471">
        <ele>135.3</ele>
        <time>2015-02-16T21:01:43.711Z</time>
      </trkpt>
      <trkpt lat="48.84111" lon="2.31476">
        <ele>135</ele>
        <time>2015-02-16T21:01:44.593Z</time>
      </trkpt>
      <trkpt lat="48.8411" lon="2.31488">
        <ele>134.4</ele>
        <time>2015-02-16T21:01:46.644Z</time>
      </trkpt>
      <trkpt lat="48.84111" lon="2.31493">
        <ele>134</ele>
        <time>2015-02-16T21:01:47.593Z</time>
      </trkpt>
      <trkpt lat="48.8411" lon="2.31502">
        <ele>133.4</ele>
        <time>2015-02-16T21:01:49.611Z</time>
      </trkpt>
      <trkpt lat="48.8411" lon="2.31508">
        <ele>133</ele>
        <time>2015-02-16T21:01:50.688Z</time>
      </trkpt>
      <trkpt lat="48.8411" lon="2.31518">
        <ele>132.4</ele>
        <time>2015-02-16T21:01:52.630Z</time>
      </trkpt>
      <trkpt lat="48.8411" lon="2.31523">
        <ele>132.3</ele>
        <time>2015-02-16T21:01:53.592Z</time>
      </trkpt>
      <trkpt lat="48.84109" lon="2.31533">
        <ele>132.3</ele>
        <time>2015-02-16T21:01:55.627Z</time>
      </trkpt>
      <trkpt lat="48.8411" lon="2.31537">
        <ele>132.5</ele>
        <time>2015-02-16T21:01:56.680Z</time>
      </trkpt>
      <trkpt lat="48.84116" lon="2.31544">
        <ele>132.9</ele>
        <time>2015-02-16T21:02:00.593Z</time>
      </trkpt>
      <trkpt lat="48.84121" lon="2.31543">
        <ele>132.1</ele>
        <time>2015-02-16T21:02:01.618Z</time>
      </trkpt>
      <trkpt lat="48.84126" lon="2.31543">
        <ele>131.5</ele>
        <time>2015-02-16T21:02:02.640Z</time>
      </trkpt>
      <trkpt lat="48.84132" lon="2.31542">
        <ele>130.7</ele>
        <time>2015-02-16T21:02:03.546Z</time>
      </trkpt>
      <trkpt lat="48.84138" lon="2.3154">
        <ele>130.1</ele>
        <time>2015-02-16T21:02:05.623Z</time>
      </trkpt>
      <trkpt lat="48.84142" lon="2.31538">
        <ele>129.8</ele>
        <time>2015-02-16T21:02:06.614Z</time>
      </trkpt>
      <trkpt lat="48.84149" lon="2.31535">
        <ele>129.3</ele>
        <time>2015-02-16T21:02:08.596Z</time>
      </trkpt>
      <trkpt lat="48.84153" lon="2.31533">
        <ele>129.1</ele>
        <time>2015-02-16T21:02:09.631Z</time>
      </trkpt>
      <trkpt lat="48.8416" lon="2.31526">
        <ele>128.1</ele>
        <time>2015-02-16T21:02:11.635Z</time>
      </trkpt>
      <trkpt lat="48.84164" lon="2.3152">
        <ele>127.1</ele>
        <time>2015-02-16T21:02:12.590Z</time>
      </trkpt>
      <trkpt lat="48.84169" lon="2.31515">
        <ele>126.4</ele>
        <time>2015-02-16T21:02:13.638Z</time>
      </trkpt>
      <trkpt lat="48.84173" lon="2.31511">
        <ele>125.7</ele>
        <time>2015-02-16T21:02:14.571Z</time>
      </trkpt>
      <trkpt lat="48.84179" lon="2.31504">
        <ele>125.2</ele>
        <time>2015-02-16T21:02:16.580Z</time>
      </trkpt>
      <trkpt lat="48.84181" lon="2.31501">
        <ele>125.2</ele>
        <time>2015-02-16T21:02:17.598Z</time>
      </trkpt>
      <trkpt lat="48.84186" lon="2.31491">
        <ele>125.2</ele>
        <time>2015-02-16T21:02:24.642Z</time>
      </trkpt>
      <trkpt lat="48.84187" lon="2.3149">
        <ele>125.1</ele>
        <time>2015-02-16T21:02:25.686Z</time>
      </trkpt>
      <trkpt lat="48.84195" lon="2.31487">
        <ele>120.2</ele>
        <time>2015-02-16T21:02:51.604Z</time>
      </trkpt>
      <trkpt lat="48.84196" lon="2.31488">
        <ele>120</ele>
        <time>2015-02-16T21:02:52.608Z</time>
      </trkpt>
      <trkpt lat="48.84195" lon="2.31492">
        <ele>119.7</ele>
        <time>2015-02-16T21:03:02.627Z</time>
      </trkpt>
      <trkpt lat="48.84196" lon="2.31492">
        <ele>119.7</ele>
        <time>2015-02-16T21:03:03.565Z</time>
      </trkpt>
      <trkpt lat="48.84196" lon="2.31492">
        <ele>119.7</ele>
        <time>2015-02-16T21:03:09.588Z</time>
      </trkpt>
      <trkpt lat="48.84198" lon="2.31492">
        <ele>120.2</ele>
        <time>2015-02-16T21:03:10.613Z</time>
      </trkpt>
      <trkpt lat="48.84205" lon="2.31494">
        <ele>120.3</ele>
        <time>2015-02-16T21:03:14.593Z</time>
      </trkpt>
      <trkpt lat="48.84207" lon="2.31495">
        <ele>120.2</ele>
        <time>2015-02-16T21:03:15.656Z</time>
      </trkpt>
      <trkpt lat="48.84214" lon="2.31499">
        <ele>120.2</ele>
        <time>2015-02-16T21:03:18.567Z</time>
      </trkpt>
      <trkpt lat="48.84217" lon="2.315">
        <ele>120.2</ele>
        <time>2015-02-16T21:03:19.622Z</time>
      </trkpt>
      <trkpt lat="48.84221" lon="2.31502">
        <ele>120.1</ele>
        <time>2015-02-16T21:03:21.556Z</time>
      </trkpt>
      <trkpt lat="48.84228" lon="2.31505">
        <ele>119.9</ele>
        <time>2015-02-16T21:03:24.589Z</time>
      </trkpt>
      <trkpt lat="48.84235" lon="2.315">
        <ele>119.5</ele>
        <time>2015-02-16T21:03:28.603Z</time>
      </trkpt>
      <trkpt lat="48.84237" lon="2.31497">
        <ele>119.4</ele>
        <time>2015-02-16T21:03:29.591Z</time>
      </trkpt>
      <trkpt lat="48.84244" lon="2.3149">
        <ele>119.1</ele>
        <time>2015-02-16T21:03:33.569Z</time>
      </trkpt>
      <trkpt lat="48.84245" lon="2.31488">
        <ele>119.2</ele>
        <time>2015-02-16T21:03:34.585Z</time>
      </trkpt>
      <trkpt lat="48.84251" lon="2.31477">
        <ele>117.6</ele>
        <time>2015-02-16T21:03:40.606Z</time>
      </trkpt>
      <trkpt lat="48.84251" lon="2.31475">
        <ele>117.1</ele>
        <time>2015-02-16T21:03:41.599Z</time>
      </trkpt>
      <trkpt lat="48.84251" lon="2.31474">
        <ele>117</ele>
        <time>2015-02-16T21:03:54.591Z</time>
      </trkpt>
      <trkpt lat="48.84249" lon="2.31452">
        <ele>114.9</ele>
        <time>2015-02-16T21:03:55.622Z</time>
      </trkpt>
      <trkpt lat="48.84251" lon="2.31451">
        <ele>114.6</ele>
        <time>2015-02-16T21:03:59.591Z</time>
      </trkpt>
      <trkpt lat="48.84252" lon="2.31451">
        <ele>114.6</ele>
        <time>2015-02-16T21:04:00.629Z</time>
      </trkpt>
      <trkpt lat="48.84254" lon="2.3145">
        <ele>114.3</ele>
        <time>2015-02-16T21:04:11.590Z</time>
      </trkpt>
      <trkpt lat="48.84258" lon="2.31446">
        <ele>113.7</ele>
        <time>2015-02-16T21:04:12.550Z</time>
      </trkpt>
      <trkpt lat="48.84266" lon="2.31442">
        <ele>113.5</ele>
        <time>2015-02-16T21:04:20.637Z</time>
      </trkpt>
      <trkpt lat="48.84272" lon="2.31437">
        <ele>113.2</ele>
        <time>2015-02-16T21:04:23.582Z</time>
      </trkpt>
      <trkpt lat="48.84275" lon="2.31436">
        <ele>113.2</ele>
        <time>2015-02-16T21:04:24.564Z</time>
      </trkpt>
      <trkpt lat="48.84286" lon="2.31429">
        <ele>113.5</ele>
        <time>2015-02-16T21:04:27.617Z</time>
      </trkpt>
      <trkpt lat="48.84293" lon="2.31425">
        <ele>114</ele>
        <time>2015-02-16T21:04:29.571Z</time>
      </trkpt>
      <trkpt lat="48.84296" lon="2.31423">
        <ele>114.2</ele>
        <time>2015-02-16T21:04:30.578Z</time>
      </trkpt>
      <trkpt lat="48.84301" lon="2.31421">
        <ele>114.4</ele>
        <time>2015-02-16T21:04:31.593Z</time>
      </trkpt>
      <trkpt lat="48.84305" lon="2.3142">
        <ele>114.7</ele>
        <time>2015-02-16T21:04:32.611Z</time>
      </trkpt>
      <trkpt lat="48.84313" lon="2.31416">
        <ele>115.1</ele>
        <time>2015-02-16T21:04:34.538Z</time>
      </trkpt>
      <trkpt lat="48.84316" lon="2.31414">
        <ele>115.2</ele>
        <time>2015-02-16T21:04:35.620Z</time>
      </trkpt>
      <trkpt lat="48.84322" lon="2.3141">
        <ele>115.4</ele>
        <time>2015-02-16T21:04:37.581Z</time>
      </trkpt>
      <trkpt lat="48.84325" lon="2.31405">
        <ele>115.7</ele>
        <time>2015-02-16T21:04:38.621Z</time>
      </trkpt>
      <trkpt lat="48.84331" lon="2.31414">
        <ele>114.2</ele>
        <time>2015-02-16T21:04:41.547Z</time>
      </trkpt>
      <trkpt lat="48.84333" lon="2.31417">
        <ele>113.3</ele>
        <time>2015-02-16T21:04:42.613Z</time>
      </trkpt>
      <trkpt lat="48.84335" lon="2.3143">
        <ele>112.2</ele>
        <time>2015-02-16T21:04:44.543Z</time>
      </trkpt>
      <trkpt lat="48.84335" lon="2.31436">
        <ele>111.6</ele>
        <time>2015-02-16T21:04:45.613Z</time>
      </trkpt>
      <trkpt lat="48.84336" lon="2.31446">
        <ele>110.7</ele>
        <time>2015-02-16T21:04:47.658Z</time>
      </trkpt>
      <trkpt lat="48.84337" lon="2.31452">
        <ele>110.4</ele>
        <time>2015-02-16T21:04:48.860Z</time>
      </trkpt>
      <trkpt lat="48.84336" lon="2.31465">
        <ele>109.7</ele>
        <time>2015-02-16T21:04:50.602Z</time>
      </trkpt>
      <trkpt lat="48.84334" lon="2.31473">
        <ele>109.4</ele>
        <time>2015-02-16T21:04:51.651Z</time>
      </trkpt>
      <trkpt lat="48.84333" lon="2.31481">
        <ele>109</ele>
        <time>2015-02-16T21:04:52.562Z</time>
      </trkpt>
      <trkpt lat="48.84332" lon="2.31488">
        <ele>108.6</ele>
        <time>2015-02-16T21:04:53.582Z</time>
      </trkpt>
      <trkpt lat="48.84331" lon="2.31497">
        <ele>108.3</ele>
        <time>2015-02-16T21:04:54.595Z</time>
      </trkpt>
      <trkpt lat="48.8433" lon="2.31505">
        <ele>107.9</ele>
        <time>2015-02-16T21:04:55.733Z</time>
      </trkpt>
      <trkpt lat="48.8433" lon="2.31513">
        <ele>107.5</ele>
        <time>2015-02-16T21:04:56.654Z</time>
      </trkpt>
      <trkpt lat="48.8433" lon="2.31522">
        <ele>107.1</ele>
        <time>2015-02-16T21:04:57.664Z</time>
      </trkpt>
      <trkpt lat="48.8433" lon="2.3153">
        <ele>106.7</ele>
        <time>2015-02-16T21:04:58.672Z</time>
      </trkpt>
      <trkpt lat="48.84331" lon="2.31538">
        <ele>106.4</ele>
        <time>2015-02-16T21:04:59.573Z</time>
      </trkpt>
      <trkpt lat="48.84334" lon="2.31546">
        <ele>106</ele>
        <time>2015-02-16T21:05:00.581Z</time>
      </trkpt>
      <trkpt lat="48.84337" lon="2.31553">
        <ele>105.6</ele>
        <time>2015-02-16T21:05:01.653Z</time>
      </trkpt>
      <trkpt lat="48.84341" lon="2.31559">
        <ele>105.2</ele>
        <time>2015-02-16T21:05:02.586Z</time>
      </trkpt>
      <trkpt lat="48.84345" lon="2.31566">
        <ele>104.4</ele>
        <time>2015-02-16T21:05:03.586Z</time>
      </trkpt>
      <trkpt lat="48.84348" lon="2.31572">
        <ele>103.7</ele>
        <time>2015-02-16T21:05:04.639Z</time>
      </trkpt>
      <trkpt lat="48.84353" lon="2.31578">
        <ele>103.4</ele>
        <time>2015-02-16T21:05:05.651Z</time>
      </trkpt>
      <trkpt lat="48.84359" lon="2.31584">
        <ele>103.5</ele>
        <time>2015-02-16T21:05:06.661Z</time>
      </trkpt>
      <trkpt lat="48.84364" lon="2.31591">
        <ele>103.6</ele>
        <time>2015-02-16T21:05:07.681Z</time>
      </trkpt>
      <trkpt lat="48.84368" lon="2.31598">
        <ele>103.2</ele>
        <time>2015-02-16T21:05:08.578Z</time>
      </trkpt>
      <trkpt lat="48.84372" lon="2.31606">
        <ele>102.8</ele>
        <time>2015-02-16T21:05:09.586Z</time>
      </trkpt>
      <trkpt lat="48.84377" lon="2.31612">
        <ele>102.2</ele>
        <time>2015-02-16T21:05:10.597Z</time>
      </trkpt>
      <trkpt lat="48.8438" lon="2.3162">
        <ele>102.1</ele>
        <time>2015-02-16T21:05:11.603Z</time>
      </trkpt>
      <trkpt lat="48.84382" lon="2.31628">
        <ele>101.8</ele>
        <time>2015-02-16T21:05:12.609Z</time>
      </trkpt>
      <trkpt lat="48.84385" lon="2.31636">
        <ele>101.6</ele>
        <time>2015-02-16T21:05:13.661Z</time>
      </trkpt>
      <trkpt lat="48.84389" lon="2.31645">
        <ele>101.2</ele>
        <time>2015-02-16T21:05:14.575Z</time>
      </trkpt>
      <trkpt lat="48.84393" lon="2.31653">
        <ele>101.1</ele>
        <time>2015-02-16T21:05:15.609Z</time>
      </trkpt>
      <trkpt lat="48.84397" lon="2.31659">
        <ele>100.9</ele>
        <time>2015-02-16T21:05:16.622Z</time>
      </trkpt>
      <trkpt lat="48.84401" lon="2.31665">
        <ele>100.7</ele>
        <time>2015-02-16T21:05:17.631Z</time>
      </trkpt>
      <trkpt lat="48.84403" lon="2.31674">
        <ele>100.4</ele>
        <time>2015-02-16T21:05:18.643Z</time>
      </trkpt>
      <trkpt lat="48.84407" lon="2.31682">
        <ele>100.3</ele>
        <time>2015-02-16T21:05:19.672Z</time>
      </trkpt>
      <trkpt lat="48.84411" lon="2.31689">
        <ele>100.2</ele>
        <time>2015-02-16T21:05:20.571Z</time>
      </trkpt>
      <trkpt lat="48.84414" lon="2.31697">
        <ele>100.1</ele>
        <time>2015-02-16T21:05:21.573Z</time>
      </trkpt>
      <trkpt lat="48.84417" lon="2.31706">
        <ele>99.8</ele>
        <time>2015-02-16T21:05:22.589Z</time>
      </trkpt>
      <trkpt lat="48.8442" lon="2.31714">
        <ele>99.5</ele>
        <time>2015-02-16T21:05:23.591Z</time>
      </trkpt>
      <trkpt lat="48.84424" lon="2.31721">
        <ele>99.3</ele>
        <time>2015-02-16T21:05:24.579Z</time>
      </trkpt>
      <trkpt lat="48.84427" lon="2.31729">
        <ele>99</ele>
        <time>2015-02-16T21:05:25.617Z</time>
      </trkpt>
      <trkpt lat="48.84429" lon="2.31736">
        <ele>98.7</ele>
        <time>2015-02-16T21:05:26.656Z</time>
      </trkpt>
      <trkpt lat="48.84431" lon="2.31743">
        <ele>98.7</ele>
        <time>2015-02-16T21:05:27.573Z</time>
      </trkpt>
      <trkpt lat="48.84432" lon="2.3175">
        <ele>98.6</ele>
        <time>2015-02-16T21:05:28.551Z</time>
      </trkpt>
      <trkpt lat="48.84433" lon="2.31757">
        <ele>98.3</ele>
        <time>2015-02-16T21:05:29.551Z</time>
      </trkpt>
      <trkpt lat="48.84436" lon="2.31762">
        <ele>98.3</ele>
        <time>2015-02-16T21:05:30.637Z</time>
      </trkpt>
      <trkpt lat="48.8444" lon="2.31766">
        <ele>97.9</ele>
        <time>2015-02-16T21:05:31.587Z</time>
      </trkpt>
      <trkpt lat="48.84447" lon="2.31772">
        <ele>97.6</ele>
        <time>2015-02-16T21:05:33.563Z</time>
      </trkpt>
      <trkpt lat="48.8445" lon="2.31774">
        <ele>97.8</ele>
        <time>2015-02-16T21:05:34.616Z</time>
      </trkpt>
      <trkpt lat="48.84457" lon="2.3178">
        <ele>98.1</ele>
        <time>2015-02-16T21:05:36.931Z</time>
      </trkpt>
      <trkpt lat="48.8446" lon="2.31783">
        <ele>98.1</ele>
        <time>2015-02-16T21:05:37.659Z</time>
      </trkpt>
      <trkpt lat="48.84465" lon="2.31789">
        <ele>98.2</ele>
        <time>2015-02-16T21:05:39.692Z</time>
      </trkpt>
      <trkpt lat="48.84469" lon="2.31791">
        <ele>98.1</ele>
        <time>2015-02-16T21:05:40.625Z</time>
      </trkpt>
      <trkpt lat="48.84474" lon="2.31799">
        <ele>97.9</ele>
        <time>2015-02-16T21:05:42.688Z</time>
      </trkpt>
      <trkpt lat="48.84477" lon="2.31803">
        <ele>97.8</ele>
        <time>2015-02-16T21:05:43.765Z</time>
      </trkpt>
      <trkpt lat="48.84481" lon="2.31812">
        <ele>98</ele>
        <time>2015-02-16T21:05:45.642Z</time>
      </trkpt>
      <trkpt lat="48.84483" lon="2.31818">
        <ele>98.1</ele>
        <time>2015-02-16T21:05:46.648Z</time>
      </trkpt>
      <trkpt lat="48.84488" lon="2.31827">
        <ele>98.2</ele>
        <time>2015-02-16T21:05:48.587Z</time>
      </trkpt>
      <trkpt lat="48.84491" lon="2.31832">
        <ele>98.2</ele>
        <time>2015-02-16T21:05:49.662Z</time>
      </trkpt>
      <trkpt lat="48.84493" lon="2.31839">
        <ele>98.2</ele>
        <time>2015-02-16T21:05:50.696Z</time>
      </trkpt>
      <trkpt lat="48.84496" lon="2.31846">
        <ele>98.2</ele>
        <time>2015-02-16T21:05:51.551Z</time>
      </trkpt>
      <trkpt lat="48.84499" lon="2.31857">
        <ele>98.5</ele>
        <time>2015-02-16T21:05:53.577Z</time>
      </trkpt>
      <trkpt lat="48.845" lon="2.31864">
        <ele>98.8</ele>
        <time>2015-02-16T21:05:54.575Z</time>
      </trkpt>
      <trkpt lat="48.84505" lon="2.31874">
        <ele>99.6</ele>
        <time>2015-02-16T21:05:56.624Z</time>
      </trkpt>
      <trkpt lat="48.84506" lon="2.3188">
        <ele>99.6</ele>
        <time>2015-02-16T21:05:57.663Z</time>
      </trkpt>
      <trkpt lat="48.84509" lon="2.31892">
        <ele>99.9</ele>
        <time>2015-02-16T21:05:59.621Z</time>
      </trkpt>
      <trkpt lat="48.84513" lon="2.31896">
        <ele>100</ele>
        <time>2015-02-16T21:06:00.584Z</time>
      </trkpt>
      <trkpt lat="48.84518" lon="2.31896">
        <ele>99.6</ele>
        <time>2015-02-16T21:06:01.668Z</time>
      </trkpt>
      <trkpt lat="48.84524" lon="2.31894">
        <ele>99.4</ele>
        <time>2015-02-16T21:06:02.574Z</time>
      </trkpt>
      <trkpt lat="48.84532" lon="2.31894">
        <ele>99.7</ele>
        <time>2015-02-16T21:06:04.599Z</time>
      </trkpt>
      <trkpt lat="48.84533" lon="2.31895">
        <ele>99.9</ele>
        <time>2015-02-16T21:06:05.618Z</time>
      </trkpt>
      <trkpt lat="48.84537" lon="2.31901">
        <ele>100.9</ele>
        <time>2015-02-16T21:06:08.640Z</time>
      </trkpt>
      <trkpt lat="48.84537" lon="2.31903">
        <ele>101.1</ele>
        <time>2015-02-16T21:06:09.727Z</time>
      </trkpt>
      <trkpt lat="48.84538" lon="2.31903">
        <ele>101.3</ele>
        <time>2015-02-16T21:06:12.622Z</time>
      </trkpt>
      <trkpt lat="48.84539" lon="2.31904">
        <ele>101.4</ele>
        <time>2015-02-16T21:06:13.659Z</time>
      </trkpt>
      <trkpt lat="48.84539" lon="2.31905">
        <ele>101.4</ele>
        <time>2015-02-16T21:06:14.591Z</time>
      </trkpt>
      <trkpt lat="48.8454" lon="2.31905">
        <ele>101.3</ele>
        <time>2015-02-16T21:06:15.586Z</time>
      </trkpt>
      <trkpt lat="48.84541" lon="2.31905">
        <ele>101.3</ele>
        <time>2015-02-16T21:06:16.728Z</time>
      </trkpt>
      <trkpt lat="48.84545" lon="2.31905">
        <ele>101.7</ele>
        <time>2015-02-16T21:06:17.656Z</time>
      </trkpt>
      <trkpt lat="48.84549" lon="2.31905">
        <ele>102.1</ele>
        <time>2015-02-16T21:06:18.670Z</time>
      </trkpt>
      <trkpt lat="48.84549" lon="2.31904">
        <ele>102.1</ele>
        <time>2015-02-16T21:06:19.701Z</time>
      </trkpt>
      <trkpt lat="48.8455" lon="2.31904">
        <ele>102</ele>
        <time>2015-02-16T21:06:20.658Z</time>
      </trkpt>
      <trkpt lat="48.84553" lon="2.31904">
        <ele>102.4</ele>
        <time>2015-02-16T21:06:21.591Z</time>
      </trkpt>
      <trkpt lat="48.84561" lon="2.31905">
        <ele>103.8</ele>
        <time>2015-02-16T21:06:26.684Z</time>
      </trkpt>
      <trkpt lat="48.84562" lon="2.31908">
        <ele>104.1</ele>
        <time>2015-02-16T21:06:27.596Z</time>
      </trkpt>
      <trkpt lat="48.84563" lon="2.3191">
        <ele>104.3</ele>
        <time>2015-02-16T21:06:28.592Z</time>
      </trkpt>
      <trkpt lat="48.84564" lon="2.3191">
        <ele>104.8</ele>
        <time>2015-02-16T21:06:46.636Z</time>
      </trkpt>
      <trkpt lat="48.84561" lon="2.31913">
        <ele>108.2</ele>
        <time>2015-02-16T21:06:47.684Z</time>
      </trkpt>
      <trkpt lat="48.84566" lon="2.31906">
        <ele>108.2</ele>
        <time>2015-02-16T21:06:53.625Z</time>
      </trkpt>
      <trkpt lat="48.84567" lon="2.31903">
        <ele>108.3</ele>
        <time>2015-02-16T21:06:54.653Z</time>
      </trkpt>
      <trkpt lat="48.84571" lon="2.31894">
        <ele>108.5</ele>
        <time>2015-02-16T21:06:56.581Z</time>
      </trkpt>
      <trkpt lat="48.84573" lon="2.31887">
        <ele>108.8</ele>
        <time>2015-02-16T21:06:57.595Z</time>
      </trkpt>
      <trkpt lat="48.84577" lon="2.31882">
        <ele>108.8</ele>
        <time>2015-02-16T21:06:58.617Z</time>
      </trkpt>
      <trkpt lat="48.8458" lon="2.31877">
        <ele>108.8</ele>
        <time>2015-02-16T21:06:59.625Z</time>
      </trkpt>
      <trkpt lat="48.84587" lon="2.31869">
        <ele>108.9</ele>
        <time>2015-02-16T21:07:01.644Z</time>
      </trkpt>
      <trkpt lat="48.84591" lon="2.31864">
        <ele>109</ele>
        <time>2015-02-16T21:07:02.659Z</time>
      </trkpt>
      <trkpt lat="48.84594" lon="2.3186">
        <ele>109.1</ele>
        <time>2015-02-16T21:07:03.583Z</time>
      </trkpt>
      <trkpt lat="48.84598" lon="2.31856">
        <ele>109.1</ele>
        <time>2015-02-16T21:07:04.582Z</time>
      </trkpt>
      <trkpt lat="48.84602" lon="2.31852">
        <ele>109.3</ele>
        <time>2015-02-16T21:07:05.600Z</time>
      </trkpt>
      <trkpt lat="48.84606" lon="2.31847">
        <ele>109.4</ele>
        <time>2015-02-16T21:07:06.608Z</time>
      </trkpt>
      <trkpt lat="48.8461" lon="2.31842">
        <ele>109.4</ele>
        <time>2015-02-16T21:07:07.623Z</time>
      </trkpt>
      <trkpt lat="48.84614" lon="2.31837">
        <ele>109.5</ele>
        <time>2015-02-16T21:07:08.621Z</time>
      </trkpt>
      <trkpt lat="48.84618" lon="2.31832">
        <ele>109.7</ele>
        <time>2015-02-16T21:07:09.648Z</time>
      </trkpt>
      <trkpt lat="48.84621" lon="2.31826">
        <ele>109.6</ele>
        <time>2015-02-16T21:07:10.662Z</time>
      </trkpt>
      <trkpt lat="48.84624" lon="2.31819">
        <ele>109.2</ele>
        <time>2015-02-16T21:07:11.679Z</time>
      </trkpt>
      <trkpt lat="48.84627" lon="2.31812">
        <ele>109.2</ele>
        <time>2015-02-16T21:07:12.601Z</time>
      </trkpt>
      <trkpt lat="48.84631" lon="2.31806">
        <ele>109.2</ele>
        <time>2015-02-16T21:07:13.640Z</time>
      </trkpt>
      <trkpt lat="48.84634" lon="2.31799">
        <ele>109.3</ele>
        <time>2015-02-16T21:07:14.665Z</time>
      </trkpt>
      <trkpt lat="48.84637" lon="2.31791">
        <ele>109.5</ele>
        <time>2015-02-16T21:07:15.585Z</time>
      </trkpt>
      <trkpt lat="48.8464" lon="2.31783">
        <ele>109.5</ele>
        <time>2015-02-16T21:07:16.585Z</time>
      </trkpt>
      <trkpt lat="48.84642" lon="2.31774">
        <ele>109.6</ele>
        <time>2015-02-16T21:07:17.612Z</time>
      </trkpt>
      <trkpt lat="48.84646" lon="2.31767">
        <ele>109.6</ele>
        <time>2015-02-16T21:07:18.632Z</time>
      </trkpt>
      <trkpt lat="48.84648" lon="2.3176">
        <ele>109.8</ele>
        <time>2015-02-16T21:07:19.647Z</time>
      </trkpt>
      <trkpt lat="48.84651" lon="2.31752">
        <ele>109.9</ele>
        <time>2015-02-16T21:07:20.653Z</time>
      </trkpt>
      <trkpt lat="48.84653" lon="2.31744">
        <ele>110</ele>
        <time>2015-02-16T21:07:21.665Z</time>
      </trkpt>
      <trkpt lat="48.84656" lon="2.31736">
        <ele>110.1</ele>
        <time>2015-02-16T21:07:22.584Z</time>
      </trkpt>
      <trkpt lat="48.84659" lon="2.31729">
        <ele>110.2</ele>
        <time>2015-02-16T21:07:23.594Z</time>
      </trkpt>
      <trkpt lat="48.84662" lon="2.31722">
        <ele>110.4</ele>
        <time>2015-02-16T21:07:24.674Z</time>
      </trkpt>
      <trkpt lat="48.84665" lon="2.31715">
        <ele>110.5</ele>
        <time>2015-02-16T21:07:25.696Z</time>
      </trkpt>
      <trkpt lat="48.84667" lon="2.31707">
        <ele>110.5</ele>
        <time>2015-02-16T21:07:26.583Z</time>
      </trkpt>
      <trkpt lat="48.84668" lon="2.31696">
        <ele>111.1</ele>
        <time>2015-02-16T21:07:27.660Z</time>
      </trkpt>
      <trkpt lat="48.8467" lon="2.31687">
        <ele>111.4</ele>
        <time>2015-02-16T21:07:28.630Z</time>
      </trkpt>
      <trkpt lat="48.84675" lon="2.31676">
        <ele>112.3</ele>
        <time>2015-02-16T21:07:30.593Z</time>
      </trkpt>
      <trkpt lat="48.84677" lon="2.31671">
        <ele>112.6</ele>
        <time>2015-02-16T21:07:31.651Z</time>
      </trkpt>
      <trkpt lat="48.84684" lon="2.31663">
        <ele>113.9</ele>
        <time>2015-02-16T21:07:33.579Z</time>
      </trkpt>
      <trkpt lat="48.84687" lon="2.3166">
        <ele>115</ele>
        <time>2015-02-16T21:07:34.586Z</time>
      </trkpt>
      <trkpt lat="48.84694" lon="2.31652">
        <ele>116.3</ele>
        <time>2015-02-16T21:07:36.639Z</time>
      </trkpt>
      <trkpt lat="48.84696" lon="2.31648">
        <ele>117.1</ele>
        <time>2015-02-16T21:07:37.650Z</time>
      </trkpt>
      <trkpt lat="48.84702" lon="2.3164">
        <ele>118</ele>
        <time>2015-02-16T21:07:39.641Z</time>
      </trkpt>
      <trkpt lat="48.84705" lon="2.31636">
        <ele>118.6</ele>
        <time>2015-02-16T21:07:40.644Z</time>
      </trkpt>
      <trkpt lat="48.84711" lon="2.31627">
        <ele>119.8</ele>
        <time>2015-02-16T21:07:42.578Z</time>
      </trkpt>
      <trkpt lat="48.84714" lon="2.31624">
        <ele>120.2</ele>
        <time>2015-02-16T21:07:43.639Z</time>
      </trkpt>
      <trkpt lat="48.84722" lon="2.31617">
        <ele>121.1</ele>
        <time>2015-02-16T21:07:45.569Z</time>
      </trkpt>
      <trkpt lat="48.84726" lon="2.31614">
        <ele>121.6</ele>
        <time>2015-02-16T21:07:46.664Z</time>
      </trkpt>
      <trkpt lat="48.84734" lon="2.31609">
        <ele>122.1</ele>
        <time>2015-02-16T21:07:48.653Z</time>
      </trkpt>
      <trkpt lat="48.84737" lon="2.31608">
        <ele>122.4</ele>
        <time>2015-02-16T21:07:49.668Z</time>
      </trkpt>
      <trkpt lat="48.84746" lon="2.31606">
        <ele>122.9</ele>
        <time>2015-02-16T21:07:52.657Z</time>
      </trkpt>
      <trkpt lat="48.84748" lon="2.31606">
        <ele>122.9</ele>
        <time>2015-02-16T21:07:53.584Z</time>
      </trkpt>
      <trkpt lat="48.84757" lon="2.31611">
        <ele>121</ele>
        <time>2015-02-16T21:07:57.553Z</time>
      </trkpt>
      <trkpt lat="48.84759" lon="2.31611">
        <ele>121</ele>
        <time>2015-02-16T21:07:58.587Z</time>
      </trkpt>
      <trkpt lat="48.84767" lon="2.31608">
        <ele>121.1</ele>
        <time>2015-02-16T21:08:01.645Z</time>
      </trkpt>
      <trkpt lat="48.84769" lon="2.31607">
        <ele>121</ele>
        <time>2015-02-16T21:08:02.575Z</time>
      </trkpt>
      <trkpt lat="48.84776" lon="2.31604">
        <ele>121.2</ele>
        <time>2015-02-16T21:08:05.594Z</time>
      </trkpt>
      <trkpt lat="48.84778" lon="2.31603">
        <ele>121.2</ele>
        <time>2015-02-16T21:08:06.609Z</time>
      </trkpt>
      <trkpt lat="48.84785" lon="2.31599">
        <ele>121.2</ele>
        <time>2015-02-16T21:08:09.656Z</time>
      </trkpt>
      <trkpt lat="48.84787" lon="2.31598">
        <ele>121.2</ele>
        <time>2015-02-16T21:08:10.574Z</time>
      </trkpt>
      <trkpt lat="48.84795" lon="2.31594">
        <ele>120.8</ele>
        <time>2015-02-16T21:08:13.602Z</time>
      </trkpt>
      <trkpt lat="48.84797" lon="2.31592">
        <ele>120.6</ele>
        <time>2015-02-16T21:08:14.547Z</time>
      </trkpt>
      <trkpt lat="48.84803" lon="2.31589">
        <ele>120</ele>
        <time>2015-02-16T21:08:16.597Z</time>
      </trkpt>
      <trkpt lat="48.84806" lon="2.31587">
        <ele>119.9</ele>
        <time>2015-02-16T21:08:17.609Z</time>
      </trkpt>
      <trkpt lat="48.84813" lon="2.31584">
        <ele>119.8</ele>
        <time>2015-02-16T21:08:19.636Z</time>
      </trkpt>
      <trkpt lat="48.84818" lon="2.31582">
        <ele>119.9</ele>
        <time>2015-02-16T21:08:20.579Z</time>
      </trkpt>
      <trkpt lat="48.84826" lon="2.31581">
        <ele>119.9</ele>
        <time>2015-02-16T21:08:22.573Z</time>
      </trkpt>
      <trkpt lat="48.8483" lon="2.31581">
        <ele>119.9</ele>
        <time>2015-02-16T21:08:23.587Z</time>
      </trkpt>
      <trkpt lat="48.84838" lon="2.31579">
        <ele>120</ele>
        <time>2015-02-16T21:08:25.608Z</time>
      </trkpt>
      <trkpt lat="48.84842" lon="2.31578">
        <ele>120</ele>
        <time>2015-02-16T21:08:26.628Z</time>
      </trkpt>
      <trkpt lat="48.8485" lon="2.31576">
        <ele>119.9</ele>
        <time>2015-02-16T21:08:28.567Z</time>
      </trkpt>
      <trkpt lat="48.84854" lon="2.31574">
        <ele>119.7</ele>
        <time>2015-02-16T21:08:29.573Z</time>
      </trkpt>
      <trkpt lat="48.84858" lon="2.31572">
        <ele>119.5</ele>
        <time>2015-02-16T21:08:30.587Z</time>
      </trkpt>
      <trkpt lat="48.84863" lon="2.31571">
        <ele>119.4</ele>
        <time>2015-02-16T21:08:31.615Z</time>
      </trkpt>
      <trkpt lat="48.84867" lon="2.31568">
        <ele>119.4</ele>
        <time>2015-02-16T21:08:32.658Z</time>
      </trkpt>
      <trkpt lat="48.84871" lon="2.31566">
        <ele>119.4</ele>
        <time>2015-02-16T21:08:33.662Z</time>
      </trkpt>
      <trkpt lat="48.84879" lon="2.31562">
        <ele>119.5</ele>
        <time>2015-02-16T21:08:35.589Z</time>
      </trkpt>
      <trkpt lat="48.84884" lon="2.3156">
        <ele>119.3</ele>
        <time>2015-02-16T21:08:36.613Z</time>
      </trkpt>
      <trkpt lat="48.84888" lon="2.31558">
        <ele>119.1</ele>
        <time>2015-02-16T21:08:37.682Z</time>
      </trkpt>
      <trkpt lat="48.84892" lon="2.31557">
        <ele>119.1</ele>
        <time>2015-02-16T21:08:38.600Z</time>
      </trkpt>
      <trkpt lat="48.84897" lon="2.31556">
        <ele>118.7</ele>
        <time>2015-02-16T21:08:39.604Z</time>
      </trkpt>
      <trkpt lat="48.84902" lon="2.31554">
        <ele>118.7</ele>
        <time>2015-02-16T21:08:40.613Z</time>
      </trkpt>
      <trkpt lat="48.84906" lon="2.31551">
        <ele>118.5</ele>
        <time>2015-02-16T21:08:41.621Z</time>
      </trkpt>
      <trkpt lat="48.84911" lon="2.31548">
        <ele>118.3</ele>
        <time>2015-02-16T21:08:42.651Z</time>
      </trkpt>
      <trkpt lat="48.84915" lon="2.31545">
        <ele>118.4</ele>
        <time>2015-02-16T21:08:43.657Z</time>
      </trkpt>
      <trkpt lat="48.84919" lon="2.31541">
        <ele>118.5</ele>
        <time>2015-02-16T21:08:44.662Z</time>
      </trkpt>
      <trkpt lat="48.84927" lon="2.31535">
        <ele>118.6</ele>
        <time>2015-02-16T21:08:46.670Z</time>
      </trkpt>
      <trkpt lat="48.84931" lon="2.31533">
        <ele>118.5</ele>
        <time>2015-02-16T21:08:47.681Z</time>
      </trkpt>
      <trkpt lat="48.84938" lon="2.31528">
        <ele>118.3</ele>
        <time>2015-02-16T21:08:49.593Z</time>
      </trkpt>
      <trkpt lat="48.84941" lon="2.31525">
        <ele>118.2</ele>
        <time>2015-02-16T21:08:50.599Z</time>
      </trkpt>
      <trkpt lat="48.84949" lon="2.3152">
        <ele>118.5</ele>
        <time>2015-02-16T21:08:53.577Z</time>
      </trkpt>
      <trkpt lat="48.84951" lon="2.31518">
        <ele>118.7</ele>
        <time>2015-02-16T21:08:54.588Z</time>
      </trkpt>
      <trkpt lat="48.84957" lon="2.31509">
        <ele>117.8</ele>
        <time>2015-02-16T21:08:57.598Z</time>
      </trkpt>
      <trkpt lat="48.84959" lon="2.31507">
        <ele>117.7</ele>
        <time>2015-02-16T21:08:58.611Z</time>
      </trkpt>
      <trkpt lat="48.84965" lon="2.31503">
        <ele>118.4</ele>
        <time>2015-02-16T21:09:01.682Z</time>
      </trkpt>
      <trkpt lat="48.84967" lon="2.315">
        <ele>118.4</ele>
        <time>2015-02-16T21:09:02.595Z</time>
      </trkpt>
      <trkpt lat="48.84974" lon="2.31493">
        <ele>119.4</ele>
        <time>2015-02-16T21:09:05.612Z</time>
      </trkpt>
      <trkpt lat="48.84978" lon="2.31489">
        <ele>120.2</ele>
        <time>2015-02-16T21:09:06.624Z</time>
      </trkpt>
      <trkpt lat="48.84984" lon="2.31483">
        <ele>121</ele>
        <time>2015-02-16T21:09:08.546Z</time>
      </trkpt>
      <trkpt lat="48.84987" lon="2.31482">
        <ele>120.7</ele>
        <time>2015-02-16T21:09:09.571Z</time>
      </trkpt>
      <trkpt lat="48.84994" lon="2.31477">
        <ele>120.7</ele>
        <time>2015-02-16T21:09:11.585Z</time>
      </trkpt>
      <trkpt lat="48.84998" lon="2.31475">
        <ele>120.8</ele>
        <time>2015-02-16T21:09:12.605Z</time>
      </trkpt>
      <trkpt lat="48.85006" lon="2.31471">
        <ele>120.4</ele>
        <time>2015-02-16T21:09:14.618Z</time>
      </trkpt>
      <trkpt lat="48.85009" lon="2.31469">
        <ele>120.4</ele>
        <time>2015-02-16T21:09:15.625Z</time>
      </trkpt>
      <trkpt lat="48.85018" lon="2.31465">
        <ele>119.8</ele>
        <time>2015-02-16T21:09:17.570Z</time>
      </trkpt>
      <trkpt lat="48.85022" lon="2.31464">
        <ele>119.8</ele>
        <time>2015-02-16T21:09:18.600Z</time>
      </trkpt>
      <trkpt lat="48.8503" lon="2.3146">
        <ele>119.5</ele>
        <time>2015-02-16T21:09:20.661Z</time>
      </trkpt>
      <trkpt lat="48.85034" lon="2.31458">
        <ele>119.4</ele>
        <time>2015-02-16T21:09:21.548Z</time>
      </trkpt>
      <trkpt lat="48.85038" lon="2.31457">
        <ele>119.3</ele>
        <time>2015-02-16T21:09:22.632Z</time>
      </trkpt>
      <trkpt lat="48.85043" lon="2.31454">
        <ele>119</ele>
        <time>2015-02-16T21:09:23.630Z</time>
      </trkpt>
      <trkpt lat="48.85051" lon="2.31451">
        <ele>118.4</ele>
        <time>2015-02-16T21:09:25.665Z</time>
      </trkpt>
      <trkpt lat="48.85055" lon="2.31448">
        <ele>118.2</ele>
        <time>2015-02-16T21:09:26.673Z</time>
      </trkpt>
      <trkpt lat="48.8506" lon="2.31446">
        <ele>118.3</ele>
        <time>2015-02-16T21:09:27.586Z</time>
      </trkpt>
      <trkpt lat="48.85064" lon="2.31444">
        <ele>118.1</ele>
        <time>2015-02-16T21:09:28.596Z</time>
      </trkpt>
      <trkpt lat="48.85068" lon="2.31442">
        <ele>118.2</ele>
        <time>2015-02-16T21:09:29.610Z</time>
      </trkpt>
      <trkpt lat="48.85073" lon="2.31441">
        <ele>118.1</ele>
        <time>2015-02-16T21:09:30.621Z</time>
      </trkpt>
      <trkpt lat="48.85077" lon="2.31439">
        <ele>118</ele>
        <time>2015-02-16T21:09:31.663Z</time>
      </trkpt>
      <trkpt lat="48.85082" lon="2.31438">
        <ele>117.7</ele>
        <time>2015-02-16T21:09:32.672Z</time>
      </trkpt>
      <trkpt lat="48.85091" lon="2.31437">
        <ele>117.6</ele>
        <time>2015-02-16T21:09:34.578Z</time>
      </trkpt>
      <trkpt lat="48.85095" lon="2.31437">
        <ele>117.5</ele>
        <time>2015-02-16T21:09:35.590Z</time>
      </trkpt>
      <trkpt lat="48.85103" lon="2.31437">
        <ele>117</ele>
        <time>2015-02-16T21:09:37.614Z</time>
      </trkpt>
      <trkpt lat="48.85107" lon="2.31437">
        <ele>116.7</ele>
        <time>2015-02-16T21:09:38.621Z</time>
      </trkpt>
      <trkpt lat="48.85115" lon="2.31438">
        <ele>116.7</ele>
        <time>2015-02-16T21:09:40.635Z</time>
      </trkpt>
      <trkpt lat="48.85119" lon="2.31438">
        <ele>116.8</ele>
        <time>2015-02-16T21:09:41.654Z</time>
      </trkpt>
      <trkpt lat="48.85127" lon="2.31439">
        <ele>116.7</ele>
        <time>2015-02-16T21:09:43.673Z</time>
      </trkpt>
      <trkpt lat="48.85131" lon="2.31439">
        <ele>116.9</ele>
        <time>2015-02-16T21:09:44.592Z</time>
      </trkpt>
      <trkpt lat="48.85138" lon="2.31441">
        <ele>117.3</ele>
        <time>2015-02-16T21:09:46.611Z</time>
      </trkpt>
      <trkpt lat="48.85142" lon="2.31442">
        <ele>117.4</ele>
        <time>2015-02-16T21:09:47.618Z</time>
      </trkpt>
      <trkpt lat="48.85147" lon="2.31444">
        <ele>117.1</ele>
        <time>2015-02-16T21:09:48.632Z</time>
      </trkpt>
      <trkpt lat="48.85152" lon="2.31444">
        <ele>116.7</ele>
        <time>2015-02-16T21:09:49.637Z</time>
      </trkpt>
      <trkpt lat="48.85157" lon="2.31445">
        <ele>116.5</ele>
        <time>2015-02-16T21:09:50.648Z</time>
      </trkpt>
      <trkpt lat="48.85162" lon="2.31447">
        <ele>116.5</ele>
        <time>2015-02-16T21:09:51.650Z</time>
      </trkpt>
      <trkpt lat="48.85166" lon="2.31448">
        <ele>116.2</ele>
        <time>2015-02-16T21:09:52.660Z</time>
      </trkpt>
      <trkpt lat="48.85171" lon="2.31448">
        <ele>116.1</ele>
        <time>2015-02-16T21:09:53.674Z</time>
      </trkpt>
      <trkpt lat="48.85175" lon="2.31448">
        <ele>116.1</ele>
        <time>2015-02-16T21:09:54.681Z</time>
      </trkpt>
      <trkpt lat="48.8518" lon="2.31448">
        <ele>116.2</ele>
        <time>2015-02-16T21:09:55.636Z</time>
      </trkpt>
      <trkpt lat="48.85184" lon="2.31448">
        <ele>116.2</ele>
        <time>2015-02-16T21:09:56.651Z</time>
      </trkpt>
      <trkpt lat="48.85189" lon="2.31446">
        <ele>116.6</ele>
        <time>2015-02-16T21:09:57.656Z</time>
      </trkpt>
      <trkpt lat="48.85194" lon="2.31447">
        <ele>116.6</ele>
        <time>2015-02-16T21:09:58.580Z</time>
      </trkpt>
      <trkpt lat="48.85199" lon="2.31447">
        <ele>116.5</ele>
        <time>2015-02-16T21:09:59.586Z</time>
      </trkpt>
      <trkpt lat="48.85207" lon="2.31448">
        <ele>116.3</ele>
        <time>2015-02-16T21:10:01.653Z</time>
      </trkpt>
      <trkpt lat="48.85211" lon="2.31448">
        <ele>116.5</ele>
        <time>2015-02-16T21:10:02.655Z</time>
      </trkpt>
      <trkpt lat="48.8522" lon="2.31449">
        <ele>116.5</ele>
        <time>2015-02-16T21:10:04.561Z</time>
      </trkpt>
      <trkpt lat="48.85224" lon="2.31449">
        <ele>116.6</ele>
        <time>2015-02-16T21:10:05.564Z</time>
      </trkpt>
      <trkpt lat="48.85232" lon="2.3145">
        <ele>116.1</ele>
        <time>2015-02-16T21:10:07.614Z</time>
      </trkpt>
      <trkpt lat="48.85236" lon="2.31451">
        <ele>115.9</ele>
        <time>2015-02-16T21:10:08.625Z</time>
      </trkpt>
      <trkpt lat="48.85245" lon="2.31453">
        <ele>115.7</ele>
        <time>2015-02-16T21:10:10.572Z</time>
      </trkpt>
      <trkpt lat="48.85249" lon="2.31453">
        <ele>115.6</ele>
        <time>2015-02-16T21:10:11.793Z</time>
      </trkpt>
      <trkpt lat="48.85256" lon="2.31453">
        <ele>115.9</ele>
        <time>2015-02-16T21:10:14.416Z</time>
      </trkpt>
      <trkpt lat="48.85261" lon="2.31453">
        <ele>116.2</ele>
        <time>2015-02-16T21:10:14.551Z</time>
      </trkpt>
      <trkpt lat="48.85269" lon="2.31452">
        <ele>116.7</ele>
        <time>2015-02-16T21:10:16.588Z</time>
      </trkpt>
      <trkpt lat="48.85273" lon="2.31452">
        <ele>116.8</ele>
        <time>2015-02-16T21:10:17.610Z</time>
      </trkpt>
      <trkpt lat="48.85282" lon="2.31452">
        <ele>117.1</ele>
        <time>2015-02-16T21:10:19.669Z</time>
      </trkpt>
      <trkpt lat="48.85286" lon="2.31452">
        <ele>117.2</ele>
        <time>2015-02-16T21:10:20.575Z</time>
      </trkpt>
      <trkpt lat="48.85295" lon="2.31452">
        <ele>117.6</ele>
        <time>2015-02-16T21:10:22.606Z</time>
      </trkpt>
      <trkpt lat="48.85299" lon="2.31452">
        <ele>117.7</ele>
        <time>2015-02-16T21:10:23.679Z</time>
      </trkpt>
      <trkpt lat="48.85307" lon="2.31453">
        <ele>117.7</ele>
        <time>2015-02-16T21:10:25.682Z</time>
      </trkpt>
      <trkpt lat="48.85312" lon="2.31453">
        <ele>117.6</ele>
        <time>2015-02-16T21:10:26.583Z</time>
      </trkpt>
      <trkpt lat="48.85321" lon="2.31454">
        <ele>117.5</ele>
        <time>2015-02-16T21:10:29.594Z</time>
      </trkpt>
      <trkpt lat="48.85326" lon="2.31455">
        <ele>117.3</ele>
        <time>2015-02-16T21:10:29.654Z</time>
      </trkpt>
      <trkpt lat="48.85331" lon="2.31456">
        <ele>117.3</ele>
        <time>2015-02-16T21:10:30.665Z</time>
      </trkpt>
      <trkpt lat="48.85335" lon="2.31458">
        <ele>117</ele>
        <time>2015-02-16T21:10:31.664Z</time>
      </trkpt>
      <trkpt lat="48.85342" lon="2.3146">
        <ele>115.8</ele>
        <time>2015-02-16T21:10:32.585Z</time>
      </trkpt>
      <trkpt lat="48.85346" lon="2.31462">
        <ele>115.5</ele>
        <time>2015-02-16T21:10:33.590Z</time>
      </trkpt>
      <trkpt lat="48.85351" lon="2.31464">
        <ele>114.9</ele>
        <time>2015-02-16T21:10:34.600Z</time>
      </trkpt>
      <trkpt lat="48.85359" lon="2.31467">
        <ele>113.9</ele>
        <time>2015-02-16T21:10:35.685Z</time>
      </trkpt>
      <trkpt lat="48.85366" lon="2.3147">
        <ele>112.6</ele>
        <time>2015-02-16T21:10:36.591Z</time>
      </trkpt>
      <trkpt lat="48.85373" lon="2.31473">
        <ele>111.4</ele>
        <time>2015-02-16T21:10:37.650Z</time>
      </trkpt>
      <trkpt lat="48.8538" lon="2.31475">
        <ele>110.2</ele>
        <time>2015-02-16T21:10:38.674Z</time>
      </trkpt>
      <trkpt lat="48.85386" lon="2.31476">
        <ele>109.2</ele>
        <time>2015-02-16T21:10:39.584Z</time>
      </trkpt>
      <trkpt lat="48.85391" lon="2.31478">
        <ele>108.1</ele>
        <time>2015-02-16T21:10:40.590Z</time>
      </trkpt>
      <trkpt lat="48.85396" lon="2.31478">
        <ele>107.7</ele>
        <time>2015-02-16T21:10:41.606Z</time>
      </trkpt>
      <trkpt lat="48.85403" lon="2.31477">
        <ele>107.2</ele>
        <time>2015-02-16T21:10:43.645Z</time>
      </trkpt>
      <trkpt lat="48.85408" lon="2.31477">
        <ele>107</ele>
        <time>2015-02-16T21:10:44.640Z</time>
      </trkpt>
      <trkpt lat="48.85412" lon="2.31478">
        <ele>106.8</ele>
        <time>2015-02-16T21:10:45.828Z</time>
      </trkpt>
      <trkpt lat="48.85418" lon="2.31479">
        <ele>105.1</ele>
        <time>2015-02-16T21:10:46.658Z</time>
      </trkpt>
      <trkpt lat="48.85424" lon="2.31481">
        <ele>103.9</ele>
        <time>2015-02-16T21:10:47.559Z</time>
      </trkpt>
      <trkpt lat="48.8543" lon="2.31483">
        <ele>102.8</ele>
        <time>2015-02-16T21:10:48.603Z</time>
      </trkpt>
      <trkpt lat="48.85435" lon="2.31486">
        <ele>101.9</ele>
        <time>2015-02-16T21:10:49.649Z</time>
      </trkpt>
      <trkpt lat="48.85441" lon="2.31488">
        <ele>100.9</ele>
        <time>2015-02-16T21:10:50.644Z</time>
      </trkpt>
      <trkpt lat="48.85445" lon="2.31489">
        <ele>100.3</ele>
        <time>2015-02-16T21:10:51.558Z</time>
      </trkpt>
      <trkpt lat="48.85449" lon="2.3149">
        <ele>100</ele>
        <time>2015-02-16T21:10:52.572Z</time>
      </trkpt>
      <trkpt lat="48.85458" lon="2.31491">
        <ele>99.3</ele>
        <time>2015-02-16T21:10:54.589Z</time>
      </trkpt>
      <trkpt lat="48.85461" lon="2.31492">
        <ele>99.1</ele>
        <time>2015-02-16T21:10:55.624Z</time>
      </trkpt>
      <trkpt lat="48.85469" lon="2.31493">
        <ele>98.9</ele>
        <time>2015-02-16T21:10:57.629Z</time>
      </trkpt>
      <trkpt lat="48.85473" lon="2.31493">
        <ele>98.5</ele>
        <time>2015-02-16T21:10:58.636Z</time>
      </trkpt>
      <trkpt lat="48.85481" lon="2.31495">
        <ele>98.5</ele>
        <time>2015-02-16T21:11:01.020Z</time>
      </trkpt>
      <trkpt lat="48.85485" lon="2.31495">
        <ele>98.5</ele>
        <time>2015-02-16T21:11:01.662Z</time>
      </trkpt>
      <trkpt lat="48.85494" lon="2.31497">
        <ele>98.2</ele>
        <time>2015-02-16T21:11:03.577Z</time>
      </trkpt>
      <trkpt lat="48.85499" lon="2.31498">
        <ele>98.2</ele>
        <time>2015-02-16T21:11:04.587Z</time>
      </trkpt>
      <trkpt lat="48.85504" lon="2.31498">
        <ele>98.3</ele>
        <time>2015-02-16T21:11:06.157Z</time>
      </trkpt>
      <trkpt lat="48.85508" lon="2.31498">
        <ele>98.2</ele>
        <time>2015-02-16T21:11:06.609Z</time>
      </trkpt>
      <trkpt lat="48.85517" lon="2.31498">
        <ele>97.7</ele>
        <time>2015-02-16T21:11:08.670Z</time>
      </trkpt>
      <trkpt lat="48.85521" lon="2.31498">
        <ele>97.5</ele>
        <time>2015-02-16T21:11:09.615Z</time>
      </trkpt>
      <trkpt lat="48.8553" lon="2.31499">
        <ele>97.2</ele>
        <time>2015-02-16T21:11:11.577Z</time>
      </trkpt>
      <trkpt lat="48.85534" lon="2.31499">
        <ele>96.9</ele>
        <time>2015-02-16T21:11:12.641Z</time>
      </trkpt>
      <trkpt lat="48.85538" lon="2.315">
        <ele>96.6</ele>
        <time>2015-02-16T21:11:13.655Z</time>
      </trkpt>
      <trkpt lat="48.85543" lon="2.315">
        <ele>96.4</ele>
        <time>2015-02-16T21:11:14.656Z</time>
      </trkpt>
      <trkpt lat="48.85547" lon="2.31501">
        <ele>96.4</ele>
        <time>2015-02-16T21:11:16.363Z</time>
      </trkpt>
      <trkpt lat="48.85552" lon="2.31501">
        <ele>96.3</ele>
        <time>2015-02-16T21:11:16.546Z</time>
      </trkpt>
      <trkpt lat="48.85557" lon="2.31502">
        <ele>96.3</ele>
        <time>2015-02-16T21:11:17.577Z</time>
      </trkpt>
      <trkpt lat="48.85562" lon="2.31503">
        <ele>96.5</ele>
        <time>2015-02-16T21:11:18.570Z</time>
      </trkpt>
      <trkpt lat="48.85567" lon="2.31504">
        <ele>96.5</ele>
        <time>2015-02-16T21:11:19.609Z</time>
      </trkpt>
      <trkpt lat="48.85572" lon="2.31505">
        <ele>96.6</ele>
        <time>2015-02-16T21:11:20.613Z</time>
      </trkpt>
      <trkpt lat="48.85576" lon="2.31505">
        <ele>96.5</ele>
        <time>2015-02-16T21:11:21.627Z</time>
      </trkpt>
      <trkpt lat="48.85582" lon="2.31506">
        <ele>96.7</ele>
        <time>2015-02-16T21:11:22.636Z</time>
      </trkpt>
      <trkpt lat="48.85587" lon="2.31507">
        <ele>96.7</ele>
        <time>2015-02-16T21:11:23.546Z</time>
      </trkpt>
      <trkpt lat="48.85592" lon="2.31507">
        <ele>96.7</ele>
        <time>2015-02-16T21:11:24.668Z</time>
      </trkpt>
      <trkpt lat="48.85596" lon="2.31507">
        <ele>96.9</ele>
        <time>2015-02-16T21:11:26.487Z</time>
      </trkpt>
      <trkpt lat="48.85601" lon="2.31508">
        <ele>96.8</ele>
        <time>2015-02-16T21:11:26.546Z</time>
      </trkpt>
      <trkpt lat="48.85605" lon="2.31509">
        <ele>96.8</ele>
        <time>2015-02-16T21:11:27.550Z</time>
      </trkpt>
      <trkpt lat="48.8561" lon="2.3151">
        <ele>96.8</ele>
        <time>2015-02-16T21:11:28.573Z</time>
      </trkpt>
      <trkpt lat="48.85619" lon="2.31511">
        <ele>96.3</ele>
        <time>2015-02-16T21:11:30.627Z</time>
      </trkpt>
      <trkpt lat="48.85624" lon="2.31512">
        <ele>96.2</ele>
        <time>2015-02-16T21:11:31.629Z</time>
      </trkpt>
      <trkpt lat="48.85629" lon="2.31513">
        <ele>96.1</ele>
        <time>2015-02-16T21:11:32.574Z</time>
      </trkpt>
      <trkpt lat="48.85633" lon="2.31513">
        <ele>96</ele>
        <time>2015-02-16T21:11:33.543Z</time>
      </trkpt>
      <trkpt lat="48.8564" lon="2.31514">
        <ele>95.8</ele>
        <time>2015-02-16T21:11:35.598Z</time>
      </trkpt>
      <trkpt lat="48.85645" lon="2.31514">
        <ele>95.5</ele>
        <time>2015-02-16T21:11:36.611Z</time>
      </trkpt>
      <trkpt lat="48.8565" lon="2.31514">
        <ele>95.5</ele>
        <time>2015-02-16T21:11:37.617Z</time>
      </trkpt>
      <trkpt lat="48.85656" lon="2.31515">
        <ele>95.5</ele>
        <time>2015-02-16T21:11:38.621Z</time>
      </trkpt>
      <trkpt lat="48.85662" lon="2.31514">
        <ele>95.1</ele>
        <time>2015-02-16T21:11:39.639Z</time>
      </trkpt>
      <trkpt lat="48.85668" lon="2.31515">
        <ele>94.8</ele>
        <time>2015-02-16T21:11:40.563Z</time>
      </trkpt>
      <trkpt lat="48.85674" lon="2.31515">
        <ele>94.7</ele>
        <time>2015-02-16T21:11:41.575Z</time>
      </trkpt>
      <trkpt lat="48.8568" lon="2.31516">
        <ele>94.3</ele>
        <time>2015-02-16T21:11:42.604Z</time>
      </trkpt>
      <trkpt lat="48.85686" lon="2.31517">
        <ele>93.9</ele>
        <time>2015-02-16T21:11:43.613Z</time>
      </trkpt>
      <trkpt lat="48.85692" lon="2.31517">
        <ele>93.7</ele>
        <time>2015-02-16T21:11:44.617Z</time>
      </trkpt>
      <trkpt lat="48.85698" lon="2.31518">
        <ele>93.7</ele>
        <time>2015-02-16T21:11:45.626Z</time>
      </trkpt>
      <trkpt lat="48.85705" lon="2.3152">
        <ele>93.6</ele>
        <time>2015-02-16T21:11:46.633Z</time>
      </trkpt>
      <trkpt lat="48.85711" lon="2.31521">
        <ele>93.5</ele>
        <time>2015-02-16T21:11:47.641Z</time>
      </trkpt>
      <trkpt lat="48.85717" lon="2.31522">
        <ele>93.4</ele>
        <time>2015-02-16T21:11:48.653Z</time>
      </trkpt>
      <trkpt lat="48.85723" lon="2.31522">
        <ele>93.3</ele>
        <time>2015-02-16T21:11:49.665Z</time>
      </trkpt>
      <trkpt lat="48.85729" lon="2.31523">
        <ele>93.2</ele>
        <time>2015-02-16T21:11:50.583Z</time>
      </trkpt>
      <trkpt lat="48.85734" lon="2.31523">
        <ele>93.1</ele>
        <time>2015-02-16T21:11:51.600Z</time>
      </trkpt>
      <trkpt lat="48.85739" lon="2.31524">
        <ele>93</ele>
        <time>2015-02-16T21:11:52.619Z</time>
      </trkpt>
      <trkpt lat="48.85745" lon="2.31524">
        <ele>93</ele>
        <time>2015-02-16T21:11:53.638Z</time>
      </trkpt>
      <trkpt lat="48.8575" lon="2.31525">
        <ele>92.9</ele>
        <time>2015-02-16T21:11:54.639Z</time>
      </trkpt>
      <trkpt lat="48.85756" lon="2.31525">
        <ele>92.7</ele>
        <time>2015-02-16T21:11:55.659Z</time>
      </trkpt>
      <trkpt lat="48.85761" lon="2.31526">
        <ele>92.4</ele>
        <time>2015-02-16T21:11:56.565Z</time>
      </trkpt>
      <trkpt lat="48.85766" lon="2.31526">
        <ele>92.3</ele>
        <time>2015-02-16T21:11:57.572Z</time>
      </trkpt>
      <trkpt lat="48.85772" lon="2.31526">
        <ele>92.1</ele>
        <time>2015-02-16T21:11:58.580Z</time>
      </trkpt>
      <trkpt lat="48.85777" lon="2.31525">
        <ele>92</ele>
        <time>2015-02-16T21:11:59.601Z</time>
      </trkpt>
      <trkpt lat="48.85782" lon="2.31522">
        <ele>92</ele>
        <time>2015-02-16T21:12:00.617Z</time>
      </trkpt>
      <trkpt lat="48.85786" lon="2.31518">
        <ele>91.9</ele>
        <time>2015-02-16T21:12:01.627Z</time>
      </trkpt>
      <trkpt lat="48.8579" lon="2.31513">
        <ele>91.6</ele>
        <time>2015-02-16T21:12:02.652Z</time>
      </trkpt>
      <trkpt lat="48.85793" lon="2.31507">
        <ele>91.3</ele>
        <time>2015-02-16T21:12:03.580Z</time>
      </trkpt>
      <trkpt lat="48.85795" lon="2.315">
        <ele>91.3</ele>
        <time>2015-02-16T21:12:04.609Z</time>
      </trkpt>
      <trkpt lat="48.85798" lon="2.31492">
        <ele>91.1</ele>
        <time>2015-02-16T21:12:05.618Z</time>
      </trkpt>
      <trkpt lat="48.85799" lon="2.31485">
        <ele>91.1</ele>
        <time>2015-02-16T21:12:06.584Z</time>
      </trkpt>
      <trkpt lat="48.85801" lon="2.31479">
        <ele>91.3</ele>
        <time>2015-02-16T21:12:07.626Z</time>
      </trkpt>
      <trkpt lat="48.85803" lon="2.31472">
        <ele>91.4</ele>
        <time>2015-02-16T21:12:08.681Z</time>
      </trkpt>
      <trkpt lat="48.85806" lon="2.31465">
        <ele>91.5</ele>
        <time>2015-02-16T21:12:09.793Z</time>
      </trkpt>
      <trkpt lat="48.8581" lon="2.3146">
        <ele>91.5</ele>
        <time>2015-02-16T21:12:10.621Z</time>
      </trkpt>
      <trkpt lat="48.85813" lon="2.31455">
        <ele>91.5</ele>
        <time>2015-02-16T21:12:11.653Z</time>
      </trkpt>
      <trkpt lat="48.85817" lon="2.31451">
        <ele>91.5</ele>
        <time>2015-02-16T21:12:12.565Z</time>
      </trkpt>
      <trkpt lat="48.85821" lon="2.31448">
        <ele>91.8</ele>
        <time>2015-02-16T21:12:13.624Z</time>
      </trkpt>
      <trkpt lat="48.85825" lon="2.31444">
        <ele>91.8</ele>
        <time>2015-02-16T21:12:14.637Z</time>
      </trkpt>
      <trkpt lat="48.85831" lon="2.31434">
        <ele>91.8</ele>
        <time>2015-02-16T21:12:16.599Z</time>
      </trkpt>
      <trkpt lat="48.85833" lon="2.31428">
        <ele>91.8</ele>
        <time>2015-02-16T21:12:17.637Z</time>
      </trkpt>
      <trkpt lat="48.85835" lon="2.31421">
        <ele>91.9</ele>
        <time>2015-02-16T21:12:18.641Z</time>
      </trkpt>
      <trkpt lat="48.85836" lon="2.31414">
        <ele>91.8</ele>
        <time>2015-02-16T21:12:19.646Z</time>
      </trkpt>
      <trkpt lat="48.85837" lon="2.31407">
        <ele>91.7</ele>
        <time>2015-02-16T21:12:20.650Z</time>
      </trkpt>
      <trkpt lat="48.85838" lon="2.314">
        <ele>91.6</ele>
        <time>2015-02-16T21:12:21.650Z</time>
      </trkpt>
      <trkpt lat="48.85839" lon="2.31387">
        <ele>91.3</ele>
        <time>2015-02-16T21:12:23.578Z</time>
      </trkpt>
      <trkpt lat="48.8584" lon="2.31381">
        <ele>90.9</ele>
        <time>2015-02-16T21:12:24.591Z</time>
      </trkpt>
      <trkpt lat="48.85841" lon="2.31368">
        <ele>90.6</ele>
        <time>2015-02-16T21:12:26.644Z</time>
      </trkpt>
      <trkpt lat="48.85841" lon="2.31361">
        <ele>90.3</ele>
        <time>2015-02-16T21:12:27.576Z</time>
      </trkpt>
      <trkpt lat="48.85844" lon="2.31349">
        <ele>90.2</ele>
        <time>2015-02-16T21:12:29.592Z</time>
      </trkpt>
      <trkpt lat="48.85847" lon="2.31344">
        <ele>90.1</ele>
        <time>2015-02-16T21:12:30.686Z</time>
      </trkpt>
      <trkpt lat="48.85854" lon="2.31338">
        <ele>90</ele>
        <time>2015-02-16T21:12:32.627Z</time>
      </trkpt>
      <trkpt lat="48.85858" lon="2.31335">
        <ele>89.9</ele>
        <time>2015-02-16T21:12:33.637Z</time>
      </trkpt>
      <trkpt lat="48.85862" lon="2.31331">
        <ele>89.7</ele>
        <time>2015-02-16T21:12:34.665Z</time>
      </trkpt>
      <trkpt lat="48.85866" lon="2.31327">
        <ele>89.6</ele>
        <time>2015-02-16T21:12:35.774Z</time>
      </trkpt>
      <trkpt lat="48.85872" lon="2.31318">
        <ele>89.3</ele>
        <time>2015-02-16T21:12:37.614Z</time>
      </trkpt>
      <trkpt lat="48.85875" lon="2.31312">
        <ele>89.1</ele>
        <time>2015-02-16T21:12:38.605Z</time>
      </trkpt>
      <trkpt lat="48.85878" lon="2.313">
        <ele>88.8</ele>
        <time>2015-02-16T21:12:40.620Z</time>
      </trkpt>
      <trkpt lat="48.85878" lon="2.31294">
        <ele>88.4</ele>
        <time>2015-02-16T21:12:41.588Z</time>
      </trkpt>
      <trkpt lat="48.85878" lon="2.31282">
        <ele>88.1</ele>
        <time>2015-02-16T21:12:43.613Z</time>
      </trkpt>
      <trkpt lat="48.85877" lon="2.31276">
        <ele>87.8</ele>
        <time>2015-02-16T21:12:44.634Z</time>
      </trkpt>
      <trkpt lat="48.85874" lon="2.31265">
        <ele>87.6</ele>
        <time>2015-02-16T21:12:46.579Z</time>
      </trkpt>
      <trkpt lat="48.85873" lon="2.31259">
        <ele>87.5</ele>
        <time>2015-02-16T21:12:47.592Z</time>
      </trkpt>
      <trkpt lat="48.85868" lon="2.3125">
        <ele>87.4</ele>
        <time>2015-02-16T21:12:49.613Z</time>
      </trkpt>
      <trkpt lat="48.85866" lon="2.31247">
        <ele>87.4</ele>
        <time>2015-02-16T21:12:50.622Z</time>
      </trkpt>
      <trkpt lat="48.8586" lon="2.3124">
        <ele>87.2</ele>
        <time>2015-02-16T21:12:52.656Z</time>
      </trkpt>
      <trkpt lat="48.85858" lon="2.31237">
        <ele>87.3</ele>
        <time>2015-02-16T21:12:53.669Z</time>
      </trkpt>
      <trkpt lat="48.85853" lon="2.3123">
        <ele>87.4</ele>
        <time>2015-02-16T21:12:55.615Z</time>
      </trkpt>
      <trkpt lat="48.85852" lon="2.31225">
        <ele>87.4</ele>
        <time>2015-02-16T21:12:56.620Z</time>
      </trkpt>
      <trkpt lat="48.85851" lon="2.31215">
        <ele>87.3</ele>
        <time>2015-02-16T21:12:58.577Z</time>
      </trkpt>
      <trkpt lat="48.8585" lon="2.3121">
        <ele>87.3</ele>
        <time>2015-02-16T21:12:59.579Z</time>
      </trkpt>
      <trkpt lat="48.8585" lon="2.312">
        <ele>86.7</ele>
        <time>2015-02-16T21:13:01.612Z</time>
      </trkpt>
      <trkpt lat="48.8585" lon="2.31194">
        <ele>86.7</ele>
        <time>2015-02-16T21:13:02.617Z</time>
      </trkpt>
      <trkpt lat="48.85849" lon="2.31183">
        <ele>87</ele>
        <time>2015-02-16T21:13:04.588Z</time>
      </trkpt>
      <trkpt lat="48.85849" lon="2.31177">
        <ele>87</ele>
        <time>2015-02-16T21:13:05.597Z</time>
      </trkpt>
      <trkpt lat="48.85849" lon="2.31165">
        <ele>87.2</ele>
        <time>2015-02-16T21:13:07.597Z</time>
      </trkpt>
      <trkpt lat="48.85849" lon="2.31159">
        <ele>87.3</ele>
        <time>2015-02-16T21:13:08.601Z</time>
      </trkpt>
      <trkpt lat="48.85848" lon="2.31146">
        <ele>88.3</ele>
        <time>2015-02-16T21:13:11.544Z</time>
      </trkpt>
      <trkpt lat="48.85847" lon="2.31143">
        <ele>88.9</ele>
        <time>2015-02-16T21:13:12.577Z</time>
      </trkpt>
      <trkpt lat="48.85841" lon="2.31134">
        <ele>89</ele>
        <time>2015-02-16T21:13:15.658Z</time>
      </trkpt>
      <trkpt lat="48.85838" lon="2.31132">
        <ele>88.5</ele>
        <time>2015-02-16T21:13:16.579Z</time>
      </trkpt>
      <trkpt lat="48.85831" lon="2.31129">
        <ele>87.9</ele>
        <time>2015-02-16T21:13:18.544Z</time>
      </trkpt>
      <trkpt lat="48.85827" lon="2.31127">
        <ele>87.4</ele>
        <time>2015-02-16T21:13:19.600Z</time>
      </trkpt>
      <trkpt lat="48.85821" lon="2.3112">
        <ele>87.1</ele>
        <time>2015-02-16T21:13:21.628Z</time>
      </trkpt>
      <trkpt lat="48.85818" lon="2.31116">
        <ele>86.8</ele>
        <time>2015-02-16T21:13:22.669Z</time>
      </trkpt>
      <trkpt lat="48.85813" lon="2.31107">
        <ele>86.3</ele>
        <time>2015-02-16T21:13:24.592Z</time>
      </trkpt>
      <trkpt lat="48.85812" lon="2.31102">
        <ele>86.4</ele>
        <time>2015-02-16T21:13:25.584Z</time>
      </trkpt>
      <trkpt lat="48.85808" lon="2.31093">
        <ele>86.8</ele>
        <time>2015-02-16T21:13:27.589Z</time>
      </trkpt>
      <trkpt lat="48.85808" lon="2.31088">
        <ele>86.5</ele>
        <time>2015-02-16T21:13:28.585Z</time>
      </trkpt>
      <trkpt lat="48.85806" lon="2.31079">
        <ele>85.9</ele>
        <time>2015-02-16T21:13:30.621Z</time>
      </trkpt>
      <trkpt lat="48.85805" lon="2.31074">
        <ele>85.8</ele>
        <time>2015-02-16T21:13:31.606Z</time>
      </trkpt>
      <trkpt lat="48.85806" lon="2.31063">
        <ele>85.1</ele>
        <time>2015-02-16T21:13:33.634Z</time>
      </trkpt>
      <trkpt lat="48.85806" lon="2.31057">
        <ele>85</ele>
        <time>2015-02-16T21:13:34.625Z</time>
      </trkpt>
      <trkpt lat="48.85807" lon="2.31046">
        <ele>84.9</ele>
        <time>2015-02-16T21:13:36.657Z</time>
      </trkpt>
      <trkpt lat="48.85808" lon="2.31039">
        <ele>84.7</ele>
        <time>2015-02-16T21:13:37.610Z</time>
      </trkpt>
      <trkpt lat="48.85808" lon="2.31033">
        <ele>84.8</ele>
        <time>2015-02-16T21:13:38.613Z</time>
      </trkpt>
      <trkpt lat="48.85812" lon="2.31024">
        <ele>84.8</ele>
        <time>2015-02-16T21:13:39.620Z</time>
      </trkpt>
      <trkpt lat="48.85814" lon="2.31016">
        <ele>85.2</ele>
        <time>2015-02-16T21:13:40.634Z</time>
      </trkpt>
      <trkpt lat="48.85817" lon="2.31008">
        <ele>85.6</ele>
        <time>2015-02-16T21:13:41.661Z</time>
      </trkpt>
      <trkpt lat="48.85822" lon="2.30998">
        <ele>86.3</ele>
        <time>2015-02-16T21:13:44.616Z</time>
      </trkpt>
      <trkpt lat="48.85825" lon="2.30998">
        <ele>86.4</ele>
        <time>2015-02-16T21:13:45.605Z</time>
      </trkpt>
      <trkpt lat="48.85831" lon="2.30999">
        <ele>86.7</ele>
        <time>2015-02-16T21:13:47.571Z</time>
      </trkpt>
      <trkpt lat="48.85835" lon="2.30999">
        <ele>86.8</ele>
        <time>2015-02-16T21:13:48.673Z</time>
      </trkpt>
      <trkpt lat="48.85843" lon="2.30999">
        <ele>87.1</ele>
        <time>2015-02-16T21:13:51.211Z</time>
      </trkpt>
      <trkpt lat="48.85847" lon="2.30999">
        <ele>87.3</ele>
        <time>2015-02-16T21:13:51.572Z</time>
      </trkpt>
      <trkpt lat="48.85856" lon="2.31">
        <ele>87.5</ele>
        <time>2015-02-16T21:13:53.597Z</time>
      </trkpt>
      <trkpt lat="48.85861" lon="2.31">
        <ele>87.8</ele>
        <time>2015-02-16T21:13:54.604Z</time>
      </trkpt>
      <trkpt lat="48.85869" lon="2.31001">
        <ele>88.1</ele>
        <time>2015-02-16T21:13:56.546Z</time>
      </trkpt>
      <trkpt lat="48.85873" lon="2.31002">
        <ele>88.1</ele>
        <time>2015-02-16T21:13:57.571Z</time>
      </trkpt>
      <trkpt lat="48.85881" lon="2.31001">
        <ele>88.2</ele>
        <time>2015-02-16T21:13:59.682Z</time>
      </trkpt>
      <trkpt lat="48.85885" lon="2.31001">
        <ele>88.3</ele>
        <time>2015-02-16T21:14:00.545Z</time>
      </trkpt>
      <trkpt lat="48.85889" lon="2.31001">
        <ele>88.4</ele>
        <time>2015-02-16T21:14:01.641Z</time>
      </trkpt>
      <trkpt lat="48.85894" lon="2.31001">
        <ele>88.5</ele>
        <time>2015-02-16T21:14:02.650Z</time>
      </trkpt>
      <trkpt lat="48.85899" lon="2.31">
        <ele>88.7</ele>
        <time>2015-02-16T21:14:03.559Z</time>
      </trkpt>
      <trkpt lat="48.85903" lon="2.31">
        <ele>88.8</ele>
        <time>2015-02-16T21:14:04.559Z</time>
      </trkpt>
      <trkpt lat="48.85908" lon="2.31">
        <ele>88.8</ele>
        <time>2015-02-16T21:14:05.569Z</time>
      </trkpt>
      <trkpt lat="48.85913" lon="2.30999">
        <ele>88.9</ele>
        <time>2015-02-16T21:14:06.587Z</time>
      </trkpt>
      <trkpt lat="48.85919" lon="2.30997">
        <ele>89</ele>
        <time>2015-02-16T21:14:07.610Z</time>
      </trkpt>
      <trkpt lat="48.85924" lon="2.30997">
        <ele>89</ele>
        <time>2015-02-16T21:14:08.631Z</time>
      </trkpt>
      <trkpt lat="48.85928" lon="2.30996">
        <ele>89.2</ele>
        <time>2015-02-16T21:14:09.544Z</time>
      </trkpt>
      <trkpt lat="48.85933" lon="2.30996">
        <ele>89.3</ele>
        <time>2015-02-16T21:14:10.548Z</time>
      </trkpt>
      <trkpt lat="48.85937" lon="2.30995">
        <ele>89.8</ele>
        <time>2015-02-16T21:14:11.551Z</time>
      </trkpt>
      <trkpt lat="48.85942" lon="2.30995">
        <ele>90</ele>
        <time>2015-02-16T21:14:12.560Z</time>
      </trkpt>
      <trkpt lat="48.85947" lon="2.30995">
        <ele>90</ele>
        <time>2015-02-16T21:14:13.606Z</time>
      </trkpt>
      <trkpt lat="48.85952" lon="2.30995">
        <ele>90.1</ele>
        <time>2015-02-16T21:14:14.640Z</time>
      </trkpt>
      <trkpt lat="48.85957" lon="2.30997">
        <ele>90</ele>
        <time>2015-02-16T21:14:15.665Z</time>
      </trkpt>
      <trkpt lat="48.85962" lon="2.30998">
        <ele>90</ele>
        <time>2015-02-16T21:14:16.553Z</time>
      </trkpt>
      <trkpt lat="48.85969" lon="2.31001">
        <ele>90.7</ele>
        <time>2015-02-16T21:14:17.558Z</time>
      </trkpt>
      <trkpt lat="48.85977" lon="2.31005">
        <ele>91.3</ele>
        <time>2015-02-16T21:14:18.563Z</time>
      </trkpt>
      <trkpt lat="48.85983" lon="2.31008">
        <ele>91.7</ele>
        <time>2015-02-16T21:14:19.636Z</time>
      </trkpt>
      <trkpt lat="48.85989" lon="2.3101">
        <ele>92.3</ele>
        <time>2015-02-16T21:14:20.578Z</time>
      </trkpt>
      <trkpt lat="48.85994" lon="2.3101">
        <ele>92.5</ele>
        <time>2015-02-16T21:14:21.604Z</time>
      </trkpt>
      <trkpt lat="48.85999" lon="2.3101">
        <ele>92.7</ele>
        <time>2015-02-16T21:14:22.607Z</time>
      </trkpt>
      <trkpt lat="48.86004" lon="2.3101">
        <ele>92.7</ele>
        <time>2015-02-16T21:14:23.646Z</time>
      </trkpt>
      <trkpt lat="48.86009" lon="2.31009">
        <ele>92.8</ele>
        <time>2015-02-16T21:14:24.562Z</time>
      </trkpt>
      <trkpt lat="48.86014" lon="2.31008">
        <ele>92.8</ele>
        <time>2015-02-16T21:14:25.598Z</time>
      </trkpt>
      <trkpt lat="48.8602" lon="2.31008">
        <ele>92.8</ele>
        <time>2015-02-16T21:14:26.618Z</time>
      </trkpt>
      <trkpt lat="48.86025" lon="2.31008">
        <ele>92.9</ele>
        <time>2015-02-16T21:14:27.629Z</time>
      </trkpt>
      <trkpt lat="48.8603" lon="2.31009">
        <ele>93</ele>
        <time>2015-02-16T21:14:28.634Z</time>
      </trkpt>
      <trkpt lat="48.86035" lon="2.31009">
        <ele>93</ele>
        <time>2015-02-16T21:14:29.649Z</time>
      </trkpt>
      <trkpt lat="48.86039" lon="2.31009">
        <ele>93</ele>
        <time>2015-02-16T21:14:30.653Z</time>
      </trkpt>
      <trkpt lat="48.86048" lon="2.31007">
        <ele>93.5</ele>
        <time>2015-02-16T21:14:32.563Z</time>
      </trkpt>
      <trkpt lat="48.86052" lon="2.31006">
        <ele>93.5</ele>
        <time>2015-02-16T21:14:33.558Z</time>
      </trkpt>
      <trkpt lat="48.86059" lon="2.31005">
        <ele>93.5</ele>
        <time>2015-02-16T21:14:35.582Z</time>
      </trkpt>
      <trkpt lat="48.86063" lon="2.31006">
        <ele>93.6</ele>
        <time>2015-02-16T21:14:36.650Z</time>
      </trkpt>
      <trkpt lat="48.86068" lon="2.31007">
        <ele>93.6</ele>
        <time>2015-02-16T21:14:37.706Z</time>
      </trkpt>
      <trkpt lat="48.86075" lon="2.31008">
        <ele>94</ele>
        <time>2015-02-16T21:14:38.568Z</time>
      </trkpt>
      <trkpt lat="48.86084" lon="2.31009">
        <ele>94.3</ele>
        <time>2015-02-16T21:14:39.583Z</time>
      </trkpt>
      <trkpt lat="48.86088" lon="2.31012">
        <ele>94.4</ele>
        <time>2015-02-16T21:14:40.594Z</time>
      </trkpt>
      <trkpt lat="48.86096" lon="2.31016">
        <ele>94.4</ele>
        <time>2015-02-16T21:14:43.665Z</time>
      </trkpt>
      <trkpt lat="48.86101" lon="2.31018">
        <ele>94.7</ele>
        <time>2015-02-16T21:14:43.719Z</time>
      </trkpt>
      <trkpt lat="48.86106" lon="2.3102">
        <ele>95</ele>
        <time>2015-02-16T21:14:44.557Z</time>
      </trkpt>
      <trkpt lat="48.86111" lon="2.31022">
        <ele>95.1</ele>
        <time>2015-02-16T21:14:45.558Z</time>
      </trkpt>
      <trkpt lat="48.86118" lon="2.31024">
        <ele>95.4</ele>
        <time>2015-02-16T21:14:47.586Z</time>
      </trkpt>
      <trkpt lat="48.86123" lon="2.31025">
        <ele>95.6</ele>
        <time>2015-02-16T21:14:48.605Z</time>
      </trkpt>
      <trkpt lat="48.86128" lon="2.31024">
        <ele>95.7</ele>
        <time>2015-02-16T21:14:49.637Z</time>
      </trkpt>
      <trkpt lat="48.86133" lon="2.31024">
        <ele>95.7</ele>
        <time>2015-02-16T21:14:50.646Z</time>
      </trkpt>
      <trkpt lat="48.86137" lon="2.31023">
        <ele>95.7</ele>
        <time>2015-02-16T21:14:52.049Z</time>
      </trkpt>
      <trkpt lat="48.86143" lon="2.31022">
        <ele>95.9</ele>
        <time>2015-02-16T21:14:52.656Z</time>
      </trkpt>
      <trkpt lat="48.86147" lon="2.3102">
        <ele>96.2</ele>
        <time>2015-02-16T21:14:53.564Z</time>
      </trkpt>
      <trkpt lat="48.86152" lon="2.31019">
        <ele>96.4</ele>
        <time>2015-02-16T21:14:54.564Z</time>
      </trkpt>
      <trkpt lat="48.86156" lon="2.31018">
        <ele>96.5</ele>
        <time>2015-02-16T21:14:55.585Z</time>
      </trkpt>
      <trkpt lat="48.86163" lon="2.31018">
        <ele>96.8</ele>
        <time>2015-02-16T21:14:56.587Z</time>
      </trkpt>
      <trkpt lat="48.86169" lon="2.31017">
        <ele>97</ele>
        <time>2015-02-16T21:14:57.615Z</time>
      </trkpt>
      <trkpt lat="48.86176" lon="2.31017">
        <ele>97.2</ele>
        <time>2015-02-16T21:14:58.621Z</time>
      </trkpt>
      <trkpt lat="48.86182" lon="2.31018">
        <ele>97.1</ele>
        <time>2015-02-16T21:14:59.623Z</time>
      </trkpt>
      <trkpt lat="48.86188" lon="2.31019">
        <ele>97.1</ele>
        <time>2015-02-16T21:15:00.530Z</time>
      </trkpt>
      <trkpt lat="48.86195" lon="2.3102">
        <ele>97</ele>
        <time>2015-02-16T21:15:02.623Z</time>
      </trkpt>
      <trkpt lat="48.86199" lon="2.3102">
        <ele>97</ele>
        <time>2015-02-16T21:15:03.645Z</time>
      </trkpt>
      <trkpt lat="48.86206" lon="2.31022">
        <ele>97.2</ele>
        <time>2015-02-16T21:15:05.621Z</time>
      </trkpt>
      <trkpt lat="48.86211" lon="2.31022">
        <ele>97.4</ele>
        <time>2015-02-16T21:15:06.636Z</time>
      </trkpt>
      <trkpt lat="48.86216" lon="2.31023">
        <ele>97.9</ele>
        <time>2015-02-16T21:15:07.664Z</time>
      </trkpt>
      <trkpt lat="48.8622" lon="2.31024">
        <ele>98</ele>
        <time>2015-02-16T21:15:08.575Z</time>
      </trkpt>
      <trkpt lat="48.86229" lon="2.31028">
        <ele>97.6</ele>
        <time>2015-02-16T21:15:11.588Z</time>
      </trkpt>
      <trkpt lat="48.86232" lon="2.3103">
        <ele>97.3</ele>
        <time>2015-02-16T21:15:12.602Z</time>
      </trkpt>
      <trkpt lat="48.8624" lon="2.31035">
        <ele>96</ele>
        <time>2015-02-16T21:15:15.577Z</time>
      </trkpt>
      <trkpt lat="48.86241" lon="2.31036">
        <ele>95.6</ele>
        <time>2015-02-16T21:15:16.589Z</time>
      </trkpt>
      <trkpt lat="48.86247" lon="2.3104">
        <ele>94.7</ele>
        <time>2015-02-16T21:15:18.631Z</time>
      </trkpt>
      <trkpt lat="48.8625" lon="2.31042">
        <ele>95</ele>
        <time>2015-02-16T21:15:19.642Z</time>
      </trkpt>
      <trkpt lat="48.86252" lon="2.31043">
        <ele>95.4</ele>
        <time>2015-02-16T21:15:20.563Z</time>
      </trkpt>
      <trkpt lat="48.86252" lon="2.31044">
        <ele>95.3</ele>
        <time>2015-02-16T21:15:21.577Z</time>
      </trkpt>
      <trkpt lat="48.86252" lon="2.31044">
        <ele>95</ele>
        <time>2015-02-16T21:15:22.594Z</time>
      </trkpt>
      <trkpt lat="48.86251" lon="2.31045">
        <ele>93.9</ele>
        <time>2015-02-16T21:15:23.612Z</time>
      </trkpt>
      <trkpt lat="48.86251" lon="2.31045">
        <ele>93.3</ele>
        <time>2015-02-16T21:15:24.590Z</time>
      </trkpt>
      <trkpt lat="48.86251" lon="2.31046">
        <ele>92.4</ele>
        <time>2015-02-16T21:15:30.831Z</time>
      </trkpt>
      <trkpt lat="48.86252" lon="2.31046">
        <ele>91.9</ele>
        <time>2015-02-16T21:15:31.623Z</time>
      </trkpt>
      <trkpt lat="48.86252" lon="2.31046">
        <ele>91.9</ele>
        <time>2015-02-16T21:15:32.613Z</time>
      </trkpt>
      <trkpt lat="48.86252" lon="2.31047">
        <ele>91.8</ele>
        <time>2015-02-16T21:15:45.828Z</time>
      </trkpt>
      <trkpt lat="48.8625" lon="2.31049">
        <ele>91.8</ele>
        <time>2015-02-16T21:15:46.609Z</time>
      </trkpt>
      <trkpt lat="48.8625" lon="2.31049">
        <ele>91.7</ele>
        <time>2015-02-16T21:15:47.653Z</time>
      </trkpt>
      <trkpt lat="48.8625" lon="2.31049">
        <ele>91.5</ele>
        <time>2015-02-16T21:15:48.649Z</time>
      </trkpt>
      <trkpt lat="48.8625" lon="2.31049">
        <ele>91.4</ele>
        <time>2015-02-16T21:15:51.567Z</time>
      </trkpt>
      <trkpt lat="48.86252" lon="2.31049">
        <ele>90.9</ele>
        <time>2015-02-16T21:15:52.571Z</time>
      </trkpt>
      <trkpt lat="48.8626" lon="2.31052">
        <ele>90.5</ele>
        <time>2015-02-16T21:16:00.635Z</time>
      </trkpt>
      <trkpt lat="48.86259" lon="2.31052">
        <ele>90.2</ele>
        <time>2015-02-16T21:16:01.641Z</time>
      </trkpt>
      <trkpt lat="48.8626" lon="2.31052">
        <ele>89.9</ele>
        <time>2015-02-16T21:16:02.644Z</time>
      </trkpt>
      <trkpt lat="48.86268" lon="2.31052">
        <ele>90.2</ele>
        <time>2015-02-16T21:16:07.575Z</time>
      </trkpt>
      <trkpt lat="48.8627" lon="2.31051">
        <ele>89.7</ele>
        <time>2015-02-16T21:16:08.592Z</time>
      </trkpt>
      <trkpt lat="48.86277" lon="2.3105">
        <ele>89.2</ele>
        <time>2015-02-16T21:16:11.678Z</time>
      </trkpt>
      <trkpt lat="48.8628" lon="2.3105">
        <ele>89.1</ele>
        <time>2015-02-16T21:16:12.635Z</time>
      </trkpt>
      <trkpt lat="48.86286" lon="2.3105">
        <ele>88.6</ele>
        <time>2015-02-16T21:16:14.655Z</time>
      </trkpt>
      <trkpt lat="48.86289" lon="2.3105">
        <ele>88.2</ele>
        <time>2015-02-16T21:16:15.682Z</time>
      </trkpt>
      <trkpt lat="48.86296" lon="2.3105">
        <ele>87.4</ele>
        <time>2015-02-16T21:16:17.568Z</time>
      </trkpt>
      <trkpt lat="48.86299" lon="2.3105">
        <ele>87.1</ele>
        <time>2015-02-16T21:16:18.567Z</time>
      </trkpt>
      <trkpt lat="48.86306" lon="2.31049">
        <ele>86.5</ele>
        <time>2015-02-16T21:16:20.668Z</time>
      </trkpt>
      <trkpt lat="48.86309" lon="2.31049">
        <ele>86.5</ele>
        <time>2015-02-16T21:16:21.545Z</time>
      </trkpt>
      <trkpt lat="48.86315" lon="2.3105">
        <ele>86.3</ele>
        <time>2015-02-16T21:16:23.857Z</time>
      </trkpt>
      <trkpt lat="48.86318" lon="2.3105">
        <ele>86.1</ele>
        <time>2015-02-16T21:16:24.589Z</time>
      </trkpt>
      <trkpt lat="48.86325" lon="2.3105">
        <ele>86.1</ele>
        <time>2015-02-16T21:16:26.624Z</time>
      </trkpt>
      <trkpt lat="48.86328" lon="2.3105">
        <ele>86</ele>
        <time>2015-02-16T21:16:27.682Z</time>
      </trkpt>
      <trkpt lat="48.86335" lon="2.31049">
        <ele>85.6</ele>
        <time>2015-02-16T21:16:29.773Z</time>
      </trkpt>
      <trkpt lat="48.86339" lon="2.31049">
        <ele>85.4</ele>
        <time>2015-02-16T21:16:30.595Z</time>
      </trkpt>
      <trkpt lat="48.86346" lon="2.31049">
        <ele>85.2</ele>
        <time>2015-02-16T21:16:32.678Z</time>
      </trkpt>
      <trkpt lat="48.8635" lon="2.31049">
        <ele>85</ele>
        <time>2015-02-16T21:16:33.597Z</time>
      </trkpt>
      <trkpt lat="48.86357" lon="2.31048">
        <ele>84.7</ele>
        <time>2015-02-16T21:16:35.760Z</time>
      </trkpt>
      <trkpt lat="48.86361" lon="2.31047">
        <ele>84.4</ele>
        <time>2015-02-16T21:16:36.589Z</time>
      </trkpt>
      <trkpt lat="48.86368" lon="2.31047">
        <ele>84.1</ele>
        <time>2015-02-16T21:16:38.628Z</time>
      </trkpt>
      <trkpt lat="48.86372" lon="2.31047">
        <ele>84.2</ele>
        <time>2015-02-16T21:16:39.639Z</time>
      </trkpt>
      <trkpt lat="48.86379" lon="2.31047">
        <ele>84.1</ele>
        <time>2015-02-16T21:16:41.669Z</time>
      </trkpt>
      <trkpt lat="48.86383" lon="2.31046">
        <ele>84.1</ele>
        <time>2015-02-16T21:16:42.699Z</time>
      </trkpt>
      <trkpt lat="48.86389" lon="2.31046">
        <ele>83.9</ele>
        <time>2015-02-16T21:16:44.628Z</time>
      </trkpt>
      <trkpt lat="48.86393" lon="2.31046">
        <ele>83.9</ele>
        <time>2015-02-16T21:16:45.645Z</time>
      </trkpt>
      <trkpt lat="48.86399" lon="2.31045">
        <ele>83.5</ele>
        <time>2015-02-16T21:16:47.585Z</time>
      </trkpt>
      <trkpt lat="48.86402" lon="2.31045">
        <ele>83.7</ele>
        <time>2015-02-16T21:16:48.615Z</time>
      </trkpt>
      <trkpt lat="48.86409" lon="2.31045">
        <ele>83.8</ele>
        <time>2015-02-16T21:16:50.983Z</time>
      </trkpt>
      <trkpt lat="48.86413" lon="2.31045">
        <ele>84</ele>
        <time>2015-02-16T21:16:51.571Z</time>
      </trkpt>
      <trkpt lat="48.86419" lon="2.31044">
        <ele>83.8</ele>
        <time>2015-02-16T21:16:53.605Z</time>
      </trkpt>
      <trkpt lat="48.86423" lon="2.31044">
        <ele>83.8</ele>
        <time>2015-02-16T21:16:54.577Z</time>
      </trkpt>
      <trkpt lat="48.86432" lon="2.31043">
        <ele>84</ele>
        <time>2015-02-16T21:16:57.653Z</time>
      </trkpt>
      <trkpt lat="48.86435" lon="2.31043">
        <ele>84</ele>
        <time>2015-02-16T21:16:58.662Z</time>
      </trkpt>
      <trkpt lat="48.86442" lon="2.31041">
        <ele>84.1</ele>
        <time>2015-02-16T21:17:01.626Z</time>
      </trkpt>
      <trkpt lat="48.86446" lon="2.31041">
        <ele>84.3</ele>
        <time>2015-02-16T21:17:02.631Z</time>
      </trkpt>
      <trkpt lat="48.86454" lon="2.31042">
        <ele>84.3</ele>
        <time>2015-02-16T21:17:06.212Z</time>
      </trkpt>
      <trkpt lat="48.86456" lon="2.31042">
        <ele>84.3</ele>
        <time>2015-02-16T21:17:06.579Z</time>
      </trkpt>
      <trkpt lat="48.86463" lon="2.31042">
        <ele>84.2</ele>
        <time>2015-02-16T21:17:08.619Z</time>
      </trkpt>
      <trkpt lat="48.86466" lon="2.31042">
        <ele>84.1</ele>
        <time>2015-02-16T21:17:09.639Z</time>
      </trkpt>
      <trkpt lat="48.86472" lon="2.31042">
        <ele>84.1</ele>
        <time>2015-02-16T21:17:11.571Z</time>
      </trkpt>
      <trkpt lat="48.86475" lon="2.31042">
        <ele>84.2</ele>
        <time>2015-02-16T21:17:12.602Z</time>
      </trkpt>
      <trkpt lat="48.86482" lon="2.31042">
        <ele>84.3</ele>
        <time>2015-02-16T21:17:14.618Z</time>
      </trkpt>
      <trkpt lat="48.86485" lon="2.31042">
        <ele>84.3</ele>
        <time>2015-02-16T21:17:15.645Z</time>
      </trkpt>
      <trkpt lat="48.86491" lon="2.31042">
        <ele>84.4</ele>
        <time>2015-02-16T21:17:17.578Z</time>
      </trkpt>
      <trkpt lat="48.86494" lon="2.31042">
        <ele>84.4</ele>
        <time>2015-02-16T21:17:18.645Z</time>
      </trkpt>
      <trkpt lat="48.86502" lon="2.31039">
        <ele>84.6</ele>
        <time>2015-02-16T21:17:21.574Z</time>
      </trkpt>
      <trkpt lat="48.86505" lon="2.31038">
        <ele>84.8</ele>
        <time>2015-02-16T21:17:22.666Z</time>
      </trkpt>
      <trkpt lat="48.86512" lon="2.31037">
        <ele>84.7</ele>
        <time>2015-02-16T21:17:25.623Z</time>
      </trkpt>
      <trkpt lat="48.86515" lon="2.31037">
        <ele>84.6</ele>
        <time>2015-02-16T21:17:26.626Z</time>
      </trkpt>
      <trkpt lat="48.86522" lon="2.31035">
        <ele>84.6</ele>
        <time>2015-02-16T21:17:29.559Z</time>
      </trkpt>
      <trkpt lat="48.86524" lon="2.31035">
        <ele>84.7</ele>
        <time>2015-02-16T21:17:30.573Z</time>
      </trkpt>
      <trkpt lat="48.86531" lon="2.31033">
        <ele>85.2</ele>
        <time>2015-02-16T21:17:33.660Z</time>
      </trkpt>
      <trkpt lat="48.86535" lon="2.31032">
        <ele>85.3</ele>
        <time>2015-02-16T21:17:34.565Z</time>
      </trkpt>
      <trkpt lat="48.86541" lon="2.31031">
        <ele>85.4</ele>
        <time>2015-02-16T21:17:36.640Z</time>
      </trkpt>
      <trkpt lat="48.86544" lon="2.3103">
        <ele>85.5</ele>
        <time>2015-02-16T21:17:37.653Z</time>
      </trkpt>
      <trkpt lat="48.86553" lon="2.31026">
        <ele>85.8</ele>
        <time>2015-02-16T21:17:40.575Z</time>
      </trkpt>
      <trkpt lat="48.86556" lon="2.31025">
        <ele>86</ele>
        <time>2015-02-16T21:17:41.534Z</time>
      </trkpt>
      <trkpt lat="48.86562" lon="2.31021">
        <ele>86.2</ele>
        <time>2015-02-16T21:17:43.587Z</time>
      </trkpt>
      <trkpt lat="48.86565" lon="2.31019">
        <ele>86.3</ele>
        <time>2015-02-16T21:17:44.641Z</time>
      </trkpt>
      <trkpt lat="48.86569" lon="2.31017">
        <ele>86.3</ele>
        <time>2015-02-16T21:17:45.668Z</time>
      </trkpt>
      <trkpt lat="48.86574" lon="2.31016">
        <ele>86.4</ele>
        <time>2015-02-16T21:17:46.573Z</time>
      </trkpt>
      <trkpt lat="48.86579" lon="2.31015">
        <ele>86.6</ele>
        <time>2015-02-16T21:17:47.619Z</time>
      </trkpt>
      <trkpt lat="48.86584" lon="2.31015">
        <ele>86.7</ele>
        <time>2015-02-16T21:17:48.641Z</time>
      </trkpt>
      <trkpt lat="48.86589" lon="2.31014">
        <ele>86.9</ele>
        <time>2015-02-16T21:17:49.660Z</time>
      </trkpt>
      <trkpt lat="48.86594" lon="2.31013">
        <ele>87</ele>
        <time>2015-02-16T21:17:50.563Z</time>
      </trkpt>
      <trkpt lat="48.86599" lon="2.31013">
        <ele>87.1</ele>
        <time>2015-02-16T21:17:51.652Z</time>
      </trkpt>
      <trkpt lat="48.86604" lon="2.31013">
        <ele>87.2</ele>
        <time>2015-02-16T21:17:52.561Z</time>
      </trkpt>
      <trkpt lat="48.86609" lon="2.31013">
        <ele>87.2</ele>
        <time>2015-02-16T21:17:53.580Z</time>
      </trkpt>
      <trkpt lat="48.86615" lon="2.31014">
        <ele>87</ele>
        <time>2015-02-16T21:17:54.589Z</time>
      </trkpt>
      <trkpt lat="48.86624" lon="2.31014">
        <ele>87.3</ele>
        <time>2015-02-16T21:17:56.624Z</time>
      </trkpt>
      <trkpt lat="48.86629" lon="2.31014">
        <ele>87.1</ele>
        <time>2015-02-16T21:17:57.631Z</time>
      </trkpt>
      <trkpt lat="48.86634" lon="2.31014">
        <ele>87</ele>
        <time>2015-02-16T21:17:58.654Z</time>
      </trkpt>
      <trkpt lat="48.86638" lon="2.31014">
        <ele>86.9</ele>
        <time>2015-02-16T21:17:59.557Z</time>
      </trkpt>
      <trkpt lat="48.86646" lon="2.31013">
        <ele>86.9</ele>
        <time>2015-02-16T21:18:01.588Z</time>
      </trkpt>
      <trkpt lat="48.8665" lon="2.31013">
        <ele>86.9</ele>
        <time>2015-02-16T21:18:02.535Z</time>
      </trkpt>
      <trkpt lat="48.86657" lon="2.31013">
        <ele>86.9</ele>
        <time>2015-02-16T21:18:04.587Z</time>
      </trkpt>
      <trkpt lat="48.8666" lon="2.31014">
        <ele>86.6</ele>
        <time>2015-02-16T21:18:05.622Z</time>
      </trkpt>
      <trkpt lat="48.86663" lon="2.31015">
        <ele>86.4</ele>
        <time>2015-02-16T21:18:06.661Z</time>
      </trkpt>
      <trkpt lat="48.86669" lon="2.31017">
        <ele>87.1</ele>
        <time>2015-02-16T21:18:07.671Z</time>
      </trkpt>
      <trkpt lat="48.86674" lon="2.31017">
        <ele>87.6</ele>
        <time>2015-02-16T21:18:08.562Z</time>
      </trkpt>
      <trkpt lat="48.86678" lon="2.31017">
        <ele>87.8</ele>
        <time>2015-02-16T21:18:09.561Z</time>
      </trkpt>
      <trkpt lat="48.86685" lon="2.31015">
        <ele>88.3</ele>
        <time>2015-02-16T21:18:11.616Z</time>
      </trkpt>
      <trkpt lat="48.86688" lon="2.31014">
        <ele>88.4</ele>
        <time>2015-02-16T21:18:12.630Z</time>
      </trkpt>
      <trkpt lat="48.86695" lon="2.31013">
        <ele>88.8</ele>
        <time>2015-02-16T21:18:14.576Z</time>
      </trkpt>
      <trkpt lat="48.86699" lon="2.31012">
        <ele>88.9</ele>
        <time>2015-02-16T21:18:15.587Z</time>
      </trkpt>
      <trkpt lat="48.86705" lon="2.31013">
        <ele>89.1</ele>
        <time>2015-02-16T21:18:17.632Z</time>
      </trkpt>
      <trkpt lat="48.86708" lon="2.31013">
        <ele>89.2</ele>
        <time>2015-02-16T21:18:18.639Z</time>
      </trkpt>
      <trkpt lat="48.86715" lon="2.31013">
        <ele>89.3</ele>
        <time>2015-02-16T21:18:20.576Z</time>
      </trkpt>
      <trkpt lat="48.8672" lon="2.31013">
        <ele>89.5</ele>
        <time>2015-02-16T21:18:21.587Z</time>
      </trkpt>
      <trkpt lat="48.86725" lon="2.31012">
        <ele>89.4</ele>
        <time>2015-02-16T21:18:22.609Z</time>
      </trkpt>
      <trkpt lat="48.86729" lon="2.31011">
        <ele>89.6</ele>
        <time>2015-02-16T21:18:23.653Z</time>
      </trkpt>
      <trkpt lat="48.86734" lon="2.31009">
        <ele>90</ele>
        <time>2015-02-16T21:18:24.570Z</time>
      </trkpt>
      <trkpt lat="48.86742" lon="2.31004">
        <ele>90.3</ele>
        <time>2015-02-16T21:18:25.684Z</time>
      </trkpt>
      <trkpt lat="48.86747" lon="2.31004">
        <ele>90.3</ele>
        <time>2015-02-16T21:18:26.575Z</time>
      </trkpt>
      <trkpt lat="48.86752" lon="2.31003">
        <ele>90.4</ele>
        <time>2015-02-16T21:18:27.588Z</time>
      </trkpt>
      <trkpt lat="48.86756" lon="2.31004">
        <ele>90.4</ele>
        <time>2015-02-16T21:18:28.616Z</time>
      </trkpt>
      <trkpt lat="48.86761" lon="2.31004">
        <ele>90.3</ele>
        <time>2015-02-16T21:18:29.630Z</time>
      </trkpt>
      <trkpt lat="48.86769" lon="2.31005">
        <ele>90.2</ele>
        <time>2015-02-16T21:18:31.649Z</time>
      </trkpt>
      <trkpt lat="48.86773" lon="2.31006">
        <ele>90.3</ele>
        <time>2015-02-16T21:18:32.546Z</time>
      </trkpt>
      <trkpt lat="48.86781" lon="2.31005">
        <ele>90.5</ele>
        <time>2015-02-16T21:18:34.572Z</time>
      </trkpt>
      <trkpt lat="48.86785" lon="2.31005">
        <ele>90.5</ele>
        <time>2015-02-16T21:18:35.590Z</time>
      </trkpt>
      <trkpt lat="48.86793" lon="2.31005">
        <ele>90.6</ele>
        <time>2015-02-16T21:18:37.619Z</time>
      </trkpt>
      <trkpt lat="48.86796" lon="2.31006">
        <ele>90.7</ele>
        <time>2015-02-16T21:18:38.623Z</time>
      </trkpt>
      <trkpt lat="48.86801" lon="2.31006">
        <ele>90.5</ele>
        <time>2015-02-16T21:18:39.649Z</time>
      </trkpt>
      <trkpt lat="48.86805" lon="2.31007">
        <ele>90.5</ele>
        <time>2015-02-16T21:18:40.565Z</time>
      </trkpt>
      <trkpt lat="48.86814" lon="2.31007">
        <ele>90.4</ele>
        <time>2015-02-16T21:18:42.591Z</time>
      </trkpt>
      <trkpt lat="48.86819" lon="2.31006">
        <ele>90.2</ele>
        <time>2015-02-16T21:18:43.625Z</time>
      </trkpt>
      <trkpt lat="48.86827" lon="2.31006">
        <ele>90.1</ele>
        <time>2015-02-16T21:18:45.574Z</time>
      </trkpt>
      <trkpt lat="48.86834" lon="2.31008">
        <ele>91.6</ele>
        <time>2015-02-16T21:18:46.584Z</time>
      </trkpt>
      <trkpt lat="48.86841" lon="2.3101">
        <ele>91.7</ele>
        <time>2015-02-16T21:18:48.641Z</time>
      </trkpt>
      <trkpt lat="48.86845" lon="2.31011">
        <ele>91.7</ele>
        <time>2015-02-16T21:18:49.651Z</time>
      </trkpt>
      <trkpt lat="48.86852" lon="2.31013">
        <ele>92.2</ele>
        <time>2015-02-16T21:18:51.560Z</time>
      </trkpt>
      <trkpt lat="48.86856" lon="2.31013">
        <ele>92.1</ele>
        <time>2015-02-16T21:18:52.582Z</time>
      </trkpt>
      <trkpt lat="48.86864" lon="2.31014">
        <ele>92.6</ele>
        <time>2015-02-16T21:18:54.586Z</time>
      </trkpt>
      <trkpt lat="48.86867" lon="2.31016">
        <ele>92.6</ele>
        <time>2015-02-16T21:18:55.634Z</time>
      </trkpt>
      <trkpt lat="48.86873" lon="2.31024">
        <ele>92</ele>
        <time>2015-02-16T21:18:57.554Z</time>
      </trkpt>
      <trkpt lat="48.86875" lon="2.31027">
        <ele>91.8</ele>
        <time>2015-02-16T21:18:58.587Z</time>
      </trkpt>
      <trkpt lat="48.86881" lon="2.31036">
        <ele>90.8</ele>
        <time>2015-02-16T21:19:01.657Z</time>
      </trkpt>
      <trkpt lat="48.86883" lon="2.31038">
        <ele>90.3</ele>
        <time>2015-02-16T21:19:02.609Z</time>
      </trkpt>
      <trkpt lat="48.86889" lon="2.31048">
        <ele>89.3</ele>
        <time>2015-02-16T21:19:05.543Z</time>
      </trkpt>
      <trkpt lat="48.86891" lon="2.31051">
        <ele>89.1</ele>
        <time>2015-02-16T21:19:06.583Z</time>
      </trkpt>
      <trkpt lat="48.86899" lon="2.31056">
        <ele>88.8</ele>
        <time>2015-02-16T21:19:10.575Z</time>
      </trkpt>
      <trkpt lat="48.869" lon="2.31055">
        <ele>88.5</ele>
        <time>2015-02-16T21:19:11.571Z</time>
      </trkpt>
      <trkpt lat="48.86909" lon="2.31053">
        <ele>87.6</ele>
        <time>2015-02-16T21:19:14.574Z</time>
      </trkpt>
      <trkpt lat="48.8691" lon="2.31053">
        <ele>87.3</ele>
        <time>2015-02-16T21:19:15.603Z</time>
      </trkpt>
      <trkpt lat="48.86914" lon="2.31063">
        <ele>87.1</ele>
        <time>2015-02-16T21:19:19.608Z</time>
      </trkpt>
      <trkpt lat="48.86916" lon="2.31066">
        <ele>87.3</ele>
        <time>2015-02-16T21:19:20.670Z</time>
      </trkpt>
      <trkpt lat="48.86919" lon="2.31073">
        <ele>86.7</ele>
        <time>2015-02-16T21:19:22.571Z</time>
      </trkpt>
      <trkpt lat="48.86921" lon="2.31076">
        <ele>86.6</ele>
        <time>2015-02-16T21:19:23.584Z</time>
      </trkpt>
      <trkpt lat="48.86925" lon="2.31087">
        <ele>86.2</ele>
        <time>2015-02-16T21:19:26.570Z</time>
      </trkpt>
      <trkpt lat="48.86926" lon="2.3109">
        <ele>86</ele>
        <time>2015-02-16T21:19:27.607Z</time>
      </trkpt>
      <trkpt lat="48.86928" lon="2.31097">
        <ele>84.4</ele>
        <time>2015-02-16T21:19:32.644Z</time>
      </trkpt>
      <trkpt lat="48.86928" lon="2.31096">
        <ele>84.6</ele>
        <time>2015-02-16T21:19:33.579Z</time>
      </trkpt>
      <trkpt lat="48.86929" lon="2.31096">
        <ele>84.6</ele>
        <time>2015-02-16T21:19:38.580Z</time>
      </trkpt>
      <trkpt lat="48.86931" lon="2.31093">
        <ele>85.3</ele>
        <time>2015-02-16T21:19:39.596Z</time>
      </trkpt>
      <trkpt lat="48.86938" lon="2.31097">
        <ele>85.2</ele>
        <time>2015-02-16T21:19:43.658Z</time>
      </trkpt>
      <trkpt lat="48.8694" lon="2.31101">
        <ele>85</ele>
        <time>2015-02-16T21:19:44.673Z</time>
      </trkpt>
      <trkpt lat="48.86942" lon="2.31114">
        <ele>85</ele>
        <time>2015-02-16T21:19:47.591Z</time>
      </trkpt>
      <trkpt lat="48.86942" lon="2.31119">
        <ele>85</ele>
        <time>2015-02-16T21:19:48.626Z</time>
      </trkpt>
      <trkpt lat="48.86945" lon="2.31127">
        <ele>84.7</ele>
        <time>2015-02-16T21:19:50.639Z</time>
      </trkpt>
      <trkpt lat="48.86946" lon="2.31131">
        <ele>84.7</ele>
        <time>2015-02-16T21:19:51.656Z</time>
      </trkpt>
      <trkpt lat="48.86951" lon="2.3114">
        <ele>84.3</ele>
        <time>2015-02-16T21:19:53.563Z</time>
      </trkpt>
      <trkpt lat="48.86954" lon="2.31145">
        <ele>84.2</ele>
        <time>2015-02-16T21:19:54.586Z</time>
      </trkpt>
      <trkpt lat="48.86957" lon="2.31151">
        <ele>84</ele>
        <time>2015-02-16T21:19:55.619Z</time>
      </trkpt>
      <trkpt lat="48.86961" lon="2.31158">
        <ele>83.7</ele>
        <time>2015-02-16T21:19:56.629Z</time>
      </trkpt>
      <trkpt lat="48.86964" lon="2.31164">
        <ele>83.5</ele>
        <time>2015-02-16T21:19:57.638Z</time>
      </trkpt>
      <trkpt lat="48.86966" lon="2.3117">
        <ele>83.3</ele>
        <time>2015-02-16T21:19:58.645Z</time>
      </trkpt>
      <trkpt lat="48.86968" lon="2.3118">
        <ele>83.2</ele>
        <time>2015-02-16T21:19:59.548Z</time>
      </trkpt>
      <trkpt lat="48.86971" lon="2.31187">
        <ele>83</ele>
        <time>2015-02-16T21:20:00.579Z</time>
      </trkpt>
      <trkpt lat="48.86974" lon="2.31193">
        <ele>82.8</ele>
        <time>2015-02-16T21:20:01.616Z</time>
      </trkpt>
      <trkpt lat="48.86977" lon="2.31198">
        <ele>82.9</ele>
        <time>2015-02-16T21:20:02.662Z</time>
      </trkpt>
      <trkpt lat="48.86982" lon="2.31208">
        <ele>83</ele>
        <time>2015-02-16T21:20:04.580Z</time>
      </trkpt>
      <trkpt lat="48.86985" lon="2.31213">
        <ele>82.7</ele>
        <time>2015-02-16T21:20:05.599Z</time>
      </trkpt>
      <trkpt lat="48.86991" lon="2.31222">
        <ele>82.6</ele>
        <time>2015-02-16T21:20:08.354Z</time>
      </trkpt>
      <trkpt lat="48.86995" lon="2.31227">
        <ele>82.5</ele>
        <time>2015-02-16T21:20:08.597Z</time>
      </trkpt>
      <trkpt lat="48.86999" lon="2.31231">
        <ele>82.3</ele>
        <time>2015-02-16T21:20:09.616Z</time>
      </trkpt>
      <trkpt lat="48.87003" lon="2.31236">
        <ele>82</ele>
        <time>2015-02-16T21:20:10.624Z</time>
      </trkpt>
      <trkpt lat="48.87006" lon="2.31241">
        <ele>81.7</ele>
        <time>2015-02-16T21:20:11.561Z</time>
      </trkpt>
      <trkpt lat="48.87009" lon="2.31246">
        <ele>81.6</ele>
        <time>2015-02-16T21:20:12.595Z</time>
      </trkpt>
      <trkpt lat="48.87012" lon="2.31252">
        <ele>81.4</ele>
        <time>2015-02-16T21:20:13.595Z</time>
      </trkpt>
      <trkpt lat="48.87014" lon="2.31258">
        <ele>81.3</ele>
        <time>2015-02-16T21:20:14.607Z</time>
      </trkpt>
      <trkpt lat="48.87019" lon="2.31269">
        <ele>81.2</ele>
        <time>2015-02-16T21:20:16.642Z</time>
      </trkpt>
      <trkpt lat="48.87022" lon="2.31274">
        <ele>81.2</ele>
        <time>2015-02-16T21:20:17.546Z</time>
      </trkpt>
      <trkpt lat="48.87025" lon="2.31279">
        <ele>81.4</ele>
        <time>2015-02-16T21:20:18.598Z</time>
      </trkpt>
      <trkpt lat="48.87028" lon="2.31283">
        <ele>81.4</ele>
        <time>2015-02-16T21:20:19.600Z</time>
      </trkpt>
      <trkpt lat="48.87032" lon="2.31288">
        <ele>81.4</ele>
        <time>2015-02-16T21:20:21.311Z</time>
      </trkpt>
      <trkpt lat="48.87036" lon="2.31293">
        <ele>81.4</ele>
        <time>2015-02-16T21:20:21.668Z</time>
      </trkpt>
      <trkpt lat="48.87039" lon="2.31298">
        <ele>81.6</ele>
        <time>2015-02-16T21:20:22.631Z</time>
      </trkpt>
      <trkpt lat="48.87045" lon="2.31305">
        <ele>80.3</ele>
        <time>2015-02-16T21:20:23.590Z</time>
      </trkpt>
      <trkpt lat="48.87051" lon="2.31309">
        <ele>79.8</ele>
        <time>2015-02-16T21:20:24.584Z</time>
      </trkpt>
      <trkpt lat="48.87057" lon="2.31315">
        <ele>79</ele>
        <time>2015-02-16T21:20:25.592Z</time>
      </trkpt>
      <trkpt lat="48.87061" lon="2.3132">
        <ele>78.8</ele>
        <time>2015-02-16T21:20:26.610Z</time>
      </trkpt>
      <trkpt lat="48.87065" lon="2.31325">
        <ele>78.6</ele>
        <time>2015-02-16T21:20:27.622Z</time>
      </trkpt>
      <trkpt lat="48.87069" lon="2.31329">
        <ele>78.7</ele>
        <time>2015-02-16T21:20:28.646Z</time>
      </trkpt>
      <trkpt lat="48.87073" lon="2.31332">
        <ele>78.6</ele>
        <time>2015-02-16T21:20:29.558Z</time>
      </trkpt>
      <trkpt lat="48.8708" lon="2.31336">
        <ele>78.9</ele>
        <time>2015-02-16T21:20:31.669Z</time>
      </trkpt>
      <trkpt lat="48.87083" lon="2.31338">
        <ele>79.2</ele>
        <time>2015-02-16T21:20:32.664Z</time>
      </trkpt>
      <trkpt lat="48.8709" lon="2.31343">
        <ele>79.5</ele>
        <time>2015-02-16T21:20:34.564Z</time>
      </trkpt>
      <trkpt lat="48.87093" lon="2.31346">
        <ele>79.5</ele>
        <time>2015-02-16T21:20:35.568Z</time>
      </trkpt>
      <trkpt lat="48.87097" lon="2.31349">
        <ele>79.2</ele>
        <time>2015-02-16T21:20:36.595Z</time>
      </trkpt>
      <trkpt lat="48.87102" lon="2.31353">
        <ele>79.8</ele>
        <time>2015-02-16T21:20:37.608Z</time>
      </trkpt>
      <trkpt lat="48.87107" lon="2.31357">
        <ele>80.1</ele>
        <time>2015-02-16T21:20:38.615Z</time>
      </trkpt>
      <trkpt lat="48.87112" lon="2.3136">
        <ele>80.3</ele>
        <time>2015-02-16T21:20:39.619Z</time>
      </trkpt>
      <trkpt lat="48.87117" lon="2.31362">
        <ele>80.7</ele>
        <time>2015-02-16T21:20:40.629Z</time>
      </trkpt>
      <trkpt lat="48.87121" lon="2.31365">
        <ele>81</ele>
        <time>2015-02-16T21:20:41.631Z</time>
      </trkpt>
      <trkpt lat="48.87125" lon="2.31368">
        <ele>81.5</ele>
        <time>2015-02-16T21:20:42.666Z</time>
      </trkpt>
      <trkpt lat="48.8713" lon="2.31371">
        <ele>81.9</ele>
        <time>2015-02-16T21:20:43.693Z</time>
      </trkpt>
      <trkpt lat="48.87138" lon="2.31377">
        <ele>82.4</ele>
        <time>2015-02-16T21:20:45.584Z</time>
      </trkpt>
      <trkpt lat="48.87141" lon="2.3138">
        <ele>82.6</ele>
        <time>2015-02-16T21:20:46.603Z</time>
      </trkpt>
      <trkpt lat="48.87147" lon="2.31384">
        <ele>83</ele>
        <time>2015-02-16T21:20:48.558Z</time>
      </trkpt>
      <trkpt lat="48.8715" lon="2.31387">
        <ele>83.3</ele>
        <time>2015-02-16T21:20:49.608Z</time>
      </trkpt>
      <trkpt lat="48.87157" lon="2.31396">
        <ele>84.3</ele>
        <time>2015-02-16T21:20:52.564Z</time>
      </trkpt>
      <trkpt lat="48.8716" lon="2.31398">
        <ele>85</ele>
        <time>2015-02-16T21:20:53.648Z</time>
      </trkpt>
      <trkpt lat="48.87166" lon="2.31402">
        <ele>85.5</ele>
        <time>2015-02-16T21:20:55.607Z</time>
      </trkpt>
      <trkpt lat="48.87169" lon="2.31404">
        <ele>85.6</ele>
        <time>2015-02-16T21:20:56.635Z</time>
      </trkpt>
      <trkpt lat="48.87173" lon="2.31412">
        <ele>86</ele>
        <time>2015-02-16T21:20:58.571Z</time>
      </trkpt>
      <trkpt lat="48.87173" lon="2.31416">
        <ele>86.5</ele>
        <time>2015-02-16T21:20:59.580Z</time>
      </trkpt>
      <trkpt lat="48.87173" lon="2.31428">
        <ele>87.4</ele>
        <time>2015-02-16T21:21:02.569Z</time>
      </trkpt>
      <trkpt lat="48.87173" lon="2.31433">
        <ele>87.7</ele>
        <time>2015-02-16T21:21:03.579Z</time>
      </trkpt>
      <trkpt lat="48.87172" lon="2.31442">
        <ele>88.2</ele>
        <time>2015-02-16T21:21:05.635Z</time>
      </trkpt>
      <trkpt lat="48.8717" lon="2.31447">
        <ele>88.3</ele>
        <time>2015-02-16T21:21:06.654Z</time>
      </trkpt>
      <trkpt lat="48.87166" lon="2.31456">
        <ele>88.7</ele>
        <time>2015-02-16T21:21:08.570Z</time>
      </trkpt>
      <trkpt lat="48.87164" lon="2.31461">
        <ele>88.9</ele>
        <time>2015-02-16T21:21:09.547Z</time>
      </trkpt>
      <trkpt lat="48.8716" lon="2.31472">
        <ele>89</ele>
        <time>2015-02-16T21:21:11.637Z</time>
      </trkpt>
      <trkpt lat="48.87157" lon="2.31477">
        <ele>89</ele>
        <time>2015-02-16T21:21:12.567Z</time>
      </trkpt>
      <trkpt lat="48.87153" lon="2.31488">
        <ele>89.2</ele>
        <time>2015-02-16T21:21:14.555Z</time>
      </trkpt>
      <trkpt lat="48.87151" lon="2.31494">
        <ele>89.2</ele>
        <time>2015-02-16T21:21:15.688Z</time>
      </trkpt>
      <trkpt lat="48.87147" lon="2.31506">
        <ele>89.3</ele>
        <time>2015-02-16T21:21:17.567Z</time>
      </trkpt>
      <trkpt lat="48.87145" lon="2.31512">
        <ele>89.4</ele>
        <time>2015-02-16T21:21:18.571Z</time>
      </trkpt>
      <trkpt lat="48.87142" lon="2.31522">
        <ele>89.5</ele>
        <time>2015-02-16T21:21:20.613Z</time>
      </trkpt>
      <trkpt lat="48.8714" lon="2.31527">
        <ele>89.8</ele>
        <time>2015-02-16T21:21:21.632Z</time>
      </trkpt>
      <trkpt lat="48.87138" lon="2.31539">
        <ele>90.2</ele>
        <time>2015-02-16T21:21:23.601Z</time>
      </trkpt>
      <trkpt lat="48.87137" lon="2.31546">
        <ele>90.1</ele>
        <time>2015-02-16T21:21:24.611Z</time>
      </trkpt>
      <trkpt lat="48.87136" lon="2.31555">
        <ele>89.8</ele>
        <time>2015-02-16T21:21:25.622Z</time>
      </trkpt>
      <trkpt lat="48.87134" lon="2.31562">
        <ele>89.6</ele>
        <time>2015-02-16T21:21:26.557Z</time>
      </trkpt>
      <trkpt lat="48.87132" lon="2.3157">
        <ele>89.1</ele>
        <time>2015-02-16T21:21:27.606Z</time>
      </trkpt>
      <trkpt lat="48.87131" lon="2.31576">
        <ele>88.6</ele>
        <time>2015-02-16T21:21:28.614Z</time>
      </trkpt>
      <trkpt lat="48.87129" lon="2.31588">
        <ele>87.9</ele>
        <time>2015-02-16T21:21:30.561Z</time>
      </trkpt>
      <trkpt lat="48.87128" lon="2.31594">
        <ele>87.6</ele>
        <time>2015-02-16T21:21:31.628Z</time>
      </trkpt>
      <trkpt lat="48.87127" lon="2.31607">
        <ele>87.3</ele>
        <time>2015-02-16T21:21:33.541Z</time>
      </trkpt>
      <trkpt lat="48.87126" lon="2.31613">
        <ele>87.2</ele>
        <time>2015-02-16T21:21:34.558Z</time>
      </trkpt>
      <trkpt lat="48.87123" lon="2.31625">
        <ele>87</ele>
        <time>2015-02-16T21:21:36.592Z</time>
      </trkpt>
      <trkpt lat="48.87125" lon="2.31636">
        <ele>88.3</ele>
        <time>2015-02-16T21:21:37.606Z</time>
      </trkpt>
      <trkpt lat="48.87123" lon="2.31648">
        <ele>88.6</ele>
        <time>2015-02-16T21:21:39.538Z</time>
      </trkpt>
      <trkpt lat="48.87124" lon="2.31655">
        <ele>88.8</ele>
        <time>2015-02-16T21:21:40.550Z</time>
      </trkpt>
      <trkpt lat="48.87124" lon="2.31665">
        <ele>88.7</ele>
        <time>2015-02-16T21:21:42.581Z</time>
      </trkpt>
      <trkpt lat="48.87124" lon="2.3167">
        <ele>88.5</ele>
        <time>2015-02-16T21:21:43.577Z</time>
      </trkpt>
      <trkpt lat="48.87126" lon="2.31682">
        <ele>88.3</ele>
        <time>2015-02-16T21:21:45.548Z</time>
      </trkpt>
      <trkpt lat="48.87127" lon="2.31687">
        <ele>88.2</ele>
        <time>2015-02-16T21:21:46.593Z</time>
      </trkpt>
      <trkpt lat="48.8713" lon="2.31699">
        <ele>87.8</ele>
        <time>2015-02-16T21:21:48.759Z</time>
      </trkpt>
      <trkpt lat="48.87132" lon="2.31704">
        <ele>87.4</ele>
        <time>2015-02-16T21:21:49.636Z</time>
      </trkpt>
      <trkpt lat="48.87134" lon="2.31715">
        <ele>87</ele>
        <time>2015-02-16T21:21:51.560Z</time>
      </trkpt>
      <trkpt lat="48.87135" lon="2.31721">
        <ele>86.8</ele>
        <time>2015-02-16T21:21:52.529Z</time>
      </trkpt>
      <trkpt lat="48.87135" lon="2.31733">
        <ele>86.4</ele>
        <time>2015-02-16T21:21:54.557Z</time>
      </trkpt>
      <trkpt lat="48.87135" lon="2.31739">
        <ele>86.3</ele>
        <time>2015-02-16T21:21:55.720Z</time>
      </trkpt>
      <trkpt lat="48.87134" lon="2.3175">
        <ele>86.1</ele>
        <time>2015-02-16T21:21:57.588Z</time>
      </trkpt>
      <trkpt lat="48.87134" lon="2.31756">
        <ele>85.8</ele>
        <time>2015-02-16T21:21:58.594Z</time>
      </trkpt>
      <trkpt lat="48.87135" lon="2.31767">
        <ele>85.4</ele>
        <time>2015-02-16T21:22:00.643Z</time>
      </trkpt>
      <trkpt lat="48.87137" lon="2.31772">
        <ele>85.5</ele>
        <time>2015-02-16T21:22:01.652Z</time>
      </trkpt>
      <trkpt lat="48.8714" lon="2.31784">
        <ele>87</ele>
        <time>2015-02-16T21:22:03.531Z</time>
      </trkpt>
      <trkpt lat="48.8714" lon="2.31787">
        <ele>87.1</ele>
        <time>2015-02-16T21:22:04.618Z</time>
      </trkpt>
      <trkpt lat="48.87139" lon="2.31797">
        <ele>87.4</ele>
        <time>2015-02-16T21:22:07.722Z</time>
      </trkpt>
      <trkpt lat="48.87138" lon="2.31802">
        <ele>87.4</ele>
        <time>2015-02-16T21:22:08.686Z</time>
      </trkpt>
      <trkpt lat="48.87135" lon="2.3181">
        <ele>87.6</ele>
        <time>2015-02-16T21:22:10.540Z</time>
      </trkpt>
      <trkpt lat="48.87134" lon="2.31814">
        <ele>87.6</ele>
        <time>2015-02-16T21:22:11.561Z</time>
      </trkpt>
      <trkpt lat="48.87131" lon="2.31825">
        <ele>87.3</ele>
        <time>2015-02-16T21:22:14.746Z</time>
      </trkpt>
      <trkpt lat="48.87129" lon="2.31828">
        <ele>87.3</ele>
        <time>2015-02-16T21:22:15.572Z</time>
      </trkpt>
      <trkpt lat="48.87125" lon="2.31836">
        <ele>87.3</ele>
        <time>2015-02-16T21:22:17.614Z</time>
      </trkpt>
      <trkpt lat="48.87122" lon="2.3184">
        <ele>87.3</ele>
        <time>2015-02-16T21:22:18.630Z</time>
      </trkpt>
      <trkpt lat="48.87118" lon="2.31848">
        <ele>87.4</ele>
        <time>2015-02-16T21:22:20.547Z</time>
      </trkpt>
      <trkpt lat="48.87115" lon="2.31852">
        <ele>87.5</ele>
        <time>2015-02-16T21:22:21.549Z</time>
      </trkpt>
      <trkpt lat="48.8711" lon="2.31859">
        <ele>87.7</ele>
        <time>2015-02-16T21:22:23.591Z</time>
      </trkpt>
      <trkpt lat="48.87107" lon="2.31863">
        <ele>87.9</ele>
        <time>2015-02-16T21:22:24.597Z</time>
      </trkpt>
      <trkpt lat="48.87101" lon="2.31873">
        <ele>88.3</ele>
        <time>2015-02-16T21:22:26.542Z</time>
      </trkpt>
      <trkpt lat="48.87099" lon="2.31877">
        <ele>88.3</ele>
        <time>2015-02-16T21:22:27.540Z</time>
      </trkpt>
      <trkpt lat="48.87095" lon="2.31886">
        <ele>88.3</ele>
        <time>2015-02-16T21:22:30.182Z</time>
      </trkpt>
      <trkpt lat="48.87092" lon="2.31892">
        <ele>88.2</ele>
        <time>2015-02-16T21:22:30.539Z</time>
      </trkpt>
      <trkpt lat="48.87088" lon="2.31902">
        <ele>88.2</ele>
        <time>2015-02-16T21:22:32.579Z</time>
      </trkpt>
      <trkpt lat="48.87086" lon="2.31907">
        <ele>88.1</ele>
        <time>2015-02-16T21:22:33.585Z</time>
      </trkpt>
      <trkpt lat="48.87082" lon="2.31918">
        <ele>88</ele>
        <time>2015-02-16T21:22:35.586Z</time>
      </trkpt>
      <trkpt lat="48.87081" lon="2.31923">
        <ele>87.9</ele>
        <time>2015-02-16T21:22:36.593Z</time>
      </trkpt>
      <trkpt lat="48.87079" lon="2.31933">
        <ele>88.2</ele>
        <time>2015-02-16T21:22:38.609Z</time>
      </trkpt>
      <trkpt lat="48.87078" lon="2.31938">
        <ele>88.1</ele>
        <time>2015-02-16T21:22:39.625Z</time>
      </trkpt>
      <trkpt lat="48.87076" lon="2.31947">
        <ele>88.3</ele>
        <time>2015-02-16T21:22:41.579Z</time>
      </trkpt>
      <trkpt lat="48.87075" lon="2.31951">
        <ele>88.3</ele>
        <time>2015-02-16T21:22:42.585Z</time>
      </trkpt>
      <trkpt lat="48.87076" lon="2.31963">
        <ele>88.9</ele>
        <time>2015-02-16T21:22:46.586Z</time>
      </trkpt>
      <trkpt lat="48.87077" lon="2.31966">
        <ele>89.3</ele>
        <time>2015-02-16T21:22:47.600Z</time>
      </trkpt>
      <trkpt lat="48.87084" lon="2.31975">
        <ele>89.9</ele>
        <time>2015-02-16T21:22:51.547Z</time>
      </trkpt>
      <trkpt lat="48.87085" lon="2.31978">
        <ele>89.9</ele>
        <time>2015-02-16T21:22:52.544Z</time>
      </trkpt>
      <trkpt lat="48.87091" lon="2.31987">
        <ele>90.1</ele>
        <time>2015-02-16T21:22:55.605Z</time>
      </trkpt>
      <trkpt lat="48.87094" lon="2.31989">
        <ele>90.3</ele>
        <time>2015-02-16T21:22:56.610Z</time>
      </trkpt>
      <trkpt lat="48.87098" lon="2.3199">
        <ele>90.8</ele>
        <time>2015-02-16T21:22:59.746Z</time>
      </trkpt>
      <trkpt lat="48.87099" lon="2.31991">
        <ele>90.8</ele>
        <time>2015-02-16T21:23:00.656Z</time>
      </trkpt>
      <trkpt lat="48.871" lon="2.31994">
        <ele>90.9</ele>
        <time>2015-02-16T21:23:01.637Z</time>
      </trkpt>
      <trkpt lat="48.871" lon="2.32006">
        <ele>91.2</ele>
        <time>2015-02-16T21:23:04.866Z</time>
      </trkpt>
      <trkpt lat="48.87099" lon="2.32011">
        <ele>91.5</ele>
        <time>2015-02-16T21:23:05.603Z</time>
      </trkpt>
      <trkpt lat="48.87099" lon="2.32022">
        <ele>91.3</ele>
        <time>2015-02-16T21:23:07.612Z</time>
      </trkpt>
      <trkpt lat="48.87101" lon="2.3203">
        <ele>92.1</ele>
        <time>2015-02-16T21:23:08.614Z</time>
      </trkpt>
      <trkpt lat="48.87104" lon="2.32042">
        <ele>93.6</ele>
        <time>2015-02-16T21:23:11.420Z</time>
      </trkpt>
      <trkpt lat="48.87103" lon="2.32047">
        <ele>94</ele>
        <time>2015-02-16T21:23:11.568Z</time>
      </trkpt>
      <trkpt lat="48.87097" lon="2.32055">
        <ele>94.2</ele>
        <time>2015-02-16T21:23:13.602Z</time>
      </trkpt>
      <trkpt lat="48.87093" lon="2.3206">
        <ele>94.4</ele>
        <time>2015-02-16T21:23:14.624Z</time>
      </trkpt>
      <trkpt lat="48.87089" lon="2.32064">
        <ele>94.4</ele>
        <time>2015-02-16T21:23:15.538Z</time>
      </trkpt>
      <trkpt lat="48.87085" lon="2.32069">
        <ele>94.5</ele>
        <time>2015-02-16T21:23:16.570Z</time>
      </trkpt>
      <trkpt lat="48.87081" lon="2.32075">
        <ele>94.6</ele>
        <time>2015-02-16T21:23:17.580Z</time>
      </trkpt>
      <trkpt lat="48.87076" lon="2.3208">
        <ele>94.5</ele>
        <time>2015-02-16T21:23:18.524Z</time>
      </trkpt>
      <trkpt lat="48.87072" lon="2.32086">
        <ele>94.4</ele>
        <time>2015-02-16T21:23:19.625Z</time>
      </trkpt>
      <trkpt lat="48.87068" lon="2.32092">
        <ele>94.3</ele>
        <time>2015-02-16T21:23:20.578Z</time>
      </trkpt>
      <trkpt lat="48.87065" lon="2.32098">
        <ele>94.1</ele>
        <time>2015-02-16T21:23:21.678Z</time>
      </trkpt>
      <trkpt lat="48.87062" lon="2.32103">
        <ele>94</ele>
        <time>2015-02-16T21:23:22.614Z</time>
      </trkpt>
      <trkpt lat="48.87058" lon="2.32113">
        <ele>93.5</ele>
        <time>2015-02-16T21:23:24.556Z</time>
      </trkpt>
      <trkpt lat="48.87055" lon="2.32119">
        <ele>93.4</ele>
        <time>2015-02-16T21:23:25.575Z</time>
      </trkpt>
      <trkpt lat="48.87053" lon="2.32125">
        <ele>93.3</ele>
        <time>2015-02-16T21:23:26.579Z</time>
      </trkpt>
      <trkpt lat="48.8705" lon="2.32133">
        <ele>92.9</ele>
        <time>2015-02-16T21:23:27.589Z</time>
      </trkpt>
      <trkpt lat="48.87047" lon="2.32139">
        <ele>92.8</ele>
        <time>2015-02-16T21:23:28.531Z</time>
      </trkpt>
      <trkpt lat="48.87045" lon="2.32145">
        <ele>92.8</ele>
        <time>2015-02-16T21:23:29.538Z</time>
      </trkpt>
      <trkpt lat="48.8704" lon="2.32155">
        <ele>92.6</ele>
        <time>2015-02-16T21:23:31.625Z</time>
      </trkpt>
      <trkpt lat="48.87039" lon="2.32162">
        <ele>92.7</ele>
        <time>2015-02-16T21:23:32.546Z</time>
      </trkpt>
      <trkpt lat="48.87037" lon="2.32168">
        <ele>92.6</ele>
        <time>2015-02-16T21:23:33.539Z</time>
      </trkpt>
      <trkpt lat="48.87035" lon="2.32175">
        <ele>92.8</ele>
        <time>2015-02-16T21:23:34.554Z</time>
      </trkpt>
      <trkpt lat="48.87032" lon="2.32187">
        <ele>92.7</ele>
        <time>2015-02-16T21:23:36.575Z</time>
      </trkpt>
      <trkpt lat="48.8703" lon="2.32195">
        <ele>92.7</ele>
        <time>2015-02-16T21:23:37.602Z</time>
      </trkpt>
      <trkpt lat="48.87028" lon="2.32202">
        <ele>92.8</ele>
        <time>2015-02-16T21:23:38.616Z</time>
      </trkpt>
      <trkpt lat="48.87029" lon="2.3221">
        <ele>92.7</ele>
        <time>2015-02-16T21:23:39.654Z</time>
      </trkpt>
      <trkpt lat="48.8703" lon="2.32216">
        <ele>92.6</ele>
        <time>2015-02-16T21:23:40.543Z</time>
      </trkpt>
      <trkpt lat="48.87031" lon="2.32229">
        <ele>92.1</ele>
        <time>2015-02-16T21:23:42.561Z</time>
      </trkpt>
      <trkpt lat="48.87034" lon="2.32239">
        <ele>91.3</ele>
        <time>2015-02-16T21:23:43.598Z</time>
      </trkpt>
      <trkpt lat="48.87033" lon="2.32252">
        <ele>90.8</ele>
        <time>2015-02-16T21:23:45.621Z</time>
      </trkpt>
      <trkpt lat="48.87033" lon="2.32257">
        <ele>90.8</ele>
        <time>2015-02-16T21:23:46.546Z</time>
      </trkpt>
      <trkpt lat="48.87024" lon="2.32253">
        <ele>91.9</ele>
        <time>2015-02-16T21:23:56.596Z</time>
      </trkpt>
      <trkpt lat="48.87021" lon="2.32251">
        <ele>92</ele>
        <time>2015-02-16T21:23:57.608Z</time>
      </trkpt>
      <trkpt lat="48.87014" lon="2.32247">
        <ele>91.7</ele>
        <time>2015-02-16T21:23:59.534Z</time>
      </trkpt>
      <trkpt lat="48.87009" lon="2.32244">
        <ele>91.5</ele>
        <time>2015-02-16T21:24:00.587Z</time>
      </trkpt>
      <trkpt lat="48.87003" lon="2.32236">
        <ele>91.7</ele>
        <time>2015-02-16T21:24:02.604Z</time>
      </trkpt>
      <trkpt lat="48.87" lon="2.32232">
        <ele>91.8</ele>
        <time>2015-02-16T21:24:03.637Z</time>
      </trkpt>
      <trkpt lat="48.86992" lon="2.32225">
        <ele>92.4</ele>
        <time>2015-02-16T21:24:05.535Z</time>
      </trkpt>
      <trkpt lat="48.86988" lon="2.32223">
        <ele>92.7</ele>
        <time>2015-02-16T21:24:06.544Z</time>
      </trkpt>
      <trkpt lat="48.86983" lon="2.32222">
        <ele>92.9</ele>
        <time>2015-02-16T21:24:07.586Z</time>
      </trkpt>
      <trkpt lat="48.86979" lon="2.32221">
        <ele>93.5</ele>
        <time>2015-02-16T21:24:08.601Z</time>
      </trkpt>
      <trkpt lat="48.8697" lon="2.32216">
        <ele>93.6</ele>
        <time>2015-02-16T21:24:10.530Z</time>
      </trkpt>
      <trkpt lat="48.86966" lon="2.32214">
        <ele>93.7</ele>
        <time>2015-02-16T21:24:11.542Z</time>
      </trkpt>
      <trkpt lat="48.86962" lon="2.32211">
        <ele>93.8</ele>
        <time>2015-02-16T21:24:12.607Z</time>
      </trkpt>
      <trkpt lat="48.86959" lon="2.32206">
        <ele>93.8</ele>
        <time>2015-02-16T21:24:13.633Z</time>
      </trkpt>
      <trkpt lat="48.86955" lon="2.32202">
        <ele>93.9</ele>
        <time>2015-02-16T21:24:14.521Z</time>
      </trkpt>
      <trkpt lat="48.86951" lon="2.32197">
        <ele>93.9</ele>
        <time>2015-02-16T21:24:15.556Z</time>
      </trkpt>
      <trkpt lat="48.86947" lon="2.32191">
        <ele>93.9</ele>
        <time>2015-02-16T21:24:16.562Z</time>
      </trkpt>
      <trkpt lat="48.86945" lon="2.32186">
        <ele>94</ele>
        <time>2015-02-16T21:24:17.566Z</time>
      </trkpt>
      <trkpt lat="48.86939" lon="2.32178">
        <ele>94.1</ele>
        <time>2015-02-16T21:24:19.592Z</time>
      </trkpt>
      <trkpt lat="48.86935" lon="2.32175">
        <ele>94.1</ele>
        <time>2015-02-16T21:24:20.597Z</time>
      </trkpt>
      <trkpt lat="48.86929" lon="2.32168">
        <ele>94</ele>
        <time>2015-02-16T21:24:23.583Z</time>
      </trkpt>
      <trkpt lat="48.86926" lon="2.32163">
        <ele>94</ele>
        <time>2015-02-16T21:24:24.663Z</time>
      </trkpt>
      <trkpt lat="48.86921" lon="2.32153">
        <ele>94.3</ele>
        <time>2015-02-16T21:24:26.632Z</time>
      </trkpt>
      <trkpt lat="48.86919" lon="2.32148">
        <ele>94.6</ele>
        <time>2015-02-16T21:24:27.546Z</time>
      </trkpt>
      <trkpt lat="48.8691" lon="2.32146">
        <ele>94.1</ele>
        <time>2015-02-16T21:24:30.605Z</time>
      </trkpt>
      <trkpt lat="48.86907" lon="2.32148">
        <ele>94.1</ele>
        <time>2015-02-16T21:24:31.619Z</time>
      </trkpt>
      <trkpt lat="48.86902" lon="2.32156">
        <ele>94.3</ele>
        <time>2015-02-16T21:24:32.565Z</time>
      </trkpt>
      <trkpt lat="48.86897" lon="2.32165">
        <ele>94.4</ele>
        <time>2015-02-16T21:24:33.557Z</time>
      </trkpt>
      <trkpt lat="48.86893" lon="2.32173">
        <ele>94.7</ele>
        <time>2015-02-16T21:24:34.584Z</time>
      </trkpt>
      <trkpt lat="48.8689" lon="2.32179">
        <ele>94.9</ele>
        <time>2015-02-16T21:24:35.561Z</time>
      </trkpt>
      <trkpt lat="48.86888" lon="2.32185">
        <ele>95</ele>
        <time>2015-02-16T21:24:36.571Z</time>
      </trkpt>
      <trkpt lat="48.86885" lon="2.32191">
        <ele>95.2</ele>
        <time>2015-02-16T21:24:37.606Z</time>
      </trkpt>
      <trkpt lat="48.86882" lon="2.32198">
        <ele>95.4</ele>
        <time>2015-02-16T21:24:38.541Z</time>
      </trkpt>
      <trkpt lat="48.86879" lon="2.32205">
        <ele>95.7</ele>
        <time>2015-02-16T21:24:39.539Z</time>
      </trkpt>
      <trkpt lat="48.86877" lon="2.32213">
        <ele>95.9</ele>
        <time>2015-02-16T21:24:40.550Z</time>
      </trkpt>
      <trkpt lat="48.86875" lon="2.32221">
        <ele>95.9</ele>
        <time>2015-02-16T21:24:41.612Z</time>
      </trkpt>
      <trkpt lat="48.86871" lon="2.32229">
        <ele>95.8</ele>
        <time>2015-02-16T21:24:42.536Z</time>
      </trkpt>
      <trkpt lat="48.86868" lon="2.32235">
        <ele>96.1</ele>
        <time>2015-02-16T21:24:43.562Z</time>
      </trkpt>
      <trkpt lat="48.86864" lon="2.32242">
        <ele>96.2</ele>
        <time>2015-02-16T21:24:44.627Z</time>
      </trkpt>
      <trkpt lat="48.8686" lon="2.32248">
        <ele>96</ele>
        <time>2015-02-16T21:24:45.563Z</time>
      </trkpt>
      <trkpt lat="48.86857" lon="2.32253">
        <ele>95.9</ele>
        <time>2015-02-16T21:24:46.537Z</time>
      </trkpt>
      <trkpt lat="48.86854" lon="2.32259">
        <ele>95.5</ele>
        <time>2015-02-16T21:24:47.547Z</time>
      </trkpt>
      <trkpt lat="48.86851" lon="2.32266">
        <ele>94.6</ele>
        <time>2015-02-16T21:24:48.564Z</time>
      </trkpt>
      <trkpt lat="48.86847" lon="2.32272">
        <ele>93.9</ele>
        <time>2015-02-16T21:24:49.593Z</time>
      </trkpt>
      <trkpt lat="48.86846" lon="2.32283">
        <ele>92.5</ele>
        <time>2015-02-16T21:24:51.607Z</time>
      </trkpt>
      <trkpt lat="48.86844" lon="2.32288">
        <ele>91.5</ele>
        <time>2015-02-16T21:24:52.553Z</time>
      </trkpt>
      <trkpt lat="48.86846" lon="2.32302">
        <ele>91.2</ele>
        <time>2015-02-16T21:24:55.603Z</time>
      </trkpt>
      <trkpt lat="48.86847" lon="2.32306">
        <ele>91.1</ele>
        <time>2015-02-16T21:24:56.615Z</time>
      </trkpt>
      <trkpt lat="48.86846" lon="2.32319">
        <ele>91.3</ele>
        <time>2015-02-16T21:24:59.591Z</time>
      </trkpt>
      <trkpt lat="48.86845" lon="2.32322">
        <ele>91.5</ele>
        <time>2015-02-16T21:25:00.578Z</time>
      </trkpt>
      <trkpt lat="48.86841" lon="2.32333">
        <ele>92.1</ele>
        <time>2015-02-16T21:25:04.672Z</time>
      </trkpt>
      <trkpt lat="48.86841" lon="2.32336">
        <ele>92.6</ele>
        <time>2015-02-16T21:25:05.561Z</time>
      </trkpt>
      <trkpt lat="48.86836" lon="2.32346">
        <ele>93.3</ele>
        <time>2015-02-16T21:25:08.523Z</time>
      </trkpt>
      <trkpt lat="48.86834" lon="2.3235">
        <ele>93.6</ele>
        <time>2015-02-16T21:25:09.551Z</time>
      </trkpt>
      <trkpt lat="48.86831" lon="2.3236">
        <ele>94.2</ele>
        <time>2015-02-16T21:25:11.674Z</time>
      </trkpt>
      <trkpt lat="48.86829" lon="2.32364">
        <ele>94.4</ele>
        <time>2015-02-16T21:25:12.540Z</time>
      </trkpt>
      <trkpt lat="48.86827" lon="2.32374">
        <ele>95.1</ele>
        <time>2015-02-16T21:25:14.569Z</time>
      </trkpt>
      <trkpt lat="48.86826" lon="2.32379">
        <ele>95.3</ele>
        <time>2015-02-16T21:25:15.608Z</time>
      </trkpt>
      <trkpt lat="48.86822" lon="2.32389">
        <ele>96</ele>
        <time>2015-02-16T21:25:17.540Z</time>
      </trkpt>
      <trkpt lat="48.8682" lon="2.32394">
        <ele>96.1</ele>
        <time>2015-02-16T21:25:18.558Z</time>
      </trkpt>
      <trkpt lat="48.86817" lon="2.32399">
        <ele>95.9</ele>
        <time>2015-02-16T21:25:19.583Z</time>
      </trkpt>
      <trkpt lat="48.86814" lon="2.32405">
        <ele>95.9</ele>
        <time>2015-02-16T21:25:20.588Z</time>
      </trkpt>
      <trkpt lat="48.86811" lon="2.32417">
        <ele>95.8</ele>
        <time>2015-02-16T21:25:22.628Z</time>
      </trkpt>
      <trkpt lat="48.8681" lon="2.32423">
        <ele>95.9</ele>
        <time>2015-02-16T21:25:23.636Z</time>
      </trkpt>
      <trkpt lat="48.86808" lon="2.32434">
        <ele>96.4</ele>
        <time>2015-02-16T21:25:25.584Z</time>
      </trkpt>
      <trkpt lat="48.86807" lon="2.32439">
        <ele>96.5</ele>
        <time>2015-02-16T21:25:26.590Z</time>
      </trkpt>
      <trkpt lat="48.86803" lon="2.32447">
        <ele>96.9</ele>
        <time>2015-02-16T21:25:28.538Z</time>
      </trkpt>
      <trkpt lat="48.86801" lon="2.32451">
        <ele>97.1</ele>
        <time>2015-02-16T21:25:29.556Z</time>
      </trkpt>
      <trkpt lat="48.86795" lon="2.3246">
        <ele>97.4</ele>
        <time>2015-02-16T21:25:31.598Z</time>
      </trkpt>
      <trkpt lat="48.86792" lon="2.32464">
        <ele>97.5</ele>
        <time>2015-02-16T21:25:32.759Z</time>
      </trkpt>
      <trkpt lat="48.86788" lon="2.32474">
        <ele>97.7</ele>
        <time>2015-02-16T21:25:34.554Z</time>
      </trkpt>
      <trkpt lat="48.86784" lon="2.3248">
        <ele>97.5</ele>
        <time>2015-02-16T21:25:35.585Z</time>
      </trkpt>
      <trkpt lat="48.8678" lon="2.32488">
        <ele>97.2</ele>
        <time>2015-02-16T21:25:36.602Z</time>
      </trkpt>
      <trkpt lat="48.86777" lon="2.32494">
        <ele>97</ele>
        <time>2015-02-16T21:25:37.605Z</time>
      </trkpt>
      <trkpt lat="48.86775" lon="2.32501">
        <ele>96.9</ele>
        <time>2015-02-16T21:25:38.627Z</time>
      </trkpt>
      <trkpt lat="48.86773" lon="2.32508">
        <ele>96.6</ele>
        <time>2015-02-16T21:25:39.545Z</time>
      </trkpt>
      <trkpt lat="48.86771" lon="2.32514">
        <ele>96.6</ele>
        <time>2015-02-16T21:25:40.540Z</time>
      </trkpt>
      <trkpt lat="48.86768" lon="2.32519">
        <ele>96.8</ele>
        <time>2015-02-16T21:25:41.540Z</time>
      </trkpt>
      <trkpt lat="48.86763" lon="2.32529">
        <ele>96.8</ele>
        <time>2015-02-16T21:25:43.560Z</time>
      </trkpt>
      <trkpt lat="48.8676" lon="2.32537">
        <ele>96.2</ele>
        <time>2015-02-16T21:25:44.598Z</time>
      </trkpt>
      <trkpt lat="48.86756" lon="2.32547">
        <ele>96.1</ele>
        <time>2015-02-16T21:25:46.556Z</time>
      </trkpt>
      <trkpt lat="48.86753" lon="2.32552">
        <ele>96.2</ele>
        <time>2015-02-16T21:25:47.553Z</time>
      </trkpt>
      <trkpt lat="48.8675" lon="2.32557">
        <ele>96.2</ele>
        <time>2015-02-16T21:25:48.646Z</time>
      </trkpt>
      <trkpt lat="48.86748" lon="2.32563">
        <ele>96.3</ele>
        <time>2015-02-16T21:25:49.575Z</time>
      </trkpt>
      <trkpt lat="48.86746" lon="2.32571">
        <ele>96.1</ele>
        <time>2015-02-16T21:25:50.546Z</time>
      </trkpt>
      <trkpt lat="48.86745" lon="2.32579">
        <ele>95.9</ele>
        <time>2015-02-16T21:25:51.550Z</time>
      </trkpt>
      <trkpt lat="48.86743" lon="2.32587">
        <ele>95.9</ele>
        <time>2015-02-16T21:25:52.596Z</time>
      </trkpt>
      <trkpt lat="48.86743" lon="2.32593">
        <ele>96.3</ele>
        <time>2015-02-16T21:25:53.609Z</time>
      </trkpt>
      <trkpt lat="48.86744" lon="2.32606">
        <ele>97.3</ele>
        <time>2015-02-16T21:25:55.660Z</time>
      </trkpt>
      <trkpt lat="48.86743" lon="2.32612">
        <ele>97.2</ele>
        <time>2015-02-16T21:25:56.620Z</time>
      </trkpt>
      <trkpt lat="48.8674" lon="2.32622">
        <ele>97.5</ele>
        <time>2015-02-16T21:25:58.558Z</time>
      </trkpt>
      <trkpt lat="48.86738" lon="2.32627">
        <ele>97.8</ele>
        <time>2015-02-16T21:25:59.624Z</time>
      </trkpt>
      <trkpt lat="48.86736" lon="2.32638">
        <ele>97.7</ele>
        <time>2015-02-16T21:26:01.630Z</time>
      </trkpt>
      <trkpt lat="48.86735" lon="2.32644">
        <ele>97.6</ele>
        <time>2015-02-16T21:26:02.554Z</time>
      </trkpt>
      <trkpt lat="48.86732" lon="2.32656">
        <ele>97.7</ele>
        <time>2015-02-16T21:26:04.611Z</time>
      </trkpt>
      <trkpt lat="48.8673" lon="2.32662">
        <ele>97.9</ele>
        <time>2015-02-16T21:26:05.555Z</time>
      </trkpt>
      <trkpt lat="48.86728" lon="2.32668">
        <ele>98.1</ele>
        <time>2015-02-16T21:26:06.583Z</time>
      </trkpt>
      <trkpt lat="48.86726" lon="2.32674">
        <ele>98.1</ele>
        <time>2015-02-16T21:26:07.598Z</time>
      </trkpt>
      <trkpt lat="48.86724" lon="2.32686">
        <ele>97.6</ele>
        <time>2015-02-16T21:26:09.551Z</time>
      </trkpt>
      <trkpt lat="48.86722" lon="2.32692">
        <ele>97.5</ele>
        <time>2015-02-16T21:26:10.558Z</time>
      </trkpt>
      <trkpt lat="48.86719" lon="2.32699">
        <ele>97.3</ele>
        <time>2015-02-16T21:26:11.577Z</time>
      </trkpt>
      <trkpt lat="48.86716" lon="2.32705">
        <ele>97.1</ele>
        <time>2015-02-16T21:26:12.582Z</time>
      </trkpt>
      <trkpt lat="48.86714" lon="2.32711">
        <ele>97</ele>
        <time>2015-02-16T21:26:13.588Z</time>
      </trkpt>
      <trkpt lat="48.86712" lon="2.32717">
        <ele>96.8</ele>
        <time>2015-02-16T21:26:14.597Z</time>
      </trkpt>
      <trkpt lat="48.86709" lon="2.32723">
        <ele>96.8</ele>
        <time>2015-02-16T21:26:15.664Z</time>
      </trkpt>
      <trkpt lat="48.86706" lon="2.32729">
        <ele>96.7</ele>
        <time>2015-02-16T21:26:16.552Z</time>
      </trkpt>
      <trkpt lat="48.86702" lon="2.32735">
        <ele>96.7</ele>
        <time>2015-02-16T21:26:17.556Z</time>
      </trkpt>
      <trkpt lat="48.86699" lon="2.32741">
        <ele>96.7</ele>
        <time>2015-02-16T21:26:18.559Z</time>
      </trkpt>
      <trkpt lat="48.86696" lon="2.32747">
        <ele>96.7</ele>
        <time>2015-02-16T21:26:19.576Z</time>
      </trkpt>
      <trkpt lat="48.86693" lon="2.32754">
        <ele>96.6</ele>
        <time>2015-02-16T21:26:20.570Z</time>
      </trkpt>
      <trkpt lat="48.8669" lon="2.32765">
        <ele>96.5</ele>
        <time>2015-02-16T21:26:22.583Z</time>
      </trkpt>
      <trkpt lat="48.86687" lon="2.32771">
        <ele>96.6</ele>
        <time>2015-02-16T21:26:23.592Z</time>
      </trkpt>
      <trkpt lat="48.86685" lon="2.32783">
        <ele>96.9</ele>
        <time>2015-02-16T21:26:25.610Z</time>
      </trkpt>
      <trkpt lat="48.86684" lon="2.32788">
        <ele>96.7</ele>
        <time>2015-02-16T21:26:26.582Z</time>
      </trkpt>
      <trkpt lat="48.86681" lon="2.32799">
        <ele>96.8</ele>
        <time>2015-02-16T21:26:28.555Z</time>
      </trkpt>
      <trkpt lat="48.86678" lon="2.32803">
        <ele>97.1</ele>
        <time>2015-02-16T21:26:29.616Z</time>
      </trkpt>
      <trkpt lat="48.86675" lon="2.32812">
        <ele>96.8</ele>
        <time>2015-02-16T21:26:31.573Z</time>
      </trkpt>
      <trkpt lat="48.86674" lon="2.32818">
        <ele>95.8</ele>
        <time>2015-02-16T21:26:32.764Z</time>
      </trkpt>
      <trkpt lat="48.86671" lon="2.32828">
        <ele>94.5</ele>
        <time>2015-02-16T21:26:34.507Z</time>
      </trkpt>
      <trkpt lat="48.86671" lon="2.32833">
        <ele>93.8</ele>
        <time>2015-02-16T21:26:35.555Z</time>
      </trkpt>
      <trkpt lat="48.86669" lon="2.32843">
        <ele>93.4</ele>
        <time>2015-02-16T21:26:38.572Z</time>
      </trkpt>
      <trkpt lat="48.86668" lon="2.32847">
        <ele>93.6</ele>
        <time>2015-02-16T21:26:39.570Z</time>
      </trkpt>
      <trkpt lat="48.86662" lon="2.32856">
        <ele>94</ele>
        <time>2015-02-16T21:26:42.615Z</time>
      </trkpt>
      <trkpt lat="48.86661" lon="2.3286">
        <ele>94.4</ele>
        <time>2015-02-16T21:26:43.630Z</time>
      </trkpt>
      <trkpt lat="48.86658" lon="2.32868">
        <ele>94.9</ele>
        <time>2015-02-16T21:26:45.537Z</time>
      </trkpt>
      <trkpt lat="48.86656" lon="2.32872">
        <ele>95</ele>
        <time>2015-02-16T21:26:46.601Z</time>
      </trkpt>
      <trkpt lat="48.86653" lon="2.32881">
        <ele>95</ele>
        <time>2015-02-16T21:26:48.609Z</time>
      </trkpt>
      <trkpt lat="48.86652" lon="2.32886">
        <ele>95</ele>
        <time>2015-02-16T21:26:49.626Z</time>
      </trkpt>
      <trkpt lat="48.86647" lon="2.32897">
        <ele>95</ele>
        <time>2015-02-16T21:26:51.543Z</time>
      </trkpt>
      <trkpt lat="48.86645" lon="2.32901">
        <ele>95.1</ele>
        <time>2015-02-16T21:26:52.541Z</time>
      </trkpt>
      <trkpt lat="48.8664" lon="2.32911">
        <ele>95.2</ele>
        <time>2015-02-16T21:26:54.560Z</time>
      </trkpt>
      <trkpt lat="48.86638" lon="2.32916">
        <ele>95.3</ele>
        <time>2015-02-16T21:26:55.587Z</time>
      </trkpt>
      <trkpt lat="48.86633" lon="2.32927">
        <ele>95.4</ele>
        <time>2015-02-16T21:26:57.522Z</time>
      </trkpt>
      <trkpt lat="48.86631" lon="2.32932">
        <ele>95.4</ele>
        <time>2015-02-16T21:26:58.568Z</time>
      </trkpt>
      <trkpt lat="48.86626" lon="2.3294">
        <ele>95.5</ele>
        <time>2015-02-16T21:27:03.324Z</time>
      </trkpt>
      <trkpt lat="48.86624" lon="2.32947">
        <ele>95.6</ele>
        <time>2015-02-16T21:27:03.341Z</time>
      </trkpt>
      <trkpt lat="48.86618" lon="2.32956">
        <ele>95.7</ele>
        <time>2015-02-16T21:27:05.519Z</time>
      </trkpt>
      <trkpt lat="48.86615" lon="2.3296">
        <ele>95.7</ele>
        <time>2015-02-16T21:27:06.549Z</time>
      </trkpt>
      <trkpt lat="48.8661" lon="2.32969">
        <ele>96</ele>
        <time>2015-02-16T21:27:09.554Z</time>
      </trkpt>
      <trkpt lat="48.86609" lon="2.32972">
        <ele>96.2</ele>
        <time>2015-02-16T21:27:10.549Z</time>
      </trkpt>
      <trkpt lat="48.86603" lon="2.3298">
        <ele>96.9</ele>
        <time>2015-02-16T21:27:12.579Z</time>
      </trkpt>
      <trkpt lat="48.86598" lon="2.32985">
        <ele>97.2</ele>
        <time>2015-02-16T21:27:13.618Z</time>
      </trkpt>
      <trkpt lat="48.86595" lon="2.32989">
        <ele>97.5</ele>
        <time>2015-02-16T21:27:14.523Z</time>
      </trkpt>
      <trkpt lat="48.86591" lon="2.32993">
        <ele>97.9</ele>
        <time>2015-02-16T21:27:15.556Z</time>
      </trkpt>
      <trkpt lat="48.86585" lon="2.33003">
        <ele>98.3</ele>
        <time>2015-02-16T21:27:17.554Z</time>
      </trkpt>
      <trkpt lat="48.86582" lon="2.33008">
        <ele>98.5</ele>
        <time>2015-02-16T21:27:18.657Z</time>
      </trkpt>
      <trkpt lat="48.86577" lon="2.33017">
        <ele>98.5</ele>
        <time>2015-02-16T21:27:20.579Z</time>
      </trkpt>
      <trkpt lat="48.86574" lon="2.33023">
        <ele>98.9</ele>
        <time>2015-02-16T21:27:21.583Z</time>
      </trkpt>
      <trkpt lat="48.86568" lon="2.33033">
        <ele>99.5</ele>
        <time>2015-02-16T21:27:23.622Z</time>
      </trkpt>
      <trkpt lat="48.86565" lon="2.33038">
        <ele>99.7</ele>
        <time>2015-02-16T21:27:24.580Z</time>
      </trkpt>
      <trkpt lat="48.86559" lon="2.33048">
        <ele>99.8</ele>
        <time>2015-02-16T21:27:26.593Z</time>
      </trkpt>
      <trkpt lat="48.86555" lon="2.33052">
        <ele>99.8</ele>
        <time>2015-02-16T21:27:27.568Z</time>
      </trkpt>
      <trkpt lat="48.86548" lon="2.3306">
        <ele>100.1</ele>
        <time>2015-02-16T21:27:29.583Z</time>
      </trkpt>
      <trkpt lat="48.86545" lon="2.33063">
        <ele>100.2</ele>
        <time>2015-02-16T21:27:30.643Z</time>
      </trkpt>
      <trkpt lat="48.86539" lon="2.3307">
        <ele>100.4</ele>
        <time>2015-02-16T21:27:32.519Z</time>
      </trkpt>
      <trkpt lat="48.86538" lon="2.33073">
        <ele>100.4</ele>
        <time>2015-02-16T21:27:33.639Z</time>
      </trkpt>
      <trkpt lat="48.86535" lon="2.33081">
        <ele>100.3</ele>
        <time>2015-02-16T21:27:36.535Z</time>
      </trkpt>
      <trkpt lat="48.86534" lon="2.33085">
        <ele>100.1</ele>
        <time>2015-02-16T21:27:36.612Z</time>
      </trkpt>
      <trkpt lat="48.8653" lon="2.33091">
        <ele>100.2</ele>
        <time>2015-02-16T21:27:37.638Z</time>
      </trkpt>
      <trkpt lat="48.86527" lon="2.33096">
        <ele>100.1</ele>
        <time>2015-02-16T21:27:38.556Z</time>
      </trkpt>
      <trkpt lat="48.86522" lon="2.33104">
        <ele>100</ele>
        <time>2015-02-16T21:27:40.580Z</time>
      </trkpt>
      <trkpt lat="48.8652" lon="2.33109">
        <ele>100</ele>
        <time>2015-02-16T21:27:41.596Z</time>
      </trkpt>
      <trkpt lat="48.86518" lon="2.33115">
        <ele>100.1</ele>
        <time>2015-02-16T21:27:42.617Z</time>
      </trkpt>
      <trkpt lat="48.86515" lon="2.3312">
        <ele>100.1</ele>
        <time>2015-02-16T21:27:43.637Z</time>
      </trkpt>
      <trkpt lat="48.86511" lon="2.33131">
        <ele>99.7</ele>
        <time>2015-02-16T21:27:45.827Z</time>
      </trkpt>
      <trkpt lat="48.86508" lon="2.33136">
        <ele>99.6</ele>
        <time>2015-02-16T21:27:46.631Z</time>
      </trkpt>
      <trkpt lat="48.86506" lon="2.33142">
        <ele>99.6</ele>
        <time>2015-02-16T21:27:47.546Z</time>
      </trkpt>
      <trkpt lat="48.86505" lon="2.3315">
        <ele>99.4</ele>
        <time>2015-02-16T21:27:48.546Z</time>
      </trkpt>
      <trkpt lat="48.86503" lon="2.33158">
        <ele>98.9</ele>
        <time>2015-02-16T21:27:49.559Z</time>
      </trkpt>
      <trkpt lat="48.86501" lon="2.33164">
        <ele>99.1</ele>
        <time>2015-02-16T21:27:50.577Z</time>
      </trkpt>
      <trkpt lat="48.86497" lon="2.33172">
        <ele>99.6</ele>
        <time>2015-02-16T21:27:52.552Z</time>
      </trkpt>
      <trkpt lat="48.86495" lon="2.33177">
        <ele>99.6</ele>
        <time>2015-02-16T21:27:53.554Z</time>
      </trkpt>
      <trkpt lat="48.86491" lon="2.33189">
        <ele>98.8</ele>
        <time>2015-02-16T21:27:56.069Z</time>
      </trkpt>
      <trkpt lat="48.86487" lon="2.332">
        <ele>97.5</ele>
        <time>2015-02-16T21:27:56.535Z</time>
      </trkpt>
      <trkpt lat="48.86485" lon="2.33207">
        <ele>97.1</ele>
        <time>2015-02-16T21:27:57.581Z</time>
      </trkpt>
      <trkpt lat="48.86488" lon="2.33217">
        <ele>97.9</ele>
        <time>2015-02-16T21:27:58.592Z</time>
      </trkpt>
      <trkpt lat="48.86487" lon="2.33225">
        <ele>98.4</ele>
        <time>2015-02-16T21:27:59.601Z</time>
      </trkpt>
      <trkpt lat="48.86485" lon="2.33231">
        <ele>98.7</ele>
        <time>2015-02-16T21:28:00.615Z</time>
      </trkpt>
      <trkpt lat="48.86481" lon="2.33235">
        <ele>98.6</ele>
        <time>2015-02-16T21:28:01.580Z</time>
      </trkpt>
      <trkpt lat="48.86475" lon="2.33241">
        <ele>98.9</ele>
        <time>2015-02-16T21:28:02.582Z</time>
      </trkpt>
      <trkpt lat="48.86471" lon="2.33246">
        <ele>99.3</ele>
        <time>2015-02-16T21:28:03.558Z</time>
      </trkpt>
      <trkpt lat="48.86467" lon="2.3325">
        <ele>99.7</ele>
        <time>2015-02-16T21:28:04.563Z</time>
      </trkpt>
      <trkpt lat="48.86463" lon="2.33255">
        <ele>100</ele>
        <time>2015-02-16T21:28:05.591Z</time>
      </trkpt>
      <trkpt lat="48.86458" lon="2.3326">
        <ele>100.3</ele>
        <time>2015-02-16T21:28:06.602Z</time>
      </trkpt>
      <trkpt lat="48.86455" lon="2.33265">
        <ele>100.5</ele>
        <time>2015-02-16T21:28:08.357Z</time>
      </trkpt>
      <trkpt lat="48.86451" lon="2.33269">
        <ele>100.6</ele>
        <time>2015-02-16T21:28:08.527Z</time>
      </trkpt>
      <trkpt lat="48.86448" lon="2.33275">
        <ele>100.6</ele>
        <time>2015-02-16T21:28:09.559Z</time>
      </trkpt>
      <trkpt lat="48.86445" lon="2.3328">
        <ele>100.8</ele>
        <time>2015-02-16T21:28:10.568Z</time>
      </trkpt>
      <trkpt lat="48.86442" lon="2.33287">
        <ele>100.8</ele>
        <time>2015-02-16T21:28:11.573Z</time>
      </trkpt>
      <trkpt lat="48.86438" lon="2.33292">
        <ele>101</ele>
        <time>2015-02-16T21:28:12.591Z</time>
      </trkpt>
      <trkpt lat="48.86434" lon="2.33299">
        <ele>101.2</ele>
        <time>2015-02-16T21:28:13.618Z</time>
      </trkpt>
      <trkpt lat="48.86429" lon="2.33304">
        <ele>101.3</ele>
        <time>2015-02-16T21:28:14.634Z</time>
      </trkpt>
      <trkpt lat="48.86426" lon="2.33309">
        <ele>101.4</ele>
        <time>2015-02-16T21:28:16.365Z</time>
      </trkpt>
      <trkpt lat="48.86422" lon="2.33315">
        <ele>101.6</ele>
        <time>2015-02-16T21:28:16.528Z</time>
      </trkpt>
      <trkpt lat="48.86417" lon="2.33324">
        <ele>101.6</ele>
        <time>2015-02-16T21:28:18.620Z</time>
      </trkpt>
      <trkpt lat="48.86414" lon="2.33328">
        <ele>101.6</ele>
        <time>2015-02-16T21:28:19.651Z</time>
      </trkpt>
      <trkpt lat="48.86408" lon="2.33337">
        <ele>101.8</ele>
        <time>2015-02-16T21:28:21.550Z</time>
      </trkpt>
      <trkpt lat="48.86405" lon="2.33346">
        <ele>101.2</ele>
        <time>2015-02-16T21:28:22.576Z</time>
      </trkpt>
      <trkpt lat="48.86402" lon="2.33355">
        <ele>100.3</ele>
        <time>2015-02-16T21:28:23.825Z</time>
      </trkpt>
      <trkpt lat="48.864" lon="2.33369">
        <ele>100.1</ele>
        <time>2015-02-16T21:28:25.589Z</time>
      </trkpt>
      <trkpt lat="48.86399" lon="2.33377">
        <ele>100.2</ele>
        <time>2015-02-16T21:28:26.585Z</time>
      </trkpt>
      <trkpt lat="48.864" lon="2.33383">
        <ele>100</ele>
        <time>2015-02-16T21:28:27.590Z</time>
      </trkpt>
      <trkpt lat="48.86397" lon="2.33396">
        <ele>101.7</ele>
        <time>2015-02-16T21:28:31.655Z</time>
      </trkpt>
      <trkpt lat="48.86399" lon="2.33399">
        <ele>103.8</ele>
        <time>2015-02-16T21:28:32.559Z</time>
      </trkpt>
      <trkpt lat="48.86395" lon="2.33409">
        <ele>108</ele>
        <time>2015-02-16T21:28:38.806Z</time>
      </trkpt>
      <trkpt lat="48.86393" lon="2.33411">
        <ele>108.1</ele>
        <time>2015-02-16T21:28:39.555Z</time>
      </trkpt>
      <trkpt lat="48.86387" lon="2.33417">
        <ele>108.3</ele>
        <time>2015-02-16T21:28:42.617Z</time>
      </trkpt>
      <trkpt lat="48.86386" lon="2.3342">
        <ele>108.2</ele>
        <time>2015-02-16T21:28:43.696Z</time>
      </trkpt>
      <trkpt lat="48.86381" lon="2.3343">
        <ele>106.4</ele>
        <time>2015-02-16T21:28:45.838Z</time>
      </trkpt>
      <trkpt lat="48.86379" lon="2.33436">
        <ele>105.4</ele>
        <time>2015-02-16T21:28:46.563Z</time>
      </trkpt>
      <trkpt lat="48.86377" lon="2.33444">
        <ele>101.5</ele>
        <time>2015-02-16T21:28:47.589Z</time>
      </trkpt>
      <trkpt lat="48.86376" lon="2.33449">
        <ele>100.2</ele>
        <time>2015-02-16T21:28:48.609Z</time>
      </trkpt>
      <trkpt lat="48.86373" lon="2.33462">
        <ele>98.4</ele>
        <time>2015-02-16T21:28:51.564Z</time>
      </trkpt>
      <trkpt lat="48.86372" lon="2.33466">
        <ele>98.2</ele>
        <time>2015-02-16T21:28:52.581Z</time>
      </trkpt>
      <trkpt lat="48.86368" lon="2.33477">
        <ele>96.4</ele>
        <time>2015-02-16T21:28:55.890Z</time>
      </trkpt>
      <trkpt lat="48.86367" lon="2.33481">
        <ele>96</ele>
        <time>2015-02-16T21:28:56.633Z</time>
      </trkpt>
      <trkpt lat="48.86362" lon="2.33489">
        <ele>95.4</ele>
        <time>2015-02-16T21:28:58.546Z</time>
      </trkpt>
      <trkpt lat="48.86361" lon="2.33494">
        <ele>94.8</ele>
        <time>2015-02-16T21:28:59.607Z</time>
      </trkpt>
      <trkpt lat="48.86356" lon="2.33503">
        <ele>94.3</ele>
        <time>2015-02-16T21:29:01.648Z</time>
      </trkpt>
      <trkpt lat="48.86353" lon="2.33508">
        <ele>93.9</ele>
        <time>2015-02-16T21:29:02.606Z</time>
      </trkpt>
      <trkpt lat="48.8635" lon="2.33516">
        <ele>93.4</ele>
        <time>2015-02-16T21:29:04.533Z</time>
      </trkpt>
      <trkpt lat="48.86348" lon="2.3352">
        <ele>93.2</ele>
        <time>2015-02-16T21:29:05.556Z</time>
      </trkpt>
      <trkpt lat="48.86343" lon="2.33528">
        <ele>92.9</ele>
        <time>2015-02-16T21:29:07.602Z</time>
      </trkpt>
      <trkpt lat="48.86342" lon="2.33532">
        <ele>92.7</ele>
        <time>2015-02-16T21:29:08.611Z</time>
      </trkpt>
      <trkpt lat="48.86338" lon="2.33542">
        <ele>92.2</ele>
        <time>2015-02-16T21:29:11.555Z</time>
      </trkpt>
      <trkpt lat="48.86335" lon="2.33545">
        <ele>92.6</ele>
        <time>2015-02-16T21:29:12.561Z</time>
      </trkpt>
      <trkpt lat="48.8633" lon="2.33552">
        <ele>93.3</ele>
        <time>2015-02-16T21:29:14.599Z</time>
      </trkpt>
      <trkpt lat="48.86327" lon="2.33556">
        <ele>93.6</ele>
        <time>2015-02-16T21:29:15.627Z</time>
      </trkpt>
      <trkpt lat="48.86324" lon="2.33566">
        <ele>93.8</ele>
        <time>2015-02-16T21:29:18.542Z</time>
      </trkpt>
      <trkpt lat="48.86322" lon="2.33569">
        <ele>94</ele>
        <time>2015-02-16T21:29:19.571Z</time>
      </trkpt>
      <trkpt lat="48.86319" lon="2.33579">
        <ele>94.4</ele>
        <time>2015-02-16T21:29:22.621Z</time>
      </trkpt>
      <trkpt lat="48.86318" lon="2.33582">
        <ele>94.5</ele>
        <time>2015-02-16T21:29:23.649Z</time>
      </trkpt>
      <trkpt lat="48.86316" lon="2.3359">
        <ele>94.6</ele>
        <time>2015-02-16T21:29:26.245Z</time>
      </trkpt>
      <trkpt lat="48.86314" lon="2.33594">
        <ele>94.5</ele>
        <time>2015-02-16T21:29:26.548Z</time>
      </trkpt>
      <trkpt lat="48.86311" lon="2.33605">
        <ele>94.2</ele>
        <time>2015-02-16T21:29:28.543Z</time>
      </trkpt>
      <trkpt lat="48.86308" lon="2.33611">
        <ele>94.3</ele>
        <time>2015-02-16T21:29:29.563Z</time>
      </trkpt>
      <trkpt lat="48.86302" lon="2.33619">
        <ele>94.5</ele>
        <time>2015-02-16T21:29:31.586Z</time>
      </trkpt>
      <trkpt lat="48.863" lon="2.33624">
        <ele>94.6</ele>
        <time>2015-02-16T21:29:32.537Z</time>
      </trkpt>
      <trkpt lat="48.86295" lon="2.33632">
        <ele>94.8</ele>
        <time>2015-02-16T21:29:34.552Z</time>
      </trkpt>
      <trkpt lat="48.86292" lon="2.33638">
        <ele>94.8</ele>
        <time>2015-02-16T21:29:35.553Z</time>
      </trkpt>
      <trkpt lat="48.86285" lon="2.33648">
        <ele>95</ele>
        <time>2015-02-16T21:29:37.592Z</time>
      </trkpt>
      <trkpt lat="48.86282" lon="2.33652">
        <ele>94.9</ele>
        <time>2015-02-16T21:29:38.554Z</time>
      </trkpt>
      <trkpt lat="48.86278" lon="2.33659">
        <ele>94.8</ele>
        <time>2015-02-16T21:29:40.533Z</time>
      </trkpt>
      <trkpt lat="48.86276" lon="2.33663">
        <ele>94.6</ele>
        <time>2015-02-16T21:29:41.649Z</time>
      </trkpt>
      <trkpt lat="48.86274" lon="2.33672">
        <ele>94.3</ele>
        <time>2015-02-16T21:29:43.593Z</time>
      </trkpt>
      <trkpt lat="48.86274" lon="2.33677">
        <ele>94.1</ele>
        <time>2015-02-16T21:29:44.777Z</time>
      </trkpt>
      <trkpt lat="48.86275" lon="2.33688">
        <ele>93.7</ele>
        <time>2015-02-16T21:29:46.552Z</time>
      </trkpt>
      <trkpt lat="48.86274" lon="2.33695">
        <ele>93.3</ele>
        <time>2015-02-16T21:29:47.593Z</time>
      </trkpt>
      <trkpt lat="48.86274" lon="2.33706">
        <ele>92.8</ele>
        <time>2015-02-16T21:29:49.573Z</time>
      </trkpt>
      <trkpt lat="48.86273" lon="2.33712">
        <ele>92.6</ele>
        <time>2015-02-16T21:29:50.603Z</time>
      </trkpt>
      <trkpt lat="48.86272" lon="2.33723">
        <ele>92.3</ele>
        <time>2015-02-16T21:29:52.574Z</time>
      </trkpt>
      <trkpt lat="48.86271" lon="2.33729">
        <ele>92.2</ele>
        <time>2015-02-16T21:29:53.590Z</time>
      </trkpt>
      <trkpt lat="48.86269" lon="2.3374">
        <ele>92.1</ele>
        <time>2015-02-16T21:29:55.567Z</time>
      </trkpt>
      <trkpt lat="48.86268" lon="2.33745">
        <ele>92.1</ele>
        <time>2015-02-16T21:29:56.550Z</time>
      </trkpt>
      <trkpt lat="48.86265" lon="2.33756">
        <ele>92.2</ele>
        <time>2015-02-16T21:29:58.538Z</time>
      </trkpt>
      <trkpt lat="48.86264" lon="2.33761">
        <ele>92.3</ele>
        <time>2015-02-16T21:29:59.556Z</time>
      </trkpt>
      <trkpt lat="48.86261" lon="2.33771">
        <ele>92.4</ele>
        <time>2015-02-16T21:30:01.606Z</time>
      </trkpt>
      <trkpt lat="48.8626" lon="2.33775">
        <ele>92.8</ele>
        <time>2015-02-16T21:30:02.629Z</time>
      </trkpt>
      <trkpt lat="48.86256" lon="2.33784">
        <ele>93.2</ele>
        <time>2015-02-16T21:30:04.585Z</time>
      </trkpt>
      <trkpt lat="48.86255" lon="2.33789">
        <ele>93.6</ele>
        <time>2015-02-16T21:30:05.516Z</time>
      </trkpt>
      <trkpt lat="48.86252" lon="2.33799">
        <ele>94.1</ele>
        <time>2015-02-16T21:30:07.614Z</time>
      </trkpt>
      <trkpt lat="48.8625" lon="2.33804">
        <ele>94.5</ele>
        <time>2015-02-16T21:30:08.568Z</time>
      </trkpt>
      <trkpt lat="48.86247" lon="2.33813">
        <ele>95.1</ele>
        <time>2015-02-16T21:30:10.557Z</time>
      </trkpt>
      <trkpt lat="48.86246" lon="2.33817">
        <ele>95.3</ele>
        <time>2015-02-16T21:30:11.635Z</time>
      </trkpt>
      <trkpt lat="48.86243" lon="2.33827">
        <ele>95.6</ele>
        <time>2015-02-16T21:30:13.573Z</time>
      </trkpt>
      <trkpt lat="48.86241" lon="2.33833">
        <ele>95.8</ele>
        <time>2015-02-16T21:30:14.591Z</time>
      </trkpt>
      <trkpt lat="48.86236" lon="2.33843">
        <ele>96.1</ele>
        <time>2015-02-16T21:30:16.531Z</time>
      </trkpt>
      <trkpt lat="48.86233" lon="2.33848">
        <ele>96.1</ele>
        <time>2015-02-16T21:30:17.570Z</time>
      </trkpt>
      <trkpt lat="48.86231" lon="2.33855">
        <ele>95.8</ele>
        <time>2015-02-16T21:30:18.581Z</time>
      </trkpt>
      <trkpt lat="48.86228" lon="2.33862">
        <ele>95.7</ele>
        <time>2015-02-16T21:30:19.590Z</time>
      </trkpt>
      <trkpt lat="48.86225" lon="2.3387">
        <ele>95.6</ele>
        <time>2015-02-16T21:30:20.537Z</time>
      </trkpt>
      <trkpt lat="48.86223" lon="2.33877">
        <ele>95.6</ele>
        <time>2015-02-16T21:30:21.551Z</time>
      </trkpt>
      <trkpt lat="48.86224" lon="2.3389">
        <ele>95.1</ele>
        <time>2015-02-16T21:30:23.594Z</time>
      </trkpt>
      <trkpt lat="48.86224" lon="2.33897">
        <ele>94.7</ele>
        <time>2015-02-16T21:30:24.684Z</time>
      </trkpt>
      <trkpt lat="48.86222" lon="2.33908">
        <ele>94.9</ele>
        <time>2015-02-16T21:30:26.583Z</time>
      </trkpt>
      <trkpt lat="48.86221" lon="2.33914">
        <ele>95.2</ele>
        <time>2015-02-16T21:30:27.598Z</time>
      </trkpt>
      <trkpt lat="48.86217" lon="2.33926">
        <ele>95.6</ele>
        <time>2015-02-16T21:30:29.570Z</time>
      </trkpt>
      <trkpt lat="48.86217" lon="2.33933">
        <ele>96.5</ele>
        <time>2015-02-16T21:30:30.872Z</time>
      </trkpt>
      <trkpt lat="48.86216" lon="2.33942">
        <ele>97.2</ele>
        <time>2015-02-16T21:30:31.560Z</time>
      </trkpt>
      <trkpt lat="48.86214" lon="2.33948">
        <ele>97.4</ele>
        <time>2015-02-16T21:30:32.573Z</time>
      </trkpt>
      <trkpt lat="48.86213" lon="2.3396">
        <ele>96.9</ele>
        <time>2015-02-16T21:30:34.701Z</time>
      </trkpt>
      <trkpt lat="48.86212" lon="2.33966">
        <ele>96.9</ele>
        <time>2015-02-16T21:30:35.774Z</time>
      </trkpt>
      <trkpt lat="48.86209" lon="2.33976">
        <ele>97</ele>
        <time>2015-02-16T21:30:37.644Z</time>
      </trkpt>
      <trkpt lat="48.86206" lon="2.33981">
        <ele>97</ele>
        <time>2015-02-16T21:30:38.705Z</time>
      </trkpt>
      <trkpt lat="48.86201" lon="2.33991">
        <ele>96.7</ele>
        <time>2015-02-16T21:30:41.106Z</time>
      </trkpt>
      <trkpt lat="48.86198" lon="2.33995">
        <ele>96.8</ele>
        <time>2015-02-16T21:30:41.560Z</time>
      </trkpt>
      <trkpt lat="48.86192" lon="2.34003">
        <ele>97</ele>
        <time>2015-02-16T21:30:43.701Z</time>
      </trkpt>
      <trkpt lat="48.86188" lon="2.34007">
        <ele>97.1</ele>
        <time>2015-02-16T21:30:44.834Z</time>
      </trkpt>
      <trkpt lat="48.86185" lon="2.34015">
        <ele>97.4</ele>
        <time>2015-02-16T21:30:46.574Z</time>
      </trkpt>
      <trkpt lat="48.86182" lon="2.3402">
        <ele>97.6</ele>
        <time>2015-02-16T21:30:47.704Z</time>
      </trkpt>
      <trkpt lat="48.86179" lon="2.34031">
        <ele>98</ele>
        <time>2015-02-16T21:30:49.596Z</time>
      </trkpt>
      <trkpt lat="48.86178" lon="2.34037">
        <ele>98.4</ele>
        <time>2015-02-16T21:30:50.640Z</time>
      </trkpt>
      <trkpt lat="48.86177" lon="2.34049">
        <ele>98.6</ele>
        <time>2015-02-16T21:30:52.604Z</time>
      </trkpt>
      <trkpt lat="48.86176" lon="2.34056">
        <ele>98.7</ele>
        <time>2015-02-16T21:30:53.622Z</time>
      </trkpt>
      <trkpt lat="48.86173" lon="2.34062">
        <ele>98.3</ele>
        <time>2015-02-16T21:30:54.799Z</time>
      </trkpt>
      <trkpt lat="48.86172" lon="2.3407">
        <ele>96.8</ele>
        <time>2015-02-16T21:30:55.601Z</time>
      </trkpt>
      <trkpt lat="48.86171" lon="2.3408">
        <ele>97.1</ele>
        <time>2015-02-16T21:30:57.542Z</time>
      </trkpt>
      <trkpt lat="48.86174" lon="2.34086">
        <ele>96.6</ele>
        <time>2015-02-16T21:30:58.600Z</time>
      </trkpt>
      <trkpt lat="48.86171" lon="2.34098">
        <ele>96.7</ele>
        <time>2015-02-16T21:31:02.537Z</time>
      </trkpt>
      <trkpt lat="48.86171" lon="2.34103">
        <ele>96.8</ele>
        <time>2015-02-16T21:31:03.569Z</time>
      </trkpt>
      <trkpt lat="48.86173" lon="2.34115">
        <ele>97.6</ele>
        <time>2015-02-16T21:31:06.750Z</time>
      </trkpt>
      <trkpt lat="48.86171" lon="2.34117">
        <ele>97.4</ele>
        <time>2015-02-16T21:31:07.575Z</time>
      </trkpt>
      <trkpt lat="48.86172" lon="2.34117">
        <ele>97.4</ele>
        <time>2015-02-16T21:31:11.812Z</time>
      </trkpt>
      <trkpt lat="48.86171" lon="2.34117">
        <ele>97.7</ele>
        <time>2015-02-16T21:31:12.555Z</time>
      </trkpt>
      <trkpt lat="48.86171" lon="2.34117">
        <ele>98</ele>
        <time>2015-02-16T21:31:13.595Z</time>
      </trkpt>
      <trkpt lat="48.86164" lon="2.34125">
        <ele>98.9</ele>
        <time>2015-02-16T21:31:25.576Z</time>
      </trkpt>
      <trkpt lat="48.86163" lon="2.34127">
        <ele>98.9</ele>
        <time>2015-02-16T21:31:26.575Z</time>
      </trkpt>
      <trkpt lat="48.86161" lon="2.34138">
        <ele>98.8</ele>
        <time>2015-02-16T21:31:30.614Z</time>
      </trkpt>
      <trkpt lat="48.86159" lon="2.34143">
        <ele>98.8</ele>
        <time>2015-02-16T21:31:30.654Z</time>
      </trkpt>
      <trkpt lat="48.86157" lon="2.34152">
        <ele>98.6</ele>
        <time>2015-02-16T21:31:32.608Z</time>
      </trkpt>
      <trkpt lat="48.86154" lon="2.34157">
        <ele>98.4</ele>
        <time>2015-02-16T21:31:33.657Z</time>
      </trkpt>
      <trkpt lat="48.8615" lon="2.34163">
        <ele>98.2</ele>
        <time>2015-02-16T21:31:34.537Z</time>
      </trkpt>
      <trkpt lat="48.86146" lon="2.34168">
        <ele>97.9</ele>
        <time>2015-02-16T21:31:35.538Z</time>
      </trkpt>
      <trkpt lat="48.86144" lon="2.34174">
        <ele>97.5</ele>
        <time>2015-02-16T21:31:36.529Z</time>
      </trkpt>
      <trkpt lat="48.86141" lon="2.34179">
        <ele>97.2</ele>
        <time>2015-02-16T21:31:37.555Z</time>
      </trkpt>
      <trkpt lat="48.86138" lon="2.3419">
        <ele>96.5</ele>
        <time>2015-02-16T21:31:39.577Z</time>
      </trkpt>
      <trkpt lat="48.86138" lon="2.34197">
        <ele>96.3</ele>
        <time>2015-02-16T21:31:40.564Z</time>
      </trkpt>
      <trkpt lat="48.86136" lon="2.34205">
        <ele>95.1</ele>
        <time>2015-02-16T21:31:41.737Z</time>
      </trkpt>
      <trkpt lat="48.86134" lon="2.34211">
        <ele>95</ele>
        <time>2015-02-16T21:31:42.560Z</time>
      </trkpt>
      <trkpt lat="48.8613" lon="2.34223">
        <ele>94.8</ele>
        <time>2015-02-16T21:31:44.575Z</time>
      </trkpt>
      <trkpt lat="48.86128" lon="2.34227">
        <ele>94.8</ele>
        <time>2015-02-16T21:31:45.597Z</time>
      </trkpt>
      <trkpt lat="48.86127" lon="2.34238">
        <ele>94.7</ele>
        <time>2015-02-16T21:31:47.534Z</time>
      </trkpt>
      <trkpt lat="48.86127" lon="2.34243">
        <ele>94.6</ele>
        <time>2015-02-16T21:31:48.714Z</time>
      </trkpt>
      <trkpt lat="48.86126" lon="2.34255">
        <ele>93.9</ele>
        <time>2015-02-16T21:31:50.564Z</time>
      </trkpt>
      <trkpt lat="48.86126" lon="2.34261">
        <ele>94</ele>
        <time>2015-02-16T21:31:51.611Z</time>
      </trkpt>
      <trkpt lat="48.86128" lon="2.34273">
        <ele>94.8</ele>
        <time>2015-02-16T21:31:54.686Z</time>
      </trkpt>
      <trkpt lat="48.86127" lon="2.34276">
        <ele>95.1</ele>
        <time>2015-02-16T21:31:55.599Z</time>
      </trkpt>
      <trkpt lat="48.86125" lon="2.34286">
        <ele>95.3</ele>
        <time>2015-02-16T21:31:58.579Z</time>
      </trkpt>
      <trkpt lat="48.86123" lon="2.34289">
        <ele>95.3</ele>
        <time>2015-02-16T21:31:59.588Z</time>
      </trkpt>
      <trkpt lat="48.86119" lon="2.343">
        <ele>95.2</ele>
        <time>2015-02-16T21:32:01.608Z</time>
      </trkpt>
      <trkpt lat="48.86118" lon="2.34304">
        <ele>95.2</ele>
        <time>2015-02-16T21:32:02.612Z</time>
      </trkpt>
      <trkpt lat="48.86116" lon="2.34314">
        <ele>95</ele>
        <time>2015-02-16T21:32:04.533Z</time>
      </trkpt>
      <trkpt lat="48.86115" lon="2.3432">
        <ele>94.8</ele>
        <time>2015-02-16T21:32:05.530Z</time>
      </trkpt>
      <trkpt lat="48.86114" lon="2.34327">
        <ele>94.5</ele>
        <time>2015-02-16T21:32:07.225Z</time>
      </trkpt>
      <trkpt lat="48.86113" lon="2.34335">
        <ele>94.1</ele>
        <time>2015-02-16T21:32:07.620Z</time>
      </trkpt>
      <trkpt lat="48.86112" lon="2.34343">
        <ele>93.7</ele>
        <time>2015-02-16T21:32:08.529Z</time>
      </trkpt>
      <trkpt lat="48.8611" lon="2.34351">
        <ele>93.2</ele>
        <time>2015-02-16T21:32:09.542Z</time>
      </trkpt>
      <trkpt lat="48.86108" lon="2.34359">
        <ele>92.9</ele>
        <time>2015-02-16T21:32:10.604Z</time>
      </trkpt>
      <trkpt lat="48.86105" lon="2.34367">
        <ele>92.6</ele>
        <time>2015-02-16T21:32:11.604Z</time>
      </trkpt>
      <trkpt lat="48.86101" lon="2.34374">
        <ele>92.5</ele>
        <time>2015-02-16T21:32:12.614Z</time>
      </trkpt>
      <trkpt lat="48.86098" lon="2.3438">
        <ele>92.6</ele>
        <time>2015-02-16T21:32:13.554Z</time>
      </trkpt>
      <trkpt lat="48.86095" lon="2.34387">
        <ele>92.4</ele>
        <time>2015-02-16T21:32:14.564Z</time>
      </trkpt>
      <trkpt lat="48.86091" lon="2.34397">
        <ele>91.9</ele>
        <time>2015-02-16T21:32:15.581Z</time>
      </trkpt>
      <trkpt lat="48.86087" lon="2.34407">
        <ele>91.7</ele>
        <time>2015-02-16T21:32:17.224Z</time>
      </trkpt>
      <trkpt lat="48.86085" lon="2.34415">
        <ele>91.8</ele>
        <time>2015-02-16T21:32:17.529Z</time>
      </trkpt>
      <trkpt lat="48.86083" lon="2.34426">
        <ele>91.3</ele>
        <time>2015-02-16T21:32:18.537Z</time>
      </trkpt>
      <trkpt lat="48.86081" lon="2.34433">
        <ele>91.5</ele>
        <time>2015-02-16T21:32:19.540Z</time>
      </trkpt>
      <trkpt lat="48.86081" lon="2.3444">
        <ele>91.4</ele>
        <time>2015-02-16T21:32:20.559Z</time>
      </trkpt>
      <trkpt lat="48.8608" lon="2.34447">
        <ele>91.4</ele>
        <time>2015-02-16T21:32:21.569Z</time>
      </trkpt>
      <trkpt lat="48.86082" lon="2.34454">
        <ele>91.4</ele>
        <time>2015-02-16T21:32:22.577Z</time>
      </trkpt>
      <trkpt lat="48.86082" lon="2.34462">
        <ele>92</ele>
        <time>2015-02-16T21:32:23.585Z</time>
      </trkpt>
      <trkpt lat="48.86085" lon="2.34472">
        <ele>93.9</ele>
        <time>2015-02-16T21:32:25.599Z</time>
      </trkpt>
      <trkpt lat="48.86085" lon="2.34475">
        <ele>94.7</ele>
        <time>2015-02-16T21:32:26.617Z</time>
      </trkpt>
      <trkpt lat="48.86081" lon="2.34487">
        <ele>96.1</ele>
        <time>2015-02-16T21:32:30.609Z</time>
      </trkpt>
      <trkpt lat="48.8608" lon="2.34492">
        <ele>96.5</ele>
        <time>2015-02-16T21:32:31.626Z</time>
      </trkpt>
      <trkpt lat="48.86078" lon="2.34503">
        <ele>97.3</ele>
        <time>2015-02-16T21:32:33.552Z</time>
      </trkpt>
      <trkpt lat="48.86078" lon="2.3451">
        <ele>97.8</ele>
        <time>2015-02-16T21:32:34.569Z</time>
      </trkpt>
      <trkpt lat="48.86076" lon="2.34522">
        <ele>98.1</ele>
        <time>2015-02-16T21:32:36.590Z</time>
      </trkpt>
      <trkpt lat="48.86072" lon="2.3453">
        <ele>96.8</ele>
        <time>2015-02-16T21:32:37.549Z</time>
      </trkpt>
      <trkpt lat="48.86069" lon="2.34538">
        <ele>96.1</ele>
        <time>2015-02-16T21:32:38.588Z</time>
      </trkpt>
      <trkpt lat="48.86066" lon="2.34545">
        <ele>95.9</ele>
        <time>2015-02-16T21:32:39.599Z</time>
      </trkpt>
      <trkpt lat="48.86064" lon="2.34553">
        <ele>95.6</ele>
        <time>2015-02-16T21:32:40.532Z</time>
      </trkpt>
      <trkpt lat="48.8606" lon="2.34561">
        <ele>95.1</ele>
        <time>2015-02-16T21:32:41.530Z</time>
      </trkpt>
      <trkpt lat="48.86057" lon="2.3457">
        <ele>95.2</ele>
        <time>2015-02-16T21:32:42.529Z</time>
      </trkpt>
      <trkpt lat="48.86053" lon="2.34576">
        <ele>95.1</ele>
        <time>2015-02-16T21:32:43.572Z</time>
      </trkpt>
      <trkpt lat="48.86049" lon="2.34583">
        <ele>94.9</ele>
        <time>2015-02-16T21:32:44.646Z</time>
      </trkpt>
      <trkpt lat="48.86045" lon="2.34588">
        <ele>94.5</ele>
        <time>2015-02-16T21:32:45.614Z</time>
      </trkpt>
      <trkpt lat="48.86041" lon="2.34592">
        <ele>94</ele>
        <time>2015-02-16T21:32:46.628Z</time>
      </trkpt>
      <trkpt lat="48.86036" lon="2.34596">
        <ele>93.6</ele>
        <time>2015-02-16T21:32:47.554Z</time>
      </trkpt>
      <trkpt lat="48.86032" lon="2.34601">
        <ele>93.3</ele>
        <time>2015-02-16T21:32:48.571Z</time>
      </trkpt>
      <trkpt lat="48.86029" lon="2.34605">
        <ele>92.8</ele>
        <time>2015-02-16T21:32:49.583Z</time>
      </trkpt>
      <trkpt lat="48.86025" lon="2.34609">
        <ele>92.4</ele>
        <time>2015-02-16T21:32:50.587Z</time>
      </trkpt>
      <trkpt lat="48.86021" lon="2.34613">
        <ele>92</ele>
        <time>2015-02-16T21:32:51.593Z</time>
      </trkpt>
      <trkpt lat="48.86017" lon="2.34616">
        <ele>91.8</ele>
        <time>2015-02-16T21:32:52.626Z</time>
      </trkpt>
      <trkpt lat="48.86014" lon="2.34621">
        <ele>91.4</ele>
        <time>2015-02-16T21:32:53.521Z</time>
      </trkpt>
      <trkpt lat="48.8601" lon="2.34625">
        <ele>91.3</ele>
        <time>2015-02-16T21:32:54.548Z</time>
      </trkpt>
      <trkpt lat="48.86006" lon="2.34629">
        <ele>91.3</ele>
        <time>2015-02-16T21:32:55.701Z</time>
      </trkpt>
      <trkpt lat="48.86002" lon="2.34634">
        <ele>91.7</ele>
        <time>2015-02-16T21:32:56.550Z</time>
      </trkpt>
      <trkpt lat="48.85998" lon="2.34638">
        <ele>92.2</ele>
        <time>2015-02-16T21:32:57.551Z</time>
      </trkpt>
      <trkpt lat="48.8599" lon="2.34645">
        <ele>93.1</ele>
        <time>2015-02-16T21:32:59.572Z</time>
      </trkpt>
      <trkpt lat="48.85986" lon="2.34648">
        <ele>93.2</ele>
        <time>2015-02-16T21:33:00.581Z</time>
      </trkpt>
      <trkpt lat="48.85979" lon="2.34655">
        <ele>94.2</ele>
        <time>2015-02-16T21:33:02.616Z</time>
      </trkpt>
      <trkpt lat="48.85976" lon="2.34658">
        <ele>94.6</ele>
        <time>2015-02-16T21:33:03.865Z</time>
      </trkpt>
      <trkpt lat="48.85969" lon="2.34664">
        <ele>95.2</ele>
        <time>2015-02-16T21:33:05.657Z</time>
      </trkpt>
      <trkpt lat="48.85966" lon="2.34667">
        <ele>95.4</ele>
        <time>2015-02-16T21:33:06.586Z</time>
      </trkpt>
      <trkpt lat="48.85961" lon="2.34673">
        <ele>96.2</ele>
        <time>2015-02-16T21:33:08.960Z</time>
      </trkpt>
      <trkpt lat="48.85959" lon="2.34676">
        <ele>96.1</ele>
        <time>2015-02-16T21:33:09.609Z</time>
      </trkpt>
      <trkpt lat="48.85956" lon="2.34685">
        <ele>95.5</ele>
        <time>2015-02-16T21:33:11.683Z</time>
      </trkpt>
      <trkpt lat="48.85955" lon="2.34689">
        <ele>95.4</ele>
        <time>2015-02-16T21:33:12.550Z</time>
      </trkpt>
      <trkpt lat="48.85952" lon="2.347">
        <ele>95.6</ele>
        <time>2015-02-16T21:33:16.623Z</time>
      </trkpt>
      <trkpt lat="48.85951" lon="2.34702">
        <ele>96.2</ele>
        <time>2015-02-16T21:33:17.564Z</time>
      </trkpt>
      <trkpt lat="48.85955" lon="2.34705">
        <ele>101.6</ele>
        <time>2015-02-16T21:33:32.611Z</time>
      </trkpt>
      <trkpt lat="48.85954" lon="2.34706">
        <ele>102.2</ele>
        <time>2015-02-16T21:33:33.511Z</time>
      </trkpt>
      <trkpt lat="48.85953" lon="2.34707">
        <ele>102.7</ele>
        <time>2015-02-16T21:33:48.518Z</time>
      </trkpt>
      <trkpt lat="48.8595" lon="2.34705">
        <ele>105.7</ele>
        <time>2015-02-16T21:33:49.548Z</time>
      </trkpt>
      <trkpt lat="48.85948" lon="2.34705">
        <ele>106.1</ele>
        <time>2015-02-16T21:33:52.522Z</time>
      </trkpt>
      <trkpt lat="48.8595" lon="2.34705">
        <ele>106.7</ele>
        <time>2015-02-16T21:33:53.511Z</time>
      </trkpt>
      <trkpt lat="48.85951" lon="2.34705">
        <ele>106.9</ele>
        <time>2015-02-16T21:33:54.557Z</time>
      </trkpt>
    </trkseg>
  </trk>
</gpx>